<?xml version="1.0" encoding="UTF-8" standalone="no" ?>
<gpx xmlns="http://www.topografix.com/GPX/1/1" xmlns:xsi="http://www.w3.org/2001/XMLSchema-instance" xsi:schemaLocation="http://www.topografix.com/GPX/1/1 http://www.topografix.com/GPX/1/1/gpx.xsd" version="1.1" creator="VisuGPX - https://www.visugpx.com">
  <metadata>
    <name>Champagnat Cyclisme sur route</name>
  </metadata>
  <trk>
    <name><![CDATA[Champagnat Cyclisme sur route_1]]></name>
    <trkseg>
      <trkpt lat="46.4827" lon="5.3684">
        <ele>262</ele>
        <time>2022-05-27T10:40:34Z</time>
      </trkpt>
      <trkpt lat="46.48259" lon="5.36824">
        <ele>261.6</ele>
        <time>2022-05-27T10:40:35Z</time>
      </trkpt>
      <trkpt lat="46.48248" lon="5.36812">
        <ele>260.6</ele>
        <time>2022-05-27T10:40:36Z</time>
      </trkpt>
      <trkpt lat="46.48239" lon="5.36804">
        <ele>260.4</ele>
        <time>2022-05-27T10:40:37Z</time>
      </trkpt>
      <trkpt lat="46.48226" lon="5.36793">
        <ele>259.2</ele>
        <time>2022-05-27T10:40:38Z</time>
      </trkpt>
      <trkpt lat="46.48205" lon="5.36777">
        <ele>257.8</ele>
        <time>2022-05-27T10:40:40Z</time>
      </trkpt>
      <trkpt lat="46.48182" lon="5.36758">
        <ele>256.2</ele>
        <time>2022-05-27T10:40:42Z</time>
      </trkpt>
      <trkpt lat="46.4817" lon="5.36749">
        <ele>255</ele>
        <time>2022-05-27T10:40:43Z</time>
      </trkpt>
      <trkpt lat="46.48147" lon="5.36731">
        <ele>254</ele>
        <time>2022-05-27T10:40:45Z</time>
      </trkpt>
      <trkpt lat="46.48127" lon="5.36715">
        <ele>252.4</ele>
        <time>2022-05-27T10:40:47Z</time>
      </trkpt>
      <trkpt lat="46.48118" lon="5.36708">
        <ele>251.4</ele>
        <time>2022-05-27T10:40:48Z</time>
      </trkpt>
      <trkpt lat="46.48112" lon="5.36702">
        <ele>251</ele>
        <time>2022-05-27T10:40:49Z</time>
      </trkpt>
      <trkpt lat="46.48108" lon="5.36695">
        <ele>250.4</ele>
        <time>2022-05-27T10:40:50Z</time>
      </trkpt>
      <trkpt lat="46.48107" lon="5.36686">
        <ele>250.2</ele>
        <time>2022-05-27T10:40:51Z</time>
      </trkpt>
      <trkpt lat="46.4811" lon="5.36677">
        <ele>249.8</ele>
        <time>2022-05-27T10:40:52Z</time>
      </trkpt>
      <trkpt lat="46.48114" lon="5.36669">
        <ele>249.6</ele>
        <time>2022-05-27T10:40:53Z</time>
      </trkpt>
      <trkpt lat="46.4812" lon="5.36662">
        <ele>249.2</ele>
        <time>2022-05-27T10:40:54Z</time>
      </trkpt>
      <trkpt lat="46.48127" lon="5.36656">
        <ele>248.8</ele>
        <time>2022-05-27T10:40:55Z</time>
      </trkpt>
      <trkpt lat="46.48134" lon="5.36649">
        <ele>247.8</ele>
        <time>2022-05-27T10:40:56Z</time>
      </trkpt>
      <trkpt lat="46.4814" lon="5.36642">
        <ele>246.8</ele>
        <time>2022-05-27T10:40:57Z</time>
      </trkpt>
      <trkpt lat="46.48156" lon="5.36628">
        <ele>245.8</ele>
        <time>2022-05-27T10:40:59Z</time>
      </trkpt>
      <trkpt lat="46.48163" lon="5.36622">
        <ele>245.6</ele>
        <time>2022-05-27T10:41:00Z</time>
      </trkpt>
      <trkpt lat="46.48176" lon="5.36611">
        <ele>245.2</ele>
        <time>2022-05-27T10:41:02Z</time>
      </trkpt>
      <trkpt lat="46.48183" lon="5.36606">
        <ele>245</ele>
        <time>2022-05-27T10:41:03Z</time>
      </trkpt>
      <trkpt lat="46.48191" lon="5.36604">
        <ele>245</ele>
        <time>2022-05-27T10:41:04Z</time>
      </trkpt>
      <trkpt lat="46.48207" lon="5.36598">
        <ele>244.6</ele>
        <time>2022-05-27T10:41:06Z</time>
      </trkpt>
      <trkpt lat="46.48214" lon="5.36592">
        <ele>244.4</ele>
        <time>2022-05-27T10:41:07Z</time>
      </trkpt>
      <trkpt lat="46.48219" lon="5.36584">
        <ele>244.4</ele>
        <time>2022-05-27T10:41:08Z</time>
      </trkpt>
      <trkpt lat="46.48222" lon="5.36574">
        <ele>244.4</ele>
        <time>2022-05-27T10:41:09Z</time>
      </trkpt>
      <trkpt lat="46.48226" lon="5.36565">
        <ele>244.2</ele>
        <time>2022-05-27T10:41:10Z</time>
      </trkpt>
      <trkpt lat="46.48237" lon="5.3655">
        <ele>244</ele>
        <time>2022-05-27T10:41:12Z</time>
      </trkpt>
      <trkpt lat="46.48249" lon="5.36536">
        <ele>243.4</ele>
        <time>2022-05-27T10:41:14Z</time>
      </trkpt>
      <trkpt lat="46.48292" lon="5.36487">
        <ele>242.6</ele>
        <time>2022-05-27T10:41:21Z</time>
      </trkpt>
      <trkpt lat="46.48299" lon="5.3648">
        <ele>242.4</ele>
        <time>2022-05-27T10:41:22Z</time>
      </trkpt>
      <trkpt lat="46.4833" lon="5.36445">
        <ele>241.4</ele>
        <time>2022-05-27T10:41:27Z</time>
      </trkpt>
      <trkpt lat="46.48343" lon="5.36431">
        <ele>240.8</ele>
        <time>2022-05-27T10:41:29Z</time>
      </trkpt>
      <trkpt lat="46.48356" lon="5.36417">
        <ele>240.2</ele>
        <time>2022-05-27T10:41:31Z</time>
      </trkpt>
      <trkpt lat="46.48381" lon="5.36389">
        <ele>239.2</ele>
        <time>2022-05-27T10:41:35Z</time>
      </trkpt>
      <trkpt lat="46.48408" lon="5.36364">
        <ele>238.6</ele>
        <time>2022-05-27T10:41:39Z</time>
      </trkpt>
      <trkpt lat="46.48422" lon="5.36355">
        <ele>238.4</ele>
        <time>2022-05-27T10:41:41Z</time>
      </trkpt>
      <trkpt lat="46.48437" lon="5.36349">
        <ele>238.2</ele>
        <time>2022-05-27T10:41:43Z</time>
      </trkpt>
      <trkpt lat="46.48491" lon="5.36341">
        <ele>237.8</ele>
        <time>2022-05-27T10:41:50Z</time>
      </trkpt>
      <trkpt lat="46.48549" lon="5.36331">
        <ele>237.8</ele>
        <time>2022-05-27T10:41:58Z</time>
      </trkpt>
      <trkpt lat="46.48564" lon="5.36329">
        <ele>237.6</ele>
        <time>2022-05-27T10:42:00Z</time>
      </trkpt>
      <trkpt lat="46.48588" lon="5.36324">
        <ele>237.2</ele>
        <time>2022-05-27T10:42:03Z</time>
      </trkpt>
      <trkpt lat="46.48611" lon="5.36321">
        <ele>236.2</ele>
        <time>2022-05-27T10:42:06Z</time>
      </trkpt>
      <trkpt lat="46.48619" lon="5.36316">
        <ele>236</ele>
        <time>2022-05-27T10:42:07Z</time>
      </trkpt>
      <trkpt lat="46.48627" lon="5.3631">
        <ele>235.6</ele>
        <time>2022-05-27T10:42:08Z</time>
      </trkpt>
      <trkpt lat="46.48635" lon="5.36289">
        <ele>235</ele>
        <time>2022-05-27T10:42:10Z</time>
      </trkpt>
      <trkpt lat="46.48637" lon="5.36276">
        <ele>234.6</ele>
        <time>2022-05-27T10:42:11Z</time>
      </trkpt>
      <trkpt lat="46.4864" lon="5.36253">
        <ele>233.4</ele>
        <time>2022-05-27T10:42:13Z</time>
      </trkpt>
      <trkpt lat="46.48641" lon="5.36239">
        <ele>233</ele>
        <time>2022-05-27T10:42:14Z</time>
      </trkpt>
      <trkpt lat="46.48643" lon="5.36212">
        <ele>232.4</ele>
        <time>2022-05-27T10:42:16Z</time>
      </trkpt>
      <trkpt lat="46.48649" lon="5.36145">
        <ele>231.4</ele>
        <time>2022-05-27T10:42:21Z</time>
      </trkpt>
      <trkpt lat="46.48651" lon="5.36129">
        <ele>231.2</ele>
        <time>2022-05-27T10:42:22Z</time>
      </trkpt>
      <trkpt lat="46.48669" lon="5.36048">
        <ele>230.6</ele>
        <time>2022-05-27T10:42:29Z</time>
      </trkpt>
      <trkpt lat="46.48681" lon="5.35991">
        <ele>231</ele>
        <time>2022-05-27T10:42:35Z</time>
      </trkpt>
      <trkpt lat="46.48689" lon="5.35929">
        <ele>232.4</ele>
        <time>2022-05-27T10:42:41Z</time>
      </trkpt>
      <trkpt lat="46.48695" lon="5.35907">
        <ele>232.4</ele>
        <time>2022-05-27T10:42:43Z</time>
      </trkpt>
      <trkpt lat="46.48702" lon="5.35886">
        <ele>232.6</ele>
        <time>2022-05-27T10:42:45Z</time>
      </trkpt>
      <trkpt lat="46.48726" lon="5.35822">
        <ele>231.6</ele>
        <time>2022-05-27T10:42:51Z</time>
      </trkpt>
      <trkpt lat="46.4873" lon="5.35812">
        <ele>231.4</ele>
        <time>2022-05-27T10:42:52Z</time>
      </trkpt>
      <trkpt lat="46.48751" lon="5.35765">
        <ele>230.4</ele>
        <time>2022-05-27T10:42:57Z</time>
      </trkpt>
      <trkpt lat="46.48756" lon="5.35756">
        <ele>230.4</ele>
        <time>2022-05-27T10:42:58Z</time>
      </trkpt>
      <trkpt lat="46.48773" lon="5.35715">
        <ele>229.2</ele>
        <time>2022-05-27T10:43:02Z</time>
      </trkpt>
      <trkpt lat="46.48781" lon="5.35697">
        <ele>229</ele>
        <time>2022-05-27T10:43:04Z</time>
      </trkpt>
      <trkpt lat="46.48804" lon="5.35646">
        <ele>229</ele>
        <time>2022-05-27T10:43:10Z</time>
      </trkpt>
      <trkpt lat="46.48831" lon="5.35587">
        <ele>229.4</ele>
        <time>2022-05-27T10:43:17Z</time>
      </trkpt>
      <trkpt lat="46.48835" lon="5.35577">
        <ele>229.4</ele>
        <time>2022-05-27T10:43:18Z</time>
      </trkpt>
      <trkpt lat="46.48846" lon="5.35565">
        <ele>229.4</ele>
        <time>2022-05-27T10:43:20Z</time>
      </trkpt>
      <trkpt lat="46.4886" lon="5.3556">
        <ele>229.4</ele>
        <time>2022-05-27T10:43:22Z</time>
      </trkpt>
      <trkpt lat="46.48866" lon="5.35559">
        <ele>229.4</ele>
        <time>2022-05-27T10:43:23Z</time>
      </trkpt>
      <trkpt lat="46.48922" lon="5.35556">
        <ele>228.6</ele>
        <time>2022-05-27T10:43:30Z</time>
      </trkpt>
      <trkpt lat="46.48947" lon="5.35555">
        <ele>228.2</ele>
        <time>2022-05-27T10:43:33Z</time>
      </trkpt>
      <trkpt lat="46.48974" lon="5.35555">
        <ele>227.2</ele>
        <time>2022-05-27T10:43:36Z</time>
      </trkpt>
      <trkpt lat="46.48983" lon="5.35554">
        <ele>226.6</ele>
        <time>2022-05-27T10:43:37Z</time>
      </trkpt>
      <trkpt lat="46.49018" lon="5.35554">
        <ele>226</ele>
        <time>2022-05-27T10:43:41Z</time>
      </trkpt>
      <trkpt lat="46.49064" lon="5.35551">
        <ele>226.6</ele>
        <time>2022-05-27T10:43:47Z</time>
      </trkpt>
      <trkpt lat="46.49098" lon="5.35549">
        <ele>227.2</ele>
        <time>2022-05-27T10:43:52Z</time>
      </trkpt>
      <trkpt lat="46.4913" lon="5.35548">
        <ele>227.8</ele>
        <time>2022-05-27T10:43:57Z</time>
      </trkpt>
      <trkpt lat="46.49136" lon="5.35548">
        <ele>228.4</ele>
        <time>2022-05-27T10:43:58Z</time>
      </trkpt>
      <trkpt lat="46.49146" lon="5.35546">
        <ele>228.8</ele>
        <time>2022-05-27T10:44:00Z</time>
      </trkpt>
      <trkpt lat="46.49152" lon="5.35546">
        <ele>229</ele>
        <time>2022-05-27T10:44:01Z</time>
      </trkpt>
      <trkpt lat="46.49158" lon="5.35546">
        <ele>229.2</ele>
        <time>2022-05-27T10:44:02Z</time>
      </trkpt>
      <trkpt lat="46.49174" lon="5.35545">
        <ele>229.8</ele>
        <time>2022-05-27T10:44:05Z</time>
      </trkpt>
      <trkpt lat="46.49179" lon="5.35543">
        <ele>230</ele>
        <time>2022-05-27T10:44:06Z</time>
      </trkpt>
      <trkpt lat="46.4919" lon="5.35541">
        <ele>230.4</ele>
        <time>2022-05-27T10:44:08Z</time>
      </trkpt>
      <trkpt lat="46.49227" lon="5.35538">
        <ele>231</ele>
        <time>2022-05-27T10:44:14Z</time>
      </trkpt>
      <trkpt lat="46.4924" lon="5.35538">
        <ele>231</ele>
        <time>2022-05-27T10:44:16Z</time>
      </trkpt>
      <trkpt lat="46.49277" lon="5.35533">
        <ele>231.2</ele>
        <time>2022-05-27T10:44:22Z</time>
      </trkpt>
      <trkpt lat="46.49282" lon="5.35532">
        <ele>231.2</ele>
        <time>2022-05-27T10:44:23Z</time>
      </trkpt>
      <trkpt lat="46.49317" lon="5.35533">
        <ele>231.2</ele>
        <time>2022-05-27T10:44:28Z</time>
      </trkpt>
      <trkpt lat="46.49364" lon="5.35533">
        <ele>230.6</ele>
        <time>2022-05-27T10:44:34Z</time>
      </trkpt>
      <trkpt lat="46.49389" lon="5.35536">
        <ele>230.4</ele>
        <time>2022-05-27T10:44:37Z</time>
      </trkpt>
      <trkpt lat="46.49403" lon="5.3554">
        <ele>230</ele>
        <time>2022-05-27T10:44:39Z</time>
      </trkpt>
      <trkpt lat="46.49412" lon="5.35542">
        <ele>230</ele>
        <time>2022-05-27T10:44:40Z</time>
      </trkpt>
      <trkpt lat="46.49421" lon="5.35546">
        <ele>229.8</ele>
        <time>2022-05-27T10:44:41Z</time>
      </trkpt>
      <trkpt lat="46.49449" lon="5.35558">
        <ele>228.8</ele>
        <time>2022-05-27T10:44:45Z</time>
      </trkpt>
      <trkpt lat="46.49494" lon="5.35578">
        <ele>228.2</ele>
        <time>2022-05-27T10:44:51Z</time>
      </trkpt>
      <trkpt lat="46.49547" lon="5.35601">
        <ele>227.8</ele>
        <time>2022-05-27T10:44:58Z</time>
      </trkpt>
      <trkpt lat="46.49601" lon="5.35618">
        <ele>226.8</ele>
        <time>2022-05-27T10:45:05Z</time>
      </trkpt>
      <trkpt lat="46.49606" lon="5.3562">
        <ele>226.6</ele>
        <time>2022-05-27T10:45:06Z</time>
      </trkpt>
      <trkpt lat="46.49615" lon="5.35623">
        <ele>226.4</ele>
        <time>2022-05-27T10:45:07Z</time>
      </trkpt>
      <trkpt lat="46.49658" lon="5.35636">
        <ele>225.6</ele>
        <time>2022-05-27T10:45:13Z</time>
      </trkpt>
      <trkpt lat="46.49672" lon="5.3564">
        <ele>225.4</ele>
        <time>2022-05-27T10:45:15Z</time>
      </trkpt>
      <trkpt lat="46.49697" lon="5.35649">
        <ele>224.6</ele>
        <time>2022-05-27T10:45:19Z</time>
      </trkpt>
      <trkpt lat="46.497" lon="5.35654">
        <ele>224.2</ele>
        <time>2022-05-27T10:45:20Z</time>
      </trkpt>
      <trkpt lat="46.49702" lon="5.3566">
        <ele>224</ele>
        <time>2022-05-27T10:45:21Z</time>
      </trkpt>
      <trkpt lat="46.49701" lon="5.35677">
        <ele>223.8</ele>
        <time>2022-05-27T10:45:23Z</time>
      </trkpt>
      <trkpt lat="46.49689" lon="5.35715">
        <ele>223.4</ele>
        <time>2022-05-27T10:45:27Z</time>
      </trkpt>
      <trkpt lat="46.49686" lon="5.35724">
        <ele>223.2</ele>
        <time>2022-05-27T10:45:28Z</time>
      </trkpt>
      <trkpt lat="46.49668" lon="5.35764">
        <ele>222.2</ele>
        <time>2022-05-27T10:45:32Z</time>
      </trkpt>
      <trkpt lat="46.49659" lon="5.35784">
        <ele>221.8</ele>
        <time>2022-05-27T10:45:34Z</time>
      </trkpt>
      <trkpt lat="46.49642" lon="5.35833">
        <ele>221</ele>
        <time>2022-05-27T10:45:38Z</time>
      </trkpt>
      <trkpt lat="46.49639" lon="5.35889">
        <ele>220.4</ele>
        <time>2022-05-27T10:45:42Z</time>
      </trkpt>
      <trkpt lat="46.49639" lon="5.35903">
        <ele>219.8</ele>
        <time>2022-05-27T10:45:43Z</time>
      </trkpt>
      <trkpt lat="46.49641" lon="5.35931">
        <ele>218.6</ele>
        <time>2022-05-27T10:45:45Z</time>
      </trkpt>
      <trkpt lat="46.49645" lon="5.36">
        <ele>217.4</ele>
        <time>2022-05-27T10:45:50Z</time>
      </trkpt>
      <trkpt lat="46.4965" lon="5.36075">
        <ele>217</ele>
        <time>2022-05-27T10:45:56Z</time>
      </trkpt>
      <trkpt lat="46.4966" lon="5.36107">
        <ele>217</ele>
        <time>2022-05-27T10:45:59Z</time>
      </trkpt>
      <trkpt lat="46.49664" lon="5.36117">
        <ele>217</ele>
        <time>2022-05-27T10:46:00Z</time>
      </trkpt>
      <trkpt lat="46.49688" lon="5.36161">
        <ele>217.4</ele>
        <time>2022-05-27T10:46:05Z</time>
      </trkpt>
      <trkpt lat="46.49726" lon="5.36227">
        <ele>217.8</ele>
        <time>2022-05-27T10:46:13Z</time>
      </trkpt>
      <trkpt lat="46.4973" lon="5.36236">
        <ele>217.8</ele>
        <time>2022-05-27T10:46:14Z</time>
      </trkpt>
      <trkpt lat="46.49757" lon="5.363">
        <ele>218.2</ele>
        <time>2022-05-27T10:46:22Z</time>
      </trkpt>
      <trkpt lat="46.49768" lon="5.36328">
        <ele>218.6</ele>
        <time>2022-05-27T10:46:26Z</time>
      </trkpt>
      <trkpt lat="46.49773" lon="5.36342">
        <ele>219</ele>
        <time>2022-05-27T10:46:28Z</time>
      </trkpt>
      <trkpt lat="46.49781" lon="5.36361">
        <ele>219.6</ele>
        <time>2022-05-27T10:46:31Z</time>
      </trkpt>
      <trkpt lat="46.49794" lon="5.36394">
        <ele>220.8</ele>
        <time>2022-05-27T10:46:36Z</time>
      </trkpt>
      <trkpt lat="46.49808" lon="5.36429">
        <ele>221.8</ele>
        <time>2022-05-27T10:46:41Z</time>
      </trkpt>
      <trkpt lat="46.49824" lon="5.36461">
        <ele>222.8</ele>
        <time>2022-05-27T10:46:46Z</time>
      </trkpt>
      <trkpt lat="46.49831" lon="5.36472">
        <ele>222.8</ele>
        <time>2022-05-27T10:46:48Z</time>
      </trkpt>
      <trkpt lat="46.49852" lon="5.36505">
        <ele>223.2</ele>
        <time>2022-05-27T10:46:54Z</time>
      </trkpt>
      <trkpt lat="46.49874" lon="5.36538">
        <ele>224.2</ele>
        <time>2022-05-27T10:47:00Z</time>
      </trkpt>
      <trkpt lat="46.49889" lon="5.36559">
        <ele>224.6</ele>
        <time>2022-05-27T10:47:04Z</time>
      </trkpt>
      <trkpt lat="46.499" lon="5.36576">
        <ele>225.2</ele>
        <time>2022-05-27T10:47:07Z</time>
      </trkpt>
      <trkpt lat="46.49906" lon="5.36588">
        <ele>225.6</ele>
        <time>2022-05-27T10:47:09Z</time>
      </trkpt>
      <trkpt lat="46.49914" lon="5.36608">
        <ele>225.8</ele>
        <time>2022-05-27T10:47:12Z</time>
      </trkpt>
      <trkpt lat="46.49916" lon="5.36615">
        <ele>225.8</ele>
        <time>2022-05-27T10:47:13Z</time>
      </trkpt>
      <trkpt lat="46.4992" lon="5.36628">
        <ele>225.8</ele>
        <time>2022-05-27T10:47:15Z</time>
      </trkpt>
      <trkpt lat="46.49923" lon="5.36633">
        <ele>226</ele>
        <time>2022-05-27T10:47:16Z</time>
      </trkpt>
      <trkpt lat="46.4993" lon="5.36644">
        <ele>226.2</ele>
        <time>2022-05-27T10:47:18Z</time>
      </trkpt>
      <trkpt lat="46.49934" lon="5.36659">
        <ele>226.2</ele>
        <time>2022-05-27T10:47:20Z</time>
      </trkpt>
      <trkpt lat="46.49936" lon="5.36665">
        <ele>226</ele>
        <time>2022-05-27T10:47:21Z</time>
      </trkpt>
      <trkpt lat="46.49938" lon="5.36675">
        <ele>226</ele>
        <time>2022-05-27T10:47:22Z</time>
      </trkpt>
      <trkpt lat="46.49943" lon="5.36709">
        <ele>226</ele>
        <time>2022-05-27T10:47:26Z</time>
      </trkpt>
      <trkpt lat="46.49952" lon="5.36757">
        <ele>226.4</ele>
        <time>2022-05-27T10:47:32Z</time>
      </trkpt>
      <trkpt lat="46.49956" lon="5.36777">
        <ele>227.6</ele>
        <time>2022-05-27T10:47:35Z</time>
      </trkpt>
      <trkpt lat="46.49959" lon="5.36791">
        <ele>228</ele>
        <time>2022-05-27T10:47:37Z</time>
      </trkpt>
      <trkpt lat="46.49964" lon="5.3682">
        <ele>228.6</ele>
        <time>2022-05-27T10:47:41Z</time>
      </trkpt>
      <trkpt lat="46.49967" lon="5.36834">
        <ele>228.8</ele>
        <time>2022-05-27T10:47:43Z</time>
      </trkpt>
      <trkpt lat="46.49976" lon="5.36882">
        <ele>229.8</ele>
        <time>2022-05-27T10:47:50Z</time>
      </trkpt>
      <trkpt lat="46.4998" lon="5.369">
        <ele>230</ele>
        <time>2022-05-27T10:47:53Z</time>
      </trkpt>
      <trkpt lat="46.49987" lon="5.36942">
        <ele>231</ele>
        <time>2022-05-27T10:47:59Z</time>
      </trkpt>
      <trkpt lat="46.49991" lon="5.36963">
        <ele>231.4</ele>
        <time>2022-05-27T10:48:02Z</time>
      </trkpt>
      <trkpt lat="46.49998" lon="5.37002">
        <ele>232.2</ele>
        <time>2022-05-27T10:48:08Z</time>
      </trkpt>
      <trkpt lat="46.50006" lon="5.37042">
        <ele>233</ele>
        <time>2022-05-27T10:48:14Z</time>
      </trkpt>
      <trkpt lat="46.50009" lon="5.37056">
        <ele>233.2</ele>
        <time>2022-05-27T10:48:16Z</time>
      </trkpt>
      <trkpt lat="46.5002" lon="5.37117">
        <ele>234.4</ele>
        <time>2022-05-27T10:48:25Z</time>
      </trkpt>
      <trkpt lat="46.50023" lon="5.37131">
        <ele>234.8</ele>
        <time>2022-05-27T10:48:27Z</time>
      </trkpt>
      <trkpt lat="46.50028" lon="5.37155">
        <ele>235.4</ele>
        <time>2022-05-27T10:48:31Z</time>
      </trkpt>
      <trkpt lat="46.50032" lon="5.37176">
        <ele>235.8</ele>
        <time>2022-05-27T10:48:34Z</time>
      </trkpt>
      <trkpt lat="46.50041" lon="5.37224">
        <ele>236.4</ele>
        <time>2022-05-27T10:48:41Z</time>
      </trkpt>
      <trkpt lat="46.50042" lon="5.3723">
        <ele>236.6</ele>
        <time>2022-05-27T10:48:42Z</time>
      </trkpt>
      <trkpt lat="46.50051" lon="5.37276">
        <ele>237.6</ele>
        <time>2022-05-27T10:48:49Z</time>
      </trkpt>
      <trkpt lat="46.50053" lon="5.3729">
        <ele>237.8</ele>
        <time>2022-05-27T10:48:51Z</time>
      </trkpt>
      <trkpt lat="46.50062" lon="5.37334">
        <ele>238.2</ele>
        <time>2022-05-27T10:48:58Z</time>
      </trkpt>
      <trkpt lat="46.50067" lon="5.37361">
        <ele>238.8</ele>
        <time>2022-05-27T10:49:02Z</time>
      </trkpt>
      <trkpt lat="46.50077" lon="5.3741">
        <ele>239.6</ele>
        <time>2022-05-27T10:49:09Z</time>
      </trkpt>
      <trkpt lat="46.5008" lon="5.37417">
        <ele>239.8</ele>
        <time>2022-05-27T10:49:10Z</time>
      </trkpt>
      <trkpt lat="46.50082" lon="5.37424">
        <ele>239.8</ele>
        <time>2022-05-27T10:49:11Z</time>
      </trkpt>
      <trkpt lat="46.50095" lon="5.37451">
        <ele>240</ele>
        <time>2022-05-27T10:49:15Z</time>
      </trkpt>
      <trkpt lat="46.50121" lon="5.37497">
        <ele>240.2</ele>
        <time>2022-05-27T10:49:22Z</time>
      </trkpt>
      <trkpt lat="46.50137" lon="5.37543">
        <ele>240.4</ele>
        <time>2022-05-27T10:49:28Z</time>
      </trkpt>
      <trkpt lat="46.50144" lon="5.37593">
        <ele>240.6</ele>
        <time>2022-05-27T10:49:34Z</time>
      </trkpt>
      <trkpt lat="46.50146" lon="5.37646">
        <ele>241</ele>
        <time>2022-05-27T10:49:40Z</time>
      </trkpt>
      <trkpt lat="46.50147" lon="5.37661">
        <ele>241.2</ele>
        <time>2022-05-27T10:49:42Z</time>
      </trkpt>
      <trkpt lat="46.50149" lon="5.37684">
        <ele>241.4</ele>
        <time>2022-05-27T10:49:45Z</time>
      </trkpt>
      <trkpt lat="46.5015" lon="5.37692">
        <ele>241.6</ele>
        <time>2022-05-27T10:49:46Z</time>
      </trkpt>
      <trkpt lat="46.50151" lon="5.377">
        <ele>242</ele>
        <time>2022-05-27T10:49:47Z</time>
      </trkpt>
      <trkpt lat="46.50152" lon="5.37708">
        <ele>242.2</ele>
        <time>2022-05-27T10:49:48Z</time>
      </trkpt>
      <trkpt lat="46.50154" lon="5.37714">
        <ele>242.2</ele>
        <time>2022-05-27T10:49:49Z</time>
      </trkpt>
      <trkpt lat="46.50156" lon="5.37721">
        <ele>242.8</ele>
        <time>2022-05-27T10:49:50Z</time>
      </trkpt>
      <trkpt lat="46.50158" lon="5.37727">
        <ele>242.8</ele>
        <time>2022-05-27T10:49:51Z</time>
      </trkpt>
      <trkpt lat="46.50161" lon="5.37745">
        <ele>243.2</ele>
        <time>2022-05-27T10:49:54Z</time>
      </trkpt>
      <trkpt lat="46.50169" lon="5.37762">
        <ele>243.8</ele>
        <time>2022-05-27T10:49:58Z</time>
      </trkpt>
      <trkpt lat="46.50173" lon="5.37764">
        <ele>244.4</ele>
        <time>2022-05-27T10:49:59Z</time>
      </trkpt>
      <trkpt lat="46.50184" lon="5.37767">
        <ele>244.8</ele>
        <time>2022-05-27T10:50:01Z</time>
      </trkpt>
      <trkpt lat="46.50207" lon="5.37779">
        <ele>244.8</ele>
        <time>2022-05-27T10:50:05Z</time>
      </trkpt>
      <trkpt lat="46.50218" lon="5.37784">
        <ele>244.8</ele>
        <time>2022-05-27T10:50:07Z</time>
      </trkpt>
      <trkpt lat="46.50239" lon="5.37797">
        <ele>244.8</ele>
        <time>2022-05-27T10:50:12Z</time>
      </trkpt>
      <trkpt lat="46.50256" lon="5.37814">
        <ele>245.4</ele>
        <time>2022-05-27T10:50:16Z</time>
      </trkpt>
      <trkpt lat="46.50262" lon="5.37819">
        <ele>245.4</ele>
        <time>2022-05-27T10:50:17Z</time>
      </trkpt>
      <trkpt lat="46.50273" lon="5.37831">
        <ele>245.6</ele>
        <time>2022-05-27T10:50:19Z</time>
      </trkpt>
      <trkpt lat="46.50302" lon="5.37859">
        <ele>245.8</ele>
        <time>2022-05-27T10:50:24Z</time>
      </trkpt>
      <trkpt lat="46.50332" lon="5.37888">
        <ele>245.8</ele>
        <time>2022-05-27T10:50:30Z</time>
      </trkpt>
      <trkpt lat="46.50343" lon="5.379">
        <ele>245.8</ele>
        <time>2022-05-27T10:50:32Z</time>
      </trkpt>
      <trkpt lat="46.50351" lon="5.37914">
        <ele>246.2</ele>
        <time>2022-05-27T10:50:34Z</time>
      </trkpt>
      <trkpt lat="46.50355" lon="5.3793">
        <ele>246.2</ele>
        <time>2022-05-27T10:50:36Z</time>
      </trkpt>
      <trkpt lat="46.5036" lon="5.37953">
        <ele>246.6</ele>
        <time>2022-05-27T10:50:39Z</time>
      </trkpt>
      <trkpt lat="46.5036" lon="5.37962">
        <ele>246.8</ele>
        <time>2022-05-27T10:50:40Z</time>
      </trkpt>
      <trkpt lat="46.50357" lon="5.37995">
        <ele>247</ele>
        <time>2022-05-27T10:50:44Z</time>
      </trkpt>
      <trkpt lat="46.50356" lon="5.38005">
        <ele>247.2</ele>
        <time>2022-05-27T10:50:45Z</time>
      </trkpt>
      <trkpt lat="46.50357" lon="5.38024">
        <ele>247.2</ele>
        <time>2022-05-27T10:50:47Z</time>
      </trkpt>
      <trkpt lat="46.50359" lon="5.38033">
        <ele>247.2</ele>
        <time>2022-05-27T10:50:48Z</time>
      </trkpt>
      <trkpt lat="46.50362" lon="5.38041">
        <ele>246.8</ele>
        <time>2022-05-27T10:50:49Z</time>
      </trkpt>
      <trkpt lat="46.50368" lon="5.38049">
        <ele>246.6</ele>
        <time>2022-05-27T10:50:51Z</time>
      </trkpt>
      <trkpt lat="46.50378" lon="5.38051">
        <ele>246.2</ele>
        <time>2022-05-27T10:50:55Z</time>
      </trkpt>
      <trkpt lat="46.50383" lon="5.38049">
        <ele>246.2</ele>
        <time>2022-05-27T10:50:56Z</time>
      </trkpt>
      <trkpt lat="46.50393" lon="5.3804">
        <ele>246.2</ele>
        <time>2022-05-27T10:50:58Z</time>
      </trkpt>
      <trkpt lat="46.50412" lon="5.38008">
        <ele>245.6</ele>
        <time>2022-05-27T10:51:02Z</time>
      </trkpt>
      <trkpt lat="46.50433" lon="5.37969">
        <ele>244.2</ele>
        <time>2022-05-27T10:51:06Z</time>
      </trkpt>
      <trkpt lat="46.5045" lon="5.37939">
        <ele>242.8</ele>
        <time>2022-05-27T10:51:09Z</time>
      </trkpt>
      <trkpt lat="46.50468" lon="5.3791">
        <ele>241.2</ele>
        <time>2022-05-27T10:51:12Z</time>
      </trkpt>
      <trkpt lat="46.50474" lon="5.379">
        <ele>240.2</ele>
        <time>2022-05-27T10:51:13Z</time>
      </trkpt>
      <trkpt lat="46.50481" lon="5.37891">
        <ele>239.4</ele>
        <time>2022-05-27T10:51:14Z</time>
      </trkpt>
      <trkpt lat="46.50507" lon="5.37851">
        <ele>238.2</ele>
        <time>2022-05-27T10:51:18Z</time>
      </trkpt>
      <trkpt lat="46.50541" lon="5.378">
        <ele>237.2</ele>
        <time>2022-05-27T10:51:23Z</time>
      </trkpt>
      <trkpt lat="46.50561" lon="5.37769">
        <ele>235.8</ele>
        <time>2022-05-27T10:51:26Z</time>
      </trkpt>
      <trkpt lat="46.50575" lon="5.37749">
        <ele>234.6</ele>
        <time>2022-05-27T10:51:28Z</time>
      </trkpt>
      <trkpt lat="46.50595" lon="5.37718">
        <ele>234</ele>
        <time>2022-05-27T10:51:31Z</time>
      </trkpt>
      <trkpt lat="46.50602" lon="5.37707">
        <ele>233.6</ele>
        <time>2022-05-27T10:51:32Z</time>
      </trkpt>
      <trkpt lat="46.50622" lon="5.37676">
        <ele>232.4</ele>
        <time>2022-05-27T10:51:35Z</time>
      </trkpt>
      <trkpt lat="46.50635" lon="5.37656">
        <ele>231</ele>
        <time>2022-05-27T10:51:37Z</time>
      </trkpt>
      <trkpt lat="46.50646" lon="5.37639">
        <ele>230.2</ele>
        <time>2022-05-27T10:51:39Z</time>
      </trkpt>
      <trkpt lat="46.50659" lon="5.37618">
        <ele>229.8</ele>
        <time>2022-05-27T10:51:41Z</time>
      </trkpt>
      <trkpt lat="46.5068" lon="5.37583">
        <ele>229.2</ele>
        <time>2022-05-27T10:51:45Z</time>
      </trkpt>
      <trkpt lat="46.50691" lon="5.37569">
        <ele>229.4</ele>
        <time>2022-05-27T10:51:47Z</time>
      </trkpt>
      <trkpt lat="46.50697" lon="5.37566">
        <ele>229.4</ele>
        <time>2022-05-27T10:51:48Z</time>
      </trkpt>
      <trkpt lat="46.50704" lon="5.37568">
        <ele>229.4</ele>
        <time>2022-05-27T10:51:49Z</time>
      </trkpt>
      <trkpt lat="46.5071" lon="5.37574">
        <ele>229.4</ele>
        <time>2022-05-27T10:51:50Z</time>
      </trkpt>
      <trkpt lat="46.50715" lon="5.37581">
        <ele>229.6</ele>
        <time>2022-05-27T10:51:51Z</time>
      </trkpt>
      <trkpt lat="46.50728" lon="5.37603">
        <ele>229.6</ele>
        <time>2022-05-27T10:51:54Z</time>
      </trkpt>
      <trkpt lat="46.50735" lon="5.37627">
        <ele>229.8</ele>
        <time>2022-05-27T10:51:57Z</time>
      </trkpt>
      <trkpt lat="46.50736" lon="5.37635">
        <ele>229.8</ele>
        <time>2022-05-27T10:51:58Z</time>
      </trkpt>
      <trkpt lat="46.50738" lon="5.37675">
        <ele>230.8</ele>
        <time>2022-05-27T10:52:03Z</time>
      </trkpt>
      <trkpt lat="46.50739" lon="5.37683">
        <ele>231.4</ele>
        <time>2022-05-27T10:52:04Z</time>
      </trkpt>
      <trkpt lat="46.5074" lon="5.37697">
        <ele>232</ele>
        <time>2022-05-27T10:52:06Z</time>
      </trkpt>
      <trkpt lat="46.50741" lon="5.37724">
        <ele>233.2</ele>
        <time>2022-05-27T10:52:10Z</time>
      </trkpt>
      <trkpt lat="46.50743" lon="5.37741">
        <ele>233.6</ele>
        <time>2022-05-27T10:52:12Z</time>
      </trkpt>
      <trkpt lat="46.50746" lon="5.37765">
        <ele>234.2</ele>
        <time>2022-05-27T10:52:15Z</time>
      </trkpt>
      <trkpt lat="46.50749" lon="5.37781">
        <ele>234.4</ele>
        <time>2022-05-27T10:52:17Z</time>
      </trkpt>
      <trkpt lat="46.50751" lon="5.37789">
        <ele>234.6</ele>
        <time>2022-05-27T10:52:18Z</time>
      </trkpt>
      <trkpt lat="46.50762" lon="5.37825">
        <ele>235</ele>
        <time>2022-05-27T10:52:23Z</time>
      </trkpt>
      <trkpt lat="46.50765" lon="5.37831">
        <ele>235.2</ele>
        <time>2022-05-27T10:52:24Z</time>
      </trkpt>
      <trkpt lat="46.50775" lon="5.37849">
        <ele>235.4</ele>
        <time>2022-05-27T10:52:27Z</time>
      </trkpt>
      <trkpt lat="46.50791" lon="5.37871">
        <ele>236.2</ele>
        <time>2022-05-27T10:52:31Z</time>
      </trkpt>
      <trkpt lat="46.50804" lon="5.37885">
        <ele>236.4</ele>
        <time>2022-05-27T10:52:34Z</time>
      </trkpt>
      <trkpt lat="46.50815" lon="5.37893">
        <ele>236.4</ele>
        <time>2022-05-27T10:52:36Z</time>
      </trkpt>
      <trkpt lat="46.50819" lon="5.37896">
        <ele>236.6</ele>
        <time>2022-05-27T10:52:37Z</time>
      </trkpt>
      <trkpt lat="46.50826" lon="5.37899">
        <ele>236.6</ele>
        <time>2022-05-27T10:52:38Z</time>
      </trkpt>
      <trkpt lat="46.5085" lon="5.37902">
        <ele>236.6</ele>
        <time>2022-05-27T10:52:42Z</time>
      </trkpt>
      <trkpt lat="46.50903" lon="5.37904">
        <ele>236.6</ele>
        <time>2022-05-27T10:52:51Z</time>
      </trkpt>
      <trkpt lat="46.50942" lon="5.37895">
        <ele>236.4</ele>
        <time>2022-05-27T10:52:58Z</time>
      </trkpt>
      <trkpt lat="46.50993" lon="5.37881">
        <ele>235.6</ele>
        <time>2022-05-27T10:53:07Z</time>
      </trkpt>
      <trkpt lat="46.51019" lon="5.37877">
        <ele>235.4</ele>
        <time>2022-05-27T10:53:11Z</time>
      </trkpt>
      <trkpt lat="46.51046" lon="5.37873">
        <ele>234.8</ele>
        <time>2022-05-27T10:53:15Z</time>
      </trkpt>
      <trkpt lat="46.51069" lon="5.37871">
        <ele>234.2</ele>
        <time>2022-05-27T10:53:18Z</time>
      </trkpt>
      <trkpt lat="46.51083" lon="5.37868">
        <ele>233.8</ele>
        <time>2022-05-27T10:53:20Z</time>
      </trkpt>
      <trkpt lat="46.511" lon="5.37862">
        <ele>233.4</ele>
        <time>2022-05-27T10:53:22Z</time>
      </trkpt>
      <trkpt lat="46.51107" lon="5.37859">
        <ele>232.8</ele>
        <time>2022-05-27T10:53:23Z</time>
      </trkpt>
      <trkpt lat="46.51121" lon="5.37851">
        <ele>232.2</ele>
        <time>2022-05-27T10:53:25Z</time>
      </trkpt>
      <trkpt lat="46.51136" lon="5.37841">
        <ele>231.8</ele>
        <time>2022-05-27T10:53:27Z</time>
      </trkpt>
      <trkpt lat="46.51166" lon="5.37818">
        <ele>230.8</ele>
        <time>2022-05-27T10:53:31Z</time>
      </trkpt>
      <trkpt lat="46.51173" lon="5.37814">
        <ele>230.6</ele>
        <time>2022-05-27T10:53:32Z</time>
      </trkpt>
      <trkpt lat="46.51197" lon="5.37807">
        <ele>230</ele>
        <time>2022-05-27T10:53:35Z</time>
      </trkpt>
      <trkpt lat="46.51206" lon="5.37806">
        <ele>229.8</ele>
        <time>2022-05-27T10:53:36Z</time>
      </trkpt>
      <trkpt lat="46.51212" lon="5.37805">
        <ele>229.2</ele>
        <time>2022-05-27T10:53:37Z</time>
      </trkpt>
      <trkpt lat="46.51238" lon="5.37801">
        <ele>228.4</ele>
        <time>2022-05-27T10:53:40Z</time>
      </trkpt>
      <trkpt lat="46.51247" lon="5.37799">
        <ele>228</ele>
        <time>2022-05-27T10:53:41Z</time>
      </trkpt>
      <trkpt lat="46.51254" lon="5.37797">
        <ele>227.8</ele>
        <time>2022-05-27T10:53:42Z</time>
      </trkpt>
      <trkpt lat="46.51309" lon="5.3777">
        <ele>227</ele>
        <time>2022-05-27T10:53:49Z</time>
      </trkpt>
      <trkpt lat="46.51363" lon="5.37742">
        <ele>226.2</ele>
        <time>2022-05-27T10:53:56Z</time>
      </trkpt>
      <trkpt lat="46.51371" lon="5.37738">
        <ele>226</ele>
        <time>2022-05-27T10:53:57Z</time>
      </trkpt>
      <trkpt lat="46.51381" lon="5.37733">
        <ele>225.4</ele>
        <time>2022-05-27T10:53:58Z</time>
      </trkpt>
      <trkpt lat="46.51395" lon="5.37726">
        <ele>224.8</ele>
        <time>2022-05-27T10:54:00Z</time>
      </trkpt>
      <trkpt lat="46.51428" lon="5.37716">
        <ele>223.8</ele>
        <time>2022-05-27T10:54:04Z</time>
      </trkpt>
      <trkpt lat="46.51436" lon="5.37713">
        <ele>223.6</ele>
        <time>2022-05-27T10:54:05Z</time>
      </trkpt>
      <trkpt lat="46.51484" lon="5.37702">
        <ele>222.6</ele>
        <time>2022-05-27T10:54:11Z</time>
      </trkpt>
      <trkpt lat="46.51501" lon="5.37698">
        <ele>222.4</ele>
        <time>2022-05-27T10:54:13Z</time>
      </trkpt>
      <trkpt lat="46.51541" lon="5.37688">
        <ele>221.4</ele>
        <time>2022-05-27T10:54:18Z</time>
      </trkpt>
      <trkpt lat="46.51566" lon="5.37683">
        <ele>220.8</ele>
        <time>2022-05-27T10:54:21Z</time>
      </trkpt>
      <trkpt lat="46.516" lon="5.3768">
        <ele>220.2</ele>
        <time>2022-05-27T10:54:25Z</time>
      </trkpt>
      <trkpt lat="46.51626" lon="5.37672">
        <ele>219.8</ele>
        <time>2022-05-27T10:54:28Z</time>
      </trkpt>
      <trkpt lat="46.51651" lon="5.37662">
        <ele>219</ele>
        <time>2022-05-27T10:54:31Z</time>
      </trkpt>
      <trkpt lat="46.51674" lon="5.3765">
        <ele>218.4</ele>
        <time>2022-05-27T10:54:34Z</time>
      </trkpt>
      <trkpt lat="46.5168" lon="5.37645">
        <ele>218.4</ele>
        <time>2022-05-27T10:54:35Z</time>
      </trkpt>
      <trkpt lat="46.51694" lon="5.37634">
        <ele>218.4</ele>
        <time>2022-05-27T10:54:37Z</time>
      </trkpt>
      <trkpt lat="46.51702" lon="5.37631">
        <ele>218.4</ele>
        <time>2022-05-27T10:54:38Z</time>
      </trkpt>
      <trkpt lat="46.51709" lon="5.3763">
        <ele>218.4</ele>
        <time>2022-05-27T10:54:39Z</time>
      </trkpt>
      <trkpt lat="46.51724" lon="5.37633">
        <ele>218.4</ele>
        <time>2022-05-27T10:54:41Z</time>
      </trkpt>
      <trkpt lat="46.51758" lon="5.37644">
        <ele>218.8</ele>
        <time>2022-05-27T10:54:46Z</time>
      </trkpt>
      <trkpt lat="46.51781" lon="5.37651">
        <ele>220</ele>
        <time>2022-05-27T10:54:50Z</time>
      </trkpt>
      <trkpt lat="46.51787" lon="5.37652">
        <ele>220.2</ele>
        <time>2022-05-27T10:54:51Z</time>
      </trkpt>
      <trkpt lat="46.51792" lon="5.37652">
        <ele>220.2</ele>
        <time>2022-05-27T10:54:52Z</time>
      </trkpt>
      <trkpt lat="46.51825" lon="5.3765">
        <ele>221</ele>
        <time>2022-05-27T10:54:57Z</time>
      </trkpt>
      <trkpt lat="46.51831" lon="5.37649">
        <ele>221.4</ele>
        <time>2022-05-27T10:54:58Z</time>
      </trkpt>
      <trkpt lat="46.51854" lon="5.37649">
        <ele>222</ele>
        <time>2022-05-27T10:55:02Z</time>
      </trkpt>
      <trkpt lat="46.51864" lon="5.37648">
        <ele>222.6</ele>
        <time>2022-05-27T10:55:04Z</time>
      </trkpt>
      <trkpt lat="46.51872" lon="5.37647">
        <ele>223.2</ele>
        <time>2022-05-27T10:55:06Z</time>
      </trkpt>
      <trkpt lat="46.51877" lon="5.37648">
        <ele>223.2</ele>
        <time>2022-05-27T10:55:07Z</time>
      </trkpt>
      <trkpt lat="46.51882" lon="5.3765">
        <ele>223.6</ele>
        <time>2022-05-27T10:55:10Z</time>
      </trkpt>
      <trkpt lat="46.51882" lon="5.3765">
        <ele>223.8</ele>
        <time>2022-05-27T10:55:11Z</time>
      </trkpt>
      <trkpt lat="46.51882" lon="5.3765">
        <ele>224</ele>
        <time>2022-05-27T10:55:12Z</time>
      </trkpt>
      <trkpt lat="46.51887" lon="5.37649">
        <ele>224</ele>
        <time>2022-05-27T10:55:54Z</time>
      </trkpt>
      <trkpt lat="46.51892" lon="5.37648">
        <ele>224</ele>
        <time>2022-05-27T10:55:55Z</time>
      </trkpt>
      <trkpt lat="46.51911" lon="5.37646">
        <ele>223.8</ele>
        <time>2022-05-27T10:55:59Z</time>
      </trkpt>
      <trkpt lat="46.51944" lon="5.37641">
        <ele>222.8</ele>
        <time>2022-05-27T10:56:04Z</time>
      </trkpt>
      <trkpt lat="46.51996" lon="5.37631">
        <ele>222.6</ele>
        <time>2022-05-27T10:56:12Z</time>
      </trkpt>
      <trkpt lat="46.52001" lon="5.3763">
        <ele>222.6</ele>
        <time>2022-05-27T10:56:13Z</time>
      </trkpt>
      <trkpt lat="46.52011" lon="5.37631">
        <ele>222.8</ele>
        <time>2022-05-27T10:56:15Z</time>
      </trkpt>
      <trkpt lat="46.52015" lon="5.3763">
        <ele>222.8</ele>
        <time>2022-05-27T10:56:16Z</time>
      </trkpt>
      <trkpt lat="46.52018" lon="5.37627">
        <ele>222.8</ele>
        <time>2022-05-27T10:56:17Z</time>
      </trkpt>
      <trkpt lat="46.52024" lon="5.37615">
        <ele>223</ele>
        <time>2022-05-27T10:56:19Z</time>
      </trkpt>
      <trkpt lat="46.52032" lon="5.37578">
        <ele>223.2</ele>
        <time>2022-05-27T10:56:23Z</time>
      </trkpt>
      <trkpt lat="46.5205" lon="5.37499">
        <ele>222.8</ele>
        <time>2022-05-27T10:56:31Z</time>
      </trkpt>
      <trkpt lat="46.52066" lon="5.37425">
        <ele>222.8</ele>
        <time>2022-05-27T10:56:39Z</time>
      </trkpt>
      <trkpt lat="46.52082" lon="5.37363">
        <ele>222.8</ele>
        <time>2022-05-27T10:56:46Z</time>
      </trkpt>
      <trkpt lat="46.5209" lon="5.37345">
        <ele>222.8</ele>
        <time>2022-05-27T10:56:48Z</time>
      </trkpt>
      <trkpt lat="46.52096" lon="5.37338">
        <ele>222.8</ele>
        <time>2022-05-27T10:56:49Z</time>
      </trkpt>
      <trkpt lat="46.52128" lon="5.37315">
        <ele>221.8</ele>
        <time>2022-05-27T10:56:53Z</time>
      </trkpt>
      <trkpt lat="46.52134" lon="5.37311">
        <ele>221</ele>
        <time>2022-05-27T10:56:54Z</time>
      </trkpt>
      <trkpt lat="46.52145" lon="5.37304">
        <ele>220.6</ele>
        <time>2022-05-27T10:56:55Z</time>
      </trkpt>
      <trkpt lat="46.52169" lon="5.37287">
        <ele>219.2</ele>
        <time>2022-05-27T10:56:58Z</time>
      </trkpt>
      <trkpt lat="46.52189" lon="5.37272">
        <ele>218</ele>
        <time>2022-05-27T10:57:00Z</time>
      </trkpt>
      <trkpt lat="46.52196" lon="5.37267">
        <ele>217.6</ele>
        <time>2022-05-27T10:57:01Z</time>
      </trkpt>
      <trkpt lat="46.52204" lon="5.3726">
        <ele>216.6</ele>
        <time>2022-05-27T10:57:02Z</time>
      </trkpt>
      <trkpt lat="46.52221" lon="5.37246">
        <ele>215</ele>
        <time>2022-05-27T10:57:04Z</time>
      </trkpt>
      <trkpt lat="46.52238" lon="5.37232">
        <ele>213.8</ele>
        <time>2022-05-27T10:57:06Z</time>
      </trkpt>
      <trkpt lat="46.52253" lon="5.37217">
        <ele>213.2</ele>
        <time>2022-05-27T10:57:08Z</time>
      </trkpt>
      <trkpt lat="46.52262" lon="5.37207">
        <ele>212.8</ele>
        <time>2022-05-27T10:57:09Z</time>
      </trkpt>
      <trkpt lat="46.52285" lon="5.37183">
        <ele>211.6</ele>
        <time>2022-05-27T10:57:12Z</time>
      </trkpt>
      <trkpt lat="46.52301" lon="5.37167">
        <ele>210.2</ele>
        <time>2022-05-27T10:57:14Z</time>
      </trkpt>
      <trkpt lat="46.52315" lon="5.37152">
        <ele>209.4</ele>
        <time>2022-05-27T10:57:16Z</time>
      </trkpt>
      <trkpt lat="46.52324" lon="5.37142">
        <ele>209</ele>
        <time>2022-05-27T10:57:17Z</time>
      </trkpt>
      <trkpt lat="46.52363" lon="5.37101">
        <ele>207.8</ele>
        <time>2022-05-27T10:57:22Z</time>
      </trkpt>
      <trkpt lat="46.52371" lon="5.37093">
        <ele>207.2</ele>
        <time>2022-05-27T10:57:23Z</time>
      </trkpt>
      <trkpt lat="46.52386" lon="5.37077">
        <ele>206.6</ele>
        <time>2022-05-27T10:57:25Z</time>
      </trkpt>
      <trkpt lat="46.524" lon="5.37059">
        <ele>205.4</ele>
        <time>2022-05-27T10:57:27Z</time>
      </trkpt>
      <trkpt lat="46.52405" lon="5.37051">
        <ele>204.8</ele>
        <time>2022-05-27T10:57:28Z</time>
      </trkpt>
      <trkpt lat="46.52423" lon="5.3702">
        <ele>204.2</ele>
        <time>2022-05-27T10:57:31Z</time>
      </trkpt>
      <trkpt lat="46.52432" lon="5.36999">
        <ele>203.8</ele>
        <time>2022-05-27T10:57:33Z</time>
      </trkpt>
      <trkpt lat="46.52447" lon="5.36946">
        <ele>204</ele>
        <time>2022-05-27T10:57:38Z</time>
      </trkpt>
      <trkpt lat="46.52459" lon="5.36867">
        <ele>203.8</ele>
        <time>2022-05-27T10:57:45Z</time>
      </trkpt>
      <trkpt lat="46.52462" lon="5.36844">
        <ele>204</ele>
        <time>2022-05-27T10:57:47Z</time>
      </trkpt>
      <trkpt lat="46.52467" lon="5.36772">
        <ele>204</ele>
        <time>2022-05-27T10:57:54Z</time>
      </trkpt>
      <trkpt lat="46.5247" lon="5.36686">
        <ele>204.2</ele>
        <time>2022-05-27T10:58:02Z</time>
      </trkpt>
      <trkpt lat="46.52471" lon="5.36655">
        <ele>204.2</ele>
        <time>2022-05-27T10:58:05Z</time>
      </trkpt>
      <trkpt lat="46.52476" lon="5.36573">
        <ele>203.8</ele>
        <time>2022-05-27T10:58:13Z</time>
      </trkpt>
      <trkpt lat="46.52477" lon="5.36562">
        <ele>203.6</ele>
        <time>2022-05-27T10:58:14Z</time>
      </trkpt>
      <trkpt lat="46.52481" lon="5.36509">
        <ele>203.2</ele>
        <time>2022-05-27T10:58:19Z</time>
      </trkpt>
      <trkpt lat="46.52488" lon="5.36452">
        <ele>202.6</ele>
        <time>2022-05-27T10:58:24Z</time>
      </trkpt>
      <trkpt lat="46.52493" lon="5.36411">
        <ele>202.2</ele>
        <time>2022-05-27T10:58:28Z</time>
      </trkpt>
      <trkpt lat="46.525" lon="5.36367">
        <ele>201.8</ele>
        <time>2022-05-27T10:58:32Z</time>
      </trkpt>
      <trkpt lat="46.52508" lon="5.36341">
        <ele>201.6</ele>
        <time>2022-05-27T10:58:35Z</time>
      </trkpt>
      <trkpt lat="46.52513" lon="5.36332">
        <ele>201.6</ele>
        <time>2022-05-27T10:58:36Z</time>
      </trkpt>
      <trkpt lat="46.52519" lon="5.36326">
        <ele>201.4</ele>
        <time>2022-05-27T10:58:37Z</time>
      </trkpt>
      <trkpt lat="46.52533" lon="5.36316">
        <ele>201.4</ele>
        <time>2022-05-27T10:58:39Z</time>
      </trkpt>
      <trkpt lat="46.52539" lon="5.36313">
        <ele>201.2</ele>
        <time>2022-05-27T10:58:40Z</time>
      </trkpt>
      <trkpt lat="46.52554" lon="5.36311">
        <ele>201.2</ele>
        <time>2022-05-27T10:58:42Z</time>
      </trkpt>
      <trkpt lat="46.52566" lon="5.36313">
        <ele>201.2</ele>
        <time>2022-05-27T10:58:44Z</time>
      </trkpt>
      <trkpt lat="46.52578" lon="5.36308">
        <ele>201.2</ele>
        <time>2022-05-27T10:58:46Z</time>
      </trkpt>
      <trkpt lat="46.52599" lon="5.36285">
        <ele>201</ele>
        <time>2022-05-27T10:58:50Z</time>
      </trkpt>
      <trkpt lat="46.52636" lon="5.3626">
        <ele>200.8</ele>
        <time>2022-05-27T10:58:56Z</time>
      </trkpt>
      <trkpt lat="46.52685" lon="5.36228">
        <ele>200.4</ele>
        <time>2022-05-27T10:59:04Z</time>
      </trkpt>
      <trkpt lat="46.52695" lon="5.36219">
        <ele>200.4</ele>
        <time>2022-05-27T10:59:06Z</time>
      </trkpt>
      <trkpt lat="46.52709" lon="5.36197">
        <ele>200.2</ele>
        <time>2022-05-27T10:59:09Z</time>
      </trkpt>
      <trkpt lat="46.52713" lon="5.36189">
        <ele>200.4</ele>
        <time>2022-05-27T10:59:10Z</time>
      </trkpt>
      <trkpt lat="46.5273" lon="5.36134">
        <ele>201.6</ele>
        <time>2022-05-27T10:59:17Z</time>
      </trkpt>
      <trkpt lat="46.52749" lon="5.36077">
        <ele>202.2</ele>
        <time>2022-05-27T10:59:24Z</time>
      </trkpt>
      <trkpt lat="46.52754" lon="5.36062">
        <ele>202.4</ele>
        <time>2022-05-27T10:59:26Z</time>
      </trkpt>
      <trkpt lat="46.52762" lon="5.36049">
        <ele>202.4</ele>
        <time>2022-05-27T10:59:28Z</time>
      </trkpt>
      <trkpt lat="46.52767" lon="5.36045">
        <ele>202.4</ele>
        <time>2022-05-27T10:59:29Z</time>
      </trkpt>
      <trkpt lat="46.52774" lon="5.36043">
        <ele>202.4</ele>
        <time>2022-05-27T10:59:30Z</time>
      </trkpt>
      <trkpt lat="46.52784" lon="5.36046">
        <ele>202.4</ele>
        <time>2022-05-27T10:59:32Z</time>
      </trkpt>
      <trkpt lat="46.52819" lon="5.36058">
        <ele>203.2</ele>
        <time>2022-05-27T10:59:39Z</time>
      </trkpt>
      <trkpt lat="46.52823" lon="5.36059">
        <ele>203.6</ele>
        <time>2022-05-27T10:59:40Z</time>
      </trkpt>
      <trkpt lat="46.52835" lon="5.36066">
        <ele>204.6</ele>
        <time>2022-05-27T10:59:44Z</time>
      </trkpt>
      <trkpt lat="46.52838" lon="5.36066">
        <ele>204.8</ele>
        <time>2022-05-27T10:59:45Z</time>
      </trkpt>
      <trkpt lat="46.52856" lon="5.36064">
        <ele>205.8</ele>
        <time>2022-05-27T10:59:49Z</time>
      </trkpt>
      <trkpt lat="46.52871" lon="5.36066">
        <ele>206</ele>
        <time>2022-05-27T10:59:52Z</time>
      </trkpt>
      <trkpt lat="46.52887" lon="5.36068">
        <ele>206.2</ele>
        <time>2022-05-27T10:59:55Z</time>
      </trkpt>
      <trkpt lat="46.52896" lon="5.36069">
        <ele>206.4</ele>
        <time>2022-05-27T10:59:57Z</time>
      </trkpt>
      <trkpt lat="46.52917" lon="5.36074">
        <ele>206.8</ele>
        <time>2022-05-27T11:00:01Z</time>
      </trkpt>
      <trkpt lat="46.52922" lon="5.36074">
        <ele>207</ele>
        <time>2022-05-27T11:00:02Z</time>
      </trkpt>
      <trkpt lat="46.52942" lon="5.36081">
        <ele>207.6</ele>
        <time>2022-05-27T11:00:06Z</time>
      </trkpt>
      <trkpt lat="46.52951" lon="5.36088">
        <ele>208</ele>
        <time>2022-05-27T11:00:08Z</time>
      </trkpt>
      <trkpt lat="46.52956" lon="5.36092">
        <ele>208.2</ele>
        <time>2022-05-27T11:00:09Z</time>
      </trkpt>
      <trkpt lat="46.52962" lon="5.36102">
        <ele>208.6</ele>
        <time>2022-05-27T11:00:11Z</time>
      </trkpt>
      <trkpt lat="46.52965" lon="5.36107">
        <ele>208.6</ele>
        <time>2022-05-27T11:00:12Z</time>
      </trkpt>
      <trkpt lat="46.5297" lon="5.36118">
        <ele>209.2</ele>
        <time>2022-05-27T11:00:14Z</time>
      </trkpt>
      <trkpt lat="46.5298" lon="5.36131">
        <ele>209.8</ele>
        <time>2022-05-27T11:00:17Z</time>
      </trkpt>
      <trkpt lat="46.52989" lon="5.36136">
        <ele>210.2</ele>
        <time>2022-05-27T11:00:19Z</time>
      </trkpt>
      <trkpt lat="46.52994" lon="5.36138">
        <ele>210.2</ele>
        <time>2022-05-27T11:00:20Z</time>
      </trkpt>
      <trkpt lat="46.53003" lon="5.3614">
        <ele>210.4</ele>
        <time>2022-05-27T11:00:22Z</time>
      </trkpt>
      <trkpt lat="46.53007" lon="5.36141">
        <ele>210.6</ele>
        <time>2022-05-27T11:00:23Z</time>
      </trkpt>
      <trkpt lat="46.53018" lon="5.36142">
        <ele>211.4</ele>
        <time>2022-05-27T11:00:26Z</time>
      </trkpt>
      <trkpt lat="46.53023" lon="5.36143">
        <ele>211.8</ele>
        <time>2022-05-27T11:00:27Z</time>
      </trkpt>
      <trkpt lat="46.53035" lon="5.36144">
        <ele>212.8</ele>
        <time>2022-05-27T11:00:30Z</time>
      </trkpt>
      <trkpt lat="46.53045" lon="5.36143">
        <ele>213.2</ele>
        <time>2022-05-27T11:00:32Z</time>
      </trkpt>
      <trkpt lat="46.53054" lon="5.36141">
        <ele>213.4</ele>
        <time>2022-05-27T11:00:34Z</time>
      </trkpt>
      <trkpt lat="46.53062" lon="5.36137">
        <ele>213.6</ele>
        <time>2022-05-27T11:00:36Z</time>
      </trkpt>
      <trkpt lat="46.53071" lon="5.36131">
        <ele>213.8</ele>
        <time>2022-05-27T11:00:38Z</time>
      </trkpt>
      <trkpt lat="46.53073" lon="5.36129">
        <ele>214</ele>
        <time>2022-05-27T11:00:39Z</time>
      </trkpt>
      <trkpt lat="46.53078" lon="5.36125">
        <ele>214.2</ele>
        <time>2022-05-27T11:00:40Z</time>
      </trkpt>
      <trkpt lat="46.5309" lon="5.3611">
        <ele>214.6</ele>
        <time>2022-05-27T11:00:44Z</time>
      </trkpt>
      <trkpt lat="46.53093" lon="5.36106">
        <ele>215</ele>
        <time>2022-05-27T11:00:45Z</time>
      </trkpt>
      <trkpt lat="46.53098" lon="5.36097">
        <ele>215.4</ele>
        <time>2022-05-27T11:00:47Z</time>
      </trkpt>
      <trkpt lat="46.53106" lon="5.36077">
        <ele>216.2</ele>
        <time>2022-05-27T11:00:51Z</time>
      </trkpt>
      <trkpt lat="46.53116" lon="5.36058">
        <ele>216.8</ele>
        <time>2022-05-27T11:00:55Z</time>
      </trkpt>
      <trkpt lat="46.53124" lon="5.36042">
        <ele>217.6</ele>
        <time>2022-05-27T11:00:58Z</time>
      </trkpt>
      <trkpt lat="46.53137" lon="5.36021">
        <ele>218</ele>
        <time>2022-05-27T11:01:02Z</time>
      </trkpt>
      <trkpt lat="46.53156" lon="5.35988">
        <ele>218.6</ele>
        <time>2022-05-27T11:01:08Z</time>
      </trkpt>
      <trkpt lat="46.53161" lon="5.35977">
        <ele>218.8</ele>
        <time>2022-05-27T11:01:10Z</time>
      </trkpt>
      <trkpt lat="46.53179" lon="5.35943">
        <ele>219.6</ele>
        <time>2022-05-27T11:01:16Z</time>
      </trkpt>
      <trkpt lat="46.53186" lon="5.35933">
        <ele>219.8</ele>
        <time>2022-05-27T11:01:18Z</time>
      </trkpt>
      <trkpt lat="46.53196" lon="5.35924">
        <ele>220</ele>
        <time>2022-05-27T11:01:20Z</time>
      </trkpt>
      <trkpt lat="46.53207" lon="5.35919">
        <ele>219.8</ele>
        <time>2022-05-27T11:01:22Z</time>
      </trkpt>
      <trkpt lat="46.53242" lon="5.35906">
        <ele>219.4</ele>
        <time>2022-05-27T11:01:28Z</time>
      </trkpt>
      <trkpt lat="46.53288" lon="5.35885">
        <ele>219.4</ele>
        <time>2022-05-27T11:01:36Z</time>
      </trkpt>
      <trkpt lat="46.53334" lon="5.35868">
        <ele>219.6</ele>
        <time>2022-05-27T11:01:44Z</time>
      </trkpt>
      <trkpt lat="46.53365" lon="5.35861">
        <ele>220.2</ele>
        <time>2022-05-27T11:01:50Z</time>
      </trkpt>
      <trkpt lat="46.53375" lon="5.35862">
        <ele>221</ele>
        <time>2022-05-27T11:01:52Z</time>
      </trkpt>
      <trkpt lat="46.53408" lon="5.35865">
        <ele>222</ele>
        <time>2022-05-27T11:01:59Z</time>
      </trkpt>
      <trkpt lat="46.53418" lon="5.35866">
        <ele>222.4</ele>
        <time>2022-05-27T11:02:01Z</time>
      </trkpt>
      <trkpt lat="46.53441" lon="5.3587">
        <ele>223</ele>
        <time>2022-05-27T11:02:06Z</time>
      </trkpt>
      <trkpt lat="46.53455" lon="5.35871">
        <ele>223.6</ele>
        <time>2022-05-27T11:02:09Z</time>
      </trkpt>
      <trkpt lat="46.53459" lon="5.35871">
        <ele>224</ele>
        <time>2022-05-27T11:02:10Z</time>
      </trkpt>
      <trkpt lat="46.53468" lon="5.35867">
        <ele>224.2</ele>
        <time>2022-05-27T11:02:12Z</time>
      </trkpt>
      <trkpt lat="46.53487" lon="5.35858">
        <ele>224.6</ele>
        <time>2022-05-27T11:02:16Z</time>
      </trkpt>
      <trkpt lat="46.53491" lon="5.35856">
        <ele>224.8</ele>
        <time>2022-05-27T11:02:17Z</time>
      </trkpt>
      <trkpt lat="46.53505" lon="5.35851">
        <ele>225</ele>
        <time>2022-05-27T11:02:20Z</time>
      </trkpt>
      <trkpt lat="46.53515" lon="5.3585">
        <ele>225.4</ele>
        <time>2022-05-27T11:02:22Z</time>
      </trkpt>
      <trkpt lat="46.53544" lon="5.35854">
        <ele>226</ele>
        <time>2022-05-27T11:02:27Z</time>
      </trkpt>
      <trkpt lat="46.53597" lon="5.35868">
        <ele>226</ele>
        <time>2022-05-27T11:02:36Z</time>
      </trkpt>
      <trkpt lat="46.53635" lon="5.35885">
        <ele>225.2</ele>
        <time>2022-05-27T11:02:43Z</time>
      </trkpt>
      <trkpt lat="46.53639" lon="5.35886">
        <ele>225</ele>
        <time>2022-05-27T11:02:44Z</time>
      </trkpt>
      <trkpt lat="46.53646" lon="5.35883">
        <ele>225</ele>
        <time>2022-05-27T11:02:46Z</time>
      </trkpt>
      <trkpt lat="46.53651" lon="5.35879">
        <ele>224.8</ele>
        <time>2022-05-27T11:02:47Z</time>
      </trkpt>
      <trkpt lat="46.53661" lon="5.35867">
        <ele>224.4</ele>
        <time>2022-05-27T11:02:49Z</time>
      </trkpt>
      <trkpt lat="46.53684" lon="5.35832">
        <ele>223.6</ele>
        <time>2022-05-27T11:02:53Z</time>
      </trkpt>
      <trkpt lat="46.53693" lon="5.35819">
        <ele>222.8</ele>
        <time>2022-05-27T11:02:54Z</time>
      </trkpt>
      <trkpt lat="46.53707" lon="5.35798">
        <ele>221.4</ele>
        <time>2022-05-27T11:02:56Z</time>
      </trkpt>
      <trkpt lat="46.53721" lon="5.35778">
        <ele>219.8</ele>
        <time>2022-05-27T11:02:58Z</time>
      </trkpt>
      <trkpt lat="46.53726" lon="5.35767">
        <ele>218.8</ele>
        <time>2022-05-27T11:02:59Z</time>
      </trkpt>
      <trkpt lat="46.53745" lon="5.35718">
        <ele>217.6</ele>
        <time>2022-05-27T11:03:03Z</time>
      </trkpt>
      <trkpt lat="46.53748" lon="5.35708">
        <ele>217.6</ele>
        <time>2022-05-27T11:03:04Z</time>
      </trkpt>
      <trkpt lat="46.53757" lon="5.35656">
        <ele>217.2</ele>
        <time>2022-05-27T11:03:08Z</time>
      </trkpt>
      <trkpt lat="46.53754" lon="5.35607">
        <ele>217</ele>
        <time>2022-05-27T11:03:12Z</time>
      </trkpt>
      <trkpt lat="46.53749" lon="5.35584">
        <ele>217</ele>
        <time>2022-05-27T11:03:14Z</time>
      </trkpt>
      <trkpt lat="46.53743" lon="5.35562">
        <ele>217</ele>
        <time>2022-05-27T11:03:16Z</time>
      </trkpt>
      <trkpt lat="46.53729" lon="5.35499">
        <ele>217</ele>
        <time>2022-05-27T11:03:22Z</time>
      </trkpt>
      <trkpt lat="46.53727" lon="5.3548">
        <ele>217.2</ele>
        <time>2022-05-27T11:03:24Z</time>
      </trkpt>
      <trkpt lat="46.53727" lon="5.3546">
        <ele>217.2</ele>
        <time>2022-05-27T11:03:26Z</time>
      </trkpt>
      <trkpt lat="46.53732" lon="5.35393">
        <ele>218.8</ele>
        <time>2022-05-27T11:03:33Z</time>
      </trkpt>
      <trkpt lat="46.53737" lon="5.3536">
        <ele>219.6</ele>
        <time>2022-05-27T11:03:37Z</time>
      </trkpt>
      <trkpt lat="46.5374" lon="5.35353">
        <ele>219.8</ele>
        <time>2022-05-27T11:03:38Z</time>
      </trkpt>
      <trkpt lat="46.53754" lon="5.35318">
        <ele>221</ele>
        <time>2022-05-27T11:03:43Z</time>
      </trkpt>
      <trkpt lat="46.53757" lon="5.35312">
        <ele>221.2</ele>
        <time>2022-05-27T11:03:44Z</time>
      </trkpt>
      <trkpt lat="46.5377" lon="5.35288">
        <ele>222</ele>
        <time>2022-05-27T11:03:48Z</time>
      </trkpt>
      <trkpt lat="46.5378" lon="5.35271">
        <ele>222.4</ele>
        <time>2022-05-27T11:03:51Z</time>
      </trkpt>
      <trkpt lat="46.53807" lon="5.35238">
        <ele>223</ele>
        <time>2022-05-27T11:03:57Z</time>
      </trkpt>
      <trkpt lat="46.5384" lon="5.35211">
        <ele>222.6</ele>
        <time>2022-05-27T11:04:03Z</time>
      </trkpt>
      <trkpt lat="46.53895" lon="5.35174">
        <ele>221</ele>
        <time>2022-05-27T11:04:12Z</time>
      </trkpt>
      <trkpt lat="46.53901" lon="5.3517">
        <ele>221</ele>
        <time>2022-05-27T11:04:13Z</time>
      </trkpt>
      <trkpt lat="46.53939" lon="5.35141">
        <ele>220.8</ele>
        <time>2022-05-27T11:04:19Z</time>
      </trkpt>
      <trkpt lat="46.53978" lon="5.35098">
        <ele>220.2</ele>
        <time>2022-05-27T11:04:26Z</time>
      </trkpt>
      <trkpt lat="46.53991" lon="5.35082">
        <ele>220</ele>
        <time>2022-05-27T11:04:28Z</time>
      </trkpt>
      <trkpt lat="46.5403" lon="5.35043">
        <ele>219.4</ele>
        <time>2022-05-27T11:04:34Z</time>
      </trkpt>
      <trkpt lat="46.54045" lon="5.35031">
        <ele>218.8</ele>
        <time>2022-05-27T11:04:36Z</time>
      </trkpt>
      <trkpt lat="46.54068" lon="5.35019">
        <ele>218.4</ele>
        <time>2022-05-27T11:04:39Z</time>
      </trkpt>
      <trkpt lat="46.54093" lon="5.35009">
        <ele>217.6</ele>
        <time>2022-05-27T11:04:42Z</time>
      </trkpt>
      <trkpt lat="46.54118" lon="5.34998">
        <ele>216.4</ele>
        <time>2022-05-27T11:04:45Z</time>
      </trkpt>
      <trkpt lat="46.54142" lon="5.34983">
        <ele>215.6</ele>
        <time>2022-05-27T11:04:48Z</time>
      </trkpt>
      <trkpt lat="46.54163" lon="5.3496">
        <ele>215.2</ele>
        <time>2022-05-27T11:04:51Z</time>
      </trkpt>
      <trkpt lat="46.5417" lon="5.34952">
        <ele>214.8</ele>
        <time>2022-05-27T11:04:52Z</time>
      </trkpt>
      <trkpt lat="46.54191" lon="5.34927">
        <ele>214.4</ele>
        <time>2022-05-27T11:04:55Z</time>
      </trkpt>
      <trkpt lat="46.5422" lon="5.349">
        <ele>213.6</ele>
        <time>2022-05-27T11:04:59Z</time>
      </trkpt>
      <trkpt lat="46.54227" lon="5.34893">
        <ele>213.4</ele>
        <time>2022-05-27T11:05:00Z</time>
      </trkpt>
      <trkpt lat="46.54234" lon="5.34885">
        <ele>213.2</ele>
        <time>2022-05-27T11:05:01Z</time>
      </trkpt>
      <trkpt lat="46.54244" lon="5.34866">
        <ele>212.8</ele>
        <time>2022-05-27T11:05:03Z</time>
      </trkpt>
      <trkpt lat="46.54273" lon="5.34821">
        <ele>212</ele>
        <time>2022-05-27T11:05:08Z</time>
      </trkpt>
      <trkpt lat="46.54312" lon="5.34779">
        <ele>211.2</ele>
        <time>2022-05-27T11:05:14Z</time>
      </trkpt>
      <trkpt lat="46.54351" lon="5.34748">
        <ele>211.2</ele>
        <time>2022-05-27T11:05:20Z</time>
      </trkpt>
      <trkpt lat="46.54383" lon="5.34737">
        <ele>211.6</ele>
        <time>2022-05-27T11:05:25Z</time>
      </trkpt>
      <trkpt lat="46.54412" lon="5.34725">
        <ele>212</ele>
        <time>2022-05-27T11:05:30Z</time>
      </trkpt>
      <trkpt lat="46.54445" lon="5.34705">
        <ele>212.4</ele>
        <time>2022-05-27T11:05:36Z</time>
      </trkpt>
      <trkpt lat="46.54492" lon="5.34669">
        <ele>212.6</ele>
        <time>2022-05-27T11:05:45Z</time>
      </trkpt>
      <trkpt lat="46.54526" lon="5.34619">
        <ele>212.8</ele>
        <time>2022-05-27T11:05:53Z</time>
      </trkpt>
      <trkpt lat="46.54535" lon="5.34608">
        <ele>213</ele>
        <time>2022-05-27T11:05:55Z</time>
      </trkpt>
      <trkpt lat="46.54558" lon="5.34588">
        <ele>213.4</ele>
        <time>2022-05-27T11:06:00Z</time>
      </trkpt>
      <trkpt lat="46.54575" lon="5.34574">
        <ele>214.2</ele>
        <time>2022-05-27T11:06:04Z</time>
      </trkpt>
      <trkpt lat="46.54587" lon="5.34562">
        <ele>214.6</ele>
        <time>2022-05-27T11:06:07Z</time>
      </trkpt>
      <trkpt lat="46.5459" lon="5.3456">
        <ele>215</ele>
        <time>2022-05-27T11:06:08Z</time>
      </trkpt>
      <trkpt lat="46.54595" lon="5.34556">
        <ele>215.4</ele>
        <time>2022-05-27T11:06:09Z</time>
      </trkpt>
      <trkpt lat="46.54605" lon="5.34547">
        <ele>216.4</ele>
        <time>2022-05-27T11:06:12Z</time>
      </trkpt>
      <trkpt lat="46.54609" lon="5.34544">
        <ele>217</ele>
        <time>2022-05-27T11:06:13Z</time>
      </trkpt>
      <trkpt lat="46.54616" lon="5.34538">
        <ele>217.6</ele>
        <time>2022-05-27T11:06:15Z</time>
      </trkpt>
      <trkpt lat="46.54632" lon="5.34524">
        <ele>218.6</ele>
        <time>2022-05-27T11:06:19Z</time>
      </trkpt>
      <trkpt lat="46.54636" lon="5.3452">
        <ele>219</ele>
        <time>2022-05-27T11:06:20Z</time>
      </trkpt>
      <trkpt lat="46.54658" lon="5.34502">
        <ele>219.8</ele>
        <time>2022-05-27T11:06:25Z</time>
      </trkpt>
      <trkpt lat="46.54663" lon="5.34498">
        <ele>219.8</ele>
        <time>2022-05-27T11:06:26Z</time>
      </trkpt>
      <trkpt lat="46.547" lon="5.34475">
        <ele>220</ele>
        <time>2022-05-27T11:06:33Z</time>
      </trkpt>
      <trkpt lat="46.54743" lon="5.34463">
        <ele>220.2</ele>
        <time>2022-05-27T11:06:40Z</time>
      </trkpt>
      <trkpt lat="46.54792" lon="5.34447">
        <ele>219.2</ele>
        <time>2022-05-27T11:06:47Z</time>
      </trkpt>
      <trkpt lat="46.54811" lon="5.3444">
        <ele>218.8</ele>
        <time>2022-05-27T11:06:50Z</time>
      </trkpt>
      <trkpt lat="46.54838" lon="5.3443">
        <ele>218.6</ele>
        <time>2022-05-27T11:06:54Z</time>
      </trkpt>
      <trkpt lat="46.54868" lon="5.34418">
        <ele>219</ele>
        <time>2022-05-27T11:06:59Z</time>
      </trkpt>
      <trkpt lat="46.54874" lon="5.34414">
        <ele>219.2</ele>
        <time>2022-05-27T11:07:00Z</time>
      </trkpt>
      <trkpt lat="46.54904" lon="5.34385">
        <ele>219.8</ele>
        <time>2022-05-27T11:07:06Z</time>
      </trkpt>
      <trkpt lat="46.54908" lon="5.34381">
        <ele>220</ele>
        <time>2022-05-27T11:07:07Z</time>
      </trkpt>
      <trkpt lat="46.5494" lon="5.3435">
        <ele>220.2</ele>
        <time>2022-05-27T11:07:13Z</time>
      </trkpt>
      <trkpt lat="46.54958" lon="5.34334">
        <ele>220.2</ele>
        <time>2022-05-27T11:07:16Z</time>
      </trkpt>
      <trkpt lat="46.54969" lon="5.3432">
        <ele>220</ele>
        <time>2022-05-27T11:07:18Z</time>
      </trkpt>
      <trkpt lat="46.55011" lon="5.34259">
        <ele>219.6</ele>
        <time>2022-05-27T11:07:26Z</time>
      </trkpt>
      <trkpt lat="46.55017" lon="5.34252">
        <ele>219.4</ele>
        <time>2022-05-27T11:07:27Z</time>
      </trkpt>
      <trkpt lat="46.55045" lon="5.34218">
        <ele>219</ele>
        <time>2022-05-27T11:07:32Z</time>
      </trkpt>
      <trkpt lat="46.55051" lon="5.34211">
        <ele>218.8</ele>
        <time>2022-05-27T11:07:33Z</time>
      </trkpt>
      <trkpt lat="46.55088" lon="5.34175">
        <ele>218.6</ele>
        <time>2022-05-27T11:07:39Z</time>
      </trkpt>
      <trkpt lat="46.55133" lon="5.34123">
        <ele>218.4</ele>
        <time>2022-05-27T11:07:47Z</time>
      </trkpt>
      <trkpt lat="46.55163" lon="5.34083">
        <ele>218.4</ele>
        <time>2022-05-27T11:07:53Z</time>
      </trkpt>
      <trkpt lat="46.5518" lon="5.3406">
        <ele>218.4</ele>
        <time>2022-05-27T11:07:57Z</time>
      </trkpt>
      <trkpt lat="46.55185" lon="5.34055">
        <ele>218.6</ele>
        <time>2022-05-27T11:07:58Z</time>
      </trkpt>
      <trkpt lat="46.55192" lon="5.34053">
        <ele>218.6</ele>
        <time>2022-05-27T11:08:00Z</time>
      </trkpt>
      <trkpt lat="46.55199" lon="5.34061">
        <ele>218.6</ele>
        <time>2022-05-27T11:08:02Z</time>
      </trkpt>
      <trkpt lat="46.55201" lon="5.34067">
        <ele>218.6</ele>
        <time>2022-05-27T11:08:03Z</time>
      </trkpt>
      <trkpt lat="46.55209" lon="5.34088">
        <ele>218.8</ele>
        <time>2022-05-27T11:08:06Z</time>
      </trkpt>
      <trkpt lat="46.55214" lon="5.34103">
        <ele>218.8</ele>
        <time>2022-05-27T11:08:08Z</time>
      </trkpt>
      <trkpt lat="46.55216" lon="5.3411">
        <ele>218.8</ele>
        <time>2022-05-27T11:08:09Z</time>
      </trkpt>
      <trkpt lat="46.55225" lon="5.34143">
        <ele>219</ele>
        <time>2022-05-27T11:08:13Z</time>
      </trkpt>
      <trkpt lat="46.55226" lon="5.34163">
        <ele>219</ele>
        <time>2022-05-27T11:08:15Z</time>
      </trkpt>
      <trkpt lat="46.55226" lon="5.34173">
        <ele>219</ele>
        <time>2022-05-27T11:08:16Z</time>
      </trkpt>
      <trkpt lat="46.5523" lon="5.34214">
        <ele>218.8</ele>
        <time>2022-05-27T11:08:20Z</time>
      </trkpt>
      <trkpt lat="46.55236" lon="5.34234">
        <ele>218.6</ele>
        <time>2022-05-27T11:08:22Z</time>
      </trkpt>
      <trkpt lat="46.55246" lon="5.34252">
        <ele>218.4</ele>
        <time>2022-05-27T11:08:24Z</time>
      </trkpt>
      <trkpt lat="46.55267" lon="5.34273">
        <ele>217.6</ele>
        <time>2022-05-27T11:08:27Z</time>
      </trkpt>
      <trkpt lat="46.55274" lon="5.3428">
        <ele>217.4</ele>
        <time>2022-05-27T11:08:28Z</time>
      </trkpt>
      <trkpt lat="46.55309" lon="5.34319">
        <ele>216.4</ele>
        <time>2022-05-27T11:08:33Z</time>
      </trkpt>
      <trkpt lat="46.55347" lon="5.34359">
        <ele>215.4</ele>
        <time>2022-05-27T11:08:38Z</time>
      </trkpt>
      <trkpt lat="46.55375" lon="5.34389">
        <ele>214.2</ele>
        <time>2022-05-27T11:08:42Z</time>
      </trkpt>
      <trkpt lat="46.55389" lon="5.34403">
        <ele>213.4</ele>
        <time>2022-05-27T11:08:44Z</time>
      </trkpt>
      <trkpt lat="46.55404" lon="5.3442">
        <ele>213</ele>
        <time>2022-05-27T11:08:46Z</time>
      </trkpt>
      <trkpt lat="46.5543" lon="5.34445">
        <ele>212</ele>
        <time>2022-05-27T11:08:50Z</time>
      </trkpt>
      <trkpt lat="46.55449" lon="5.34464">
        <ele>210.8</ele>
        <time>2022-05-27T11:08:53Z</time>
      </trkpt>
      <trkpt lat="46.5549" lon="5.34506">
        <ele>212.4</ele>
        <time>2022-05-27T11:09:00Z</time>
      </trkpt>
      <trkpt lat="46.55533" lon="5.34539">
        <ele>212.6</ele>
        <time>2022-05-27T11:09:07Z</time>
      </trkpt>
      <trkpt lat="46.55592" lon="5.34561">
        <ele>211.6</ele>
        <time>2022-05-27T11:09:15Z</time>
      </trkpt>
      <trkpt lat="46.55625" lon="5.34574">
        <ele>211</ele>
        <time>2022-05-27T11:09:19Z</time>
      </trkpt>
      <trkpt lat="46.55643" lon="5.34577">
        <ele>210.2</ele>
        <time>2022-05-27T11:09:21Z</time>
      </trkpt>
      <trkpt lat="46.55651" lon="5.34578">
        <ele>209.8</ele>
        <time>2022-05-27T11:09:22Z</time>
      </trkpt>
      <trkpt lat="46.55683" lon="5.34577">
        <ele>208</ele>
        <time>2022-05-27T11:09:25Z</time>
      </trkpt>
      <trkpt lat="46.55691" lon="5.34577">
        <ele>207.6</ele>
        <time>2022-05-27T11:09:26Z</time>
      </trkpt>
      <trkpt lat="46.55702" lon="5.34577">
        <ele>207</ele>
        <time>2022-05-27T11:09:27Z</time>
      </trkpt>
      <trkpt lat="46.55735" lon="5.34583">
        <ele>205.4</ele>
        <time>2022-05-27T11:09:30Z</time>
      </trkpt>
      <trkpt lat="46.55746" lon="5.34585">
        <ele>205</ele>
        <time>2022-05-27T11:09:31Z</time>
      </trkpt>
      <trkpt lat="46.55766" lon="5.3459">
        <ele>204.4</ele>
        <time>2022-05-27T11:09:33Z</time>
      </trkpt>
      <trkpt lat="46.55786" lon="5.34595">
        <ele>202.6</ele>
        <time>2022-05-27T11:09:35Z</time>
      </trkpt>
      <trkpt lat="46.55806" lon="5.346">
        <ele>201.2</ele>
        <time>2022-05-27T11:09:37Z</time>
      </trkpt>
      <trkpt lat="46.55824" lon="5.34604">
        <ele>200.6</ele>
        <time>2022-05-27T11:09:39Z</time>
      </trkpt>
      <trkpt lat="46.55842" lon="5.34608">
        <ele>200.2</ele>
        <time>2022-05-27T11:09:41Z</time>
      </trkpt>
      <trkpt lat="46.55877" lon="5.34617">
        <ele>200</ele>
        <time>2022-05-27T11:09:45Z</time>
      </trkpt>
      <trkpt lat="46.55928" lon="5.34629">
        <ele>199</ele>
        <time>2022-05-27T11:09:51Z</time>
      </trkpt>
      <trkpt lat="46.55953" lon="5.34635">
        <ele>198.8</ele>
        <time>2022-05-27T11:09:54Z</time>
      </trkpt>
      <trkpt lat="46.56005" lon="5.34649">
        <ele>199.2</ele>
        <time>2022-05-27T11:10:01Z</time>
      </trkpt>
      <trkpt lat="46.56048" lon="5.3466">
        <ele>199.6</ele>
        <time>2022-05-27T11:10:07Z</time>
      </trkpt>
      <trkpt lat="46.56102" lon="5.34672">
        <ele>199.4</ele>
        <time>2022-05-27T11:10:15Z</time>
      </trkpt>
      <trkpt lat="46.56135" lon="5.34679">
        <ele>199.8</ele>
        <time>2022-05-27T11:10:21Z</time>
      </trkpt>
      <trkpt lat="46.5614" lon="5.3468">
        <ele>200</ele>
        <time>2022-05-27T11:10:22Z</time>
      </trkpt>
      <trkpt lat="46.56165" lon="5.34681">
        <ele>201.2</ele>
        <time>2022-05-27T11:10:27Z</time>
      </trkpt>
      <trkpt lat="46.56174" lon="5.3468">
        <ele>201.6</ele>
        <time>2022-05-27T11:10:29Z</time>
      </trkpt>
      <trkpt lat="46.56188" lon="5.34677">
        <ele>202.2</ele>
        <time>2022-05-27T11:10:32Z</time>
      </trkpt>
      <trkpt lat="46.5621" lon="5.3467">
        <ele>203.4</ele>
        <time>2022-05-27T11:10:37Z</time>
      </trkpt>
      <trkpt lat="46.56214" lon="5.34669">
        <ele>203.6</ele>
        <time>2022-05-27T11:10:38Z</time>
      </trkpt>
      <trkpt lat="46.56227" lon="5.34664">
        <ele>204.4</ele>
        <time>2022-05-27T11:10:41Z</time>
      </trkpt>
      <trkpt lat="46.5624" lon="5.34659">
        <ele>205</ele>
        <time>2022-05-27T11:10:44Z</time>
      </trkpt>
      <trkpt lat="46.56244" lon="5.34658">
        <ele>205.2</ele>
        <time>2022-05-27T11:10:45Z</time>
      </trkpt>
      <trkpt lat="46.56252" lon="5.34656">
        <ele>205.6</ele>
        <time>2022-05-27T11:10:47Z</time>
      </trkpt>
      <trkpt lat="46.56283" lon="5.34651">
        <ele>206.4</ele>
        <time>2022-05-27T11:10:54Z</time>
      </trkpt>
      <trkpt lat="46.56291" lon="5.3465">
        <ele>206.6</ele>
        <time>2022-05-27T11:10:56Z</time>
      </trkpt>
      <trkpt lat="46.5631" lon="5.34648">
        <ele>207.8</ele>
        <time>2022-05-27T11:11:01Z</time>
      </trkpt>
      <trkpt lat="46.56314" lon="5.34649">
        <ele>208.2</ele>
        <time>2022-05-27T11:11:02Z</time>
      </trkpt>
      <trkpt lat="46.56326" lon="5.34652">
        <ele>209</ele>
        <time>2022-05-27T11:11:05Z</time>
      </trkpt>
      <trkpt lat="46.56345" lon="5.3466">
        <ele>209.4</ele>
        <time>2022-05-27T11:11:09Z</time>
      </trkpt>
      <trkpt lat="46.56376" lon="5.34674">
        <ele>210</ele>
        <time>2022-05-27T11:11:15Z</time>
      </trkpt>
      <trkpt lat="46.56413" lon="5.34682">
        <ele>209.2</ele>
        <time>2022-05-27T11:11:21Z</time>
      </trkpt>
      <trkpt lat="46.56426" lon="5.34689">
        <ele>208.8</ele>
        <time>2022-05-27T11:11:23Z</time>
      </trkpt>
      <trkpt lat="46.56446" lon="5.347">
        <ele>208.2</ele>
        <time>2022-05-27T11:11:26Z</time>
      </trkpt>
      <trkpt lat="46.56458" lon="5.34708">
        <ele>207.8</ele>
        <time>2022-05-27T11:11:28Z</time>
      </trkpt>
      <trkpt lat="46.56487" lon="5.34723">
        <ele>206.8</ele>
        <time>2022-05-27T11:11:32Z</time>
      </trkpt>
      <trkpt lat="46.56509" lon="5.34737">
        <ele>206</ele>
        <time>2022-05-27T11:11:35Z</time>
      </trkpt>
      <trkpt lat="46.56525" lon="5.34746">
        <ele>205.6</ele>
        <time>2022-05-27T11:11:37Z</time>
      </trkpt>
      <trkpt lat="46.56551" lon="5.34762">
        <ele>203.8</ele>
        <time>2022-05-27T11:11:40Z</time>
      </trkpt>
      <trkpt lat="46.5656" lon="5.34767">
        <ele>203.4</ele>
        <time>2022-05-27T11:11:41Z</time>
      </trkpt>
      <trkpt lat="46.56569" lon="5.34772">
        <ele>202.6</ele>
        <time>2022-05-27T11:11:42Z</time>
      </trkpt>
      <trkpt lat="46.56578" lon="5.34775">
        <ele>202.2</ele>
        <time>2022-05-27T11:11:43Z</time>
      </trkpt>
      <trkpt lat="46.56598" lon="5.34775">
        <ele>201.6</ele>
        <time>2022-05-27T11:11:45Z</time>
      </trkpt>
      <trkpt lat="46.56616" lon="5.34761">
        <ele>200.8</ele>
        <time>2022-05-27T11:11:47Z</time>
      </trkpt>
      <trkpt lat="46.56622" lon="5.3475">
        <ele>200.4</ele>
        <time>2022-05-27T11:11:48Z</time>
      </trkpt>
      <trkpt lat="46.56627" lon="5.34737">
        <ele>199.8</ele>
        <time>2022-05-27T11:11:49Z</time>
      </trkpt>
      <trkpt lat="46.56638" lon="5.34712">
        <ele>198.8</ele>
        <time>2022-05-27T11:11:51Z</time>
      </trkpt>
      <trkpt lat="46.56646" lon="5.34703">
        <ele>198.6</ele>
        <time>2022-05-27T11:11:52Z</time>
      </trkpt>
      <trkpt lat="46.56653" lon="5.34698">
        <ele>198</ele>
        <time>2022-05-27T11:11:53Z</time>
      </trkpt>
      <trkpt lat="46.56664" lon="5.34693">
        <ele>197.6</ele>
        <time>2022-05-27T11:11:54Z</time>
      </trkpt>
      <trkpt lat="46.56672" lon="5.3469">
        <ele>197.2</ele>
        <time>2022-05-27T11:11:55Z</time>
      </trkpt>
      <trkpt lat="46.56698" lon="5.34682">
        <ele>196.6</ele>
        <time>2022-05-27T11:11:58Z</time>
      </trkpt>
      <trkpt lat="46.56731" lon="5.34668">
        <ele>196.2</ele>
        <time>2022-05-27T11:12:02Z</time>
      </trkpt>
      <trkpt lat="46.56746" lon="5.34663">
        <ele>196</ele>
        <time>2022-05-27T11:12:04Z</time>
      </trkpt>
      <trkpt lat="46.56761" lon="5.34665">
        <ele>196.2</ele>
        <time>2022-05-27T11:12:06Z</time>
      </trkpt>
      <trkpt lat="46.56773" lon="5.3468">
        <ele>196</ele>
        <time>2022-05-27T11:12:08Z</time>
      </trkpt>
      <trkpt lat="46.56784" lon="5.34721">
        <ele>196</ele>
        <time>2022-05-27T11:12:12Z</time>
      </trkpt>
      <trkpt lat="46.56799" lon="5.34794">
        <ele>196</ele>
        <time>2022-05-27T11:12:19Z</time>
      </trkpt>
      <trkpt lat="46.56814" lon="5.34876">
        <ele>196.2</ele>
        <time>2022-05-27T11:12:27Z</time>
      </trkpt>
      <trkpt lat="46.56817" lon="5.34894">
        <ele>196.2</ele>
        <time>2022-05-27T11:12:29Z</time>
      </trkpt>
      <trkpt lat="46.56828" lon="5.34956">
        <ele>196.6</ele>
        <time>2022-05-27T11:12:36Z</time>
      </trkpt>
      <trkpt lat="46.56835" lon="5.3498">
        <ele>197.2</ele>
        <time>2022-05-27T11:12:39Z</time>
      </trkpt>
      <trkpt lat="46.56837" lon="5.34986">
        <ele>197.6</ele>
        <time>2022-05-27T11:12:40Z</time>
      </trkpt>
      <trkpt lat="46.56839" lon="5.34992">
        <ele>197.8</ele>
        <time>2022-05-27T11:12:41Z</time>
      </trkpt>
      <trkpt lat="46.56847" lon="5.35011">
        <ele>198.8</ele>
        <time>2022-05-27T11:12:44Z</time>
      </trkpt>
      <trkpt lat="46.56859" lon="5.35034">
        <ele>199.4</ele>
        <time>2022-05-27T11:12:48Z</time>
      </trkpt>
      <trkpt lat="46.56861" lon="5.35039">
        <ele>200.4</ele>
        <time>2022-05-27T11:12:49Z</time>
      </trkpt>
      <trkpt lat="46.56873" lon="5.35064">
        <ele>201.6</ele>
        <time>2022-05-27T11:12:54Z</time>
      </trkpt>
      <trkpt lat="46.56878" lon="5.35076">
        <ele>202.2</ele>
        <time>2022-05-27T11:12:56Z</time>
      </trkpt>
      <trkpt lat="46.56882" lon="5.35085">
        <ele>202.6</ele>
        <time>2022-05-27T11:12:58Z</time>
      </trkpt>
      <trkpt lat="46.56889" lon="5.35101">
        <ele>203.6</ele>
        <time>2022-05-27T11:13:01Z</time>
      </trkpt>
      <trkpt lat="46.56895" lon="5.35115">
        <ele>204.2</ele>
        <time>2022-05-27T11:13:04Z</time>
      </trkpt>
      <trkpt lat="46.56899" lon="5.35124">
        <ele>204.6</ele>
        <time>2022-05-27T11:13:06Z</time>
      </trkpt>
      <trkpt lat="46.56906" lon="5.35139">
        <ele>206</ele>
        <time>2022-05-27T11:13:09Z</time>
      </trkpt>
      <trkpt lat="46.56911" lon="5.35148">
        <ele>206.2</ele>
        <time>2022-05-27T11:13:11Z</time>
      </trkpt>
      <trkpt lat="46.5692" lon="5.35162">
        <ele>207</ele>
        <time>2022-05-27T11:13:14Z</time>
      </trkpt>
      <trkpt lat="46.56924" lon="5.35166">
        <ele>207</ele>
        <time>2022-05-27T11:13:15Z</time>
      </trkpt>
      <trkpt lat="46.56928" lon="5.35169">
        <ele>207.2</ele>
        <time>2022-05-27T11:13:16Z</time>
      </trkpt>
      <trkpt lat="46.5695" lon="5.35186">
        <ele>207.4</ele>
        <time>2022-05-27T11:13:20Z</time>
      </trkpt>
      <trkpt lat="46.56956" lon="5.35192">
        <ele>207.4</ele>
        <time>2022-05-27T11:13:21Z</time>
      </trkpt>
      <trkpt lat="46.5696" lon="5.35198">
        <ele>207.4</ele>
        <time>2022-05-27T11:13:22Z</time>
      </trkpt>
      <trkpt lat="46.56969" lon="5.3522">
        <ele>207</ele>
        <time>2022-05-27T11:13:24Z</time>
      </trkpt>
      <trkpt lat="46.56972" lon="5.35231">
        <ele>206.8</ele>
        <time>2022-05-27T11:13:25Z</time>
      </trkpt>
      <trkpt lat="46.56979" lon="5.35266">
        <ele>205</ele>
        <time>2022-05-27T11:13:28Z</time>
      </trkpt>
      <trkpt lat="46.56987" lon="5.35299">
        <ele>204</ele>
        <time>2022-05-27T11:13:31Z</time>
      </trkpt>
      <trkpt lat="46.56995" lon="5.35323">
        <ele>202.8</ele>
        <time>2022-05-27T11:13:33Z</time>
      </trkpt>
      <trkpt lat="46.57018" lon="5.35396">
        <ele>201.8</ele>
        <time>2022-05-27T11:13:40Z</time>
      </trkpt>
      <trkpt lat="46.57022" lon="5.35406">
        <ele>201.8</ele>
        <time>2022-05-27T11:13:41Z</time>
      </trkpt>
      <trkpt lat="46.57034" lon="5.3546">
        <ele>201</ele>
        <time>2022-05-27T11:13:46Z</time>
      </trkpt>
      <trkpt lat="46.57037" lon="5.35493">
        <ele>200.8</ele>
        <time>2022-05-27T11:13:49Z</time>
      </trkpt>
      <trkpt lat="46.5704" lon="5.35536">
        <ele>200.6</ele>
        <time>2022-05-27T11:13:53Z</time>
      </trkpt>
      <trkpt lat="46.57052" lon="5.35616">
        <ele>200.2</ele>
        <time>2022-05-27T11:14:00Z</time>
      </trkpt>
      <trkpt lat="46.5706" lon="5.35635">
        <ele>199.8</ele>
        <time>2022-05-27T11:14:02Z</time>
      </trkpt>
      <trkpt lat="46.57066" lon="5.35643">
        <ele>199.6</ele>
        <time>2022-05-27T11:14:03Z</time>
      </trkpt>
      <trkpt lat="46.57071" lon="5.35651">
        <ele>199.6</ele>
        <time>2022-05-27T11:14:04Z</time>
      </trkpt>
      <trkpt lat="46.57104" lon="5.35693">
        <ele>199.6</ele>
        <time>2022-05-27T11:14:10Z</time>
      </trkpt>
      <trkpt lat="46.57131" lon="5.35729">
        <ele>199.4</ele>
        <time>2022-05-27T11:14:15Z</time>
      </trkpt>
      <trkpt lat="46.57171" lon="5.35756">
        <ele>199.6</ele>
        <time>2022-05-27T11:14:21Z</time>
      </trkpt>
      <trkpt lat="46.57224" lon="5.35788">
        <ele>199.8</ele>
        <time>2022-05-27T11:14:29Z</time>
      </trkpt>
      <trkpt lat="46.57267" lon="5.35815">
        <ele>199.8</ele>
        <time>2022-05-27T11:14:36Z</time>
      </trkpt>
      <trkpt lat="46.57298" lon="5.35833">
        <ele>200</ele>
        <time>2022-05-27T11:14:41Z</time>
      </trkpt>
      <trkpt lat="46.5731" lon="5.35836">
        <ele>200.4</ele>
        <time>2022-05-27T11:14:43Z</time>
      </trkpt>
      <trkpt lat="46.57328" lon="5.3584">
        <ele>200.8</ele>
        <time>2022-05-27T11:14:46Z</time>
      </trkpt>
      <trkpt lat="46.57336" lon="5.3584">
        <ele>200.8</ele>
        <time>2022-05-27T11:14:47Z</time>
      </trkpt>
      <trkpt lat="46.57348" lon="5.35836">
        <ele>201</ele>
        <time>2022-05-27T11:14:49Z</time>
      </trkpt>
      <trkpt lat="46.57369" lon="5.35816">
        <ele>201.2</ele>
        <time>2022-05-27T11:14:53Z</time>
      </trkpt>
      <trkpt lat="46.57387" lon="5.35787">
        <ele>201.8</ele>
        <time>2022-05-27T11:14:58Z</time>
      </trkpt>
      <trkpt lat="46.5739" lon="5.35782">
        <ele>202.2</ele>
        <time>2022-05-27T11:14:59Z</time>
      </trkpt>
      <trkpt lat="46.57404" lon="5.35758">
        <ele>202.8</ele>
        <time>2022-05-27T11:15:03Z</time>
      </trkpt>
      <trkpt lat="46.57409" lon="5.35754">
        <ele>203</ele>
        <time>2022-05-27T11:15:04Z</time>
      </trkpt>
      <trkpt lat="46.57441" lon="5.35732">
        <ele>203</ele>
        <time>2022-05-27T11:15:09Z</time>
      </trkpt>
      <trkpt lat="46.57481" lon="5.35706">
        <ele>201</ele>
        <time>2022-05-27T11:15:14Z</time>
      </trkpt>
      <trkpt lat="46.5749" lon="5.357">
        <ele>200</ele>
        <time>2022-05-27T11:15:15Z</time>
      </trkpt>
      <trkpt lat="46.57507" lon="5.35689">
        <ele>198.8</ele>
        <time>2022-05-27T11:15:17Z</time>
      </trkpt>
      <trkpt lat="46.57533" lon="5.35669">
        <ele>197.6</ele>
        <time>2022-05-27T11:15:20Z</time>
      </trkpt>
      <trkpt lat="46.57562" lon="5.3563">
        <ele>196.4</ele>
        <time>2022-05-27T11:15:24Z</time>
      </trkpt>
      <trkpt lat="46.57583" lon="5.35601">
        <ele>195.6</ele>
        <time>2022-05-27T11:15:27Z</time>
      </trkpt>
      <trkpt lat="46.57591" lon="5.35593">
        <ele>195.2</ele>
        <time>2022-05-27T11:15:28Z</time>
      </trkpt>
      <trkpt lat="46.57616" lon="5.35573">
        <ele>194</ele>
        <time>2022-05-27T11:15:31Z</time>
      </trkpt>
      <trkpt lat="46.57629" lon="5.35559">
        <ele>193.8</ele>
        <time>2022-05-27T11:15:33Z</time>
      </trkpt>
      <trkpt lat="46.57664" lon="5.35527">
        <ele>193</ele>
        <time>2022-05-27T11:15:38Z</time>
      </trkpt>
      <trkpt lat="46.5771" lon="5.35496">
        <ele>193.6</ele>
        <time>2022-05-27T11:15:45Z</time>
      </trkpt>
      <trkpt lat="46.5774" lon="5.35477">
        <ele>195.2</ele>
        <time>2022-05-27T11:15:51Z</time>
      </trkpt>
      <trkpt lat="46.57752" lon="5.35469">
        <ele>196.4</ele>
        <time>2022-05-27T11:15:54Z</time>
      </trkpt>
      <trkpt lat="46.57763" lon="5.35462">
        <ele>197.6</ele>
        <time>2022-05-27T11:15:57Z</time>
      </trkpt>
      <trkpt lat="46.57767" lon="5.35459">
        <ele>198</ele>
        <time>2022-05-27T11:15:58Z</time>
      </trkpt>
      <trkpt lat="46.57781" lon="5.35447">
        <ele>198.8</ele>
        <time>2022-05-27T11:16:02Z</time>
      </trkpt>
      <trkpt lat="46.57788" lon="5.35441">
        <ele>200.2</ele>
        <time>2022-05-27T11:16:04Z</time>
      </trkpt>
      <trkpt lat="46.57796" lon="5.35435">
        <ele>200.8</ele>
        <time>2022-05-27T11:16:06Z</time>
      </trkpt>
      <trkpt lat="46.57803" lon="5.35429">
        <ele>201.4</ele>
        <time>2022-05-27T11:16:08Z</time>
      </trkpt>
      <trkpt lat="46.57806" lon="5.35428">
        <ele>201.6</ele>
        <time>2022-05-27T11:16:09Z</time>
      </trkpt>
      <trkpt lat="46.57813" lon="5.35426">
        <ele>202.2</ele>
        <time>2022-05-27T11:16:11Z</time>
      </trkpt>
      <trkpt lat="46.57817" lon="5.35428">
        <ele>202.4</ele>
        <time>2022-05-27T11:16:12Z</time>
      </trkpt>
      <trkpt lat="46.5782" lon="5.35432">
        <ele>203</ele>
        <time>2022-05-27T11:16:13Z</time>
      </trkpt>
      <trkpt lat="46.57823" lon="5.35439">
        <ele>203.2</ele>
        <time>2022-05-27T11:16:14Z</time>
      </trkpt>
      <trkpt lat="46.57824" lon="5.35452">
        <ele>203.6</ele>
        <time>2022-05-27T11:16:16Z</time>
      </trkpt>
      <trkpt lat="46.57828" lon="5.35473">
        <ele>204</ele>
        <time>2022-05-27T11:16:19Z</time>
      </trkpt>
      <trkpt lat="46.57829" lon="5.35481">
        <ele>204.2</ele>
        <time>2022-05-27T11:16:20Z</time>
      </trkpt>
      <trkpt lat="46.5783" lon="5.35489">
        <ele>204.2</ele>
        <time>2022-05-27T11:16:21Z</time>
      </trkpt>
      <trkpt lat="46.57837" lon="5.35516">
        <ele>204.2</ele>
        <time>2022-05-27T11:16:24Z</time>
      </trkpt>
      <trkpt lat="46.57855" lon="5.35565">
        <ele>203</ele>
        <time>2022-05-27T11:16:29Z</time>
      </trkpt>
      <trkpt lat="46.57862" lon="5.35584">
        <ele>202.4</ele>
        <time>2022-05-27T11:16:31Z</time>
      </trkpt>
      <trkpt lat="46.57869" lon="5.35609">
        <ele>201.6</ele>
        <time>2022-05-27T11:16:33Z</time>
      </trkpt>
      <trkpt lat="46.57871" lon="5.35621">
        <ele>201.2</ele>
        <time>2022-05-27T11:16:34Z</time>
      </trkpt>
      <trkpt lat="46.57879" lon="5.35672">
        <ele>201</ele>
        <time>2022-05-27T11:16:39Z</time>
      </trkpt>
      <trkpt lat="46.57884" lon="5.3569">
        <ele>201.2</ele>
        <time>2022-05-27T11:16:41Z</time>
      </trkpt>
      <trkpt lat="46.57895" lon="5.35715">
        <ele>201.8</ele>
        <time>2022-05-27T11:16:44Z</time>
      </trkpt>
      <trkpt lat="46.57911" lon="5.35747">
        <ele>202.4</ele>
        <time>2022-05-27T11:16:48Z</time>
      </trkpt>
      <trkpt lat="46.57923" lon="5.35771">
        <ele>202.4</ele>
        <time>2022-05-27T11:16:51Z</time>
      </trkpt>
      <trkpt lat="46.57934" lon="5.35799">
        <ele>202.4</ele>
        <time>2022-05-27T11:16:54Z</time>
      </trkpt>
      <trkpt lat="46.57936" lon="5.3581">
        <ele>202.2</ele>
        <time>2022-05-27T11:16:55Z</time>
      </trkpt>
      <trkpt lat="46.57937" lon="5.35822">
        <ele>202.2</ele>
        <time>2022-05-27T11:16:56Z</time>
      </trkpt>
      <trkpt lat="46.57935" lon="5.35845">
        <ele>201.8</ele>
        <time>2022-05-27T11:16:58Z</time>
      </trkpt>
      <trkpt lat="46.57927" lon="5.35877">
        <ele>201</ele>
        <time>2022-05-27T11:17:01Z</time>
      </trkpt>
      <trkpt lat="46.57916" lon="5.35918">
        <ele>200.6</ele>
        <time>2022-05-27T11:17:05Z</time>
      </trkpt>
      <trkpt lat="46.57911" lon="5.35951">
        <ele>200.6</ele>
        <time>2022-05-27T11:17:08Z</time>
      </trkpt>
      <trkpt lat="46.57912" lon="5.35962">
        <ele>200.4</ele>
        <time>2022-05-27T11:17:09Z</time>
      </trkpt>
      <trkpt lat="46.57914" lon="5.35973">
        <ele>200</ele>
        <time>2022-05-27T11:17:10Z</time>
      </trkpt>
      <trkpt lat="46.57925" lon="5.35991">
        <ele>198.6</ele>
        <time>2022-05-27T11:17:12Z</time>
      </trkpt>
      <trkpt lat="46.57959" lon="5.36021">
        <ele>197.8</ele>
        <time>2022-05-27T11:17:17Z</time>
      </trkpt>
      <trkpt lat="46.57966" lon="5.36029">
        <ele>197.6</ele>
        <time>2022-05-27T11:17:18Z</time>
      </trkpt>
      <trkpt lat="46.57976" lon="5.36045">
        <ele>197.4</ele>
        <time>2022-05-27T11:17:20Z</time>
      </trkpt>
      <trkpt lat="46.57981" lon="5.36053">
        <ele>197.4</ele>
        <time>2022-05-27T11:17:21Z</time>
      </trkpt>
      <trkpt lat="46.57989" lon="5.3607">
        <ele>197.4</ele>
        <time>2022-05-27T11:17:23Z</time>
      </trkpt>
      <trkpt lat="46.57993" lon="5.36078">
        <ele>197.4</ele>
        <time>2022-05-27T11:17:24Z</time>
      </trkpt>
      <trkpt lat="46.57996" lon="5.36086">
        <ele>197.4</ele>
        <time>2022-05-27T11:17:25Z</time>
      </trkpt>
      <trkpt lat="46.58" lon="5.36095">
        <ele>197.4</ele>
        <time>2022-05-27T11:17:26Z</time>
      </trkpt>
      <trkpt lat="46.58015" lon="5.36125">
        <ele>198.4</ele>
        <time>2022-05-27T11:17:30Z</time>
      </trkpt>
      <trkpt lat="46.58017" lon="5.36134">
        <ele>198.8</ele>
        <time>2022-05-27T11:17:31Z</time>
      </trkpt>
      <trkpt lat="46.58018" lon="5.36143">
        <ele>199.2</ele>
        <time>2022-05-27T11:17:32Z</time>
      </trkpt>
      <trkpt lat="46.5802" lon="5.36161">
        <ele>199.4</ele>
        <time>2022-05-27T11:17:34Z</time>
      </trkpt>
      <trkpt lat="46.5802" lon="5.36188">
        <ele>199.6</ele>
        <time>2022-05-27T11:17:37Z</time>
      </trkpt>
      <trkpt lat="46.5802" lon="5.36198">
        <ele>199.8</ele>
        <time>2022-05-27T11:17:38Z</time>
      </trkpt>
      <trkpt lat="46.5802" lon="5.36249">
        <ele>200</ele>
        <time>2022-05-27T11:17:43Z</time>
      </trkpt>
      <trkpt lat="46.5802" lon="5.36258">
        <ele>200.2</ele>
        <time>2022-05-27T11:17:44Z</time>
      </trkpt>
      <trkpt lat="46.58023" lon="5.36277">
        <ele>200.2</ele>
        <time>2022-05-27T11:17:46Z</time>
      </trkpt>
      <trkpt lat="46.58025" lon="5.36308">
        <ele>200</ele>
        <time>2022-05-27T11:17:49Z</time>
      </trkpt>
      <trkpt lat="46.58031" lon="5.36338">
        <ele>200.2</ele>
        <time>2022-05-27T11:17:52Z</time>
      </trkpt>
      <trkpt lat="46.58034" lon="5.36345">
        <ele>200.2</ele>
        <time>2022-05-27T11:17:53Z</time>
      </trkpt>
      <trkpt lat="46.58039" lon="5.36353">
        <ele>200.2</ele>
        <time>2022-05-27T11:17:54Z</time>
      </trkpt>
      <trkpt lat="46.58051" lon="5.36373">
        <ele>200.2</ele>
        <time>2022-05-27T11:17:57Z</time>
      </trkpt>
      <trkpt lat="46.58079" lon="5.36413">
        <ele>200.4</ele>
        <time>2022-05-27T11:18:03Z</time>
      </trkpt>
      <trkpt lat="46.58082" lon="5.36419">
        <ele>200.6</ele>
        <time>2022-05-27T11:18:04Z</time>
      </trkpt>
      <trkpt lat="46.58086" lon="5.36426">
        <ele>200.6</ele>
        <time>2022-05-27T11:18:05Z</time>
      </trkpt>
      <trkpt lat="46.58092" lon="5.3644">
        <ele>200.8</ele>
        <time>2022-05-27T11:18:07Z</time>
      </trkpt>
      <trkpt lat="46.58115" lon="5.36489">
        <ele>201.2</ele>
        <time>2022-05-27T11:18:12Z</time>
      </trkpt>
      <trkpt lat="46.58115" lon="5.36489">
        <ele>201.4</ele>
        <time>2022-05-27T11:18:13Z</time>
      </trkpt>
      <trkpt lat="46.58118" lon="5.36497">
        <ele>201.4</ele>
        <time>2022-05-27T11:18:14Z</time>
      </trkpt>
      <trkpt lat="46.58123" lon="5.36515">
        <ele>201.8</ele>
        <time>2022-05-27T11:18:16Z</time>
      </trkpt>
      <trkpt lat="46.58124" lon="5.36524">
        <ele>201.8</ele>
        <time>2022-05-27T11:18:17Z</time>
      </trkpt>
      <trkpt lat="46.58126" lon="5.36542">
        <ele>202</ele>
        <time>2022-05-27T11:18:19Z</time>
      </trkpt>
      <trkpt lat="46.58126" lon="5.36558">
        <ele>202.2</ele>
        <time>2022-05-27T11:18:21Z</time>
      </trkpt>
      <trkpt lat="46.58125" lon="5.36577">
        <ele>202.4</ele>
        <time>2022-05-27T11:18:23Z</time>
      </trkpt>
      <trkpt lat="46.58126" lon="5.36597">
        <ele>202.4</ele>
        <time>2022-05-27T11:18:25Z</time>
      </trkpt>
      <trkpt lat="46.58127" lon="5.36606">
        <ele>202.4</ele>
        <time>2022-05-27T11:18:26Z</time>
      </trkpt>
      <trkpt lat="46.58129" lon="5.36615">
        <ele>202.4</ele>
        <time>2022-05-27T11:18:27Z</time>
      </trkpt>
      <trkpt lat="46.58142" lon="5.36648">
        <ele>202.8</ele>
        <time>2022-05-27T11:18:31Z</time>
      </trkpt>
      <trkpt lat="46.58146" lon="5.36657">
        <ele>202.8</ele>
        <time>2022-05-27T11:18:32Z</time>
      </trkpt>
      <trkpt lat="46.58156" lon="5.3668">
        <ele>202.8</ele>
        <time>2022-05-27T11:18:35Z</time>
      </trkpt>
      <trkpt lat="46.58163" lon="5.36696">
        <ele>202.6</ele>
        <time>2022-05-27T11:18:37Z</time>
      </trkpt>
      <trkpt lat="46.58184" lon="5.36745">
        <ele>202.2</ele>
        <time>2022-05-27T11:18:43Z</time>
      </trkpt>
      <trkpt lat="46.58212" lon="5.36817">
        <ele>202</ele>
        <time>2022-05-27T11:18:52Z</time>
      </trkpt>
      <trkpt lat="46.58239" lon="5.36885">
        <ele>202.8</ele>
        <time>2022-05-27T11:19:01Z</time>
      </trkpt>
      <trkpt lat="46.58252" lon="5.36922">
        <ele>203.2</ele>
        <time>2022-05-27T11:19:06Z</time>
      </trkpt>
      <trkpt lat="46.58273" lon="5.36968">
        <ele>204</ele>
        <time>2022-05-27T11:19:13Z</time>
      </trkpt>
      <trkpt lat="46.58282" lon="5.3698">
        <ele>204.2</ele>
        <time>2022-05-27T11:19:15Z</time>
      </trkpt>
      <trkpt lat="46.58292" lon="5.36989">
        <ele>204.4</ele>
        <time>2022-05-27T11:19:17Z</time>
      </trkpt>
      <trkpt lat="46.58298" lon="5.36993">
        <ele>204.4</ele>
        <time>2022-05-27T11:19:18Z</time>
      </trkpt>
      <trkpt lat="46.58328" lon="5.37008">
        <ele>205</ele>
        <time>2022-05-27T11:19:24Z</time>
      </trkpt>
      <trkpt lat="46.58333" lon="5.3701">
        <ele>205</ele>
        <time>2022-05-27T11:19:25Z</time>
      </trkpt>
      <trkpt lat="46.58342" lon="5.37014">
        <ele>205.4</ele>
        <time>2022-05-27T11:19:27Z</time>
      </trkpt>
      <trkpt lat="46.58362" lon="5.37022">
        <ele>206.2</ele>
        <time>2022-05-27T11:19:31Z</time>
      </trkpt>
      <trkpt lat="46.58387" lon="5.37033">
        <ele>207.6</ele>
        <time>2022-05-27T11:19:36Z</time>
      </trkpt>
      <trkpt lat="46.58392" lon="5.37035">
        <ele>207.8</ele>
        <time>2022-05-27T11:19:37Z</time>
      </trkpt>
      <trkpt lat="46.58425" lon="5.37049">
        <ele>208.6</ele>
        <time>2022-05-27T11:19:44Z</time>
      </trkpt>
      <trkpt lat="46.58429" lon="5.37052">
        <ele>208.6</ele>
        <time>2022-05-27T11:19:45Z</time>
      </trkpt>
      <trkpt lat="46.58443" lon="5.37059">
        <ele>209.4</ele>
        <time>2022-05-27T11:19:48Z</time>
      </trkpt>
      <trkpt lat="46.58451" lon="5.37064">
        <ele>209.6</ele>
        <time>2022-05-27T11:19:50Z</time>
      </trkpt>
      <trkpt lat="46.58455" lon="5.37067">
        <ele>210.2</ele>
        <time>2022-05-27T11:19:51Z</time>
      </trkpt>
      <trkpt lat="46.58462" lon="5.37071">
        <ele>211</ele>
        <time>2022-05-27T11:19:53Z</time>
      </trkpt>
      <trkpt lat="46.58493" lon="5.37091">
        <ele>212.2</ele>
        <time>2022-05-27T11:20:00Z</time>
      </trkpt>
      <trkpt lat="46.58526" lon="5.37129">
        <ele>213.2</ele>
        <time>2022-05-27T11:20:08Z</time>
      </trkpt>
      <trkpt lat="46.58551" lon="5.37169">
        <ele>212.2</ele>
        <time>2022-05-27T11:20:13Z</time>
      </trkpt>
      <trkpt lat="46.58576" lon="5.37234">
        <ele>211.2</ele>
        <time>2022-05-27T11:20:20Z</time>
      </trkpt>
      <trkpt lat="46.58594" lon="5.37297">
        <ele>210.6</ele>
        <time>2022-05-27T11:20:27Z</time>
      </trkpt>
      <trkpt lat="46.58612" lon="5.37374">
        <ele>211</ele>
        <time>2022-05-27T11:20:36Z</time>
      </trkpt>
      <trkpt lat="46.58614" lon="5.37383">
        <ele>211</ele>
        <time>2022-05-27T11:20:37Z</time>
      </trkpt>
      <trkpt lat="46.58638" lon="5.37464">
        <ele>210.8</ele>
        <time>2022-05-27T11:20:46Z</time>
      </trkpt>
      <trkpt lat="46.58642" lon="5.37473">
        <ele>210.8</ele>
        <time>2022-05-27T11:20:47Z</time>
      </trkpt>
      <trkpt lat="46.58666" lon="5.37516">
        <ele>210.6</ele>
        <time>2022-05-27T11:20:53Z</time>
      </trkpt>
      <trkpt lat="46.58672" lon="5.37524">
        <ele>210.6</ele>
        <time>2022-05-27T11:20:54Z</time>
      </trkpt>
      <trkpt lat="46.58695" lon="5.37554">
        <ele>211</ele>
        <time>2022-05-27T11:20:59Z</time>
      </trkpt>
      <trkpt lat="46.58732" lon="5.37605">
        <ele>212</ele>
        <time>2022-05-27T11:21:08Z</time>
      </trkpt>
      <trkpt lat="46.5874" lon="5.37615">
        <ele>212.2</ele>
        <time>2022-05-27T11:21:10Z</time>
      </trkpt>
      <trkpt lat="46.58754" lon="5.37633">
        <ele>213.4</ele>
        <time>2022-05-27T11:21:14Z</time>
      </trkpt>
      <trkpt lat="46.58778" lon="5.37669">
        <ele>214.2</ele>
        <time>2022-05-27T11:21:20Z</time>
      </trkpt>
      <trkpt lat="46.58782" lon="5.37676">
        <ele>214.4</ele>
        <time>2022-05-27T11:21:21Z</time>
      </trkpt>
      <trkpt lat="46.58808" lon="5.37726">
        <ele>215.2</ele>
        <time>2022-05-27T11:21:28Z</time>
      </trkpt>
      <trkpt lat="46.58836" lon="5.37786">
        <ele>215.6</ele>
        <time>2022-05-27T11:21:36Z</time>
      </trkpt>
      <trkpt lat="46.5884" lon="5.37794">
        <ele>215.6</ele>
        <time>2022-05-27T11:21:37Z</time>
      </trkpt>
      <trkpt lat="46.58871" lon="5.37846">
        <ele>215.8</ele>
        <time>2022-05-27T11:21:45Z</time>
      </trkpt>
      <trkpt lat="46.58876" lon="5.37851">
        <ele>215.8</ele>
        <time>2022-05-27T11:21:46Z</time>
      </trkpt>
      <trkpt lat="46.58897" lon="5.37872">
        <ele>215.6</ele>
        <time>2022-05-27T11:21:50Z</time>
      </trkpt>
      <trkpt lat="46.58948" lon="5.37912">
        <ele>215.6</ele>
        <time>2022-05-27T11:21:59Z</time>
      </trkpt>
      <trkpt lat="46.58957" lon="5.37926">
        <ele>215.4</ele>
        <time>2022-05-27T11:22:01Z</time>
      </trkpt>
      <trkpt lat="46.58964" lon="5.37942">
        <ele>215.2</ele>
        <time>2022-05-27T11:22:03Z</time>
      </trkpt>
      <trkpt lat="46.58983" lon="5.37992">
        <ele>214.6</ele>
        <time>2022-05-27T11:22:09Z</time>
      </trkpt>
      <trkpt lat="46.58992" lon="5.38017">
        <ele>214.6</ele>
        <time>2022-05-27T11:22:12Z</time>
      </trkpt>
      <trkpt lat="46.59019" lon="5.3809">
        <ele>214.4</ele>
        <time>2022-05-27T11:22:20Z</time>
      </trkpt>
      <trkpt lat="46.59022" lon="5.38098">
        <ele>214.2</ele>
        <time>2022-05-27T11:22:21Z</time>
      </trkpt>
      <trkpt lat="46.59048" lon="5.38169">
        <ele>214.2</ele>
        <time>2022-05-27T11:22:30Z</time>
      </trkpt>
      <trkpt lat="46.59053" lon="5.38185">
        <ele>214.2</ele>
        <time>2022-05-27T11:22:32Z</time>
      </trkpt>
      <trkpt lat="46.5908" lon="5.38258">
        <ele>214</ele>
        <time>2022-05-27T11:22:41Z</time>
      </trkpt>
      <trkpt lat="46.59085" lon="5.38273">
        <ele>214</ele>
        <time>2022-05-27T11:22:43Z</time>
      </trkpt>
      <trkpt lat="46.5911" lon="5.38351">
        <ele>213.8</ele>
        <time>2022-05-27T11:22:52Z</time>
      </trkpt>
      <trkpt lat="46.59113" lon="5.3836">
        <ele>213.8</ele>
        <time>2022-05-27T11:22:53Z</time>
      </trkpt>
      <trkpt lat="46.59124" lon="5.38396">
        <ele>213.6</ele>
        <time>2022-05-27T11:22:57Z</time>
      </trkpt>
      <trkpt lat="46.59135" lon="5.38429">
        <ele>213.6</ele>
        <time>2022-05-27T11:23:01Z</time>
      </trkpt>
      <trkpt lat="46.59141" lon="5.38447">
        <ele>213.6</ele>
        <time>2022-05-27T11:23:03Z</time>
      </trkpt>
      <trkpt lat="46.59152" lon="5.38467">
        <ele>213.6</ele>
        <time>2022-05-27T11:23:06Z</time>
      </trkpt>
      <trkpt lat="46.59182" lon="5.38511">
        <ele>214.4</ele>
        <time>2022-05-27T11:23:13Z</time>
      </trkpt>
      <trkpt lat="46.59194" lon="5.38526">
        <ele>214.6</ele>
        <time>2022-05-27T11:23:16Z</time>
      </trkpt>
      <trkpt lat="46.59206" lon="5.3854">
        <ele>215.2</ele>
        <time>2022-05-27T11:23:19Z</time>
      </trkpt>
      <trkpt lat="46.59229" lon="5.38561">
        <ele>216</ele>
        <time>2022-05-27T11:23:24Z</time>
      </trkpt>
      <trkpt lat="46.59234" lon="5.38567">
        <ele>216</ele>
        <time>2022-05-27T11:23:25Z</time>
      </trkpt>
      <trkpt lat="46.59259" lon="5.38595">
        <ele>216.2</ele>
        <time>2022-05-27T11:23:30Z</time>
      </trkpt>
      <trkpt lat="46.59298" lon="5.38638">
        <ele>215.8</ele>
        <time>2022-05-27T11:23:37Z</time>
      </trkpt>
      <trkpt lat="46.59339" lon="5.38685">
        <ele>215.6</ele>
        <time>2022-05-27T11:23:45Z</time>
      </trkpt>
      <trkpt lat="46.59383" lon="5.38733">
        <ele>215.8</ele>
        <time>2022-05-27T11:23:54Z</time>
      </trkpt>
      <trkpt lat="46.59428" lon="5.38781">
        <ele>216.4</ele>
        <time>2022-05-27T11:24:03Z</time>
      </trkpt>
      <trkpt lat="46.59432" lon="5.38788">
        <ele>216.4</ele>
        <time>2022-05-27T11:24:04Z</time>
      </trkpt>
      <trkpt lat="46.59436" lon="5.38795">
        <ele>216.6</ele>
        <time>2022-05-27T11:24:05Z</time>
      </trkpt>
      <trkpt lat="46.59439" lon="5.38803">
        <ele>216.6</ele>
        <time>2022-05-27T11:24:06Z</time>
      </trkpt>
      <trkpt lat="46.59446" lon="5.38829">
        <ele>216.6</ele>
        <time>2022-05-27T11:24:09Z</time>
      </trkpt>
      <trkpt lat="46.59451" lon="5.38883">
        <ele>216.6</ele>
        <time>2022-05-27T11:24:15Z</time>
      </trkpt>
      <trkpt lat="46.59452" lon="5.38893">
        <ele>216.6</ele>
        <time>2022-05-27T11:24:16Z</time>
      </trkpt>
      <trkpt lat="46.59458" lon="5.3892">
        <ele>216.4</ele>
        <time>2022-05-27T11:24:19Z</time>
      </trkpt>
      <trkpt lat="46.59472" lon="5.38955">
        <ele>216.2</ele>
        <time>2022-05-27T11:24:23Z</time>
      </trkpt>
      <trkpt lat="46.59476" lon="5.38973">
        <ele>216</ele>
        <time>2022-05-27T11:24:25Z</time>
      </trkpt>
      <trkpt lat="46.59486" lon="5.39053">
        <ele>215.8</ele>
        <time>2022-05-27T11:24:33Z</time>
      </trkpt>
      <trkpt lat="46.59496" lon="5.39136">
        <ele>216</ele>
        <time>2022-05-27T11:24:42Z</time>
      </trkpt>
      <trkpt lat="46.59503" lon="5.3918">
        <ele>216.4</ele>
        <time>2022-05-27T11:24:47Z</time>
      </trkpt>
      <trkpt lat="46.5951" lon="5.39195">
        <ele>216.4</ele>
        <time>2022-05-27T11:24:49Z</time>
      </trkpt>
      <trkpt lat="46.59521" lon="5.39205">
        <ele>216.6</ele>
        <time>2022-05-27T11:24:51Z</time>
      </trkpt>
      <trkpt lat="46.59532" lon="5.39211">
        <ele>216.8</ele>
        <time>2022-05-27T11:24:53Z</time>
      </trkpt>
      <trkpt lat="46.59557" lon="5.39211">
        <ele>217</ele>
        <time>2022-05-27T11:24:57Z</time>
      </trkpt>
      <trkpt lat="46.59593" lon="5.39198">
        <ele>217</ele>
        <time>2022-05-27T11:25:03Z</time>
      </trkpt>
      <trkpt lat="46.59616" lon="5.39189">
        <ele>217</ele>
        <time>2022-05-27T11:25:07Z</time>
      </trkpt>
      <trkpt lat="46.59629" lon="5.39188">
        <ele>217.4</ele>
        <time>2022-05-27T11:25:09Z</time>
      </trkpt>
      <trkpt lat="46.59677" lon="5.39196">
        <ele>218</ele>
        <time>2022-05-27T11:25:17Z</time>
      </trkpt>
      <trkpt lat="46.59683" lon="5.39197">
        <ele>218</ele>
        <time>2022-05-27T11:25:18Z</time>
      </trkpt>
      <trkpt lat="46.59721" lon="5.39209">
        <ele>218.4</ele>
        <time>2022-05-27T11:25:25Z</time>
      </trkpt>
      <trkpt lat="46.59734" lon="5.39223">
        <ele>218.6</ele>
        <time>2022-05-27T11:25:28Z</time>
      </trkpt>
      <trkpt lat="46.59738" lon="5.39223">
        <ele>218.8</ele>
        <time>2022-05-27T11:25:29Z</time>
      </trkpt>
      <trkpt lat="46.59744" lon="5.39222">
        <ele>219</ele>
        <time>2022-05-27T11:25:30Z</time>
      </trkpt>
      <trkpt lat="46.59755" lon="5.39214">
        <ele>218.8</ele>
        <time>2022-05-27T11:25:32Z</time>
      </trkpt>
      <trkpt lat="46.59768" lon="5.39204">
        <ele>218.8</ele>
        <time>2022-05-27T11:25:34Z</time>
      </trkpt>
      <trkpt lat="46.59781" lon="5.39198">
        <ele>218.4</ele>
        <time>2022-05-27T11:25:36Z</time>
      </trkpt>
      <trkpt lat="46.59809" lon="5.39193">
        <ele>217.8</ele>
        <time>2022-05-27T11:25:40Z</time>
      </trkpt>
      <trkpt lat="46.59823" lon="5.39195">
        <ele>217.4</ele>
        <time>2022-05-27T11:25:42Z</time>
      </trkpt>
      <trkpt lat="46.59862" lon="5.39201">
        <ele>217.2</ele>
        <time>2022-05-27T11:25:48Z</time>
      </trkpt>
      <trkpt lat="46.59882" lon="5.39198">
        <ele>216.8</ele>
        <time>2022-05-27T11:25:51Z</time>
      </trkpt>
      <trkpt lat="46.59901" lon="5.39192">
        <ele>217</ele>
        <time>2022-05-27T11:25:54Z</time>
      </trkpt>
      <trkpt lat="46.59913" lon="5.39188">
        <ele>216.6</ele>
        <time>2022-05-27T11:25:56Z</time>
      </trkpt>
      <trkpt lat="46.59934" lon="5.39186">
        <ele>216.4</ele>
        <time>2022-05-27T11:25:59Z</time>
      </trkpt>
      <trkpt lat="46.59981" lon="5.39189">
        <ele>216.4</ele>
        <time>2022-05-27T11:26:05Z</time>
      </trkpt>
      <trkpt lat="46.59989" lon="5.39191">
        <ele>215.8</ele>
        <time>2022-05-27T11:26:06Z</time>
      </trkpt>
      <trkpt lat="46.6001" lon="5.39203">
        <ele>214.8</ele>
        <time>2022-05-27T11:26:09Z</time>
      </trkpt>
      <trkpt lat="46.60016" lon="5.39208">
        <ele>214.8</ele>
        <time>2022-05-27T11:26:10Z</time>
      </trkpt>
      <trkpt lat="46.60029" lon="5.39222">
        <ele>214.6</ele>
        <time>2022-05-27T11:26:12Z</time>
      </trkpt>
      <trkpt lat="46.6004" lon="5.39241">
        <ele>214.4</ele>
        <time>2022-05-27T11:26:14Z</time>
      </trkpt>
      <trkpt lat="46.60048" lon="5.39265">
        <ele>213.8</ele>
        <time>2022-05-27T11:26:16Z</time>
      </trkpt>
      <trkpt lat="46.60052" lon="5.39292">
        <ele>213.6</ele>
        <time>2022-05-27T11:26:18Z</time>
      </trkpt>
      <trkpt lat="46.60052" lon="5.3932">
        <ele>212.6</ele>
        <time>2022-05-27T11:26:20Z</time>
      </trkpt>
      <trkpt lat="46.6005" lon="5.39348">
        <ele>211.2</ele>
        <time>2022-05-27T11:26:22Z</time>
      </trkpt>
      <trkpt lat="46.60048" lon="5.39362">
        <ele>210.2</ele>
        <time>2022-05-27T11:26:23Z</time>
      </trkpt>
      <trkpt lat="46.60043" lon="5.39388">
        <ele>208.6</ele>
        <time>2022-05-27T11:26:25Z</time>
      </trkpt>
      <trkpt lat="46.60038" lon="5.39412">
        <ele>208.2</ele>
        <time>2022-05-27T11:26:27Z</time>
      </trkpt>
      <trkpt lat="46.60032" lon="5.39444">
        <ele>208</ele>
        <time>2022-05-27T11:26:30Z</time>
      </trkpt>
      <trkpt lat="46.60032" lon="5.39464">
        <ele>208</ele>
        <time>2022-05-27T11:26:32Z</time>
      </trkpt>
      <trkpt lat="46.60034" lon="5.39476">
        <ele>208</ele>
        <time>2022-05-27T11:26:33Z</time>
      </trkpt>
      <trkpt lat="46.60039" lon="5.39496">
        <ele>208.4</ele>
        <time>2022-05-27T11:26:35Z</time>
      </trkpt>
      <trkpt lat="46.6006" lon="5.39549">
        <ele>208.2</ele>
        <time>2022-05-27T11:26:40Z</time>
      </trkpt>
      <trkpt lat="46.60064" lon="5.39557">
        <ele>207.6</ele>
        <time>2022-05-27T11:26:41Z</time>
      </trkpt>
      <trkpt lat="46.6008" lon="5.39593">
        <ele>206.2</ele>
        <time>2022-05-27T11:26:44Z</time>
      </trkpt>
      <trkpt lat="46.60083" lon="5.39605">
        <ele>205.8</ele>
        <time>2022-05-27T11:26:45Z</time>
      </trkpt>
      <trkpt lat="46.60086" lon="5.39618">
        <ele>205.4</ele>
        <time>2022-05-27T11:26:46Z</time>
      </trkpt>
      <trkpt lat="46.60087" lon="5.39631">
        <ele>205.2</ele>
        <time>2022-05-27T11:26:47Z</time>
      </trkpt>
      <trkpt lat="46.60086" lon="5.39655">
        <ele>204.4</ele>
        <time>2022-05-27T11:26:49Z</time>
      </trkpt>
      <trkpt lat="46.60083" lon="5.39668">
        <ele>204</ele>
        <time>2022-05-27T11:26:50Z</time>
      </trkpt>
      <trkpt lat="46.60073" lon="5.39694">
        <ele>203.6</ele>
        <time>2022-05-27T11:26:52Z</time>
      </trkpt>
      <trkpt lat="46.60064" lon="5.39715">
        <ele>203</ele>
        <time>2022-05-27T11:26:54Z</time>
      </trkpt>
      <trkpt lat="46.60061" lon="5.39731">
        <ele>202.6</ele>
        <time>2022-05-27T11:26:55Z</time>
      </trkpt>
      <trkpt lat="46.60062" lon="5.39744">
        <ele>202.2</ele>
        <time>2022-05-27T11:26:56Z</time>
      </trkpt>
      <trkpt lat="46.60065" lon="5.39756">
        <ele>201.8</ele>
        <time>2022-05-27T11:26:57Z</time>
      </trkpt>
      <trkpt lat="46.60068" lon="5.39766">
        <ele>201.6</ele>
        <time>2022-05-27T11:26:58Z</time>
      </trkpt>
      <trkpt lat="46.60088" lon="5.39812">
        <ele>200.8</ele>
        <time>2022-05-27T11:27:02Z</time>
      </trkpt>
      <trkpt lat="46.60093" lon="5.3982">
        <ele>200.8</ele>
        <time>2022-05-27T11:27:03Z</time>
      </trkpt>
      <trkpt lat="46.60101" lon="5.3983">
        <ele>200.6</ele>
        <time>2022-05-27T11:27:04Z</time>
      </trkpt>
      <trkpt lat="46.60115" lon="5.39844">
        <ele>199.6</ele>
        <time>2022-05-27T11:27:06Z</time>
      </trkpt>
      <trkpt lat="46.60122" lon="5.3985">
        <ele>199.4</ele>
        <time>2022-05-27T11:27:07Z</time>
      </trkpt>
      <trkpt lat="46.60162" lon="5.39887">
        <ele>199.2</ele>
        <time>2022-05-27T11:27:13Z</time>
      </trkpt>
      <trkpt lat="46.60168" lon="5.39893">
        <ele>199.2</ele>
        <time>2022-05-27T11:27:14Z</time>
      </trkpt>
      <trkpt lat="46.60176" lon="5.39908">
        <ele>199.2</ele>
        <time>2022-05-27T11:27:16Z</time>
      </trkpt>
      <trkpt lat="46.60184" lon="5.39939">
        <ele>199.4</ele>
        <time>2022-05-27T11:27:19Z</time>
      </trkpt>
      <trkpt lat="46.60186" lon="5.39987">
        <ele>200</ele>
        <time>2022-05-27T11:27:24Z</time>
      </trkpt>
      <trkpt lat="46.60187" lon="5.40013">
        <ele>200.8</ele>
        <time>2022-05-27T11:27:27Z</time>
      </trkpt>
      <trkpt lat="46.60188" lon="5.40029">
        <ele>201.2</ele>
        <time>2022-05-27T11:27:29Z</time>
      </trkpt>
      <trkpt lat="46.6019" lon="5.40056">
        <ele>202</ele>
        <time>2022-05-27T11:27:32Z</time>
      </trkpt>
      <trkpt lat="46.60191" lon="5.40082">
        <ele>202.2</ele>
        <time>2022-05-27T11:27:35Z</time>
      </trkpt>
      <trkpt lat="46.60192" lon="5.40115">
        <ele>203</ele>
        <time>2022-05-27T11:27:39Z</time>
      </trkpt>
      <trkpt lat="46.6019" lon="5.4013">
        <ele>203.4</ele>
        <time>2022-05-27T11:27:41Z</time>
      </trkpt>
      <trkpt lat="46.60185" lon="5.40152">
        <ele>204.2</ele>
        <time>2022-05-27T11:27:44Z</time>
      </trkpt>
      <trkpt lat="46.60179" lon="5.40178">
        <ele>204.6</ele>
        <time>2022-05-27T11:27:47Z</time>
      </trkpt>
      <trkpt lat="46.60175" lon="5.40206">
        <ele>204.8</ele>
        <time>2022-05-27T11:27:50Z</time>
      </trkpt>
      <trkpt lat="46.60176" lon="5.40223">
        <ele>204.8</ele>
        <time>2022-05-27T11:27:52Z</time>
      </trkpt>
      <trkpt lat="46.6018" lon="5.40244">
        <ele>204.8</ele>
        <time>2022-05-27T11:27:54Z</time>
      </trkpt>
      <trkpt lat="46.60186" lon="5.4026">
        <ele>204.6</ele>
        <time>2022-05-27T11:27:56Z</time>
      </trkpt>
      <trkpt lat="46.6021" lon="5.40324">
        <ele>203.4</ele>
        <time>2022-05-27T11:28:04Z</time>
      </trkpt>
      <trkpt lat="46.6022" lon="5.40372">
        <ele>204.2</ele>
        <time>2022-05-27T11:28:10Z</time>
      </trkpt>
      <trkpt lat="46.6022" lon="5.40424">
        <ele>204.6</ele>
        <time>2022-05-27T11:28:15Z</time>
      </trkpt>
      <trkpt lat="46.60218" lon="5.40473">
        <ele>204</ele>
        <time>2022-05-27T11:28:19Z</time>
      </trkpt>
      <trkpt lat="46.60219" lon="5.40486">
        <ele>203.8</ele>
        <time>2022-05-27T11:28:20Z</time>
      </trkpt>
      <trkpt lat="46.60224" lon="5.40511">
        <ele>203</ele>
        <time>2022-05-27T11:28:22Z</time>
      </trkpt>
      <trkpt lat="46.60226" lon="5.40521">
        <ele>202.4</ele>
        <time>2022-05-27T11:28:23Z</time>
      </trkpt>
      <trkpt lat="46.60233" lon="5.40548">
        <ele>201.4</ele>
        <time>2022-05-27T11:28:25Z</time>
      </trkpt>
      <trkpt lat="46.60235" lon="5.4056">
        <ele>200.6</ele>
        <time>2022-05-27T11:28:26Z</time>
      </trkpt>
      <trkpt lat="46.60236" lon="5.40585">
        <ele>200</ele>
        <time>2022-05-27T11:28:28Z</time>
      </trkpt>
      <trkpt lat="46.60233" lon="5.40609">
        <ele>199.8</ele>
        <time>2022-05-27T11:28:30Z</time>
      </trkpt>
      <trkpt lat="46.6023" lon="5.4062">
        <ele>199.8</ele>
        <time>2022-05-27T11:28:31Z</time>
      </trkpt>
      <trkpt lat="46.60226" lon="5.40629">
        <ele>199.6</ele>
        <time>2022-05-27T11:28:32Z</time>
      </trkpt>
      <trkpt lat="46.60209" lon="5.40657">
        <ele>199.4</ele>
        <time>2022-05-27T11:28:35Z</time>
      </trkpt>
      <trkpt lat="46.60186" lon="5.40695">
        <ele>199</ele>
        <time>2022-05-27T11:28:39Z</time>
      </trkpt>
      <trkpt lat="46.60181" lon="5.40705">
        <ele>199</ele>
        <time>2022-05-27T11:28:40Z</time>
      </trkpt>
      <trkpt lat="46.60178" lon="5.40714">
        <ele>199</ele>
        <time>2022-05-27T11:28:41Z</time>
      </trkpt>
      <trkpt lat="46.60174" lon="5.40727">
        <ele>198.8</ele>
        <time>2022-05-27T11:28:42Z</time>
      </trkpt>
      <trkpt lat="46.60172" lon="5.4075">
        <ele>198.8</ele>
        <time>2022-05-27T11:28:44Z</time>
      </trkpt>
      <trkpt lat="46.60173" lon="5.40774">
        <ele>198.6</ele>
        <time>2022-05-27T11:28:46Z</time>
      </trkpt>
      <trkpt lat="46.60178" lon="5.40796">
        <ele>198.6</ele>
        <time>2022-05-27T11:28:48Z</time>
      </trkpt>
      <trkpt lat="46.60193" lon="5.40823">
        <ele>198</ele>
        <time>2022-05-27T11:28:51Z</time>
      </trkpt>
      <trkpt lat="46.60218" lon="5.40846">
        <ele>198.2</ele>
        <time>2022-05-27T11:28:55Z</time>
      </trkpt>
      <trkpt lat="46.60259" lon="5.40879">
        <ele>198.6</ele>
        <time>2022-05-27T11:29:02Z</time>
      </trkpt>
      <trkpt lat="46.60293" lon="5.40908">
        <ele>200.4</ele>
        <time>2022-05-27T11:29:09Z</time>
      </trkpt>
      <trkpt lat="46.60303" lon="5.40924">
        <ele>201.4</ele>
        <time>2022-05-27T11:29:12Z</time>
      </trkpt>
      <trkpt lat="46.60309" lon="5.40934">
        <ele>202</ele>
        <time>2022-05-27T11:29:14Z</time>
      </trkpt>
      <trkpt lat="46.60317" lon="5.4095">
        <ele>202.6</ele>
        <time>2022-05-27T11:29:17Z</time>
      </trkpt>
      <trkpt lat="46.60324" lon="5.40963">
        <ele>203.2</ele>
        <time>2022-05-27T11:29:20Z</time>
      </trkpt>
      <trkpt lat="46.60326" lon="5.40968">
        <ele>203.6</ele>
        <time>2022-05-27T11:29:21Z</time>
      </trkpt>
      <trkpt lat="46.60334" lon="5.40983">
        <ele>204.6</ele>
        <time>2022-05-27T11:29:25Z</time>
      </trkpt>
      <trkpt lat="46.60337" lon="5.40986">
        <ele>204.8</ele>
        <time>2022-05-27T11:29:26Z</time>
      </trkpt>
      <trkpt lat="46.60346" lon="5.40995">
        <ele>205.8</ele>
        <time>2022-05-27T11:29:29Z</time>
      </trkpt>
      <trkpt lat="46.60359" lon="5.41005">
        <ele>207</ele>
        <time>2022-05-27T11:29:33Z</time>
      </trkpt>
      <trkpt lat="46.60374" lon="5.41014">
        <ele>208.2</ele>
        <time>2022-05-27T11:29:37Z</time>
      </trkpt>
      <trkpt lat="46.60384" lon="5.41024">
        <ele>209.2</ele>
        <time>2022-05-27T11:29:40Z</time>
      </trkpt>
      <trkpt lat="46.6039" lon="5.41031">
        <ele>209.6</ele>
        <time>2022-05-27T11:29:42Z</time>
      </trkpt>
      <trkpt lat="46.60404" lon="5.41052">
        <ele>210.6</ele>
        <time>2022-05-27T11:29:47Z</time>
      </trkpt>
      <trkpt lat="46.60417" lon="5.41087">
        <ele>211.2</ele>
        <time>2022-05-27T11:29:53Z</time>
      </trkpt>
      <trkpt lat="46.60419" lon="5.41094">
        <ele>211.4</ele>
        <time>2022-05-27T11:29:54Z</time>
      </trkpt>
      <trkpt lat="46.60422" lon="5.411">
        <ele>211.4</ele>
        <time>2022-05-27T11:29:55Z</time>
      </trkpt>
      <trkpt lat="46.60429" lon="5.41113">
        <ele>211.4</ele>
        <time>2022-05-27T11:29:57Z</time>
      </trkpt>
      <trkpt lat="46.60438" lon="5.41123">
        <ele>211.4</ele>
        <time>2022-05-27T11:29:59Z</time>
      </trkpt>
      <trkpt lat="46.60461" lon="5.41136">
        <ele>211</ele>
        <time>2022-05-27T11:30:03Z</time>
      </trkpt>
      <trkpt lat="46.60467" lon="5.41138">
        <ele>210.8</ele>
        <time>2022-05-27T11:30:04Z</time>
      </trkpt>
      <trkpt lat="46.60509" lon="5.41141">
        <ele>210</ele>
        <time>2022-05-27T11:30:10Z</time>
      </trkpt>
      <trkpt lat="46.60538" lon="5.41143">
        <ele>209.2</ele>
        <time>2022-05-27T11:30:14Z</time>
      </trkpt>
      <trkpt lat="46.60553" lon="5.41144">
        <ele>208.6</ele>
        <time>2022-05-27T11:30:16Z</time>
      </trkpt>
      <trkpt lat="46.6056" lon="5.41144">
        <ele>208</ele>
        <time>2022-05-27T11:30:17Z</time>
      </trkpt>
      <trkpt lat="46.60597" lon="5.41154">
        <ele>207</ele>
        <time>2022-05-27T11:30:22Z</time>
      </trkpt>
      <trkpt lat="46.60604" lon="5.41157">
        <ele>206.8</ele>
        <time>2022-05-27T11:30:23Z</time>
      </trkpt>
      <trkpt lat="46.6064" lon="5.41168">
        <ele>205.8</ele>
        <time>2022-05-27T11:30:28Z</time>
      </trkpt>
      <trkpt lat="46.60656" lon="5.41174">
        <ele>205.2</ele>
        <time>2022-05-27T11:30:30Z</time>
      </trkpt>
      <trkpt lat="46.60671" lon="5.4118">
        <ele>204.6</ele>
        <time>2022-05-27T11:30:32Z</time>
      </trkpt>
      <trkpt lat="46.60678" lon="5.41183">
        <ele>204.2</ele>
        <time>2022-05-27T11:30:33Z</time>
      </trkpt>
      <trkpt lat="46.60693" lon="5.41194">
        <ele>203.6</ele>
        <time>2022-05-27T11:30:35Z</time>
      </trkpt>
      <trkpt lat="46.60699" lon="5.412">
        <ele>203.6</ele>
        <time>2022-05-27T11:30:36Z</time>
      </trkpt>
      <trkpt lat="46.60716" lon="5.4122">
        <ele>203.2</ele>
        <time>2022-05-27T11:30:39Z</time>
      </trkpt>
      <trkpt lat="46.60746" lon="5.41259">
        <ele>203.2</ele>
        <time>2022-05-27T11:30:45Z</time>
      </trkpt>
      <trkpt lat="46.60789" lon="5.41303">
        <ele>204</ele>
        <time>2022-05-27T11:30:53Z</time>
      </trkpt>
      <trkpt lat="46.60809" lon="5.41322">
        <ele>204</ele>
        <time>2022-05-27T11:30:56Z</time>
      </trkpt>
      <trkpt lat="46.60824" lon="5.41332">
        <ele>203.4</ele>
        <time>2022-05-27T11:30:58Z</time>
      </trkpt>
      <trkpt lat="46.60831" lon="5.41335">
        <ele>203</ele>
        <time>2022-05-27T11:30:59Z</time>
      </trkpt>
      <trkpt lat="46.60844" lon="5.41335">
        <ele>202.2</ele>
        <time>2022-05-27T11:31:01Z</time>
      </trkpt>
      <trkpt lat="46.60855" lon="5.4133">
        <ele>201.4</ele>
        <time>2022-05-27T11:31:03Z</time>
      </trkpt>
      <trkpt lat="46.6086" lon="5.41324">
        <ele>201</ele>
        <time>2022-05-27T11:31:04Z</time>
      </trkpt>
      <trkpt lat="46.60865" lon="5.41318">
        <ele>200.8</ele>
        <time>2022-05-27T11:31:05Z</time>
      </trkpt>
      <trkpt lat="46.60888" lon="5.41287">
        <ele>200</ele>
        <time>2022-05-27T11:31:09Z</time>
      </trkpt>
      <trkpt lat="46.60895" lon="5.41279">
        <ele>200</ele>
        <time>2022-05-27T11:31:10Z</time>
      </trkpt>
      <trkpt lat="46.60933" lon="5.41235">
        <ele>199</ele>
        <time>2022-05-27T11:31:16Z</time>
      </trkpt>
      <trkpt lat="46.60941" lon="5.41226">
        <ele>198.8</ele>
        <time>2022-05-27T11:31:17Z</time>
      </trkpt>
      <trkpt lat="46.60989" lon="5.4118">
        <ele>198</ele>
        <time>2022-05-27T11:31:24Z</time>
      </trkpt>
      <trkpt lat="46.60995" lon="5.41175">
        <ele>197.8</ele>
        <time>2022-05-27T11:31:25Z</time>
      </trkpt>
      <trkpt lat="46.61003" lon="5.41168">
        <ele>197.4</ele>
        <time>2022-05-27T11:31:26Z</time>
      </trkpt>
      <trkpt lat="46.61023" lon="5.41157">
        <ele>197</ele>
        <time>2022-05-27T11:31:29Z</time>
      </trkpt>
      <trkpt lat="46.61032" lon="5.41154">
        <ele>197</ele>
        <time>2022-05-27T11:31:30Z</time>
      </trkpt>
      <trkpt lat="46.61045" lon="5.41154">
        <ele>196.8</ele>
        <time>2022-05-27T11:31:32Z</time>
      </trkpt>
      <trkpt lat="46.61088" lon="5.41166">
        <ele>196.8</ele>
        <time>2022-05-27T11:31:38Z</time>
      </trkpt>
      <trkpt lat="46.61143" lon="5.41182">
        <ele>196</ele>
        <time>2022-05-27T11:31:46Z</time>
      </trkpt>
      <trkpt lat="46.6115" lon="5.41184">
        <ele>195.8</ele>
        <time>2022-05-27T11:31:47Z</time>
      </trkpt>
      <trkpt lat="46.61201" lon="5.41199">
        <ele>196</ele>
        <time>2022-05-27T11:31:55Z</time>
      </trkpt>
      <trkpt lat="46.61259" lon="5.41214">
        <ele>196.8</ele>
        <time>2022-05-27T11:32:04Z</time>
      </trkpt>
      <trkpt lat="46.61272" lon="5.41218">
        <ele>196.8</ele>
        <time>2022-05-27T11:32:06Z</time>
      </trkpt>
      <trkpt lat="46.61327" lon="5.41233">
        <ele>196.4</ele>
        <time>2022-05-27T11:32:15Z</time>
      </trkpt>
      <trkpt lat="46.61334" lon="5.41235">
        <ele>196.4</ele>
        <time>2022-05-27T11:32:16Z</time>
      </trkpt>
      <trkpt lat="46.61388" lon="5.4125">
        <ele>196.8</ele>
        <time>2022-05-27T11:32:25Z</time>
      </trkpt>
      <trkpt lat="46.61401" lon="5.41254">
        <ele>196.8</ele>
        <time>2022-05-27T11:32:27Z</time>
      </trkpt>
      <trkpt lat="46.61433" lon="5.41262">
        <ele>197.2</ele>
        <time>2022-05-27T11:32:33Z</time>
      </trkpt>
      <trkpt lat="46.61475" lon="5.41273">
        <ele>197.4</ele>
        <time>2022-05-27T11:32:39Z</time>
      </trkpt>
      <trkpt lat="46.61485" lon="5.41276">
        <ele>197.6</ele>
        <time>2022-05-27T11:32:41Z</time>
      </trkpt>
      <trkpt lat="46.61505" lon="5.41284">
        <ele>197.6</ele>
        <time>2022-05-27T11:32:44Z</time>
      </trkpt>
      <trkpt lat="46.61548" lon="5.4131">
        <ele>197.4</ele>
        <time>2022-05-27T11:32:51Z</time>
      </trkpt>
      <trkpt lat="46.61601" lon="5.41348">
        <ele>197.2</ele>
        <time>2022-05-27T11:33:00Z</time>
      </trkpt>
      <trkpt lat="46.61612" lon="5.41358">
        <ele>197</ele>
        <time>2022-05-27T11:33:02Z</time>
      </trkpt>
      <trkpt lat="46.61651" lon="5.41403">
        <ele>196.6</ele>
        <time>2022-05-27T11:33:10Z</time>
      </trkpt>
      <trkpt lat="46.61689" lon="5.41433">
        <ele>197</ele>
        <time>2022-05-27T11:33:17Z</time>
      </trkpt>
      <trkpt lat="46.61708" lon="5.41438">
        <ele>197.2</ele>
        <time>2022-05-27T11:33:20Z</time>
      </trkpt>
      <trkpt lat="46.6172" lon="5.41438">
        <ele>197.2</ele>
        <time>2022-05-27T11:33:22Z</time>
      </trkpt>
      <trkpt lat="46.61752" lon="5.41428">
        <ele>197.4</ele>
        <time>2022-05-27T11:33:27Z</time>
      </trkpt>
      <trkpt lat="46.61778" lon="5.41402">
        <ele>197.8</ele>
        <time>2022-05-27T11:33:32Z</time>
      </trkpt>
      <trkpt lat="46.61805" lon="5.41358">
        <ele>198</ele>
        <time>2022-05-27T11:33:38Z</time>
      </trkpt>
      <trkpt lat="46.6184" lon="5.41295">
        <ele>197.8</ele>
        <time>2022-05-27T11:33:46Z</time>
      </trkpt>
      <trkpt lat="46.61848" lon="5.4128">
        <ele>197.6</ele>
        <time>2022-05-27T11:33:48Z</time>
      </trkpt>
      <trkpt lat="46.61888" lon="5.41217">
        <ele>197.8</ele>
        <time>2022-05-27T11:33:57Z</time>
      </trkpt>
      <trkpt lat="46.61928" lon="5.41164">
        <ele>197.8</ele>
        <time>2022-05-27T11:34:05Z</time>
      </trkpt>
      <trkpt lat="46.61933" lon="5.41157">
        <ele>197.8</ele>
        <time>2022-05-27T11:34:06Z</time>
      </trkpt>
      <trkpt lat="46.61972" lon="5.41103">
        <ele>197.8</ele>
        <time>2022-05-27T11:34:14Z</time>
      </trkpt>
      <trkpt lat="46.61977" lon="5.41096">
        <ele>197.8</ele>
        <time>2022-05-27T11:34:15Z</time>
      </trkpt>
      <trkpt lat="46.62014" lon="5.4104">
        <ele>197.8</ele>
        <time>2022-05-27T11:34:23Z</time>
      </trkpt>
      <trkpt lat="46.62035" lon="5.40981">
        <ele>197.8</ele>
        <time>2022-05-27T11:34:30Z</time>
      </trkpt>
      <trkpt lat="46.62061" lon="5.40902">
        <ele>198</ele>
        <time>2022-05-27T11:34:39Z</time>
      </trkpt>
      <trkpt lat="46.62067" lon="5.40884">
        <ele>198</ele>
        <time>2022-05-27T11:34:41Z</time>
      </trkpt>
      <trkpt lat="46.62094" lon="5.40808">
        <ele>198</ele>
        <time>2022-05-27T11:34:50Z</time>
      </trkpt>
      <trkpt lat="46.62115" lon="5.40754">
        <ele>198.2</ele>
        <time>2022-05-27T11:34:57Z</time>
      </trkpt>
      <trkpt lat="46.62119" lon="5.40747">
        <ele>198.2</ele>
        <time>2022-05-27T11:34:58Z</time>
      </trkpt>
      <trkpt lat="46.62129" lon="5.40734">
        <ele>198.2</ele>
        <time>2022-05-27T11:35:00Z</time>
      </trkpt>
      <trkpt lat="46.6214" lon="5.40724">
        <ele>198.4</ele>
        <time>2022-05-27T11:35:02Z</time>
      </trkpt>
      <trkpt lat="46.62147" lon="5.40718">
        <ele>198.4</ele>
        <time>2022-05-27T11:35:03Z</time>
      </trkpt>
      <trkpt lat="46.62154" lon="5.40715">
        <ele>198.4</ele>
        <time>2022-05-27T11:35:04Z</time>
      </trkpt>
      <trkpt lat="46.62165" lon="5.40711">
        <ele>198.4</ele>
        <time>2022-05-27T11:35:06Z</time>
      </trkpt>
      <trkpt lat="46.62172" lon="5.40711">
        <ele>198.4</ele>
        <time>2022-05-27T11:35:07Z</time>
      </trkpt>
      <trkpt lat="46.62187" lon="5.40713">
        <ele>198.2</ele>
        <time>2022-05-27T11:35:09Z</time>
      </trkpt>
      <trkpt lat="46.62199" lon="5.40718">
        <ele>198.4</ele>
        <time>2022-05-27T11:35:11Z</time>
      </trkpt>
      <trkpt lat="46.62205" lon="5.40722">
        <ele>198.4</ele>
        <time>2022-05-27T11:35:12Z</time>
      </trkpt>
      <trkpt lat="46.62211" lon="5.40727">
        <ele>198.2</ele>
        <time>2022-05-27T11:35:13Z</time>
      </trkpt>
      <trkpt lat="46.6224" lon="5.40756">
        <ele>198.4</ele>
        <time>2022-05-27T11:35:18Z</time>
      </trkpt>
      <trkpt lat="46.62278" lon="5.40795">
        <ele>198.4</ele>
        <time>2022-05-27T11:35:25Z</time>
      </trkpt>
      <trkpt lat="46.62311" lon="5.40841">
        <ele>198.4</ele>
        <time>2022-05-27T11:35:32Z</time>
      </trkpt>
      <trkpt lat="46.62343" lon="5.40886">
        <ele>198.6</ele>
        <time>2022-05-27T11:35:39Z</time>
      </trkpt>
      <trkpt lat="46.62387" lon="5.40927">
        <ele>198.8</ele>
        <time>2022-05-27T11:35:47Z</time>
      </trkpt>
      <trkpt lat="46.62392" lon="5.40933">
        <ele>198.8</ele>
        <time>2022-05-27T11:35:48Z</time>
      </trkpt>
      <trkpt lat="46.62404" lon="5.40955">
        <ele>198.8</ele>
        <time>2022-05-27T11:35:51Z</time>
      </trkpt>
      <trkpt lat="46.62427" lon="5.41012">
        <ele>198.8</ele>
        <time>2022-05-27T11:35:58Z</time>
      </trkpt>
      <trkpt lat="46.62439" lon="5.41044">
        <ele>199.4</ele>
        <time>2022-05-27T11:36:02Z</time>
      </trkpt>
      <trkpt lat="46.62445" lon="5.41061">
        <ele>199.4</ele>
        <time>2022-05-27T11:36:04Z</time>
      </trkpt>
      <trkpt lat="46.6247" lon="5.41112">
        <ele>199.6</ele>
        <time>2022-05-27T11:36:11Z</time>
      </trkpt>
      <trkpt lat="46.62488" lon="5.41132">
        <ele>200</ele>
        <time>2022-05-27T11:36:15Z</time>
      </trkpt>
      <trkpt lat="46.62493" lon="5.41136">
        <ele>200</ele>
        <time>2022-05-27T11:36:16Z</time>
      </trkpt>
      <trkpt lat="46.62498" lon="5.4114">
        <ele>200</ele>
        <time>2022-05-27T11:36:17Z</time>
      </trkpt>
      <trkpt lat="46.6252" lon="5.41151">
        <ele>200.4</ele>
        <time>2022-05-27T11:36:21Z</time>
      </trkpt>
      <trkpt lat="46.62536" lon="5.41158">
        <ele>200.6</ele>
        <time>2022-05-27T11:36:24Z</time>
      </trkpt>
      <trkpt lat="46.62568" lon="5.41171">
        <ele>201.4</ele>
        <time>2022-05-27T11:36:30Z</time>
      </trkpt>
      <trkpt lat="46.62583" lon="5.41178">
        <ele>201.6</ele>
        <time>2022-05-27T11:36:33Z</time>
      </trkpt>
      <trkpt lat="46.62613" lon="5.4119">
        <ele>202.8</ele>
        <time>2022-05-27T11:36:39Z</time>
      </trkpt>
      <trkpt lat="46.62654" lon="5.41208">
        <ele>203.6</ele>
        <time>2022-05-27T11:36:47Z</time>
      </trkpt>
      <trkpt lat="46.62658" lon="5.41209">
        <ele>203.8</ele>
        <time>2022-05-27T11:36:48Z</time>
      </trkpt>
      <trkpt lat="46.62703" lon="5.41228">
        <ele>204.8</ele>
        <time>2022-05-27T11:36:57Z</time>
      </trkpt>
      <trkpt lat="46.62709" lon="5.4123">
        <ele>204.8</ele>
        <time>2022-05-27T11:36:58Z</time>
      </trkpt>
      <trkpt lat="46.62742" lon="5.41246">
        <ele>205.6</ele>
        <time>2022-05-27T11:37:05Z</time>
      </trkpt>
      <trkpt lat="46.62753" lon="5.4125">
        <ele>206</ele>
        <time>2022-05-27T11:37:07Z</time>
      </trkpt>
      <trkpt lat="46.62777" lon="5.4126">
        <ele>206.4</ele>
        <time>2022-05-27T11:37:12Z</time>
      </trkpt>
      <trkpt lat="46.62786" lon="5.41264">
        <ele>206.6</ele>
        <time>2022-05-27T11:37:14Z</time>
      </trkpt>
      <trkpt lat="46.62807" lon="5.41272">
        <ele>207.2</ele>
        <time>2022-05-27T11:37:18Z</time>
      </trkpt>
      <trkpt lat="46.62822" lon="5.41278">
        <ele>207.4</ele>
        <time>2022-05-27T11:37:21Z</time>
      </trkpt>
      <trkpt lat="46.6285" lon="5.41292">
        <ele>208.2</ele>
        <time>2022-05-27T11:37:27Z</time>
      </trkpt>
      <trkpt lat="46.62864" lon="5.41298">
        <ele>209</ele>
        <time>2022-05-27T11:37:30Z</time>
      </trkpt>
      <trkpt lat="46.62873" lon="5.41302">
        <ele>209.6</ele>
        <time>2022-05-27T11:37:32Z</time>
      </trkpt>
      <trkpt lat="46.6289" lon="5.41308">
        <ele>210.2</ele>
        <time>2022-05-27T11:37:36Z</time>
      </trkpt>
      <trkpt lat="46.62894" lon="5.4131">
        <ele>210.6</ele>
        <time>2022-05-27T11:37:37Z</time>
      </trkpt>
      <trkpt lat="46.6292" lon="5.41322">
        <ele>211.8</ele>
        <time>2022-05-27T11:37:43Z</time>
      </trkpt>
      <trkpt lat="46.62924" lon="5.41323">
        <ele>211.8</ele>
        <time>2022-05-27T11:37:44Z</time>
      </trkpt>
      <trkpt lat="46.62951" lon="5.41336">
        <ele>213.2</ele>
        <time>2022-05-27T11:37:50Z</time>
      </trkpt>
      <trkpt lat="46.62965" lon="5.41343">
        <ele>214</ele>
        <time>2022-05-27T11:37:53Z</time>
      </trkpt>
      <trkpt lat="46.62969" lon="5.41345">
        <ele>214.2</ele>
        <time>2022-05-27T11:37:54Z</time>
      </trkpt>
      <trkpt lat="46.62986" lon="5.41351">
        <ele>215.4</ele>
        <time>2022-05-27T11:37:58Z</time>
      </trkpt>
      <trkpt lat="46.62995" lon="5.41355">
        <ele>216.2</ele>
        <time>2022-05-27T11:38:00Z</time>
      </trkpt>
      <trkpt lat="46.62999" lon="5.41357">
        <ele>216.4</ele>
        <time>2022-05-27T11:38:01Z</time>
      </trkpt>
      <trkpt lat="46.6302" lon="5.41368">
        <ele>217.4</ele>
        <time>2022-05-27T11:38:06Z</time>
      </trkpt>
      <trkpt lat="46.63036" lon="5.41379">
        <ele>218.2</ele>
        <time>2022-05-27T11:38:10Z</time>
      </trkpt>
      <trkpt lat="46.63039" lon="5.41383">
        <ele>218.6</ele>
        <time>2022-05-27T11:38:11Z</time>
      </trkpt>
      <trkpt lat="46.63054" lon="5.41397">
        <ele>219.2</ele>
        <time>2022-05-27T11:38:15Z</time>
      </trkpt>
      <trkpt lat="46.63061" lon="5.41406">
        <ele>219.4</ele>
        <time>2022-05-27T11:38:17Z</time>
      </trkpt>
      <trkpt lat="46.63065" lon="5.4141">
        <ele>219.6</ele>
        <time>2022-05-27T11:38:18Z</time>
      </trkpt>
      <trkpt lat="46.6309" lon="5.41444">
        <ele>220.2</ele>
        <time>2022-05-27T11:38:25Z</time>
      </trkpt>
      <trkpt lat="46.63119" lon="5.41488">
        <ele>220.2</ele>
        <time>2022-05-27T11:38:32Z</time>
      </trkpt>
      <trkpt lat="46.63151" lon="5.41559">
        <ele>219.8</ele>
        <time>2022-05-27T11:38:41Z</time>
      </trkpt>
      <trkpt lat="46.63186" lon="5.4163">
        <ele>219.4</ele>
        <time>2022-05-27T11:38:50Z</time>
      </trkpt>
      <trkpt lat="46.6319" lon="5.41639">
        <ele>219.4</ele>
        <time>2022-05-27T11:38:51Z</time>
      </trkpt>
      <trkpt lat="46.63217" lon="5.41702">
        <ele>219.8</ele>
        <time>2022-05-27T11:38:59Z</time>
      </trkpt>
      <trkpt lat="46.63242" lon="5.4174">
        <ele>220.4</ele>
        <time>2022-05-27T11:39:05Z</time>
      </trkpt>
      <trkpt lat="46.63274" lon="5.41782">
        <ele>220.8</ele>
        <time>2022-05-27T11:39:12Z</time>
      </trkpt>
      <trkpt lat="46.63284" lon="5.41796">
        <ele>221</ele>
        <time>2022-05-27T11:39:14Z</time>
      </trkpt>
      <trkpt lat="46.6331" lon="5.41833">
        <ele>220.8</ele>
        <time>2022-05-27T11:39:19Z</time>
      </trkpt>
      <trkpt lat="46.63341" lon="5.41879">
        <ele>219.8</ele>
        <time>2022-05-27T11:39:25Z</time>
      </trkpt>
      <trkpt lat="46.63346" lon="5.41886">
        <ele>219.6</ele>
        <time>2022-05-27T11:39:26Z</time>
      </trkpt>
      <trkpt lat="46.63366" lon="5.41913">
        <ele>218.6</ele>
        <time>2022-05-27T11:39:30Z</time>
      </trkpt>
      <trkpt lat="46.63371" lon="5.41918">
        <ele>218.6</ele>
        <time>2022-05-27T11:39:31Z</time>
      </trkpt>
      <trkpt lat="46.63402" lon="5.41944">
        <ele>218.8</ele>
        <time>2022-05-27T11:39:37Z</time>
      </trkpt>
      <trkpt lat="46.63428" lon="5.4196">
        <ele>219.2</ele>
        <time>2022-05-27T11:39:42Z</time>
      </trkpt>
      <trkpt lat="46.63439" lon="5.41964">
        <ele>219.4</ele>
        <time>2022-05-27T11:39:44Z</time>
      </trkpt>
      <trkpt lat="46.6345" lon="5.41971">
        <ele>219.8</ele>
        <time>2022-05-27T11:39:46Z</time>
      </trkpt>
      <trkpt lat="46.63477" lon="5.41992">
        <ele>220.4</ele>
        <time>2022-05-27T11:39:51Z</time>
      </trkpt>
      <trkpt lat="46.63499" lon="5.4201">
        <ele>220.8</ele>
        <time>2022-05-27T11:39:55Z</time>
      </trkpt>
      <trkpt lat="46.63516" lon="5.42022">
        <ele>220.8</ele>
        <time>2022-05-27T11:39:58Z</time>
      </trkpt>
      <trkpt lat="46.63545" lon="5.42037">
        <ele>220.6</ele>
        <time>2022-05-27T11:40:03Z</time>
      </trkpt>
      <trkpt lat="46.63551" lon="5.42041">
        <ele>220.8</ele>
        <time>2022-05-27T11:40:04Z</time>
      </trkpt>
      <trkpt lat="46.63578" lon="5.4207">
        <ele>220.8</ele>
        <time>2022-05-27T11:40:09Z</time>
      </trkpt>
      <trkpt lat="46.63583" lon="5.42078">
        <ele>220.8</ele>
        <time>2022-05-27T11:40:10Z</time>
      </trkpt>
      <trkpt lat="46.63587" lon="5.42086">
        <ele>220.8</ele>
        <time>2022-05-27T11:40:11Z</time>
      </trkpt>
      <trkpt lat="46.63596" lon="5.42115">
        <ele>221</ele>
        <time>2022-05-27T11:40:14Z</time>
      </trkpt>
      <trkpt lat="46.636" lon="5.42122">
        <ele>221</ele>
        <time>2022-05-27T11:40:15Z</time>
      </trkpt>
      <trkpt lat="46.63609" lon="5.42135">
        <ele>221</ele>
        <time>2022-05-27T11:40:17Z</time>
      </trkpt>
      <trkpt lat="46.63614" lon="5.42139">
        <ele>221</ele>
        <time>2022-05-27T11:40:18Z</time>
      </trkpt>
      <trkpt lat="46.63631" lon="5.42149">
        <ele>221</ele>
        <time>2022-05-27T11:40:21Z</time>
      </trkpt>
      <trkpt lat="46.63658" lon="5.42158">
        <ele>222</ele>
        <time>2022-05-27T11:40:26Z</time>
      </trkpt>
      <trkpt lat="46.63664" lon="5.42161">
        <ele>222</ele>
        <time>2022-05-27T11:40:27Z</time>
      </trkpt>
      <trkpt lat="46.6367" lon="5.42163">
        <ele>222.2</ele>
        <time>2022-05-27T11:40:28Z</time>
      </trkpt>
      <trkpt lat="46.63692" lon="5.42177">
        <ele>222.6</ele>
        <time>2022-05-27T11:40:32Z</time>
      </trkpt>
      <trkpt lat="46.6372" lon="5.42198">
        <ele>223</ele>
        <time>2022-05-27T11:40:37Z</time>
      </trkpt>
      <trkpt lat="46.63725" lon="5.42203">
        <ele>223.2</ele>
        <time>2022-05-27T11:40:38Z</time>
      </trkpt>
      <trkpt lat="46.63745" lon="5.42224">
        <ele>223.6</ele>
        <time>2022-05-27T11:40:42Z</time>
      </trkpt>
      <trkpt lat="46.63752" lon="5.42238">
        <ele>223.8</ele>
        <time>2022-05-27T11:40:44Z</time>
      </trkpt>
      <trkpt lat="46.63753" lon="5.42256">
        <ele>224.2</ele>
        <time>2022-05-27T11:40:46Z</time>
      </trkpt>
      <trkpt lat="46.63753" lon="5.42265">
        <ele>224.2</ele>
        <time>2022-05-27T11:40:47Z</time>
      </trkpt>
      <trkpt lat="46.63758" lon="5.42283">
        <ele>224.6</ele>
        <time>2022-05-27T11:40:49Z</time>
      </trkpt>
      <trkpt lat="46.63763" lon="5.42291">
        <ele>224.6</ele>
        <time>2022-05-27T11:40:50Z</time>
      </trkpt>
      <trkpt lat="46.63796" lon="5.42325">
        <ele>224.4</ele>
        <time>2022-05-27T11:40:56Z</time>
      </trkpt>
      <trkpt lat="46.63812" lon="5.42343">
        <ele>224.2</ele>
        <time>2022-05-27T11:40:59Z</time>
      </trkpt>
      <trkpt lat="46.63816" lon="5.42349">
        <ele>224.2</ele>
        <time>2022-05-27T11:41:00Z</time>
      </trkpt>
      <trkpt lat="46.63825" lon="5.42363">
        <ele>224.2</ele>
        <time>2022-05-27T11:41:02Z</time>
      </trkpt>
      <trkpt lat="46.63861" lon="5.42427">
        <ele>224.8</ele>
        <time>2022-05-27T11:41:11Z</time>
      </trkpt>
      <trkpt lat="46.63888" lon="5.42487">
        <ele>224.8</ele>
        <time>2022-05-27T11:41:18Z</time>
      </trkpt>
      <trkpt lat="46.63896" lon="5.42519">
        <ele>224.6</ele>
        <time>2022-05-27T11:41:21Z</time>
      </trkpt>
      <trkpt lat="46.63906" lon="5.42538">
        <ele>224</ele>
        <time>2022-05-27T11:41:23Z</time>
      </trkpt>
      <trkpt lat="46.63923" lon="5.4256">
        <ele>222.8</ele>
        <time>2022-05-27T11:41:26Z</time>
      </trkpt>
      <trkpt lat="46.63942" lon="5.42582">
        <ele>222.2</ele>
        <time>2022-05-27T11:41:29Z</time>
      </trkpt>
      <trkpt lat="46.63968" lon="5.42609">
        <ele>221.8</ele>
        <time>2022-05-27T11:41:33Z</time>
      </trkpt>
      <trkpt lat="46.63994" lon="5.42634">
        <ele>221.2</ele>
        <time>2022-05-27T11:41:37Z</time>
      </trkpt>
      <trkpt lat="46.64" lon="5.4264">
        <ele>221</ele>
        <time>2022-05-27T11:41:38Z</time>
      </trkpt>
      <trkpt lat="46.64014" lon="5.42667">
        <ele>220.8</ele>
        <time>2022-05-27T11:41:41Z</time>
      </trkpt>
      <trkpt lat="46.64023" lon="5.42686">
        <ele>220.8</ele>
        <time>2022-05-27T11:41:43Z</time>
      </trkpt>
      <trkpt lat="46.64049" lon="5.42729">
        <ele>220.4</ele>
        <time>2022-05-27T11:41:48Z</time>
      </trkpt>
      <trkpt lat="46.64085" lon="5.42773">
        <ele>220</ele>
        <time>2022-05-27T11:41:54Z</time>
      </trkpt>
      <trkpt lat="46.64126" lon="5.428">
        <ele>219.6</ele>
        <time>2022-05-27T11:42:00Z</time>
      </trkpt>
      <trkpt lat="46.64133" lon="5.42805">
        <ele>219.4</ele>
        <time>2022-05-27T11:42:01Z</time>
      </trkpt>
      <trkpt lat="46.64146" lon="5.42817">
        <ele>219.2</ele>
        <time>2022-05-27T11:42:03Z</time>
      </trkpt>
      <trkpt lat="46.64151" lon="5.42825">
        <ele>219.2</ele>
        <time>2022-05-27T11:42:04Z</time>
      </trkpt>
      <trkpt lat="46.64156" lon="5.42833">
        <ele>219.2</ele>
        <time>2022-05-27T11:42:05Z</time>
      </trkpt>
      <trkpt lat="46.64172" lon="5.42868">
        <ele>219</ele>
        <time>2022-05-27T11:42:09Z</time>
      </trkpt>
      <trkpt lat="46.64192" lon="5.42926">
        <ele>219</ele>
        <time>2022-05-27T11:42:15Z</time>
      </trkpt>
      <trkpt lat="46.64208" lon="5.42972">
        <ele>219.6</ele>
        <time>2022-05-27T11:42:20Z</time>
      </trkpt>
      <trkpt lat="46.6421" lon="5.42982">
        <ele>219.8</ele>
        <time>2022-05-27T11:42:21Z</time>
      </trkpt>
      <trkpt lat="46.6421" lon="5.42992">
        <ele>220</ele>
        <time>2022-05-27T11:42:22Z</time>
      </trkpt>
      <trkpt lat="46.64209" lon="5.43012">
        <ele>220.2</ele>
        <time>2022-05-27T11:42:24Z</time>
      </trkpt>
      <trkpt lat="46.64204" lon="5.4303">
        <ele>220.2</ele>
        <time>2022-05-27T11:42:26Z</time>
      </trkpt>
      <trkpt lat="46.64198" lon="5.43049">
        <ele>220.4</ele>
        <time>2022-05-27T11:42:28Z</time>
      </trkpt>
      <trkpt lat="46.64192" lon="5.43066">
        <ele>220.6</ele>
        <time>2022-05-27T11:42:30Z</time>
      </trkpt>
      <trkpt lat="46.64185" lon="5.43105">
        <ele>220.8</ele>
        <time>2022-05-27T11:42:34Z</time>
      </trkpt>
      <trkpt lat="46.64185" lon="5.43124">
        <ele>221</ele>
        <time>2022-05-27T11:42:36Z</time>
      </trkpt>
      <trkpt lat="46.64188" lon="5.43143">
        <ele>221.6</ele>
        <time>2022-05-27T11:42:38Z</time>
      </trkpt>
      <trkpt lat="46.64208" lon="5.43198">
        <ele>222.2</ele>
        <time>2022-05-27T11:42:44Z</time>
      </trkpt>
      <trkpt lat="46.6423" lon="5.43246">
        <ele>221.8</ele>
        <time>2022-05-27T11:42:49Z</time>
      </trkpt>
      <trkpt lat="46.64263" lon="5.43303">
        <ele>220.6</ele>
        <time>2022-05-27T11:42:55Z</time>
      </trkpt>
      <trkpt lat="46.64269" lon="5.43312">
        <ele>220</ele>
        <time>2022-05-27T11:42:56Z</time>
      </trkpt>
      <trkpt lat="46.6428" lon="5.4333">
        <ele>219.4</ele>
        <time>2022-05-27T11:42:58Z</time>
      </trkpt>
      <trkpt lat="46.64317" lon="5.43385">
        <ele>218.2</ele>
        <time>2022-05-27T11:43:04Z</time>
      </trkpt>
      <trkpt lat="46.64354" lon="5.43417">
        <ele>217.2</ele>
        <time>2022-05-27T11:43:09Z</time>
      </trkpt>
      <trkpt lat="46.64362" lon="5.43422">
        <ele>217</ele>
        <time>2022-05-27T11:43:10Z</time>
      </trkpt>
      <trkpt lat="46.64392" lon="5.43434">
        <ele>216.8</ele>
        <time>2022-05-27T11:43:14Z</time>
      </trkpt>
      <trkpt lat="46.6444" lon="5.4345">
        <ele>217</ele>
        <time>2022-05-27T11:43:21Z</time>
      </trkpt>
      <trkpt lat="46.64474" lon="5.43474">
        <ele>217.4</ele>
        <time>2022-05-27T11:43:27Z</time>
      </trkpt>
      <trkpt lat="46.64496" lon="5.43494">
        <ele>218</ele>
        <time>2022-05-27T11:43:31Z</time>
      </trkpt>
      <trkpt lat="46.64524" lon="5.4352">
        <ele>218.4</ele>
        <time>2022-05-27T11:43:36Z</time>
      </trkpt>
      <trkpt lat="46.64535" lon="5.43531">
        <ele>218.4</ele>
        <time>2022-05-27T11:43:38Z</time>
      </trkpt>
      <trkpt lat="46.6455" lon="5.4355">
        <ele>218.4</ele>
        <time>2022-05-27T11:43:41Z</time>
      </trkpt>
      <trkpt lat="46.64577" lon="5.4357">
        <ele>218.4</ele>
        <time>2022-05-27T11:43:46Z</time>
      </trkpt>
      <trkpt lat="46.64605" lon="5.43579">
        <ele>219</ele>
        <time>2022-05-27T11:43:51Z</time>
      </trkpt>
      <trkpt lat="46.64626" lon="5.43587">
        <ele>219.2</ele>
        <time>2022-05-27T11:43:55Z</time>
      </trkpt>
      <trkpt lat="46.64637" lon="5.43594">
        <ele>219.8</ele>
        <time>2022-05-27T11:43:57Z</time>
      </trkpt>
      <trkpt lat="46.64643" lon="5.43598">
        <ele>220.4</ele>
        <time>2022-05-27T11:43:58Z</time>
      </trkpt>
      <trkpt lat="46.64682" lon="5.43631">
        <ele>221.4</ele>
        <time>2022-05-27T11:44:06Z</time>
      </trkpt>
      <trkpt lat="46.64687" lon="5.43635">
        <ele>221.4</ele>
        <time>2022-05-27T11:44:07Z</time>
      </trkpt>
      <trkpt lat="46.64711" lon="5.43649">
        <ele>222.6</ele>
        <time>2022-05-27T11:44:12Z</time>
      </trkpt>
      <trkpt lat="46.64716" lon="5.43651">
        <ele>223</ele>
        <time>2022-05-27T11:44:13Z</time>
      </trkpt>
      <trkpt lat="46.64736" lon="5.43662">
        <ele>223.6</ele>
        <time>2022-05-27T11:44:17Z</time>
      </trkpt>
      <trkpt lat="46.64745" lon="5.43668">
        <ele>223.8</ele>
        <time>2022-05-27T11:44:19Z</time>
      </trkpt>
      <trkpt lat="46.64766" lon="5.43678">
        <ele>224.6</ele>
        <time>2022-05-27T11:44:23Z</time>
      </trkpt>
      <trkpt lat="46.64776" lon="5.43687">
        <ele>225</ele>
        <time>2022-05-27T11:44:25Z</time>
      </trkpt>
      <trkpt lat="46.64781" lon="5.43692">
        <ele>225.2</ele>
        <time>2022-05-27T11:44:26Z</time>
      </trkpt>
      <trkpt lat="46.64789" lon="5.43704">
        <ele>225.8</ele>
        <time>2022-05-27T11:44:28Z</time>
      </trkpt>
      <trkpt lat="46.64794" lon="5.43712">
        <ele>225.8</ele>
        <time>2022-05-27T11:44:29Z</time>
      </trkpt>
      <trkpt lat="46.64797" lon="5.4372">
        <ele>225.8</ele>
        <time>2022-05-27T11:44:30Z</time>
      </trkpt>
      <trkpt lat="46.64809" lon="5.43757">
        <ele>225.8</ele>
        <time>2022-05-27T11:44:34Z</time>
      </trkpt>
      <trkpt lat="46.64812" lon="5.43778">
        <ele>225.6</ele>
        <time>2022-05-27T11:44:36Z</time>
      </trkpt>
      <trkpt lat="46.64819" lon="5.43796">
        <ele>225.2</ele>
        <time>2022-05-27T11:44:38Z</time>
      </trkpt>
      <trkpt lat="46.64829" lon="5.43812">
        <ele>224.6</ele>
        <time>2022-05-27T11:44:40Z</time>
      </trkpt>
      <trkpt lat="46.6484" lon="5.43825">
        <ele>224.4</ele>
        <time>2022-05-27T11:44:42Z</time>
      </trkpt>
      <trkpt lat="46.64872" lon="5.43852">
        <ele>223.6</ele>
        <time>2022-05-27T11:44:47Z</time>
      </trkpt>
      <trkpt lat="46.64878" lon="5.43857">
        <ele>223.4</ele>
        <time>2022-05-27T11:44:48Z</time>
      </trkpt>
      <trkpt lat="46.64884" lon="5.43863">
        <ele>223.4</ele>
        <time>2022-05-27T11:44:49Z</time>
      </trkpt>
      <trkpt lat="46.64894" lon="5.43877">
        <ele>223</ele>
        <time>2022-05-27T11:44:51Z</time>
      </trkpt>
      <trkpt lat="46.64905" lon="5.43886">
        <ele>222.6</ele>
        <time>2022-05-27T11:44:53Z</time>
      </trkpt>
      <trkpt lat="46.64913" lon="5.4389">
        <ele>222.2</ele>
        <time>2022-05-27T11:44:54Z</time>
      </trkpt>
      <trkpt lat="46.64919" lon="5.43895">
        <ele>222.2</ele>
        <time>2022-05-27T11:44:55Z</time>
      </trkpt>
      <trkpt lat="46.64936" lon="5.43911">
        <ele>221.8</ele>
        <time>2022-05-27T11:44:58Z</time>
      </trkpt>
      <trkpt lat="46.64962" lon="5.43938">
        <ele>222</ele>
        <time>2022-05-27T11:45:03Z</time>
      </trkpt>
      <trkpt lat="46.65003" lon="5.43982">
        <ele>223</ele>
        <time>2022-05-27T11:45:11Z</time>
      </trkpt>
      <trkpt lat="46.65013" lon="5.43992">
        <ele>223.2</ele>
        <time>2022-05-27T11:45:13Z</time>
      </trkpt>
      <trkpt lat="46.65028" lon="5.44006">
        <ele>223.4</ele>
        <time>2022-05-27T11:45:16Z</time>
      </trkpt>
      <trkpt lat="46.65038" lon="5.44013">
        <ele>223.6</ele>
        <time>2022-05-27T11:45:18Z</time>
      </trkpt>
      <trkpt lat="46.6505" lon="5.44016">
        <ele>224.2</ele>
        <time>2022-05-27T11:45:20Z</time>
      </trkpt>
      <trkpt lat="46.65055" lon="5.44017">
        <ele>224.4</ele>
        <time>2022-05-27T11:45:21Z</time>
      </trkpt>
      <trkpt lat="46.65061" lon="5.44017">
        <ele>224.8</ele>
        <time>2022-05-27T11:45:22Z</time>
      </trkpt>
      <trkpt lat="46.6509" lon="5.44019">
        <ele>225.4</ele>
        <time>2022-05-27T11:45:27Z</time>
      </trkpt>
      <trkpt lat="46.65095" lon="5.4402">
        <ele>225.4</ele>
        <time>2022-05-27T11:45:28Z</time>
      </trkpt>
      <trkpt lat="46.65101" lon="5.44024">
        <ele>225.4</ele>
        <time>2022-05-27T11:45:29Z</time>
      </trkpt>
      <trkpt lat="46.65107" lon="5.44027">
        <ele>225.6</ele>
        <time>2022-05-27T11:45:30Z</time>
      </trkpt>
      <trkpt lat="46.65116" lon="5.44037">
        <ele>225.6</ele>
        <time>2022-05-27T11:45:32Z</time>
      </trkpt>
      <trkpt lat="46.65147" lon="5.44079">
        <ele>226.2</ele>
        <time>2022-05-27T11:45:39Z</time>
      </trkpt>
      <trkpt lat="46.65166" lon="5.44106">
        <ele>226.2</ele>
        <time>2022-05-27T11:45:43Z</time>
      </trkpt>
      <trkpt lat="46.65179" lon="5.44127">
        <ele>226.2</ele>
        <time>2022-05-27T11:45:46Z</time>
      </trkpt>
      <trkpt lat="46.65209" lon="5.44176">
        <ele>225.6</ele>
        <time>2022-05-27T11:45:53Z</time>
      </trkpt>
      <trkpt lat="46.6525" lon="5.44237">
        <ele>225.6</ele>
        <time>2022-05-27T11:46:02Z</time>
      </trkpt>
      <trkpt lat="46.65277" lon="5.44261">
        <ele>225.6</ele>
        <time>2022-05-27T11:46:07Z</time>
      </trkpt>
      <trkpt lat="46.65322" lon="5.44291">
        <ele>225.4</ele>
        <time>2022-05-27T11:46:15Z</time>
      </trkpt>
      <trkpt lat="46.65328" lon="5.44295">
        <ele>225.4</ele>
        <time>2022-05-27T11:46:16Z</time>
      </trkpt>
      <trkpt lat="46.65344" lon="5.44307">
        <ele>225.2</ele>
        <time>2022-05-27T11:46:19Z</time>
      </trkpt>
      <trkpt lat="46.65349" lon="5.44312">
        <ele>225.2</ele>
        <time>2022-05-27T11:46:20Z</time>
      </trkpt>
      <trkpt lat="46.65379" lon="5.44345">
        <ele>225.6</ele>
        <time>2022-05-27T11:46:26Z</time>
      </trkpt>
      <trkpt lat="46.65415" lon="5.44389">
        <ele>225.8</ele>
        <time>2022-05-27T11:46:33Z</time>
      </trkpt>
      <trkpt lat="46.65446" lon="5.44441">
        <ele>225.2</ele>
        <time>2022-05-27T11:46:40Z</time>
      </trkpt>
      <trkpt lat="46.65452" lon="5.44448">
        <ele>225.2</ele>
        <time>2022-05-27T11:46:41Z</time>
      </trkpt>
      <trkpt lat="46.65482" lon="5.44473">
        <ele>224.6</ele>
        <time>2022-05-27T11:46:46Z</time>
      </trkpt>
      <trkpt lat="46.65494" lon="5.4448">
        <ele>224.4</ele>
        <time>2022-05-27T11:46:48Z</time>
      </trkpt>
      <trkpt lat="46.65536" lon="5.445">
        <ele>224.4</ele>
        <time>2022-05-27T11:46:55Z</time>
      </trkpt>
      <trkpt lat="46.65565" lon="5.44506">
        <ele>224.6</ele>
        <time>2022-05-27T11:47:00Z</time>
      </trkpt>
      <trkpt lat="46.65571" lon="5.44509">
        <ele>224.8</ele>
        <time>2022-05-27T11:47:01Z</time>
      </trkpt>
      <trkpt lat="46.65582" lon="5.44517">
        <ele>224.8</ele>
        <time>2022-05-27T11:47:03Z</time>
      </trkpt>
      <trkpt lat="46.65597" lon="5.44533">
        <ele>225</ele>
        <time>2022-05-27T11:47:06Z</time>
      </trkpt>
      <trkpt lat="46.65612" lon="5.44549">
        <ele>225.6</ele>
        <time>2022-05-27T11:47:09Z</time>
      </trkpt>
      <trkpt lat="46.65652" lon="5.44596">
        <ele>226.2</ele>
        <time>2022-05-27T11:47:17Z</time>
      </trkpt>
      <trkpt lat="46.65674" lon="5.44625">
        <ele>226.6</ele>
        <time>2022-05-27T11:47:22Z</time>
      </trkpt>
      <trkpt lat="46.65697" lon="5.44657">
        <ele>226.6</ele>
        <time>2022-05-27T11:47:27Z</time>
      </trkpt>
      <trkpt lat="46.6571" lon="5.44676">
        <ele>226.4</ele>
        <time>2022-05-27T11:47:30Z</time>
      </trkpt>
      <trkpt lat="46.65722" lon="5.44699">
        <ele>226.6</ele>
        <time>2022-05-27T11:47:33Z</time>
      </trkpt>
      <trkpt lat="46.65725" lon="5.44705">
        <ele>226.8</ele>
        <time>2022-05-27T11:47:34Z</time>
      </trkpt>
      <trkpt lat="46.65734" lon="5.4475">
        <ele>227.4</ele>
        <time>2022-05-27T11:47:39Z</time>
      </trkpt>
      <trkpt lat="46.65748" lon="5.44823">
        <ele>227.4</ele>
        <time>2022-05-27T11:47:47Z</time>
      </trkpt>
      <trkpt lat="46.65764" lon="5.44895">
        <ele>227.4</ele>
        <time>2022-05-27T11:47:55Z</time>
      </trkpt>
      <trkpt lat="46.65765" lon="5.44955">
        <ele>227.2</ele>
        <time>2022-05-27T11:48:01Z</time>
      </trkpt>
      <trkpt lat="46.65766" lon="5.44966">
        <ele>227.2</ele>
        <time>2022-05-27T11:48:02Z</time>
      </trkpt>
      <trkpt lat="46.65769" lon="5.44998">
        <ele>227</ele>
        <time>2022-05-27T11:48:05Z</time>
      </trkpt>
      <trkpt lat="46.65772" lon="5.45008">
        <ele>226.8</ele>
        <time>2022-05-27T11:48:06Z</time>
      </trkpt>
      <trkpt lat="46.65775" lon="5.45018">
        <ele>226.8</ele>
        <time>2022-05-27T11:48:07Z</time>
      </trkpt>
      <trkpt lat="46.65786" lon="5.45036">
        <ele>226.4</ele>
        <time>2022-05-27T11:48:09Z</time>
      </trkpt>
      <trkpt lat="46.65813" lon="5.45066">
        <ele>225.8</ele>
        <time>2022-05-27T11:48:13Z</time>
      </trkpt>
      <trkpt lat="46.65833" lon="5.45087">
        <ele>225</ele>
        <time>2022-05-27T11:48:16Z</time>
      </trkpt>
      <trkpt lat="46.65862" lon="5.45117">
        <ele>225.2</ele>
        <time>2022-05-27T11:48:21Z</time>
      </trkpt>
      <trkpt lat="46.65872" lon="5.45129">
        <ele>225.4</ele>
        <time>2022-05-27T11:48:23Z</time>
      </trkpt>
      <trkpt lat="46.65889" lon="5.45148">
        <ele>225.8</ele>
        <time>2022-05-27T11:48:26Z</time>
      </trkpt>
      <trkpt lat="46.65903" lon="5.45167">
        <ele>226</ele>
        <time>2022-05-27T11:48:29Z</time>
      </trkpt>
      <trkpt lat="46.65925" lon="5.45195">
        <ele>226.2</ele>
        <time>2022-05-27T11:48:33Z</time>
      </trkpt>
      <trkpt lat="46.65942" lon="5.45212">
        <ele>226.2</ele>
        <time>2022-05-27T11:48:36Z</time>
      </trkpt>
      <trkpt lat="46.6598" lon="5.45256">
        <ele>226.2</ele>
        <time>2022-05-27T11:48:43Z</time>
      </trkpt>
      <trkpt lat="46.65984" lon="5.45264">
        <ele>226.4</ele>
        <time>2022-05-27T11:48:44Z</time>
      </trkpt>
      <trkpt lat="46.66003" lon="5.45317">
        <ele>226.6</ele>
        <time>2022-05-27T11:48:50Z</time>
      </trkpt>
      <trkpt lat="46.66034" lon="5.4537">
        <ele>226.6</ele>
        <time>2022-05-27T11:48:57Z</time>
      </trkpt>
      <trkpt lat="46.66069" lon="5.45425">
        <ele>226.6</ele>
        <time>2022-05-27T11:49:04Z</time>
      </trkpt>
      <trkpt lat="46.66105" lon="5.45468">
        <ele>226.2</ele>
        <time>2022-05-27T11:49:10Z</time>
      </trkpt>
      <trkpt lat="46.66112" lon="5.45474">
        <ele>226</ele>
        <time>2022-05-27T11:49:11Z</time>
      </trkpt>
      <trkpt lat="46.66127" lon="5.45482">
        <ele>225.6</ele>
        <time>2022-05-27T11:49:13Z</time>
      </trkpt>
      <trkpt lat="46.66134" lon="5.45485">
        <ele>225.4</ele>
        <time>2022-05-27T11:49:14Z</time>
      </trkpt>
      <trkpt lat="46.66182" lon="5.45505">
        <ele>224.6</ele>
        <time>2022-05-27T11:49:20Z</time>
      </trkpt>
      <trkpt lat="46.66188" lon="5.45507">
        <ele>224.4</ele>
        <time>2022-05-27T11:49:21Z</time>
      </trkpt>
      <trkpt lat="46.66246" lon="5.45535">
        <ele>223.2</ele>
        <time>2022-05-27T11:49:28Z</time>
      </trkpt>
      <trkpt lat="46.66253" lon="5.4554">
        <ele>223.2</ele>
        <time>2022-05-27T11:49:29Z</time>
      </trkpt>
      <trkpt lat="46.66292" lon="5.45574">
        <ele>223.2</ele>
        <time>2022-05-27T11:49:35Z</time>
      </trkpt>
      <trkpt lat="46.66327" lon="5.45613">
        <ele>223.6</ele>
        <time>2022-05-27T11:49:41Z</time>
      </trkpt>
      <trkpt lat="46.66332" lon="5.45621">
        <ele>223.6</ele>
        <time>2022-05-27T11:49:42Z</time>
      </trkpt>
      <trkpt lat="46.66364" lon="5.4568">
        <ele>223.4</ele>
        <time>2022-05-27T11:49:49Z</time>
      </trkpt>
      <trkpt lat="46.66391" lon="5.45734">
        <ele>222.2</ele>
        <time>2022-05-27T11:49:55Z</time>
      </trkpt>
      <trkpt lat="46.664" lon="5.45752">
        <ele>221.8</ele>
        <time>2022-05-27T11:49:57Z</time>
      </trkpt>
      <trkpt lat="46.66426" lon="5.45808">
        <ele>221.2</ele>
        <time>2022-05-27T11:50:03Z</time>
      </trkpt>
      <trkpt lat="46.66458" lon="5.45873">
        <ele>221.4</ele>
        <time>2022-05-27T11:50:11Z</time>
      </trkpt>
      <trkpt lat="46.66463" lon="5.45881">
        <ele>221.4</ele>
        <time>2022-05-27T11:50:12Z</time>
      </trkpt>
      <trkpt lat="46.66486" lon="5.45925">
        <ele>221.6</ele>
        <time>2022-05-27T11:50:18Z</time>
      </trkpt>
      <trkpt lat="46.66491" lon="5.45931">
        <ele>221.6</ele>
        <time>2022-05-27T11:50:19Z</time>
      </trkpt>
      <trkpt lat="46.66503" lon="5.45937">
        <ele>221.6</ele>
        <time>2022-05-27T11:50:21Z</time>
      </trkpt>
      <trkpt lat="46.66515" lon="5.45931">
        <ele>221.8</ele>
        <time>2022-05-27T11:50:23Z</time>
      </trkpt>
      <trkpt lat="46.66521" lon="5.45926">
        <ele>221.8</ele>
        <time>2022-05-27T11:50:24Z</time>
      </trkpt>
      <trkpt lat="46.66569" lon="5.4589">
        <ele>222.2</ele>
        <time>2022-05-27T11:50:33Z</time>
      </trkpt>
      <trkpt lat="46.66601" lon="5.45868">
        <ele>222.8</ele>
        <time>2022-05-27T11:50:39Z</time>
      </trkpt>
      <trkpt lat="46.66611" lon="5.4586">
        <ele>223.4</ele>
        <time>2022-05-27T11:50:41Z</time>
      </trkpt>
      <trkpt lat="46.66641" lon="5.45841">
        <ele>224.4</ele>
        <time>2022-05-27T11:50:47Z</time>
      </trkpt>
      <trkpt lat="46.6665" lon="5.45836">
        <ele>224.4</ele>
        <time>2022-05-27T11:50:49Z</time>
      </trkpt>
      <trkpt lat="46.66681" lon="5.45826">
        <ele>225.6</ele>
        <time>2022-05-27T11:50:55Z</time>
      </trkpt>
      <trkpt lat="46.66696" lon="5.45821">
        <ele>226</ele>
        <time>2022-05-27T11:50:58Z</time>
      </trkpt>
      <trkpt lat="46.66717" lon="5.45814">
        <ele>226.6</ele>
        <time>2022-05-27T11:51:02Z</time>
      </trkpt>
      <trkpt lat="46.66749" lon="5.45804">
        <ele>227</ele>
        <time>2022-05-27T11:51:08Z</time>
      </trkpt>
      <trkpt lat="46.66794" lon="5.45797">
        <ele>227.2</ele>
        <time>2022-05-27T11:51:16Z</time>
      </trkpt>
      <trkpt lat="46.66801" lon="5.45798">
        <ele>227.2</ele>
        <time>2022-05-27T11:51:17Z</time>
      </trkpt>
      <trkpt lat="46.66812" lon="5.45804">
        <ele>227.2</ele>
        <time>2022-05-27T11:51:19Z</time>
      </trkpt>
      <trkpt lat="46.66817" lon="5.45808">
        <ele>227.4</ele>
        <time>2022-05-27T11:51:20Z</time>
      </trkpt>
      <trkpt lat="46.66822" lon="5.45813">
        <ele>227.4</ele>
        <time>2022-05-27T11:51:21Z</time>
      </trkpt>
      <trkpt lat="46.66837" lon="5.45838">
        <ele>227.6</ele>
        <time>2022-05-27T11:51:25Z</time>
      </trkpt>
      <trkpt lat="46.66844" lon="5.45851">
        <ele>227.6</ele>
        <time>2022-05-27T11:51:27Z</time>
      </trkpt>
      <trkpt lat="46.66866" lon="5.45891">
        <ele>227.8</ele>
        <time>2022-05-27T11:51:33Z</time>
      </trkpt>
      <trkpt lat="46.6687" lon="5.45899">
        <ele>228</ele>
        <time>2022-05-27T11:51:34Z</time>
      </trkpt>
      <trkpt lat="46.66884" lon="5.45936">
        <ele>228.4</ele>
        <time>2022-05-27T11:51:39Z</time>
      </trkpt>
      <trkpt lat="46.66888" lon="5.45943">
        <ele>228.4</ele>
        <time>2022-05-27T11:51:40Z</time>
      </trkpt>
      <trkpt lat="46.66897" lon="5.45957">
        <ele>228.6</ele>
        <time>2022-05-27T11:51:42Z</time>
      </trkpt>
      <trkpt lat="46.66902" lon="5.45962">
        <ele>228.6</ele>
        <time>2022-05-27T11:51:43Z</time>
      </trkpt>
      <trkpt lat="46.66907" lon="5.45966">
        <ele>228.8</ele>
        <time>2022-05-27T11:51:44Z</time>
      </trkpt>
      <trkpt lat="46.66946" lon="5.45991">
        <ele>228.6</ele>
        <time>2022-05-27T11:51:51Z</time>
      </trkpt>
      <trkpt lat="46.66992" lon="5.46016">
        <ele>228.4</ele>
        <time>2022-05-27T11:51:59Z</time>
      </trkpt>
      <trkpt lat="46.67034" lon="5.46045">
        <ele>229</ele>
        <time>2022-05-27T11:52:06Z</time>
      </trkpt>
      <trkpt lat="46.6704" lon="5.46047">
        <ele>229</ele>
        <time>2022-05-27T11:52:07Z</time>
      </trkpt>
      <trkpt lat="46.67046" lon="5.46049">
        <ele>229</ele>
        <time>2022-05-27T11:52:08Z</time>
      </trkpt>
      <trkpt lat="46.67072" lon="5.46049">
        <ele>229</ele>
        <time>2022-05-27T11:52:12Z</time>
      </trkpt>
      <trkpt lat="46.67129" lon="5.46045">
        <ele>229.2</ele>
        <time>2022-05-27T11:52:21Z</time>
      </trkpt>
      <trkpt lat="46.67135" lon="5.46045">
        <ele>229.2</ele>
        <time>2022-05-27T11:52:22Z</time>
      </trkpt>
      <trkpt lat="46.67158" lon="5.46047">
        <ele>229.4</ele>
        <time>2022-05-27T11:52:26Z</time>
      </trkpt>
      <trkpt lat="46.67165" lon="5.4605">
        <ele>229.6</ele>
        <time>2022-05-27T11:52:28Z</time>
      </trkpt>
      <trkpt lat="46.67167" lon="5.46051">
        <ele>229.6</ele>
        <time>2022-05-27T11:52:29Z</time>
      </trkpt>
      <trkpt lat="46.67168" lon="5.46052">
        <ele>229.6</ele>
        <time>2022-05-27T11:52:31Z</time>
      </trkpt>
      <trkpt lat="46.6717" lon="5.46053">
        <ele>229.8</ele>
        <time>2022-05-27T11:52:32Z</time>
      </trkpt>
      <trkpt lat="46.6718" lon="5.46054">
        <ele>229.8</ele>
        <time>2022-05-27T11:52:36Z</time>
      </trkpt>
      <trkpt lat="46.67197" lon="5.46053">
        <ele>230</ele>
        <time>2022-05-27T11:52:40Z</time>
      </trkpt>
      <trkpt lat="46.67204" lon="5.46054">
        <ele>230</ele>
        <time>2022-05-27T11:52:41Z</time>
      </trkpt>
      <trkpt lat="46.67234" lon="5.46068">
        <ele>229.8</ele>
        <time>2022-05-27T11:52:46Z</time>
      </trkpt>
      <trkpt lat="46.67282" lon="5.46092">
        <ele>229.6</ele>
        <time>2022-05-27T11:52:53Z</time>
      </trkpt>
      <trkpt lat="46.67335" lon="5.46119">
        <ele>229.2</ele>
        <time>2022-05-27T11:53:01Z</time>
      </trkpt>
      <trkpt lat="46.67355" lon="5.46129">
        <ele>229.2</ele>
        <time>2022-05-27T11:53:04Z</time>
      </trkpt>
      <trkpt lat="46.67406" lon="5.46154">
        <ele>229.8</ele>
        <time>2022-05-27T11:53:12Z</time>
      </trkpt>
      <trkpt lat="46.67413" lon="5.46157">
        <ele>230</ele>
        <time>2022-05-27T11:53:13Z</time>
      </trkpt>
      <trkpt lat="46.67464" lon="5.46182">
        <ele>230.4</ele>
        <time>2022-05-27T11:53:21Z</time>
      </trkpt>
      <trkpt lat="46.67477" lon="5.46188">
        <ele>230.4</ele>
        <time>2022-05-27T11:53:23Z</time>
      </trkpt>
      <trkpt lat="46.67534" lon="5.46216">
        <ele>230.4</ele>
        <time>2022-05-27T11:53:32Z</time>
      </trkpt>
      <trkpt lat="46.67553" lon="5.46225">
        <ele>230.4</ele>
        <time>2022-05-27T11:53:35Z</time>
      </trkpt>
      <trkpt lat="46.67605" lon="5.46251">
        <ele>230.4</ele>
        <time>2022-05-27T11:53:43Z</time>
      </trkpt>
      <trkpt lat="46.67617" lon="5.46256">
        <ele>230.2</ele>
        <time>2022-05-27T11:53:45Z</time>
      </trkpt>
      <trkpt lat="46.67674" lon="5.46284">
        <ele>230</ele>
        <time>2022-05-27T11:53:54Z</time>
      </trkpt>
      <trkpt lat="46.6773" lon="5.46311">
        <ele>230.6</ele>
        <time>2022-05-27T11:54:03Z</time>
      </trkpt>
      <trkpt lat="46.67737" lon="5.46315">
        <ele>230.6</ele>
        <time>2022-05-27T11:54:04Z</time>
      </trkpt>
      <trkpt lat="46.67778" lon="5.46335">
        <ele>230.6</ele>
        <time>2022-05-27T11:54:11Z</time>
      </trkpt>
      <trkpt lat="46.6782" lon="5.46356">
        <ele>230.6</ele>
        <time>2022-05-27T11:54:18Z</time>
      </trkpt>
      <trkpt lat="46.67827" lon="5.4636">
        <ele>230.8</ele>
        <time>2022-05-27T11:54:19Z</time>
      </trkpt>
      <trkpt lat="46.67884" lon="5.46388">
        <ele>231.4</ele>
        <time>2022-05-27T11:54:28Z</time>
      </trkpt>
      <trkpt lat="46.67941" lon="5.46416">
        <ele>230.8</ele>
        <time>2022-05-27T11:54:37Z</time>
      </trkpt>
      <trkpt lat="46.67948" lon="5.46419">
        <ele>230.6</ele>
        <time>2022-05-27T11:54:38Z</time>
      </trkpt>
      <trkpt lat="46.67999" lon="5.46444">
        <ele>231.2</ele>
        <time>2022-05-27T11:54:46Z</time>
      </trkpt>
      <trkpt lat="46.68032" lon="5.4646">
        <ele>231</ele>
        <time>2022-05-27T11:54:51Z</time>
      </trkpt>
      <trkpt lat="46.68083" lon="5.46485">
        <ele>230.8</ele>
        <time>2022-05-27T11:54:59Z</time>
      </trkpt>
      <trkpt lat="46.68094" lon="5.46491">
        <ele>230.8</ele>
        <time>2022-05-27T11:55:01Z</time>
      </trkpt>
      <trkpt lat="46.68143" lon="5.46516">
        <ele>231</ele>
        <time>2022-05-27T11:55:09Z</time>
      </trkpt>
      <trkpt lat="46.68149" lon="5.46521">
        <ele>231</ele>
        <time>2022-05-27T11:55:10Z</time>
      </trkpt>
      <trkpt lat="46.68152" lon="5.46527">
        <ele>231</ele>
        <time>2022-05-27T11:55:11Z</time>
      </trkpt>
      <trkpt lat="46.68155" lon="5.46542">
        <ele>231.2</ele>
        <time>2022-05-27T11:55:13Z</time>
      </trkpt>
      <trkpt lat="46.68154" lon="5.46565">
        <ele>231.2</ele>
        <time>2022-05-27T11:55:16Z</time>
      </trkpt>
      <trkpt lat="46.68153" lon="5.46571">
        <ele>231.4</ele>
        <time>2022-05-27T11:55:17Z</time>
      </trkpt>
      <trkpt lat="46.68152" lon="5.4658">
        <ele>231.8</ele>
        <time>2022-05-27T11:55:21Z</time>
      </trkpt>
      <trkpt lat="46.68152" lon="5.4658">
        <ele>231.8</ele>
        <time>2022-05-27T11:55:22Z</time>
      </trkpt>
      <trkpt lat="46.68153" lon="5.46577">
        <ele>231.8</ele>
        <time>2022-05-27T11:56:08Z</time>
      </trkpt>
      <trkpt lat="46.68156" lon="5.46569">
        <ele>231.8</ele>
        <time>2022-05-27T11:56:10Z</time>
      </trkpt>
      <trkpt lat="46.68163" lon="5.46553">
        <ele>231.8</ele>
        <time>2022-05-27T11:56:13Z</time>
      </trkpt>
      <trkpt lat="46.68166" lon="5.46548">
        <ele>231.6</ele>
        <time>2022-05-27T11:56:14Z</time>
      </trkpt>
      <trkpt lat="46.6817" lon="5.46543">
        <ele>231.6</ele>
        <time>2022-05-27T11:56:15Z</time>
      </trkpt>
      <trkpt lat="46.68182" lon="5.46539">
        <ele>231.4</ele>
        <time>2022-05-27T11:56:17Z</time>
      </trkpt>
      <trkpt lat="46.68192" lon="5.46544">
        <ele>231.2</ele>
        <time>2022-05-27T11:56:19Z</time>
      </trkpt>
      <trkpt lat="46.68198" lon="5.46549">
        <ele>231.2</ele>
        <time>2022-05-27T11:56:20Z</time>
      </trkpt>
      <trkpt lat="46.6823" lon="5.46574">
        <ele>230.4</ele>
        <time>2022-05-27T11:56:25Z</time>
      </trkpt>
      <trkpt lat="46.68249" lon="5.4659">
        <ele>229.8</ele>
        <time>2022-05-27T11:56:28Z</time>
      </trkpt>
      <trkpt lat="46.68284" lon="5.46618">
        <ele>229.4</ele>
        <time>2022-05-27T11:56:33Z</time>
      </trkpt>
      <trkpt lat="46.68307" lon="5.46636">
        <ele>228.6</ele>
        <time>2022-05-27T11:56:36Z</time>
      </trkpt>
      <trkpt lat="46.68329" lon="5.46657">
        <ele>227.4</ele>
        <time>2022-05-27T11:56:39Z</time>
      </trkpt>
      <trkpt lat="46.6835" lon="5.46681">
        <ele>226</ele>
        <time>2022-05-27T11:56:42Z</time>
      </trkpt>
      <trkpt lat="46.68363" lon="5.46698">
        <ele>224.6</ele>
        <time>2022-05-27T11:56:44Z</time>
      </trkpt>
      <trkpt lat="46.68369" lon="5.46707">
        <ele>224.4</ele>
        <time>2022-05-27T11:56:45Z</time>
      </trkpt>
      <trkpt lat="46.68401" lon="5.46758">
        <ele>223.8</ele>
        <time>2022-05-27T11:56:51Z</time>
      </trkpt>
      <trkpt lat="46.68427" lon="5.46798">
        <ele>224.8</ele>
        <time>2022-05-27T11:56:57Z</time>
      </trkpt>
      <trkpt lat="46.68431" lon="5.46805">
        <ele>225.8</ele>
        <time>2022-05-27T11:56:58Z</time>
      </trkpt>
      <trkpt lat="46.68448" lon="5.46833">
        <ele>227</ele>
        <time>2022-05-27T11:57:02Z</time>
      </trkpt>
      <trkpt lat="46.68456" lon="5.46846">
        <ele>227.4</ele>
        <time>2022-05-27T11:57:04Z</time>
      </trkpt>
      <trkpt lat="46.68473" lon="5.46876">
        <ele>228</ele>
        <time>2022-05-27T11:57:08Z</time>
      </trkpt>
      <trkpt lat="46.68502" lon="5.46928">
        <ele>229</ele>
        <time>2022-05-27T11:57:15Z</time>
      </trkpt>
      <trkpt lat="46.68505" lon="5.46934">
        <ele>229.2</ele>
        <time>2022-05-27T11:57:16Z</time>
      </trkpt>
      <trkpt lat="46.68541" lon="5.46997">
        <ele>230</ele>
        <time>2022-05-27T11:57:25Z</time>
      </trkpt>
      <trkpt lat="46.68553" lon="5.47018">
        <ele>230.2</ele>
        <time>2022-05-27T11:57:28Z</time>
      </trkpt>
      <trkpt lat="46.68586" lon="5.47076">
        <ele>230.8</ele>
        <time>2022-05-27T11:57:36Z</time>
      </trkpt>
      <trkpt lat="46.68614" lon="5.47127">
        <ele>231.6</ele>
        <time>2022-05-27T11:57:43Z</time>
      </trkpt>
      <trkpt lat="46.68623" lon="5.47144">
        <ele>231.8</ele>
        <time>2022-05-27T11:57:45Z</time>
      </trkpt>
      <trkpt lat="46.68661" lon="5.47214">
        <ele>231.6</ele>
        <time>2022-05-27T11:57:54Z</time>
      </trkpt>
      <trkpt lat="46.68692" lon="5.47273">
        <ele>231</ele>
        <time>2022-05-27T11:58:01Z</time>
      </trkpt>
      <trkpt lat="46.68721" lon="5.47326">
        <ele>230.4</ele>
        <time>2022-05-27T11:58:07Z</time>
      </trkpt>
      <trkpt lat="46.68727" lon="5.47334">
        <ele>230.4</ele>
        <time>2022-05-27T11:58:08Z</time>
      </trkpt>
      <trkpt lat="46.68732" lon="5.47339">
        <ele>230.2</ele>
        <time>2022-05-27T11:58:09Z</time>
      </trkpt>
      <trkpt lat="46.6874" lon="5.47345">
        <ele>230</ele>
        <time>2022-05-27T11:58:10Z</time>
      </trkpt>
      <trkpt lat="46.68754" lon="5.4735">
        <ele>229.6</ele>
        <time>2022-05-27T11:58:12Z</time>
      </trkpt>
      <trkpt lat="46.68762" lon="5.47351">
        <ele>229.2</ele>
        <time>2022-05-27T11:58:13Z</time>
      </trkpt>
      <trkpt lat="46.68795" lon="5.47354">
        <ele>228</ele>
        <time>2022-05-27T11:58:17Z</time>
      </trkpt>
      <trkpt lat="46.68803" lon="5.47356">
        <ele>227.6</ele>
        <time>2022-05-27T11:58:18Z</time>
      </trkpt>
      <trkpt lat="46.6884" lon="5.47369">
        <ele>227.4</ele>
        <time>2022-05-27T11:58:23Z</time>
      </trkpt>
      <trkpt lat="46.68851" lon="5.47377">
        <ele>228</ele>
        <time>2022-05-27T11:58:25Z</time>
      </trkpt>
      <trkpt lat="46.68867" lon="5.47392">
        <ele>229</ele>
        <time>2022-05-27T11:58:28Z</time>
      </trkpt>
      <trkpt lat="46.68871" lon="5.47396">
        <ele>229</ele>
        <time>2022-05-27T11:58:29Z</time>
      </trkpt>
      <trkpt lat="46.68894" lon="5.47423">
        <ele>230.4</ele>
        <time>2022-05-27T11:58:34Z</time>
      </trkpt>
      <trkpt lat="46.68898" lon="5.47428">
        <ele>230.6</ele>
        <time>2022-05-27T11:58:35Z</time>
      </trkpt>
      <trkpt lat="46.68921" lon="5.47463">
        <ele>231.8</ele>
        <time>2022-05-27T11:58:41Z</time>
      </trkpt>
      <trkpt lat="46.68929" lon="5.47476">
        <ele>232.4</ele>
        <time>2022-05-27T11:58:43Z</time>
      </trkpt>
      <trkpt lat="46.68938" lon="5.4749">
        <ele>232.8</ele>
        <time>2022-05-27T11:58:45Z</time>
      </trkpt>
      <trkpt lat="46.68959" lon="5.47524">
        <ele>233.6</ele>
        <time>2022-05-27T11:58:50Z</time>
      </trkpt>
      <trkpt lat="46.68981" lon="5.47558">
        <ele>233.8</ele>
        <time>2022-05-27T11:58:55Z</time>
      </trkpt>
      <trkpt lat="46.68984" lon="5.47564">
        <ele>233.8</ele>
        <time>2022-05-27T11:58:56Z</time>
      </trkpt>
      <trkpt lat="46.69016" lon="5.47615">
        <ele>233.6</ele>
        <time>2022-05-27T11:59:03Z</time>
      </trkpt>
      <trkpt lat="46.6905" lon="5.47671">
        <ele>233.4</ele>
        <time>2022-05-27T11:59:11Z</time>
      </trkpt>
      <trkpt lat="46.6909" lon="5.47734">
        <ele>233.6</ele>
        <time>2022-05-27T11:59:20Z</time>
      </trkpt>
      <trkpt lat="46.69103" lon="5.47755">
        <ele>233.8</ele>
        <time>2022-05-27T11:59:23Z</time>
      </trkpt>
      <trkpt lat="46.69142" lon="5.47817">
        <ele>233.2</ele>
        <time>2022-05-27T11:59:32Z</time>
      </trkpt>
      <trkpt lat="46.69151" lon="5.47832">
        <ele>233.2</ele>
        <time>2022-05-27T11:59:34Z</time>
      </trkpt>
      <trkpt lat="46.69184" lon="5.47884">
        <ele>232.8</ele>
        <time>2022-05-27T11:59:41Z</time>
      </trkpt>
      <trkpt lat="46.69189" lon="5.47892">
        <ele>232.8</ele>
        <time>2022-05-27T11:59:43Z</time>
      </trkpt>
      <trkpt lat="46.69224" lon="5.47949">
        <ele>232</ele>
        <time>2022-05-27T11:59:49Z</time>
      </trkpt>
      <trkpt lat="46.69231" lon="5.47955">
        <ele>231.8</ele>
        <time>2022-05-27T11:59:50Z</time>
      </trkpt>
      <trkpt lat="46.69239" lon="5.47958">
        <ele>231.8</ele>
        <time>2022-05-27T11:59:51Z</time>
      </trkpt>
      <trkpt lat="46.69254" lon="5.47955">
        <ele>231.4</ele>
        <time>2022-05-27T11:59:53Z</time>
      </trkpt>
      <trkpt lat="46.69274" lon="5.47935">
        <ele>230.6</ele>
        <time>2022-05-27T11:59:56Z</time>
      </trkpt>
      <trkpt lat="46.69287" lon="5.47921">
        <ele>229.8</ele>
        <time>2022-05-27T11:59:58Z</time>
      </trkpt>
      <trkpt lat="46.69295" lon="5.47913">
        <ele>229.6</ele>
        <time>2022-05-27T11:59:59Z</time>
      </trkpt>
      <trkpt lat="46.69311" lon="5.47901">
        <ele>229.2</ele>
        <time>2022-05-27T12:00:01Z</time>
      </trkpt>
      <trkpt lat="46.6932" lon="5.47898">
        <ele>228.6</ele>
        <time>2022-05-27T12:00:02Z</time>
      </trkpt>
      <trkpt lat="46.69328" lon="5.47896">
        <ele>228.6</ele>
        <time>2022-05-27T12:00:03Z</time>
      </trkpt>
      <trkpt lat="46.69353" lon="5.47894">
        <ele>228.2</ele>
        <time>2022-05-27T12:00:06Z</time>
      </trkpt>
      <trkpt lat="46.694" lon="5.47888">
        <ele>227.4</ele>
        <time>2022-05-27T12:00:12Z</time>
      </trkpt>
      <trkpt lat="46.69408" lon="5.47886">
        <ele>227.4</ele>
        <time>2022-05-27T12:00:13Z</time>
      </trkpt>
      <trkpt lat="46.69457" lon="5.47877">
        <ele>227.2</ele>
        <time>2022-05-27T12:00:20Z</time>
      </trkpt>
      <trkpt lat="46.69484" lon="5.47875">
        <ele>227.4</ele>
        <time>2022-05-27T12:00:24Z</time>
      </trkpt>
      <trkpt lat="46.69498" lon="5.47878">
        <ele>227.6</ele>
        <time>2022-05-27T12:00:26Z</time>
      </trkpt>
      <trkpt lat="46.69533" lon="5.4789">
        <ele>228.4</ele>
        <time>2022-05-27T12:00:32Z</time>
      </trkpt>
      <trkpt lat="46.69538" lon="5.47893">
        <ele>228.8</ele>
        <time>2022-05-27T12:00:33Z</time>
      </trkpt>
      <trkpt lat="46.69547" lon="5.47899">
        <ele>229.2</ele>
        <time>2022-05-27T12:00:35Z</time>
      </trkpt>
      <trkpt lat="46.69555" lon="5.47907">
        <ele>229.6</ele>
        <time>2022-05-27T12:00:37Z</time>
      </trkpt>
      <trkpt lat="46.69559" lon="5.47912">
        <ele>229.6</ele>
        <time>2022-05-27T12:00:38Z</time>
      </trkpt>
      <trkpt lat="46.6958" lon="5.47946">
        <ele>230.8</ele>
        <time>2022-05-27T12:00:43Z</time>
      </trkpt>
      <trkpt lat="46.69609" lon="5.47989">
        <ele>231.6</ele>
        <time>2022-05-27T12:00:49Z</time>
      </trkpt>
      <trkpt lat="46.69627" lon="5.48018">
        <ele>231.8</ele>
        <time>2022-05-27T12:00:53Z</time>
      </trkpt>
      <trkpt lat="46.69636" lon="5.48032">
        <ele>232</ele>
        <time>2022-05-27T12:00:55Z</time>
      </trkpt>
      <trkpt lat="46.69641" lon="5.4804">
        <ele>232.2</ele>
        <time>2022-05-27T12:00:56Z</time>
      </trkpt>
      <trkpt lat="46.69661" lon="5.48068">
        <ele>232.2</ele>
        <time>2022-05-27T12:01:00Z</time>
      </trkpt>
      <trkpt lat="46.697" lon="5.48127">
        <ele>232.6</ele>
        <time>2022-05-27T12:01:09Z</time>
      </trkpt>
      <trkpt lat="46.69721" lon="5.4816">
        <ele>233</ele>
        <time>2022-05-27T12:01:14Z</time>
      </trkpt>
      <trkpt lat="46.69726" lon="5.48167">
        <ele>233.2</ele>
        <time>2022-05-27T12:01:15Z</time>
      </trkpt>
      <trkpt lat="46.6975" lon="5.48206">
        <ele>234</ele>
        <time>2022-05-27T12:01:21Z</time>
      </trkpt>
      <trkpt lat="46.69754" lon="5.48213">
        <ele>234.2</ele>
        <time>2022-05-27T12:01:22Z</time>
      </trkpt>
      <trkpt lat="46.69762" lon="5.48225">
        <ele>234.2</ele>
        <time>2022-05-27T12:01:24Z</time>
      </trkpt>
      <trkpt lat="46.69766" lon="5.48232">
        <ele>234.4</ele>
        <time>2022-05-27T12:01:25Z</time>
      </trkpt>
      <trkpt lat="46.69791" lon="5.48269">
        <ele>234.6</ele>
        <time>2022-05-27T12:01:31Z</time>
      </trkpt>
      <trkpt lat="46.69794" lon="5.48275">
        <ele>234.8</ele>
        <time>2022-05-27T12:01:32Z</time>
      </trkpt>
      <trkpt lat="46.69811" lon="5.48302">
        <ele>235</ele>
        <time>2022-05-27T12:01:36Z</time>
      </trkpt>
      <trkpt lat="46.69823" lon="5.48321">
        <ele>234.8</ele>
        <time>2022-05-27T12:01:39Z</time>
      </trkpt>
      <trkpt lat="46.69834" lon="5.48335">
        <ele>235.2</ele>
        <time>2022-05-27T12:01:41Z</time>
      </trkpt>
      <trkpt lat="46.6987" lon="5.48387">
        <ele>234.8</ele>
        <time>2022-05-27T12:01:48Z</time>
      </trkpt>
      <trkpt lat="46.699" lon="5.48435">
        <ele>234.4</ele>
        <time>2022-05-27T12:01:54Z</time>
      </trkpt>
      <trkpt lat="46.69927" lon="5.48476">
        <ele>235</ele>
        <time>2022-05-27T12:02:00Z</time>
      </trkpt>
      <trkpt lat="46.69954" lon="5.48521">
        <ele>235.8</ele>
        <time>2022-05-27T12:02:07Z</time>
      </trkpt>
      <trkpt lat="46.69984" lon="5.48566">
        <ele>236</ele>
        <time>2022-05-27T12:02:14Z</time>
      </trkpt>
      <trkpt lat="46.69992" lon="5.48578">
        <ele>236.4</ele>
        <time>2022-05-27T12:02:16Z</time>
      </trkpt>
      <trkpt lat="46.70021" lon="5.4862">
        <ele>236.6</ele>
        <time>2022-05-27T12:02:23Z</time>
      </trkpt>
      <trkpt lat="46.70025" lon="5.48624">
        <ele>236.6</ele>
        <time>2022-05-27T12:02:24Z</time>
      </trkpt>
      <trkpt lat="46.70028" lon="5.48625">
        <ele>237</ele>
        <time>2022-05-27T12:02:27Z</time>
      </trkpt>
      <trkpt lat="46.70028" lon="5.48625">
        <ele>237</ele>
        <time>2022-05-27T12:02:28Z</time>
      </trkpt>
      <trkpt lat="46.70034" lon="5.4863">
        <ele>237.4</ele>
        <time>2022-05-27T12:02:36Z</time>
      </trkpt>
      <trkpt lat="46.70037" lon="5.4863">
        <ele>237.4</ele>
        <time>2022-05-27T12:02:37Z</time>
      </trkpt>
      <trkpt lat="46.70041" lon="5.48628">
        <ele>237.4</ele>
        <time>2022-05-27T12:02:38Z</time>
      </trkpt>
      <trkpt lat="46.70045" lon="5.48624">
        <ele>237.4</ele>
        <time>2022-05-27T12:02:39Z</time>
      </trkpt>
      <trkpt lat="46.70054" lon="5.48611">
        <ele>237.2</ele>
        <time>2022-05-27T12:02:41Z</time>
      </trkpt>
      <trkpt lat="46.70082" lon="5.48573">
        <ele>236.4</ele>
        <time>2022-05-27T12:02:46Z</time>
      </trkpt>
      <trkpt lat="46.70115" lon="5.48536">
        <ele>235.8</ele>
        <time>2022-05-27T12:02:51Z</time>
      </trkpt>
      <trkpt lat="46.70159" lon="5.48503">
        <ele>235.4</ele>
        <time>2022-05-27T12:02:57Z</time>
      </trkpt>
      <trkpt lat="46.70196" lon="5.48482">
        <ele>235.2</ele>
        <time>2022-05-27T12:03:02Z</time>
      </trkpt>
      <trkpt lat="46.70225" lon="5.48465">
        <ele>235.2</ele>
        <time>2022-05-27T12:03:06Z</time>
      </trkpt>
      <trkpt lat="46.70277" lon="5.48437">
        <ele>235.2</ele>
        <time>2022-05-27T12:03:13Z</time>
      </trkpt>
      <trkpt lat="46.70299" lon="5.48426">
        <ele>235.2</ele>
        <time>2022-05-27T12:03:16Z</time>
      </trkpt>
      <trkpt lat="46.70343" lon="5.48403">
        <ele>234.8</ele>
        <time>2022-05-27T12:03:22Z</time>
      </trkpt>
      <trkpt lat="46.70379" lon="5.48383">
        <ele>234.6</ele>
        <time>2022-05-27T12:03:27Z</time>
      </trkpt>
      <trkpt lat="46.70429" lon="5.48353">
        <ele>234.2</ele>
        <time>2022-05-27T12:03:34Z</time>
      </trkpt>
      <trkpt lat="46.70449" lon="5.4834">
        <ele>233.8</ele>
        <time>2022-05-27T12:03:37Z</time>
      </trkpt>
      <trkpt lat="46.70501" lon="5.48308">
        <ele>233.4</ele>
        <time>2022-05-27T12:03:44Z</time>
      </trkpt>
      <trkpt lat="46.70526" lon="5.48295">
        <ele>233.4</ele>
        <time>2022-05-27T12:03:47Z</time>
      </trkpt>
      <trkpt lat="46.70558" lon="5.48278">
        <ele>233</ele>
        <time>2022-05-27T12:03:51Z</time>
      </trkpt>
      <trkpt lat="46.70596" lon="5.48257">
        <ele>231.8</ele>
        <time>2022-05-27T12:03:56Z</time>
      </trkpt>
      <trkpt lat="46.70605" lon="5.48251">
        <ele>231.8</ele>
        <time>2022-05-27T12:03:57Z</time>
      </trkpt>
      <trkpt lat="46.7066" lon="5.48219">
        <ele>230.8</ele>
        <time>2022-05-27T12:04:04Z</time>
      </trkpt>
      <trkpt lat="46.70668" lon="5.48214">
        <ele>230.8</ele>
        <time>2022-05-27T12:04:05Z</time>
      </trkpt>
      <trkpt lat="46.70682" lon="5.48206">
        <ele>230.6</ele>
        <time>2022-05-27T12:04:07Z</time>
      </trkpt>
      <trkpt lat="46.70739" lon="5.48169">
        <ele>230.2</ele>
        <time>2022-05-27T12:04:14Z</time>
      </trkpt>
      <trkpt lat="46.70746" lon="5.48166">
        <ele>230</ele>
        <time>2022-05-27T12:04:15Z</time>
      </trkpt>
      <trkpt lat="46.70762" lon="5.48156">
        <ele>229.6</ele>
        <time>2022-05-27T12:04:17Z</time>
      </trkpt>
      <trkpt lat="46.70803" lon="5.48132">
        <ele>228.6</ele>
        <time>2022-05-27T12:04:22Z</time>
      </trkpt>
      <trkpt lat="46.70831" lon="5.48115">
        <ele>228</ele>
        <time>2022-05-27T12:04:25Z</time>
      </trkpt>
      <trkpt lat="46.70847" lon="5.48106">
        <ele>227.6</ele>
        <time>2022-05-27T12:04:27Z</time>
      </trkpt>
      <trkpt lat="46.70877" lon="5.48089">
        <ele>226.6</ele>
        <time>2022-05-27T12:04:30Z</time>
      </trkpt>
      <trkpt lat="46.70896" lon="5.48079">
        <ele>225.6</ele>
        <time>2022-05-27T12:04:32Z</time>
      </trkpt>
      <trkpt lat="46.70904" lon="5.48074">
        <ele>225</ele>
        <time>2022-05-27T12:04:33Z</time>
      </trkpt>
      <trkpt lat="46.70943" lon="5.48051">
        <ele>224</ele>
        <time>2022-05-27T12:04:37Z</time>
      </trkpt>
      <trkpt lat="46.70965" lon="5.48038">
        <ele>223</ele>
        <time>2022-05-27T12:04:39Z</time>
      </trkpt>
      <trkpt lat="46.70975" lon="5.48032">
        <ele>222.6</ele>
        <time>2022-05-27T12:04:40Z</time>
      </trkpt>
      <trkpt lat="46.70996" lon="5.48019">
        <ele>221</ele>
        <time>2022-05-27T12:04:42Z</time>
      </trkpt>
      <trkpt lat="46.71026" lon="5.48">
        <ele>220</ele>
        <time>2022-05-27T12:04:45Z</time>
      </trkpt>
      <trkpt lat="46.71055" lon="5.47981">
        <ele>218.8</ele>
        <time>2022-05-27T12:04:48Z</time>
      </trkpt>
      <trkpt lat="46.71083" lon="5.47962">
        <ele>217.8</ele>
        <time>2022-05-27T12:04:51Z</time>
      </trkpt>
      <trkpt lat="46.71118" lon="5.47937">
        <ele>217.4</ele>
        <time>2022-05-27T12:04:55Z</time>
      </trkpt>
      <trkpt lat="46.71153" lon="5.47913">
        <ele>216.8</ele>
        <time>2022-05-27T12:04:59Z</time>
      </trkpt>
      <trkpt lat="46.71204" lon="5.47877">
        <ele>216</ele>
        <time>2022-05-27T12:05:05Z</time>
      </trkpt>
      <trkpt lat="46.71243" lon="5.47849">
        <ele>215.8</ele>
        <time>2022-05-27T12:05:10Z</time>
      </trkpt>
      <trkpt lat="46.71266" lon="5.47832">
        <ele>215.8</ele>
        <time>2022-05-27T12:05:13Z</time>
      </trkpt>
      <trkpt lat="46.71314" lon="5.47791">
        <ele>215.2</ele>
        <time>2022-05-27T12:05:20Z</time>
      </trkpt>
      <trkpt lat="46.71352" lon="5.47748">
        <ele>215.4</ele>
        <time>2022-05-27T12:05:26Z</time>
      </trkpt>
      <trkpt lat="46.71382" lon="5.47709">
        <ele>215.2</ele>
        <time>2022-05-27T12:05:31Z</time>
      </trkpt>
      <trkpt lat="46.71389" lon="5.47706">
        <ele>215.2</ele>
        <time>2022-05-27T12:05:32Z</time>
      </trkpt>
      <trkpt lat="46.71396" lon="5.47705">
        <ele>215.2</ele>
        <time>2022-05-27T12:05:33Z</time>
      </trkpt>
      <trkpt lat="46.71411" lon="5.47709">
        <ele>215.2</ele>
        <time>2022-05-27T12:05:35Z</time>
      </trkpt>
      <trkpt lat="46.71418" lon="5.47711">
        <ele>215.2</ele>
        <time>2022-05-27T12:05:36Z</time>
      </trkpt>
      <trkpt lat="46.71433" lon="5.4771">
        <ele>215.2</ele>
        <time>2022-05-27T12:05:38Z</time>
      </trkpt>
      <trkpt lat="46.71449" lon="5.47704">
        <ele>215</ele>
        <time>2022-05-27T12:05:40Z</time>
      </trkpt>
      <trkpt lat="46.71464" lon="5.47695">
        <ele>214.8</ele>
        <time>2022-05-27T12:05:42Z</time>
      </trkpt>
      <trkpt lat="46.71471" lon="5.4769">
        <ele>214.8</ele>
        <time>2022-05-27T12:05:43Z</time>
      </trkpt>
      <trkpt lat="46.71514" lon="5.47661">
        <ele>213.6</ele>
        <time>2022-05-27T12:05:49Z</time>
      </trkpt>
      <trkpt lat="46.71528" lon="5.47651">
        <ele>213.4</ele>
        <time>2022-05-27T12:05:51Z</time>
      </trkpt>
      <trkpt lat="46.71581" lon="5.47613">
        <ele>213.2</ele>
        <time>2022-05-27T12:05:59Z</time>
      </trkpt>
      <trkpt lat="46.71587" lon="5.47609">
        <ele>213.4</ele>
        <time>2022-05-27T12:06:00Z</time>
      </trkpt>
      <trkpt lat="46.7162" lon="5.47588">
        <ele>214</ele>
        <time>2022-05-27T12:06:05Z</time>
      </trkpt>
      <trkpt lat="46.71626" lon="5.47585">
        <ele>214</ele>
        <time>2022-05-27T12:06:06Z</time>
      </trkpt>
      <trkpt lat="46.7164" lon="5.47584">
        <ele>214</ele>
        <time>2022-05-27T12:06:08Z</time>
      </trkpt>
      <trkpt lat="46.71653" lon="5.47585">
        <ele>214.2</ele>
        <time>2022-05-27T12:06:10Z</time>
      </trkpt>
      <trkpt lat="46.71672" lon="5.47587">
        <ele>214</ele>
        <time>2022-05-27T12:06:13Z</time>
      </trkpt>
      <trkpt lat="46.71684" lon="5.47586">
        <ele>214.2</ele>
        <time>2022-05-27T12:06:15Z</time>
      </trkpt>
      <trkpt lat="46.71714" lon="5.47577">
        <ele>214.8</ele>
        <time>2022-05-27T12:06:20Z</time>
      </trkpt>
      <trkpt lat="46.71721" lon="5.47576">
        <ele>214.8</ele>
        <time>2022-05-27T12:06:21Z</time>
      </trkpt>
      <trkpt lat="46.71727" lon="5.47579">
        <ele>215</ele>
        <time>2022-05-27T12:06:22Z</time>
      </trkpt>
      <trkpt lat="46.71739" lon="5.47591">
        <ele>215</ele>
        <time>2022-05-27T12:06:24Z</time>
      </trkpt>
      <trkpt lat="46.71746" lon="5.47613">
        <ele>214.4</ele>
        <time>2022-05-27T12:06:26Z</time>
      </trkpt>
      <trkpt lat="46.71751" lon="5.47623">
        <ele>214.4</ele>
        <time>2022-05-27T12:06:27Z</time>
      </trkpt>
      <trkpt lat="46.71757" lon="5.47631">
        <ele>213.8</ele>
        <time>2022-05-27T12:06:28Z</time>
      </trkpt>
      <trkpt lat="46.71763" lon="5.47639">
        <ele>213.6</ele>
        <time>2022-05-27T12:06:29Z</time>
      </trkpt>
      <trkpt lat="46.71778" lon="5.47648">
        <ele>212.6</ele>
        <time>2022-05-27T12:06:31Z</time>
      </trkpt>
      <trkpt lat="46.71802" lon="5.47659">
        <ele>211.4</ele>
        <time>2022-05-27T12:06:34Z</time>
      </trkpt>
      <trkpt lat="46.71824" lon="5.47664">
        <ele>210.4</ele>
        <time>2022-05-27T12:06:37Z</time>
      </trkpt>
      <trkpt lat="46.71839" lon="5.47665">
        <ele>210.2</ele>
        <time>2022-05-27T12:06:39Z</time>
      </trkpt>
      <trkpt lat="46.71861" lon="5.47666">
        <ele>209.8</ele>
        <time>2022-05-27T12:06:42Z</time>
      </trkpt>
      <trkpt lat="46.71875" lon="5.47674">
        <ele>209.8</ele>
        <time>2022-05-27T12:06:44Z</time>
      </trkpt>
      <trkpt lat="46.71879" lon="5.47681">
        <ele>210</ele>
        <time>2022-05-27T12:06:45Z</time>
      </trkpt>
      <trkpt lat="46.71882" lon="5.47691">
        <ele>210</ele>
        <time>2022-05-27T12:06:46Z</time>
      </trkpt>
      <trkpt lat="46.71884" lon="5.47711">
        <ele>210</ele>
        <time>2022-05-27T12:06:48Z</time>
      </trkpt>
      <trkpt lat="46.71895" lon="5.47747">
        <ele>210.2</ele>
        <time>2022-05-27T12:06:52Z</time>
      </trkpt>
      <trkpt lat="46.71898" lon="5.47754">
        <ele>210.2</ele>
        <time>2022-05-27T12:06:53Z</time>
      </trkpt>
      <trkpt lat="46.71902" lon="5.47763">
        <ele>210.2</ele>
        <time>2022-05-27T12:06:54Z</time>
      </trkpt>
      <trkpt lat="46.71923" lon="5.47801">
        <ele>210.4</ele>
        <time>2022-05-27T12:06:59Z</time>
      </trkpt>
      <trkpt lat="46.7195" lon="5.47843">
        <ele>210.6</ele>
        <time>2022-05-27T12:07:05Z</time>
      </trkpt>
      <trkpt lat="46.71955" lon="5.47851">
        <ele>210.6</ele>
        <time>2022-05-27T12:07:06Z</time>
      </trkpt>
      <trkpt lat="46.71977" lon="5.47892">
        <ele>210.6</ele>
        <time>2022-05-27T12:07:11Z</time>
      </trkpt>
      <trkpt lat="46.7198" lon="5.47901">
        <ele>210.4</ele>
        <time>2022-05-27T12:07:12Z</time>
      </trkpt>
      <trkpt lat="46.71991" lon="5.47938">
        <ele>210.2</ele>
        <time>2022-05-27T12:07:16Z</time>
      </trkpt>
      <trkpt lat="46.72" lon="5.47976">
        <ele>210</ele>
        <time>2022-05-27T12:07:20Z</time>
      </trkpt>
      <trkpt lat="46.72007" lon="5.48005">
        <ele>210.2</ele>
        <time>2022-05-27T12:07:23Z</time>
      </trkpt>
      <trkpt lat="46.72016" lon="5.4803">
        <ele>210.6</ele>
        <time>2022-05-27T12:07:26Z</time>
      </trkpt>
      <trkpt lat="46.72021" lon="5.48048">
        <ele>210.4</ele>
        <time>2022-05-27T12:07:28Z</time>
      </trkpt>
      <trkpt lat="46.72026" lon="5.48065">
        <ele>210.6</ele>
        <time>2022-05-27T12:07:30Z</time>
      </trkpt>
      <trkpt lat="46.72029" lon="5.48094">
        <ele>210.8</ele>
        <time>2022-05-27T12:07:33Z</time>
      </trkpt>
      <trkpt lat="46.72029" lon="5.48103">
        <ele>211</ele>
        <time>2022-05-27T12:07:34Z</time>
      </trkpt>
      <trkpt lat="46.72026" lon="5.4813">
        <ele>211.8</ele>
        <time>2022-05-27T12:07:37Z</time>
      </trkpt>
      <trkpt lat="46.72019" lon="5.4818">
        <ele>211.8</ele>
        <time>2022-05-27T12:07:43Z</time>
      </trkpt>
      <trkpt lat="46.72018" lon="5.48188">
        <ele>212.2</ele>
        <time>2022-05-27T12:07:44Z</time>
      </trkpt>
      <trkpt lat="46.72017" lon="5.48196">
        <ele>212.4</ele>
        <time>2022-05-27T12:07:45Z</time>
      </trkpt>
      <trkpt lat="46.72014" lon="5.48225">
        <ele>213.4</ele>
        <time>2022-05-27T12:07:49Z</time>
      </trkpt>
      <trkpt lat="46.72013" lon="5.48232">
        <ele>213.6</ele>
        <time>2022-05-27T12:07:50Z</time>
      </trkpt>
      <trkpt lat="46.7201" lon="5.48257">
        <ele>214.8</ele>
        <time>2022-05-27T12:07:54Z</time>
      </trkpt>
      <trkpt lat="46.72009" lon="5.48269">
        <ele>215.4</ele>
        <time>2022-05-27T12:07:56Z</time>
      </trkpt>
      <trkpt lat="46.72008" lon="5.48291">
        <ele>215.8</ele>
        <time>2022-05-27T12:07:59Z</time>
      </trkpt>
      <trkpt lat="46.72008" lon="5.48307">
        <ele>216.4</ele>
        <time>2022-05-27T12:08:01Z</time>
      </trkpt>
      <trkpt lat="46.72008" lon="5.48315">
        <ele>216.6</ele>
        <time>2022-05-27T12:08:02Z</time>
      </trkpt>
      <trkpt lat="46.72009" lon="5.48345">
        <ele>216.8</ele>
        <time>2022-05-27T12:08:06Z</time>
      </trkpt>
      <trkpt lat="46.72011" lon="5.48366">
        <ele>217.4</ele>
        <time>2022-05-27T12:08:09Z</time>
      </trkpt>
      <trkpt lat="46.72012" lon="5.48401">
        <ele>218</ele>
        <time>2022-05-27T12:08:14Z</time>
      </trkpt>
      <trkpt lat="46.72013" lon="5.48426">
        <ele>219</ele>
        <time>2022-05-27T12:08:18Z</time>
      </trkpt>
      <trkpt lat="46.72013" lon="5.48433">
        <ele>219.6</ele>
        <time>2022-05-27T12:08:19Z</time>
      </trkpt>
      <trkpt lat="46.72015" lon="5.4846">
        <ele>220</ele>
        <time>2022-05-27T12:08:23Z</time>
      </trkpt>
      <trkpt lat="46.72015" lon="5.48468">
        <ele>220</ele>
        <time>2022-05-27T12:08:24Z</time>
      </trkpt>
      <trkpt lat="46.72015" lon="5.48476">
        <ele>220.2</ele>
        <time>2022-05-27T12:08:25Z</time>
      </trkpt>
      <trkpt lat="46.72017" lon="5.48529">
        <ele>220.2</ele>
        <time>2022-05-27T12:08:31Z</time>
      </trkpt>
      <trkpt lat="46.7202" lon="5.48589">
        <ele>220.4</ele>
        <time>2022-05-27T12:08:39Z</time>
      </trkpt>
      <trkpt lat="46.72021" lon="5.48608">
        <ele>221.2</ele>
        <time>2022-05-27T12:08:42Z</time>
      </trkpt>
      <trkpt lat="46.72022" lon="5.48623">
        <ele>221.8</ele>
        <time>2022-05-27T12:08:45Z</time>
      </trkpt>
      <trkpt lat="46.72023" lon="5.48632">
        <ele>222.6</ele>
        <time>2022-05-27T12:08:47Z</time>
      </trkpt>
      <trkpt lat="46.72024" lon="5.48647">
        <ele>223.8</ele>
        <time>2022-05-27T12:08:51Z</time>
      </trkpt>
      <trkpt lat="46.72025" lon="5.4866">
        <ele>225.2</ele>
        <time>2022-05-27T12:08:54Z</time>
      </trkpt>
      <trkpt lat="46.72026" lon="5.48678">
        <ele>226.2</ele>
        <time>2022-05-27T12:08:58Z</time>
      </trkpt>
      <trkpt lat="46.72027" lon="5.48683">
        <ele>226.4</ele>
        <time>2022-05-27T12:08:59Z</time>
      </trkpt>
      <trkpt lat="46.72027" lon="5.48692">
        <ele>227.4</ele>
        <time>2022-05-27T12:09:01Z</time>
      </trkpt>
      <trkpt lat="46.72028" lon="5.48698">
        <ele>227.6</ele>
        <time>2022-05-27T12:09:02Z</time>
      </trkpt>
      <trkpt lat="46.72029" lon="5.48705">
        <ele>228</ele>
        <time>2022-05-27T12:09:03Z</time>
      </trkpt>
      <trkpt lat="46.7203" lon="5.48719">
        <ele>228.6</ele>
        <time>2022-05-27T12:09:05Z</time>
      </trkpt>
      <trkpt lat="46.72032" lon="5.48747">
        <ele>229.4</ele>
        <time>2022-05-27T12:09:09Z</time>
      </trkpt>
      <trkpt lat="46.72033" lon="5.48753">
        <ele>229.8</ele>
        <time>2022-05-27T12:09:10Z</time>
      </trkpt>
      <trkpt lat="46.72037" lon="5.48781">
        <ele>230.8</ele>
        <time>2022-05-27T12:09:15Z</time>
      </trkpt>
      <trkpt lat="46.72041" lon="5.48811">
        <ele>231.8</ele>
        <time>2022-05-27T12:09:20Z</time>
      </trkpt>
      <trkpt lat="46.72045" lon="5.48823">
        <ele>232</ele>
        <time>2022-05-27T12:09:22Z</time>
      </trkpt>
      <trkpt lat="46.72047" lon="5.48829">
        <ele>232.4</ele>
        <time>2022-05-27T12:09:23Z</time>
      </trkpt>
      <trkpt lat="46.72048" lon="5.48843">
        <ele>232.8</ele>
        <time>2022-05-27T12:09:25Z</time>
      </trkpt>
      <trkpt lat="46.7205" lon="5.48852">
        <ele>233</ele>
        <time>2022-05-27T12:09:26Z</time>
      </trkpt>
      <trkpt lat="46.72052" lon="5.4886">
        <ele>233.2</ele>
        <time>2022-05-27T12:09:27Z</time>
      </trkpt>
      <trkpt lat="46.72056" lon="5.48883">
        <ele>233.4</ele>
        <time>2022-05-27T12:09:30Z</time>
      </trkpt>
      <trkpt lat="46.72058" lon="5.4889">
        <ele>233.6</ele>
        <time>2022-05-27T12:09:31Z</time>
      </trkpt>
      <trkpt lat="46.72058" lon="5.48907">
        <ele>233.8</ele>
        <time>2022-05-27T12:09:33Z</time>
      </trkpt>
      <trkpt lat="46.72061" lon="5.48922">
        <ele>234</ele>
        <time>2022-05-27T12:09:35Z</time>
      </trkpt>
      <trkpt lat="46.72062" lon="5.4893">
        <ele>234</ele>
        <time>2022-05-27T12:09:36Z</time>
      </trkpt>
      <trkpt lat="46.72062" lon="5.48939">
        <ele>234</ele>
        <time>2022-05-27T12:09:37Z</time>
      </trkpt>
      <trkpt lat="46.72065" lon="5.48954">
        <ele>234.2</ele>
        <time>2022-05-27T12:09:39Z</time>
      </trkpt>
      <trkpt lat="46.72068" lon="5.48961">
        <ele>234.2</ele>
        <time>2022-05-27T12:09:40Z</time>
      </trkpt>
      <trkpt lat="46.72078" lon="5.48994">
        <ele>234.2</ele>
        <time>2022-05-27T12:09:45Z</time>
      </trkpt>
      <trkpt lat="46.72082" lon="5.49007">
        <ele>234.2</ele>
        <time>2022-05-27T12:09:47Z</time>
      </trkpt>
      <trkpt lat="46.72084" lon="5.49023">
        <ele>234.2</ele>
        <time>2022-05-27T12:09:49Z</time>
      </trkpt>
      <trkpt lat="46.72085" lon="5.49032">
        <ele>234.2</ele>
        <time>2022-05-27T12:09:50Z</time>
      </trkpt>
      <trkpt lat="46.72094" lon="5.49083">
        <ele>234.2</ele>
        <time>2022-05-27T12:09:56Z</time>
      </trkpt>
      <trkpt lat="46.72096" lon="5.49092">
        <ele>234.2</ele>
        <time>2022-05-27T12:09:57Z</time>
      </trkpt>
      <trkpt lat="46.72101" lon="5.49125">
        <ele>234.2</ele>
        <time>2022-05-27T12:10:01Z</time>
      </trkpt>
      <trkpt lat="46.72102" lon="5.49133">
        <ele>234.2</ele>
        <time>2022-05-27T12:10:02Z</time>
      </trkpt>
      <trkpt lat="46.72106" lon="5.49149">
        <ele>234.2</ele>
        <time>2022-05-27T12:10:04Z</time>
      </trkpt>
      <trkpt lat="46.72108" lon="5.4916">
        <ele>234.2</ele>
        <time>2022-05-27T12:10:05Z</time>
      </trkpt>
      <trkpt lat="46.72112" lon="5.49194">
        <ele>234.2</ele>
        <time>2022-05-27T12:10:08Z</time>
      </trkpt>
      <trkpt lat="46.72114" lon="5.49204">
        <ele>234.2</ele>
        <time>2022-05-27T12:10:09Z</time>
      </trkpt>
      <trkpt lat="46.72117" lon="5.49229">
        <ele>233.8</ele>
        <time>2022-05-27T12:10:11Z</time>
      </trkpt>
      <trkpt lat="46.72121" lon="5.49254">
        <ele>233.6</ele>
        <time>2022-05-27T12:10:13Z</time>
      </trkpt>
      <trkpt lat="46.72139" lon="5.49325">
        <ele>233.2</ele>
        <time>2022-05-27T12:10:20Z</time>
      </trkpt>
      <trkpt lat="46.72155" lon="5.49363">
        <ele>233.6</ele>
        <time>2022-05-27T12:10:25Z</time>
      </trkpt>
      <trkpt lat="46.7217" lon="5.4939">
        <ele>234.2</ele>
        <time>2022-05-27T12:10:29Z</time>
      </trkpt>
      <trkpt lat="46.72179" lon="5.49403">
        <ele>234.4</ele>
        <time>2022-05-27T12:10:31Z</time>
      </trkpt>
      <trkpt lat="46.72216" lon="5.4946">
        <ele>234.6</ele>
        <time>2022-05-27T12:10:39Z</time>
      </trkpt>
      <trkpt lat="46.72254" lon="5.49511">
        <ele>234.2</ele>
        <time>2022-05-27T12:10:47Z</time>
      </trkpt>
      <trkpt lat="46.72296" lon="5.49575">
        <ele>234</ele>
        <time>2022-05-27T12:10:56Z</time>
      </trkpt>
      <trkpt lat="46.72332" lon="5.49632">
        <ele>233</ele>
        <time>2022-05-27T12:11:04Z</time>
      </trkpt>
      <trkpt lat="46.72369" lon="5.49671">
        <ele>233.6</ele>
        <time>2022-05-27T12:11:11Z</time>
      </trkpt>
      <trkpt lat="46.72374" lon="5.49678">
        <ele>233.8</ele>
        <time>2022-05-27T12:11:12Z</time>
      </trkpt>
      <trkpt lat="46.7238" lon="5.49693">
        <ele>233.8</ele>
        <time>2022-05-27T12:11:14Z</time>
      </trkpt>
      <trkpt lat="46.72384" lon="5.49722">
        <ele>234</ele>
        <time>2022-05-27T12:11:17Z</time>
      </trkpt>
      <trkpt lat="46.72389" lon="5.4974">
        <ele>234</ele>
        <time>2022-05-27T12:11:19Z</time>
      </trkpt>
      <trkpt lat="46.72393" lon="5.49747">
        <ele>234</ele>
        <time>2022-05-27T12:11:20Z</time>
      </trkpt>
      <trkpt lat="46.72404" lon="5.49761">
        <ele>234</ele>
        <time>2022-05-27T12:11:22Z</time>
      </trkpt>
      <trkpt lat="46.72422" lon="5.49778">
        <ele>233.4</ele>
        <time>2022-05-27T12:11:25Z</time>
      </trkpt>
      <trkpt lat="46.72454" lon="5.498">
        <ele>232.8</ele>
        <time>2022-05-27T12:11:29Z</time>
      </trkpt>
      <trkpt lat="46.72469" lon="5.49811">
        <ele>232.2</ele>
        <time>2022-05-27T12:11:31Z</time>
      </trkpt>
      <trkpt lat="46.72491" lon="5.49826">
        <ele>231.6</ele>
        <time>2022-05-27T12:11:34Z</time>
      </trkpt>
      <trkpt lat="46.72525" lon="5.49856">
        <ele>230.8</ele>
        <time>2022-05-27T12:11:39Z</time>
      </trkpt>
      <trkpt lat="46.7255" lon="5.49878">
        <ele>230.4</ele>
        <time>2022-05-27T12:11:43Z</time>
      </trkpt>
      <trkpt lat="46.72564" lon="5.49892">
        <ele>230.4</ele>
        <time>2022-05-27T12:11:45Z</time>
      </trkpt>
      <trkpt lat="46.72614" lon="5.49939">
        <ele>230.4</ele>
        <time>2022-05-27T12:11:53Z</time>
      </trkpt>
      <trkpt lat="46.72632" lon="5.49955">
        <ele>230.4</ele>
        <time>2022-05-27T12:11:56Z</time>
      </trkpt>
      <trkpt lat="46.72658" lon="5.49978">
        <ele>230.6</ele>
        <time>2022-05-27T12:12:01Z</time>
      </trkpt>
      <trkpt lat="46.72677" lon="5.49993">
        <ele>231.2</ele>
        <time>2022-05-27T12:12:05Z</time>
      </trkpt>
      <trkpt lat="46.72682" lon="5.49995">
        <ele>231.4</ele>
        <time>2022-05-27T12:12:06Z</time>
      </trkpt>
      <trkpt lat="46.72687" lon="5.49994">
        <ele>231.4</ele>
        <time>2022-05-27T12:12:07Z</time>
      </trkpt>
      <trkpt lat="46.72698" lon="5.49986">
        <ele>231.4</ele>
        <time>2022-05-27T12:12:09Z</time>
      </trkpt>
      <trkpt lat="46.72715" lon="5.49956">
        <ele>231.4</ele>
        <time>2022-05-27T12:12:13Z</time>
      </trkpt>
      <trkpt lat="46.72741" lon="5.49902">
        <ele>231.4</ele>
        <time>2022-05-27T12:12:19Z</time>
      </trkpt>
      <trkpt lat="46.72751" lon="5.49886">
        <ele>231.4</ele>
        <time>2022-05-27T12:12:21Z</time>
      </trkpt>
      <trkpt lat="46.72758" lon="5.4988">
        <ele>231.6</ele>
        <time>2022-05-27T12:12:22Z</time>
      </trkpt>
      <trkpt lat="46.72764" lon="5.49875">
        <ele>231.6</ele>
        <time>2022-05-27T12:12:23Z</time>
      </trkpt>
      <trkpt lat="46.72778" lon="5.49869">
        <ele>231.4</ele>
        <time>2022-05-27T12:12:25Z</time>
      </trkpt>
      <trkpt lat="46.72793" lon="5.49868">
        <ele>231.2</ele>
        <time>2022-05-27T12:12:27Z</time>
      </trkpt>
      <trkpt lat="46.72801" lon="5.49868">
        <ele>230.8</ele>
        <time>2022-05-27T12:12:28Z</time>
      </trkpt>
      <trkpt lat="46.72808" lon="5.4987">
        <ele>230.4</ele>
        <time>2022-05-27T12:12:29Z</time>
      </trkpt>
      <trkpt lat="46.72823" lon="5.49875">
        <ele>230</ele>
        <time>2022-05-27T12:12:31Z</time>
      </trkpt>
      <trkpt lat="46.7286" lon="5.49886">
        <ele>229.6</ele>
        <time>2022-05-27T12:12:36Z</time>
      </trkpt>
      <trkpt lat="46.72866" lon="5.49884">
        <ele>229.6</ele>
        <time>2022-05-27T12:12:37Z</time>
      </trkpt>
      <trkpt lat="46.72873" lon="5.49879">
        <ele>229.6</ele>
        <time>2022-05-27T12:12:38Z</time>
      </trkpt>
      <trkpt lat="46.72884" lon="5.49863">
        <ele>229.4</ele>
        <time>2022-05-27T12:12:40Z</time>
      </trkpt>
      <trkpt lat="46.7289" lon="5.49854">
        <ele>229.2</ele>
        <time>2022-05-27T12:12:41Z</time>
      </trkpt>
      <trkpt lat="46.7292" lon="5.49812">
        <ele>228</ele>
        <time>2022-05-27T12:12:46Z</time>
      </trkpt>
      <trkpt lat="46.7294" lon="5.49789">
        <ele>226.8</ele>
        <time>2022-05-27T12:12:49Z</time>
      </trkpt>
      <trkpt lat="46.7295" lon="5.49781">
        <ele>226.4</ele>
        <time>2022-05-27T12:12:50Z</time>
      </trkpt>
      <trkpt lat="46.72976" lon="5.49763">
        <ele>225.4</ele>
        <time>2022-05-27T12:12:53Z</time>
      </trkpt>
      <trkpt lat="46.72994" lon="5.49753">
        <ele>223.4</ele>
        <time>2022-05-27T12:12:55Z</time>
      </trkpt>
      <trkpt lat="46.73015" lon="5.4975">
        <ele>222.4</ele>
        <time>2022-05-27T12:12:57Z</time>
      </trkpt>
      <trkpt lat="46.73023" lon="5.49751">
        <ele>222.2</ele>
        <time>2022-05-27T12:12:58Z</time>
      </trkpt>
      <trkpt lat="46.73035" lon="5.49752">
        <ele>221.2</ele>
        <time>2022-05-27T12:12:59Z</time>
      </trkpt>
      <trkpt lat="46.73054" lon="5.49752">
        <ele>220.2</ele>
        <time>2022-05-27T12:13:01Z</time>
      </trkpt>
      <trkpt lat="46.73075" lon="5.49754">
        <ele>219</ele>
        <time>2022-05-27T12:13:03Z</time>
      </trkpt>
      <trkpt lat="46.73093" lon="5.49755">
        <ele>218</ele>
        <time>2022-05-27T12:13:05Z</time>
      </trkpt>
      <trkpt lat="46.73112" lon="5.49756">
        <ele>217.2</ele>
        <time>2022-05-27T12:13:07Z</time>
      </trkpt>
      <trkpt lat="46.73124" lon="5.49757">
        <ele>216.8</ele>
        <time>2022-05-27T12:13:08Z</time>
      </trkpt>
      <trkpt lat="46.73149" lon="5.49757">
        <ele>215.8</ele>
        <time>2022-05-27T12:13:11Z</time>
      </trkpt>
      <trkpt lat="46.73187" lon="5.4976">
        <ele>215.4</ele>
        <time>2022-05-27T12:13:15Z</time>
      </trkpt>
      <trkpt lat="46.73247" lon="5.49764">
        <ele>215.4</ele>
        <time>2022-05-27T12:13:22Z</time>
      </trkpt>
      <trkpt lat="46.73281" lon="5.49768">
        <ele>215.4</ele>
        <time>2022-05-27T12:13:26Z</time>
      </trkpt>
      <trkpt lat="46.7334" lon="5.49778">
        <ele>215.2</ele>
        <time>2022-05-27T12:13:33Z</time>
      </trkpt>
      <trkpt lat="46.73358" lon="5.49782">
        <ele>215.2</ele>
        <time>2022-05-27T12:13:35Z</time>
      </trkpt>
      <trkpt lat="46.73413" lon="5.49796">
        <ele>215.4</ele>
        <time>2022-05-27T12:13:42Z</time>
      </trkpt>
      <trkpt lat="46.73468" lon="5.49815">
        <ele>215.2</ele>
        <time>2022-05-27T12:13:49Z</time>
      </trkpt>
      <trkpt lat="46.73491" lon="5.49822">
        <ele>215.4</ele>
        <time>2022-05-27T12:13:52Z</time>
      </trkpt>
      <trkpt lat="46.73537" lon="5.49835">
        <ele>215.4</ele>
        <time>2022-05-27T12:13:58Z</time>
      </trkpt>
      <trkpt lat="46.73592" lon="5.49845">
        <ele>215.4</ele>
        <time>2022-05-27T12:14:05Z</time>
      </trkpt>
      <trkpt lat="46.73599" lon="5.49846">
        <ele>215.2</ele>
        <time>2022-05-27T12:14:06Z</time>
      </trkpt>
      <trkpt lat="46.73649" lon="5.49851">
        <ele>215.8</ele>
        <time>2022-05-27T12:14:13Z</time>
      </trkpt>
      <trkpt lat="46.73692" lon="5.49855">
        <ele>216</ele>
        <time>2022-05-27T12:14:19Z</time>
      </trkpt>
      <trkpt lat="46.73742" lon="5.4986">
        <ele>216.4</ele>
        <time>2022-05-27T12:14:26Z</time>
      </trkpt>
      <trkpt lat="46.73802" lon="5.49871">
        <ele>216.8</ele>
        <time>2022-05-27T12:14:35Z</time>
      </trkpt>
      <trkpt lat="46.73855" lon="5.4988">
        <ele>216.8</ele>
        <time>2022-05-27T12:14:43Z</time>
      </trkpt>
      <trkpt lat="46.73861" lon="5.49881">
        <ele>217</ele>
        <time>2022-05-27T12:14:44Z</time>
      </trkpt>
      <trkpt lat="46.73911" lon="5.49891">
        <ele>217</ele>
        <time>2022-05-27T12:14:52Z</time>
      </trkpt>
      <trkpt lat="46.73954" lon="5.49901">
        <ele>217.2</ele>
        <time>2022-05-27T12:14:59Z</time>
      </trkpt>
      <trkpt lat="46.73994" lon="5.49913">
        <ele>217.4</ele>
        <time>2022-05-27T12:15:06Z</time>
      </trkpt>
      <trkpt lat="46.74004" lon="5.49917">
        <ele>217.6</ele>
        <time>2022-05-27T12:15:08Z</time>
      </trkpt>
      <trkpt lat="46.74012" lon="5.49925">
        <ele>217.6</ele>
        <time>2022-05-27T12:15:10Z</time>
      </trkpt>
      <trkpt lat="46.7402" lon="5.49934">
        <ele>217.6</ele>
        <time>2022-05-27T12:15:13Z</time>
      </trkpt>
      <trkpt lat="46.74024" lon="5.49936">
        <ele>217.6</ele>
        <time>2022-05-27T12:15:14Z</time>
      </trkpt>
      <trkpt lat="46.74029" lon="5.49938">
        <ele>217.6</ele>
        <time>2022-05-27T12:15:15Z</time>
      </trkpt>
      <trkpt lat="46.74044" lon="5.49949">
        <ele>217.4</ele>
        <time>2022-05-27T12:15:18Z</time>
      </trkpt>
      <trkpt lat="46.74056" lon="5.49948">
        <ele>217.4</ele>
        <time>2022-05-27T12:15:20Z</time>
      </trkpt>
      <trkpt lat="46.7406" lon="5.49943">
        <ele>217.2</ele>
        <time>2022-05-27T12:15:21Z</time>
      </trkpt>
      <trkpt lat="46.74062" lon="5.49935">
        <ele>217.2</ele>
        <time>2022-05-27T12:15:22Z</time>
      </trkpt>
      <trkpt lat="46.74065" lon="5.49918">
        <ele>217.2</ele>
        <time>2022-05-27T12:15:24Z</time>
      </trkpt>
      <trkpt lat="46.74068" lon="5.49909">
        <ele>217.2</ele>
        <time>2022-05-27T12:15:25Z</time>
      </trkpt>
      <trkpt lat="46.74075" lon="5.49894">
        <ele>217.2</ele>
        <time>2022-05-27T12:15:27Z</time>
      </trkpt>
      <trkpt lat="46.7408" lon="5.49887">
        <ele>217.2</ele>
        <time>2022-05-27T12:15:28Z</time>
      </trkpt>
      <trkpt lat="46.74084" lon="5.49879">
        <ele>217.2</ele>
        <time>2022-05-27T12:15:29Z</time>
      </trkpt>
      <trkpt lat="46.74097" lon="5.49857">
        <ele>217</ele>
        <time>2022-05-27T12:15:32Z</time>
      </trkpt>
      <trkpt lat="46.74133" lon="5.49798">
        <ele>217</ele>
        <time>2022-05-27T12:15:40Z</time>
      </trkpt>
      <trkpt lat="46.74143" lon="5.49783">
        <ele>217</ele>
        <time>2022-05-27T12:15:42Z</time>
      </trkpt>
      <trkpt lat="46.74153" lon="5.4977">
        <ele>217.2</ele>
        <time>2022-05-27T12:15:44Z</time>
      </trkpt>
      <trkpt lat="46.74176" lon="5.49738">
        <ele>217</ele>
        <time>2022-05-27T12:15:49Z</time>
      </trkpt>
      <trkpt lat="46.74188" lon="5.49728">
        <ele>217</ele>
        <time>2022-05-27T12:15:51Z</time>
      </trkpt>
      <trkpt lat="46.74207" lon="5.49715">
        <ele>217</ele>
        <time>2022-05-27T12:15:54Z</time>
      </trkpt>
      <trkpt lat="46.7422" lon="5.49712">
        <ele>216.8</ele>
        <time>2022-05-27T12:15:56Z</time>
      </trkpt>
      <trkpt lat="46.74266" lon="5.49706">
        <ele>216.8</ele>
        <time>2022-05-27T12:16:03Z</time>
      </trkpt>
      <trkpt lat="46.74311" lon="5.49707">
        <ele>217</ele>
        <time>2022-05-27T12:16:10Z</time>
      </trkpt>
      <trkpt lat="46.7432" lon="5.49715">
        <ele>217</ele>
        <time>2022-05-27T12:16:12Z</time>
      </trkpt>
      <trkpt lat="46.74323" lon="5.49721">
        <ele>217</ele>
        <time>2022-05-27T12:16:13Z</time>
      </trkpt>
      <trkpt lat="46.74331" lon="5.49754">
        <ele>217.2</ele>
        <time>2022-05-27T12:16:17Z</time>
      </trkpt>
      <trkpt lat="46.74338" lon="5.49773">
        <ele>217</ele>
        <time>2022-05-27T12:16:19Z</time>
      </trkpt>
      <trkpt lat="46.74342" lon="5.49789">
        <ele>217</ele>
        <time>2022-05-27T12:16:21Z</time>
      </trkpt>
      <trkpt lat="46.74351" lon="5.49823">
        <ele>216.8</ele>
        <time>2022-05-27T12:16:25Z</time>
      </trkpt>
      <trkpt lat="46.74362" lon="5.49874">
        <ele>217.4</ele>
        <time>2022-05-27T12:16:31Z</time>
      </trkpt>
      <trkpt lat="46.74374" lon="5.4994">
        <ele>217.6</ele>
        <time>2022-05-27T12:16:38Z</time>
      </trkpt>
      <trkpt lat="46.74379" lon="5.49995">
        <ele>218</ele>
        <time>2022-05-27T12:16:44Z</time>
      </trkpt>
      <trkpt lat="46.74375" lon="5.50012">
        <ele>218.2</ele>
        <time>2022-05-27T12:16:46Z</time>
      </trkpt>
      <trkpt lat="46.74369" lon="5.5003">
        <ele>218.2</ele>
        <time>2022-05-27T12:16:48Z</time>
      </trkpt>
      <trkpt lat="46.74362" lon="5.50044">
        <ele>218.2</ele>
        <time>2022-05-27T12:16:50Z</time>
      </trkpt>
      <trkpt lat="46.74352" lon="5.5006">
        <ele>218.2</ele>
        <time>2022-05-27T12:16:52Z</time>
      </trkpt>
      <trkpt lat="46.74349" lon="5.50067">
        <ele>218.2</ele>
        <time>2022-05-27T12:16:53Z</time>
      </trkpt>
      <trkpt lat="46.74315" lon="5.50131">
        <ele>218</ele>
        <time>2022-05-27T12:17:01Z</time>
      </trkpt>
      <trkpt lat="46.74311" lon="5.50139">
        <ele>218</ele>
        <time>2022-05-27T12:17:02Z</time>
      </trkpt>
      <trkpt lat="46.74279" lon="5.50209">
        <ele>218</ele>
        <time>2022-05-27T12:17:10Z</time>
      </trkpt>
      <trkpt lat="46.74271" lon="5.50227">
        <ele>218</ele>
        <time>2022-05-27T12:17:12Z</time>
      </trkpt>
      <trkpt lat="46.74239" lon="5.50297">
        <ele>217.8</ele>
        <time>2022-05-27T12:17:20Z</time>
      </trkpt>
      <trkpt lat="46.74208" lon="5.50367">
        <ele>218.2</ele>
        <time>2022-05-27T12:17:28Z</time>
      </trkpt>
      <trkpt lat="46.74204" lon="5.50376">
        <ele>218.4</ele>
        <time>2022-05-27T12:17:29Z</time>
      </trkpt>
      <trkpt lat="46.74174" lon="5.50451">
        <ele>218.8</ele>
        <time>2022-05-27T12:17:37Z</time>
      </trkpt>
      <trkpt lat="46.74171" lon="5.5046">
        <ele>219</ele>
        <time>2022-05-27T12:17:38Z</time>
      </trkpt>
      <trkpt lat="46.74152" lon="5.50542">
        <ele>219</ele>
        <time>2022-05-27T12:17:46Z</time>
      </trkpt>
      <trkpt lat="46.74146" lon="5.50595">
        <ele>219.4</ele>
        <time>2022-05-27T12:17:52Z</time>
      </trkpt>
      <trkpt lat="46.74146" lon="5.50603">
        <ele>219.6</ele>
        <time>2022-05-27T12:17:53Z</time>
      </trkpt>
      <trkpt lat="46.74148" lon="5.50627">
        <ele>220.4</ele>
        <time>2022-05-27T12:17:56Z</time>
      </trkpt>
      <trkpt lat="46.74149" lon="5.50635">
        <ele>220.8</ele>
        <time>2022-05-27T12:17:57Z</time>
      </trkpt>
      <trkpt lat="46.74154" lon="5.50657">
        <ele>221.8</ele>
        <time>2022-05-27T12:18:00Z</time>
      </trkpt>
      <trkpt lat="46.7416" lon="5.5068">
        <ele>223</ele>
        <time>2022-05-27T12:18:03Z</time>
      </trkpt>
      <trkpt lat="46.74169" lon="5.50718">
        <ele>224</ele>
        <time>2022-05-27T12:18:08Z</time>
      </trkpt>
      <trkpt lat="46.7418" lon="5.5076">
        <ele>225</ele>
        <time>2022-05-27T12:18:14Z</time>
      </trkpt>
      <trkpt lat="46.74196" lon="5.50839">
        <ele>226.2</ele>
        <time>2022-05-27T12:18:24Z</time>
      </trkpt>
      <trkpt lat="46.74199" lon="5.50853">
        <ele>226.4</ele>
        <time>2022-05-27T12:18:26Z</time>
      </trkpt>
      <trkpt lat="46.74219" lon="5.50931">
        <ele>227</ele>
        <time>2022-05-27T12:18:36Z</time>
      </trkpt>
      <trkpt lat="46.74223" lon="5.50946">
        <ele>227.4</ele>
        <time>2022-05-27T12:18:38Z</time>
      </trkpt>
      <trkpt lat="46.74234" lon="5.50983">
        <ele>228.6</ele>
        <time>2022-05-27T12:18:44Z</time>
      </trkpt>
      <trkpt lat="46.74238" lon="5.50995">
        <ele>229</ele>
        <time>2022-05-27T12:18:46Z</time>
      </trkpt>
      <trkpt lat="46.74245" lon="5.51009">
        <ele>229.8</ele>
        <time>2022-05-27T12:18:49Z</time>
      </trkpt>
      <trkpt lat="46.74247" lon="5.51014">
        <ele>230</ele>
        <time>2022-05-27T12:18:50Z</time>
      </trkpt>
      <trkpt lat="46.74254" lon="5.51028">
        <ele>231</ele>
        <time>2022-05-27T12:18:53Z</time>
      </trkpt>
      <trkpt lat="46.74262" lon="5.51053">
        <ele>232.2</ele>
        <time>2022-05-27T12:18:58Z</time>
      </trkpt>
      <trkpt lat="46.74265" lon="5.51083">
        <ele>233.2</ele>
        <time>2022-05-27T12:19:03Z</time>
      </trkpt>
      <trkpt lat="46.74265" lon="5.51095">
        <ele>233.6</ele>
        <time>2022-05-27T12:19:05Z</time>
      </trkpt>
      <trkpt lat="46.74265" lon="5.51134">
        <ele>234.4</ele>
        <time>2022-05-27T12:19:10Z</time>
      </trkpt>
      <trkpt lat="46.74265" lon="5.51159">
        <ele>234.6</ele>
        <time>2022-05-27T12:19:13Z</time>
      </trkpt>
      <trkpt lat="46.74264" lon="5.5122">
        <ele>234.2</ele>
        <time>2022-05-27T12:19:19Z</time>
      </trkpt>
      <trkpt lat="46.74266" lon="5.513">
        <ele>233.4</ele>
        <time>2022-05-27T12:19:27Z</time>
      </trkpt>
      <trkpt lat="46.74269" lon="5.51376">
        <ele>234</ele>
        <time>2022-05-27T12:19:35Z</time>
      </trkpt>
      <trkpt lat="46.74272" lon="5.51446">
        <ele>234.8</ele>
        <time>2022-05-27T12:19:43Z</time>
      </trkpt>
      <trkpt lat="46.74272" lon="5.51455">
        <ele>235</ele>
        <time>2022-05-27T12:19:44Z</time>
      </trkpt>
      <trkpt lat="46.74271" lon="5.51482">
        <ele>235.4</ele>
        <time>2022-05-27T12:19:47Z</time>
      </trkpt>
      <trkpt lat="46.7427" lon="5.51525">
        <ele>236</ele>
        <time>2022-05-27T12:19:52Z</time>
      </trkpt>
      <trkpt lat="46.7427" lon="5.51532">
        <ele>236.2</ele>
        <time>2022-05-27T12:19:53Z</time>
      </trkpt>
      <trkpt lat="46.74273" lon="5.5155">
        <ele>236.2</ele>
        <time>2022-05-27T12:19:55Z</time>
      </trkpt>
      <trkpt lat="46.74276" lon="5.51557">
        <ele>236.4</ele>
        <time>2022-05-27T12:19:56Z</time>
      </trkpt>
      <trkpt lat="46.74279" lon="5.51564">
        <ele>236.6</ele>
        <time>2022-05-27T12:19:57Z</time>
      </trkpt>
      <trkpt lat="46.74299" lon="5.51594">
        <ele>237.4</ele>
        <time>2022-05-27T12:20:02Z</time>
      </trkpt>
      <trkpt lat="46.74303" lon="5.516">
        <ele>237.6</ele>
        <time>2022-05-27T12:20:03Z</time>
      </trkpt>
      <trkpt lat="46.74328" lon="5.5164">
        <ele>239</ele>
        <time>2022-05-27T12:20:10Z</time>
      </trkpt>
      <trkpt lat="46.74346" lon="5.51664">
        <ele>240.2</ele>
        <time>2022-05-27T12:20:15Z</time>
      </trkpt>
      <trkpt lat="46.74355" lon="5.51672">
        <ele>240.8</ele>
        <time>2022-05-27T12:20:17Z</time>
      </trkpt>
      <trkpt lat="46.74368" lon="5.51685">
        <ele>241.2</ele>
        <time>2022-05-27T12:20:20Z</time>
      </trkpt>
      <trkpt lat="46.74384" lon="5.517">
        <ele>241.8</ele>
        <time>2022-05-27T12:20:24Z</time>
      </trkpt>
      <trkpt lat="46.74397" lon="5.51711">
        <ele>242.4</ele>
        <time>2022-05-27T12:20:27Z</time>
      </trkpt>
      <trkpt lat="46.74414" lon="5.51727">
        <ele>243.4</ele>
        <time>2022-05-27T12:20:31Z</time>
      </trkpt>
      <trkpt lat="46.74435" lon="5.51746">
        <ele>244</ele>
        <time>2022-05-27T12:20:36Z</time>
      </trkpt>
      <trkpt lat="46.74453" lon="5.51762">
        <ele>244.4</ele>
        <time>2022-05-27T12:20:40Z</time>
      </trkpt>
      <trkpt lat="46.74458" lon="5.51765">
        <ele>244.6</ele>
        <time>2022-05-27T12:20:41Z</time>
      </trkpt>
      <trkpt lat="46.74468" lon="5.51771">
        <ele>244.8</ele>
        <time>2022-05-27T12:20:43Z</time>
      </trkpt>
      <trkpt lat="46.74514" lon="5.518">
        <ele>245.2</ele>
        <time>2022-05-27T12:20:52Z</time>
      </trkpt>
      <trkpt lat="46.7455" lon="5.51819">
        <ele>245.8</ele>
        <time>2022-05-27T12:20:59Z</time>
      </trkpt>
      <trkpt lat="46.74559" lon="5.51822">
        <ele>246.2</ele>
        <time>2022-05-27T12:21:01Z</time>
      </trkpt>
      <trkpt lat="46.74577" lon="5.51831">
        <ele>246.4</ele>
        <time>2022-05-27T12:21:06Z</time>
      </trkpt>
      <trkpt lat="46.74585" lon="5.51837">
        <ele>246.8</ele>
        <time>2022-05-27T12:21:10Z</time>
      </trkpt>
      <trkpt lat="46.74588" lon="5.5184">
        <ele>246.8</ele>
        <time>2022-05-27T12:21:11Z</time>
      </trkpt>
      <trkpt lat="46.74592" lon="5.51843">
        <ele>246.8</ele>
        <time>2022-05-27T12:21:12Z</time>
      </trkpt>
      <trkpt lat="46.74603" lon="5.51849">
        <ele>246.8</ele>
        <time>2022-05-27T12:21:14Z</time>
      </trkpt>
      <trkpt lat="46.74633" lon="5.51867">
        <ele>246.8</ele>
        <time>2022-05-27T12:21:19Z</time>
      </trkpt>
      <trkpt lat="46.74685" lon="5.51903">
        <ele>246.2</ele>
        <time>2022-05-27T12:21:27Z</time>
      </trkpt>
      <trkpt lat="46.74706" lon="5.5193">
        <ele>245.8</ele>
        <time>2022-05-27T12:21:31Z</time>
      </trkpt>
      <trkpt lat="46.74711" lon="5.51937">
        <ele>245.8</ele>
        <time>2022-05-27T12:21:32Z</time>
      </trkpt>
      <trkpt lat="46.74748" lon="5.51982">
        <ele>245.2</ele>
        <time>2022-05-27T12:21:39Z</time>
      </trkpt>
      <trkpt lat="46.74797" lon="5.52022">
        <ele>244.8</ele>
        <time>2022-05-27T12:21:47Z</time>
      </trkpt>
      <trkpt lat="46.7481" lon="5.52031">
        <ele>244.8</ele>
        <time>2022-05-27T12:21:49Z</time>
      </trkpt>
      <trkpt lat="46.74866" lon="5.52059">
        <ele>244</ele>
        <time>2022-05-27T12:21:57Z</time>
      </trkpt>
      <trkpt lat="46.74873" lon="5.52062">
        <ele>244</ele>
        <time>2022-05-27T12:21:58Z</time>
      </trkpt>
      <trkpt lat="46.74887" lon="5.52068">
        <ele>243.6</ele>
        <time>2022-05-27T12:22:00Z</time>
      </trkpt>
      <trkpt lat="46.74918" lon="5.52086">
        <ele>243</ele>
        <time>2022-05-27T12:22:04Z</time>
      </trkpt>
      <trkpt lat="46.74942" lon="5.52104">
        <ele>242.6</ele>
        <time>2022-05-27T12:22:07Z</time>
      </trkpt>
      <trkpt lat="46.74967" lon="5.52121">
        <ele>240.8</ele>
        <time>2022-05-27T12:22:10Z</time>
      </trkpt>
      <trkpt lat="46.74991" lon="5.52134">
        <ele>239.6</ele>
        <time>2022-05-27T12:22:13Z</time>
      </trkpt>
      <trkpt lat="46.75021" lon="5.52149">
        <ele>239.4</ele>
        <time>2022-05-27T12:22:17Z</time>
      </trkpt>
      <trkpt lat="46.75042" lon="5.52162">
        <ele>239.6</ele>
        <time>2022-05-27T12:22:20Z</time>
      </trkpt>
      <trkpt lat="46.75047" lon="5.52169">
        <ele>239.6</ele>
        <time>2022-05-27T12:22:21Z</time>
      </trkpt>
      <trkpt lat="46.75063" lon="5.52205">
        <ele>240</ele>
        <time>2022-05-27T12:22:26Z</time>
      </trkpt>
      <trkpt lat="46.75065" lon="5.52221">
        <ele>240.2</ele>
        <time>2022-05-27T12:22:28Z</time>
      </trkpt>
      <trkpt lat="46.75067" lon="5.52229">
        <ele>240.6</ele>
        <time>2022-05-27T12:22:29Z</time>
      </trkpt>
      <trkpt lat="46.75069" lon="5.52234">
        <ele>240.6</ele>
        <time>2022-05-27T12:22:30Z</time>
      </trkpt>
      <trkpt lat="46.75072" lon="5.52241">
        <ele>241</ele>
        <time>2022-05-27T12:22:31Z</time>
      </trkpt>
      <trkpt lat="46.75083" lon="5.52263">
        <ele>241.4</ele>
        <time>2022-05-27T12:22:34Z</time>
      </trkpt>
      <trkpt lat="46.75101" lon="5.52289">
        <ele>241.6</ele>
        <time>2022-05-27T12:22:38Z</time>
      </trkpt>
      <trkpt lat="46.75116" lon="5.52309">
        <ele>241.8</ele>
        <time>2022-05-27T12:22:41Z</time>
      </trkpt>
      <trkpt lat="46.75144" lon="5.52341">
        <ele>242.8</ele>
        <time>2022-05-27T12:22:47Z</time>
      </trkpt>
      <trkpt lat="46.7515" lon="5.52347">
        <ele>243</ele>
        <time>2022-05-27T12:22:48Z</time>
      </trkpt>
      <trkpt lat="46.75184" lon="5.52384">
        <ele>243.8</ele>
        <time>2022-05-27T12:22:55Z</time>
      </trkpt>
      <trkpt lat="46.75189" lon="5.52389">
        <ele>244</ele>
        <time>2022-05-27T12:22:56Z</time>
      </trkpt>
      <trkpt lat="46.75204" lon="5.52404">
        <ele>244.2</ele>
        <time>2022-05-27T12:22:59Z</time>
      </trkpt>
      <trkpt lat="46.75216" lon="5.52412">
        <ele>244.2</ele>
        <time>2022-05-27T12:23:01Z</time>
      </trkpt>
      <trkpt lat="46.75241" lon="5.52427">
        <ele>244</ele>
        <time>2022-05-27T12:23:05Z</time>
      </trkpt>
      <trkpt lat="46.75248" lon="5.52432">
        <ele>243.8</ele>
        <time>2022-05-27T12:23:06Z</time>
      </trkpt>
      <trkpt lat="46.75281" lon="5.52459">
        <ele>242.6</ele>
        <time>2022-05-27T12:23:11Z</time>
      </trkpt>
      <trkpt lat="46.75316" lon="5.52489">
        <ele>241.4</ele>
        <time>2022-05-27T12:23:16Z</time>
      </trkpt>
      <trkpt lat="46.75336" lon="5.52505">
        <ele>241</ele>
        <time>2022-05-27T12:23:19Z</time>
      </trkpt>
      <trkpt lat="46.75378" lon="5.5254">
        <ele>241</ele>
        <time>2022-05-27T12:23:26Z</time>
      </trkpt>
      <trkpt lat="46.75403" lon="5.52563">
        <ele>242.4</ele>
        <time>2022-05-27T12:23:31Z</time>
      </trkpt>
      <trkpt lat="46.75407" lon="5.52567">
        <ele>243</ele>
        <time>2022-05-27T12:23:32Z</time>
      </trkpt>
      <trkpt lat="46.75414" lon="5.52577">
        <ele>243.4</ele>
        <time>2022-05-27T12:23:34Z</time>
      </trkpt>
      <trkpt lat="46.75427" lon="5.52594">
        <ele>244.6</ele>
        <time>2022-05-27T12:23:38Z</time>
      </trkpt>
      <trkpt lat="46.75434" lon="5.52603">
        <ele>246</ele>
        <time>2022-05-27T12:23:41Z</time>
      </trkpt>
      <trkpt lat="46.75447" lon="5.52614">
        <ele>247.2</ele>
        <time>2022-05-27T12:23:45Z</time>
      </trkpt>
      <trkpt lat="46.75454" lon="5.5262">
        <ele>247.6</ele>
        <time>2022-05-27T12:23:47Z</time>
      </trkpt>
      <trkpt lat="46.75466" lon="5.5263">
        <ele>248.2</ele>
        <time>2022-05-27T12:23:50Z</time>
      </trkpt>
      <trkpt lat="46.75482" lon="5.52646">
        <ele>248.6</ele>
        <time>2022-05-27T12:23:54Z</time>
      </trkpt>
      <trkpt lat="46.7551" lon="5.52666">
        <ele>249.2</ele>
        <time>2022-05-27T12:23:59Z</time>
      </trkpt>
      <trkpt lat="46.75544" lon="5.52688">
        <ele>249.4</ele>
        <time>2022-05-27T12:24:04Z</time>
      </trkpt>
      <trkpt lat="46.7558" lon="5.52709">
        <ele>247.8</ele>
        <time>2022-05-27T12:24:09Z</time>
      </trkpt>
      <trkpt lat="46.75596" lon="5.52718">
        <ele>247</ele>
        <time>2022-05-27T12:24:11Z</time>
      </trkpt>
      <trkpt lat="46.75603" lon="5.52724">
        <ele>246.8</ele>
        <time>2022-05-27T12:24:12Z</time>
      </trkpt>
      <trkpt lat="46.75618" lon="5.52736">
        <ele>246.2</ele>
        <time>2022-05-27T12:24:14Z</time>
      </trkpt>
      <trkpt lat="46.75624" lon="5.52743">
        <ele>245.8</ele>
        <time>2022-05-27T12:24:15Z</time>
      </trkpt>
      <trkpt lat="46.75631" lon="5.52752">
        <ele>245.6</ele>
        <time>2022-05-27T12:24:16Z</time>
      </trkpt>
      <trkpt lat="46.75643" lon="5.52771">
        <ele>244.8</ele>
        <time>2022-05-27T12:24:18Z</time>
      </trkpt>
      <trkpt lat="46.75662" lon="5.52797">
        <ele>244</ele>
        <time>2022-05-27T12:24:21Z</time>
      </trkpt>
      <trkpt lat="46.75671" lon="5.52806">
        <ele>243.6</ele>
        <time>2022-05-27T12:24:22Z</time>
      </trkpt>
      <trkpt lat="46.75704" lon="5.52837">
        <ele>243.2</ele>
        <time>2022-05-27T12:24:27Z</time>
      </trkpt>
      <trkpt lat="46.75739" lon="5.52869">
        <ele>243.6</ele>
        <time>2022-05-27T12:24:33Z</time>
      </trkpt>
      <trkpt lat="46.75759" lon="5.5289">
        <ele>244.4</ele>
        <time>2022-05-27T12:24:37Z</time>
      </trkpt>
      <trkpt lat="46.75762" lon="5.52894">
        <ele>244.8</ele>
        <time>2022-05-27T12:24:38Z</time>
      </trkpt>
      <trkpt lat="46.75767" lon="5.52899">
        <ele>245.2</ele>
        <time>2022-05-27T12:24:39Z</time>
      </trkpt>
      <trkpt lat="46.75775" lon="5.5291">
        <ele>245.6</ele>
        <time>2022-05-27T12:24:41Z</time>
      </trkpt>
      <trkpt lat="46.75778" lon="5.52917">
        <ele>245.8</ele>
        <time>2022-05-27T12:24:42Z</time>
      </trkpt>
      <trkpt lat="46.75781" lon="5.52925">
        <ele>246</ele>
        <time>2022-05-27T12:24:43Z</time>
      </trkpt>
      <trkpt lat="46.75789" lon="5.52965">
        <ele>247</ele>
        <time>2022-05-27T12:24:48Z</time>
      </trkpt>
      <trkpt lat="46.75799" lon="5.53015">
        <ele>247</ele>
        <time>2022-05-27T12:24:53Z</time>
      </trkpt>
      <trkpt lat="46.75801" lon="5.53025">
        <ele>247</ele>
        <time>2022-05-27T12:24:54Z</time>
      </trkpt>
      <trkpt lat="46.75811" lon="5.53045">
        <ele>247</ele>
        <time>2022-05-27T12:24:56Z</time>
      </trkpt>
      <trkpt lat="46.75825" lon="5.53055">
        <ele>246.2</ele>
        <time>2022-05-27T12:24:58Z</time>
      </trkpt>
      <trkpt lat="46.75835" lon="5.53057">
        <ele>245.8</ele>
        <time>2022-05-27T12:24:59Z</time>
      </trkpt>
      <trkpt lat="46.75866" lon="5.53057">
        <ele>244.4</ele>
        <time>2022-05-27T12:25:02Z</time>
      </trkpt>
      <trkpt lat="46.75888" lon="5.53058">
        <ele>242.8</ele>
        <time>2022-05-27T12:25:04Z</time>
      </trkpt>
      <trkpt lat="46.75911" lon="5.53059">
        <ele>241</ele>
        <time>2022-05-27T12:25:06Z</time>
      </trkpt>
      <trkpt lat="46.75934" lon="5.53061">
        <ele>239.4</ele>
        <time>2022-05-27T12:25:08Z</time>
      </trkpt>
      <trkpt lat="46.75958" lon="5.53063">
        <ele>238.2</ele>
        <time>2022-05-27T12:25:10Z</time>
      </trkpt>
      <trkpt lat="46.7597" lon="5.53064">
        <ele>236</ele>
        <time>2022-05-27T12:25:11Z</time>
      </trkpt>
      <trkpt lat="46.7599" lon="5.53066">
        <ele>233.2</ele>
        <time>2022-05-27T12:25:13Z</time>
      </trkpt>
      <trkpt lat="46.75999" lon="5.53068">
        <ele>232.8</ele>
        <time>2022-05-27T12:25:14Z</time>
      </trkpt>
      <trkpt lat="46.76008" lon="5.5307">
        <ele>232</ele>
        <time>2022-05-27T12:25:15Z</time>
      </trkpt>
      <trkpt lat="46.7602" lon="5.53075">
        <ele>231.2</ele>
        <time>2022-05-27T12:25:17Z</time>
      </trkpt>
      <trkpt lat="46.76024" lon="5.53077">
        <ele>231</ele>
        <time>2022-05-27T12:25:18Z</time>
      </trkpt>
      <trkpt lat="46.76028" lon="5.53082">
        <ele>230.4</ele>
        <time>2022-05-27T12:25:20Z</time>
      </trkpt>
      <trkpt lat="46.76031" lon="5.53086">
        <ele>230.2</ele>
        <time>2022-05-27T12:25:23Z</time>
      </trkpt>
      <trkpt lat="46.7603" lon="5.53092">
        <ele>230</ele>
        <time>2022-05-27T12:25:25Z</time>
      </trkpt>
      <trkpt lat="46.76022" lon="5.53115">
        <ele>230</ele>
        <time>2022-05-27T12:25:30Z</time>
      </trkpt>
      <trkpt lat="46.7602" lon="5.53122">
        <ele>230</ele>
        <time>2022-05-27T12:25:31Z</time>
      </trkpt>
      <trkpt lat="46.76014" lon="5.53143">
        <ele>229.8</ele>
        <time>2022-05-27T12:25:34Z</time>
      </trkpt>
      <trkpt lat="46.76012" lon="5.5315">
        <ele>229.8</ele>
        <time>2022-05-27T12:25:35Z</time>
      </trkpt>
      <trkpt lat="46.76" lon="5.53201">
        <ele>230</ele>
        <time>2022-05-27T12:25:41Z</time>
      </trkpt>
      <trkpt lat="46.75998" lon="5.5322">
        <ele>230.2</ele>
        <time>2022-05-27T12:25:43Z</time>
      </trkpt>
      <trkpt lat="46.75995" lon="5.53258">
        <ele>230.8</ele>
        <time>2022-05-27T12:25:47Z</time>
      </trkpt>
      <trkpt lat="46.75994" lon="5.53266">
        <ele>231</ele>
        <time>2022-05-27T12:25:48Z</time>
      </trkpt>
      <trkpt lat="46.75989" lon="5.53323">
        <ele>231</ele>
        <time>2022-05-27T12:25:54Z</time>
      </trkpt>
      <trkpt lat="46.75989" lon="5.53333">
        <ele>230.8</ele>
        <time>2022-05-27T12:25:55Z</time>
      </trkpt>
      <trkpt lat="46.75983" lon="5.53407">
        <ele>230.4</ele>
        <time>2022-05-27T12:26:03Z</time>
      </trkpt>
      <trkpt lat="46.75982" lon="5.53477">
        <ele>230.8</ele>
        <time>2022-05-27T12:26:11Z</time>
      </trkpt>
      <trkpt lat="46.75979" lon="5.53537">
        <ele>232</ele>
        <time>2022-05-27T12:26:19Z</time>
      </trkpt>
      <trkpt lat="46.75975" lon="5.53565">
        <ele>232.4</ele>
        <time>2022-05-27T12:26:23Z</time>
      </trkpt>
      <trkpt lat="46.75973" lon="5.53582">
        <ele>233.4</ele>
        <time>2022-05-27T12:26:25Z</time>
      </trkpt>
      <trkpt lat="46.75973" lon="5.53588">
        <ele>233.6</ele>
        <time>2022-05-27T12:26:26Z</time>
      </trkpt>
      <trkpt lat="46.75972" lon="5.53615">
        <ele>234.6</ele>
        <time>2022-05-27T12:26:29Z</time>
      </trkpt>
      <trkpt lat="46.75973" lon="5.5364">
        <ele>234.8</ele>
        <time>2022-05-27T12:26:32Z</time>
      </trkpt>
      <trkpt lat="46.75974" lon="5.53647">
        <ele>235</ele>
        <time>2022-05-27T12:26:33Z</time>
      </trkpt>
      <trkpt lat="46.75976" lon="5.53655">
        <ele>235</ele>
        <time>2022-05-27T12:26:34Z</time>
      </trkpt>
      <trkpt lat="46.75983" lon="5.53675">
        <ele>235.4</ele>
        <time>2022-05-27T12:26:37Z</time>
      </trkpt>
      <trkpt lat="46.7599" lon="5.53692">
        <ele>235.4</ele>
        <time>2022-05-27T12:26:39Z</time>
      </trkpt>
      <trkpt lat="46.75993" lon="5.53712">
        <ele>235.4</ele>
        <time>2022-05-27T12:26:41Z</time>
      </trkpt>
      <trkpt lat="46.75993" lon="5.5376">
        <ele>235</ele>
        <time>2022-05-27T12:26:45Z</time>
      </trkpt>
      <trkpt lat="46.75992" lon="5.53772">
        <ele>235</ele>
        <time>2022-05-27T12:26:46Z</time>
      </trkpt>
      <trkpt lat="46.75986" lon="5.5381">
        <ele>234.6</ele>
        <time>2022-05-27T12:26:49Z</time>
      </trkpt>
      <trkpt lat="46.75985" lon="5.53819">
        <ele>234.2</ele>
        <time>2022-05-27T12:26:50Z</time>
      </trkpt>
      <trkpt lat="46.75976" lon="5.5389">
        <ele>233.4</ele>
        <time>2022-05-27T12:26:56Z</time>
      </trkpt>
      <trkpt lat="46.75974" lon="5.53902">
        <ele>233.4</ele>
        <time>2022-05-27T12:26:57Z</time>
      </trkpt>
      <trkpt lat="46.7597" lon="5.53923">
        <ele>233.2</ele>
        <time>2022-05-27T12:26:59Z</time>
      </trkpt>
      <trkpt lat="46.75964" lon="5.53943">
        <ele>233.2</ele>
        <time>2022-05-27T12:27:01Z</time>
      </trkpt>
      <trkpt lat="46.75959" lon="5.53982">
        <ele>233.2</ele>
        <time>2022-05-27T12:27:05Z</time>
      </trkpt>
      <trkpt lat="46.75956" lon="5.54">
        <ele>233.6</ele>
        <time>2022-05-27T12:27:07Z</time>
      </trkpt>
      <trkpt lat="46.75954" lon="5.54009">
        <ele>234.2</ele>
        <time>2022-05-27T12:27:08Z</time>
      </trkpt>
      <trkpt lat="46.75953" lon="5.54018">
        <ele>234.6</ele>
        <time>2022-05-27T12:27:09Z</time>
      </trkpt>
      <trkpt lat="46.75952" lon="5.54027">
        <ele>234.8</ele>
        <time>2022-05-27T12:27:10Z</time>
      </trkpt>
      <trkpt lat="46.75953" lon="5.54045">
        <ele>235.6</ele>
        <time>2022-05-27T12:27:12Z</time>
      </trkpt>
      <trkpt lat="46.75954" lon="5.54052">
        <ele>235.8</ele>
        <time>2022-05-27T12:27:13Z</time>
      </trkpt>
      <trkpt lat="46.75956" lon="5.54062">
        <ele>235.8</ele>
        <time>2022-05-27T12:27:14Z</time>
      </trkpt>
      <trkpt lat="46.75962" lon="5.541">
        <ele>236.2</ele>
        <time>2022-05-27T12:27:18Z</time>
      </trkpt>
      <trkpt lat="46.75969" lon="5.5415">
        <ele>236.2</ele>
        <time>2022-05-27T12:27:23Z</time>
      </trkpt>
      <trkpt lat="46.75974" lon="5.54183">
        <ele>236.2</ele>
        <time>2022-05-27T12:27:26Z</time>
      </trkpt>
      <trkpt lat="46.75978" lon="5.54208">
        <ele>236</ele>
        <time>2022-05-27T12:27:28Z</time>
      </trkpt>
      <trkpt lat="46.7599" lon="5.54291">
        <ele>236</ele>
        <time>2022-05-27T12:27:35Z</time>
      </trkpt>
      <trkpt lat="46.75992" lon="5.54303">
        <ele>235.8</ele>
        <time>2022-05-27T12:27:36Z</time>
      </trkpt>
      <trkpt lat="46.76001" lon="5.54387">
        <ele>234.6</ele>
        <time>2022-05-27T12:27:43Z</time>
      </trkpt>
      <trkpt lat="46.76004" lon="5.5441">
        <ele>234.2</ele>
        <time>2022-05-27T12:27:45Z</time>
      </trkpt>
      <trkpt lat="46.76013" lon="5.54484">
        <ele>234</ele>
        <time>2022-05-27T12:27:52Z</time>
      </trkpt>
      <trkpt lat="46.76022" lon="5.54564">
        <ele>235.2</ele>
        <time>2022-05-27T12:28:00Z</time>
      </trkpt>
      <trkpt lat="46.76025" lon="5.54601">
        <ele>235.6</ele>
        <time>2022-05-27T12:28:04Z</time>
      </trkpt>
      <trkpt lat="46.76026" lon="5.54628">
        <ele>235.8</ele>
        <time>2022-05-27T12:28:07Z</time>
      </trkpt>
      <trkpt lat="46.76025" lon="5.54653">
        <ele>236.8</ele>
        <time>2022-05-27T12:28:10Z</time>
      </trkpt>
      <trkpt lat="46.76021" lon="5.54689">
        <ele>237.6</ele>
        <time>2022-05-27T12:28:14Z</time>
      </trkpt>
      <trkpt lat="46.76018" lon="5.5471">
        <ele>238</ele>
        <time>2022-05-27T12:28:16Z</time>
      </trkpt>
      <trkpt lat="46.7601" lon="5.54772">
        <ele>238.4</ele>
        <time>2022-05-27T12:28:22Z</time>
      </trkpt>
      <trkpt lat="46.76" lon="5.54857">
        <ele>238.4</ele>
        <time>2022-05-27T12:28:30Z</time>
      </trkpt>
      <trkpt lat="46.75996" lon="5.54934">
        <ele>238.2</ele>
        <time>2022-05-27T12:28:37Z</time>
      </trkpt>
      <trkpt lat="46.75998" lon="5.55018">
        <ele>238.6</ele>
        <time>2022-05-27T12:28:45Z</time>
      </trkpt>
      <trkpt lat="46.75998" lon="5.55026">
        <ele>238.6</ele>
        <time>2022-05-27T12:28:46Z</time>
      </trkpt>
      <trkpt lat="46.75999" lon="5.55107">
        <ele>239</ele>
        <time>2022-05-27T12:28:54Z</time>
      </trkpt>
      <trkpt lat="46.75999" lon="5.55117">
        <ele>239.2</ele>
        <time>2022-05-27T12:28:55Z</time>
      </trkpt>
      <trkpt lat="46.76" lon="5.55203">
        <ele>240</ele>
        <time>2022-05-27T12:29:04Z</time>
      </trkpt>
      <trkpt lat="46.76" lon="5.55223">
        <ele>240.2</ele>
        <time>2022-05-27T12:29:06Z</time>
      </trkpt>
      <trkpt lat="46.76001" lon="5.55308">
        <ele>241.2</ele>
        <time>2022-05-27T12:29:15Z</time>
      </trkpt>
      <trkpt lat="46.76002" lon="5.55344">
        <ele>241.6</ele>
        <time>2022-05-27T12:29:19Z</time>
      </trkpt>
      <trkpt lat="46.75999" lon="5.55416">
        <ele>242.6</ele>
        <time>2022-05-27T12:29:27Z</time>
      </trkpt>
      <trkpt lat="46.75993" lon="5.55491">
        <ele>243</ele>
        <time>2022-05-27T12:29:35Z</time>
      </trkpt>
      <trkpt lat="46.75986" lon="5.55575">
        <ele>243.6</ele>
        <time>2022-05-27T12:29:44Z</time>
      </trkpt>
      <trkpt lat="46.7598" lon="5.55639">
        <ele>243.8</ele>
        <time>2022-05-27T12:29:51Z</time>
      </trkpt>
      <trkpt lat="46.75979" lon="5.55647">
        <ele>243.8</ele>
        <time>2022-05-27T12:29:52Z</time>
      </trkpt>
      <trkpt lat="46.75975" lon="5.55691">
        <ele>244</ele>
        <time>2022-05-27T12:29:57Z</time>
      </trkpt>
      <trkpt lat="46.75966" lon="5.55756">
        <ele>244.6</ele>
        <time>2022-05-27T12:30:04Z</time>
      </trkpt>
      <trkpt lat="46.75964" lon="5.55765">
        <ele>244.8</ele>
        <time>2022-05-27T12:30:05Z</time>
      </trkpt>
      <trkpt lat="46.75948" lon="5.55827">
        <ele>245.6</ele>
        <time>2022-05-27T12:30:12Z</time>
      </trkpt>
      <trkpt lat="46.75945" lon="5.55834">
        <ele>245.8</ele>
        <time>2022-05-27T12:30:13Z</time>
      </trkpt>
      <trkpt lat="46.75933" lon="5.55877">
        <ele>246.6</ele>
        <time>2022-05-27T12:30:19Z</time>
      </trkpt>
      <trkpt lat="46.75933" lon="5.55891">
        <ele>247</ele>
        <time>2022-05-27T12:30:21Z</time>
      </trkpt>
      <trkpt lat="46.75937" lon="5.55896">
        <ele>247</ele>
        <time>2022-05-27T12:30:22Z</time>
      </trkpt>
      <trkpt lat="46.75947" lon="5.55903">
        <ele>247.2</ele>
        <time>2022-05-27T12:30:24Z</time>
      </trkpt>
      <trkpt lat="46.75958" lon="5.5591">
        <ele>247.4</ele>
        <time>2022-05-27T12:30:26Z</time>
      </trkpt>
      <trkpt lat="46.75975" lon="5.55923">
        <ele>247.4</ele>
        <time>2022-05-27T12:30:29Z</time>
      </trkpt>
      <trkpt lat="46.75978" lon="5.55928">
        <ele>247.2</ele>
        <time>2022-05-27T12:30:30Z</time>
      </trkpt>
      <trkpt lat="46.7598" lon="5.55933">
        <ele>247</ele>
        <time>2022-05-27T12:30:31Z</time>
      </trkpt>
      <trkpt lat="46.7598" lon="5.55939">
        <ele>246.6</ele>
        <time>2022-05-27T12:30:32Z</time>
      </trkpt>
      <trkpt lat="46.75967" lon="5.5596">
        <ele>246.4</ele>
        <time>2022-05-27T12:30:36Z</time>
      </trkpt>
      <trkpt lat="46.75964" lon="5.55964">
        <ele>246.2</ele>
        <time>2022-05-27T12:30:37Z</time>
      </trkpt>
      <trkpt lat="46.75956" lon="5.55974">
        <ele>246</ele>
        <time>2022-05-27T12:30:39Z</time>
      </trkpt>
      <trkpt lat="46.7594" lon="5.55995">
        <ele>246.2</ele>
        <time>2022-05-27T12:30:44Z</time>
      </trkpt>
      <trkpt lat="46.75932" lon="5.56008">
        <ele>247</ele>
        <time>2022-05-27T12:30:47Z</time>
      </trkpt>
      <trkpt lat="46.75927" lon="5.56016">
        <ele>247.4</ele>
        <time>2022-05-27T12:30:49Z</time>
      </trkpt>
      <trkpt lat="46.75922" lon="5.56028">
        <ele>248.4</ele>
        <time>2022-05-27T12:30:51Z</time>
      </trkpt>
      <trkpt lat="46.75912" lon="5.56041">
        <ele>249</ele>
        <time>2022-05-27T12:30:54Z</time>
      </trkpt>
      <trkpt lat="46.75909" lon="5.56044">
        <ele>249.6</ele>
        <time>2022-05-27T12:30:55Z</time>
      </trkpt>
      <trkpt lat="46.75897" lon="5.56057">
        <ele>250.6</ele>
        <time>2022-05-27T12:30:59Z</time>
      </trkpt>
      <trkpt lat="46.75893" lon="5.56062">
        <ele>251</ele>
        <time>2022-05-27T12:31:00Z</time>
      </trkpt>
      <trkpt lat="46.75881" lon="5.5608">
        <ele>251.6</ele>
        <time>2022-05-27T12:31:04Z</time>
      </trkpt>
      <trkpt lat="46.75873" lon="5.56097">
        <ele>252.4</ele>
        <time>2022-05-27T12:31:07Z</time>
      </trkpt>
      <trkpt lat="46.7587" lon="5.5611">
        <ele>253</ele>
        <time>2022-05-27T12:31:09Z</time>
      </trkpt>
      <trkpt lat="46.75869" lon="5.56117">
        <ele>253.4</ele>
        <time>2022-05-27T12:31:10Z</time>
      </trkpt>
      <trkpt lat="46.75869" lon="5.56131">
        <ele>253.8</ele>
        <time>2022-05-27T12:31:12Z</time>
      </trkpt>
      <trkpt lat="46.7587" lon="5.56137">
        <ele>253.8</ele>
        <time>2022-05-27T12:31:13Z</time>
      </trkpt>
      <trkpt lat="46.75871" lon="5.56152">
        <ele>254.4</ele>
        <time>2022-05-27T12:31:16Z</time>
      </trkpt>
      <trkpt lat="46.75875" lon="5.56174">
        <ele>255.4</ele>
        <time>2022-05-27T12:31:20Z</time>
      </trkpt>
      <trkpt lat="46.75879" lon="5.56186">
        <ele>256</ele>
        <time>2022-05-27T12:31:22Z</time>
      </trkpt>
      <trkpt lat="46.75885" lon="5.56195">
        <ele>256.4</ele>
        <time>2022-05-27T12:31:24Z</time>
      </trkpt>
      <trkpt lat="46.75897" lon="5.56206">
        <ele>257.2</ele>
        <time>2022-05-27T12:31:27Z</time>
      </trkpt>
      <trkpt lat="46.7591" lon="5.56217">
        <ele>257.6</ele>
        <time>2022-05-27T12:31:30Z</time>
      </trkpt>
      <trkpt lat="46.75922" lon="5.56228">
        <ele>257.6</ele>
        <time>2022-05-27T12:31:33Z</time>
      </trkpt>
      <trkpt lat="46.75926" lon="5.56233">
        <ele>257.6</ele>
        <time>2022-05-27T12:31:34Z</time>
      </trkpt>
      <trkpt lat="46.75936" lon="5.56249">
        <ele>257.6</ele>
        <time>2022-05-27T12:31:37Z</time>
      </trkpt>
      <trkpt lat="46.75939" lon="5.56256">
        <ele>257.6</ele>
        <time>2022-05-27T12:31:38Z</time>
      </trkpt>
      <trkpt lat="46.75953" lon="5.56301">
        <ele>257.4</ele>
        <time>2022-05-27T12:31:43Z</time>
      </trkpt>
      <trkpt lat="46.75956" lon="5.56311">
        <ele>257.2</ele>
        <time>2022-05-27T12:31:44Z</time>
      </trkpt>
      <trkpt lat="46.75959" lon="5.56331">
        <ele>257</ele>
        <time>2022-05-27T12:31:46Z</time>
      </trkpt>
      <trkpt lat="46.75959" lon="5.56342">
        <ele>257</ele>
        <time>2022-05-27T12:31:47Z</time>
      </trkpt>
      <trkpt lat="46.75958" lon="5.56366">
        <ele>256.2</ele>
        <time>2022-05-27T12:31:49Z</time>
      </trkpt>
      <trkpt lat="46.75956" lon="5.56378">
        <ele>255.8</ele>
        <time>2022-05-27T12:31:50Z</time>
      </trkpt>
      <trkpt lat="46.75947" lon="5.56416">
        <ele>254.8</ele>
        <time>2022-05-27T12:31:53Z</time>
      </trkpt>
      <trkpt lat="46.75943" lon="5.56429">
        <ele>254.6</ele>
        <time>2022-05-27T12:31:54Z</time>
      </trkpt>
      <trkpt lat="46.75928" lon="5.56483">
        <ele>253.2</ele>
        <time>2022-05-27T12:31:58Z</time>
      </trkpt>
      <trkpt lat="46.75921" lon="5.56507">
        <ele>251.6</ele>
        <time>2022-05-27T12:32:00Z</time>
      </trkpt>
      <trkpt lat="46.75917" lon="5.56523">
        <ele>251.2</ele>
        <time>2022-05-27T12:32:01Z</time>
      </trkpt>
      <trkpt lat="46.7591" lon="5.56546">
        <ele>250.2</ele>
        <time>2022-05-27T12:32:03Z</time>
      </trkpt>
      <trkpt lat="46.75889" lon="5.56616">
        <ele>249.6</ele>
        <time>2022-05-27T12:32:09Z</time>
      </trkpt>
      <trkpt lat="46.75885" lon="5.56628">
        <ele>249.6</ele>
        <time>2022-05-27T12:32:10Z</time>
      </trkpt>
      <trkpt lat="46.75874" lon="5.56665">
        <ele>250.6</ele>
        <time>2022-05-27T12:32:14Z</time>
      </trkpt>
      <trkpt lat="46.75874" lon="5.56703">
        <ele>251.4</ele>
        <time>2022-05-27T12:32:18Z</time>
      </trkpt>
      <trkpt lat="46.75881" lon="5.56768">
        <ele>251.8</ele>
        <time>2022-05-27T12:32:24Z</time>
      </trkpt>
      <trkpt lat="46.75896" lon="5.56847">
        <ele>251</ele>
        <time>2022-05-27T12:32:31Z</time>
      </trkpt>
      <trkpt lat="46.75902" lon="5.5688">
        <ele>250.8</ele>
        <time>2022-05-27T12:32:34Z</time>
      </trkpt>
      <trkpt lat="46.75903" lon="5.5689">
        <ele>250.6</ele>
        <time>2022-05-27T12:32:35Z</time>
      </trkpt>
      <trkpt lat="46.75901" lon="5.56916">
        <ele>250.4</ele>
        <time>2022-05-27T12:32:37Z</time>
      </trkpt>
      <trkpt lat="46.75891" lon="5.56933">
        <ele>250.2</ele>
        <time>2022-05-27T12:32:39Z</time>
      </trkpt>
      <trkpt lat="46.7587" lon="5.56957">
        <ele>248.6</ele>
        <time>2022-05-27T12:32:42Z</time>
      </trkpt>
      <trkpt lat="46.75852" lon="5.56974">
        <ele>247.6</ele>
        <time>2022-05-27T12:32:45Z</time>
      </trkpt>
      <trkpt lat="46.75837" lon="5.56989">
        <ele>247.4</ele>
        <time>2022-05-27T12:32:47Z</time>
      </trkpt>
      <trkpt lat="46.75831" lon="5.56997">
        <ele>247.4</ele>
        <time>2022-05-27T12:32:48Z</time>
      </trkpt>
      <trkpt lat="46.75821" lon="5.57015">
        <ele>247.2</ele>
        <time>2022-05-27T12:32:50Z</time>
      </trkpt>
      <trkpt lat="46.75814" lon="5.57037">
        <ele>247.2</ele>
        <time>2022-05-27T12:32:52Z</time>
      </trkpt>
      <trkpt lat="46.75812" lon="5.57049">
        <ele>247.2</ele>
        <time>2022-05-27T12:32:53Z</time>
      </trkpt>
      <trkpt lat="46.75802" lon="5.57114">
        <ele>246.6</ele>
        <time>2022-05-27T12:32:58Z</time>
      </trkpt>
      <trkpt lat="46.75798" lon="5.57145">
        <ele>246.2</ele>
        <time>2022-05-27T12:33:00Z</time>
      </trkpt>
      <trkpt lat="46.75793" lon="5.57189">
        <ele>244.2</ele>
        <time>2022-05-27T12:33:03Z</time>
      </trkpt>
      <trkpt lat="46.75781" lon="5.57209">
        <ele>243.6</ele>
        <time>2022-05-27T12:33:05Z</time>
      </trkpt>
      <trkpt lat="46.75765" lon="5.5722">
        <ele>243.2</ele>
        <time>2022-05-27T12:33:07Z</time>
      </trkpt>
      <trkpt lat="46.75758" lon="5.57224">
        <ele>243.2</ele>
        <time>2022-05-27T12:33:08Z</time>
      </trkpt>
      <trkpt lat="46.75716" lon="5.57247">
        <ele>244</ele>
        <time>2022-05-27T12:33:14Z</time>
      </trkpt>
      <trkpt lat="46.75705" lon="5.57256">
        <ele>244.6</ele>
        <time>2022-05-27T12:33:16Z</time>
      </trkpt>
      <trkpt lat="46.75687" lon="5.57269">
        <ele>246.2</ele>
        <time>2022-05-27T12:33:19Z</time>
      </trkpt>
      <trkpt lat="46.75682" lon="5.57273">
        <ele>246.6</ele>
        <time>2022-05-27T12:33:20Z</time>
      </trkpt>
      <trkpt lat="46.75676" lon="5.57276">
        <ele>247.4</ele>
        <time>2022-05-27T12:33:21Z</time>
      </trkpt>
      <trkpt lat="46.75669" lon="5.5728">
        <ele>247.6</ele>
        <time>2022-05-27T12:33:22Z</time>
      </trkpt>
      <trkpt lat="46.75659" lon="5.57288">
        <ele>248.2</ele>
        <time>2022-05-27T12:33:24Z</time>
      </trkpt>
      <trkpt lat="46.75655" lon="5.57292">
        <ele>248.6</ele>
        <time>2022-05-27T12:33:25Z</time>
      </trkpt>
      <trkpt lat="46.7563" lon="5.57332">
        <ele>249.4</ele>
        <time>2022-05-27T12:33:31Z</time>
      </trkpt>
      <trkpt lat="46.75626" lon="5.57339">
        <ele>249.8</ele>
        <time>2022-05-27T12:33:32Z</time>
      </trkpt>
      <trkpt lat="46.75601" lon="5.57387">
        <ele>250</ele>
        <time>2022-05-27T12:33:39Z</time>
      </trkpt>
      <trkpt lat="46.75593" lon="5.57398">
        <ele>250</ele>
        <time>2022-05-27T12:33:41Z</time>
      </trkpt>
      <trkpt lat="46.75586" lon="5.57407">
        <ele>250</ele>
        <time>2022-05-27T12:33:43Z</time>
      </trkpt>
      <trkpt lat="46.75583" lon="5.57415">
        <ele>250</ele>
        <time>2022-05-27T12:33:44Z</time>
      </trkpt>
      <trkpt lat="46.75582" lon="5.57423">
        <ele>250</ele>
        <time>2022-05-27T12:33:45Z</time>
      </trkpt>
      <trkpt lat="46.75582" lon="5.57451">
        <ele>249.6</ele>
        <time>2022-05-27T12:33:48Z</time>
      </trkpt>
      <trkpt lat="46.75583" lon="5.57459">
        <ele>249.6</ele>
        <time>2022-05-27T12:33:49Z</time>
      </trkpt>
      <trkpt lat="46.75587" lon="5.57479">
        <ele>249.8</ele>
        <time>2022-05-27T12:33:51Z</time>
      </trkpt>
      <trkpt lat="46.75591" lon="5.57488">
        <ele>250</ele>
        <time>2022-05-27T12:33:52Z</time>
      </trkpt>
      <trkpt lat="46.75597" lon="5.57497">
        <ele>250</ele>
        <time>2022-05-27T12:33:53Z</time>
      </trkpt>
      <trkpt lat="46.75606" lon="5.57507">
        <ele>250.2</ele>
        <time>2022-05-27T12:33:55Z</time>
      </trkpt>
      <trkpt lat="46.75622" lon="5.57522">
        <ele>250.8</ele>
        <time>2022-05-27T12:33:58Z</time>
      </trkpt>
      <trkpt lat="46.75641" lon="5.57537">
        <ele>251</ele>
        <time>2022-05-27T12:34:01Z</time>
      </trkpt>
      <trkpt lat="46.75674" lon="5.57564">
        <ele>252</ele>
        <time>2022-05-27T12:34:07Z</time>
      </trkpt>
      <trkpt lat="46.75725" lon="5.57609">
        <ele>252.6</ele>
        <time>2022-05-27T12:34:16Z</time>
      </trkpt>
      <trkpt lat="46.7573" lon="5.57615">
        <ele>252.6</ele>
        <time>2022-05-27T12:34:17Z</time>
      </trkpt>
      <trkpt lat="46.75735" lon="5.57621">
        <ele>252.6</ele>
        <time>2022-05-27T12:34:18Z</time>
      </trkpt>
      <trkpt lat="46.75761" lon="5.57653">
        <ele>252.8</ele>
        <time>2022-05-27T12:34:23Z</time>
      </trkpt>
      <trkpt lat="46.75765" lon="5.57659">
        <ele>253</ele>
        <time>2022-05-27T12:34:24Z</time>
      </trkpt>
      <trkpt lat="46.75805" lon="5.57719">
        <ele>254</ele>
        <time>2022-05-27T12:34:33Z</time>
      </trkpt>
      <trkpt lat="46.75824" lon="5.57746">
        <ele>254.2</ele>
        <time>2022-05-27T12:34:37Z</time>
      </trkpt>
      <trkpt lat="46.75857" lon="5.57795">
        <ele>254.4</ele>
        <time>2022-05-27T12:34:44Z</time>
      </trkpt>
      <trkpt lat="46.75897" lon="5.57854">
        <ele>254.8</ele>
        <time>2022-05-27T12:34:53Z</time>
      </trkpt>
      <trkpt lat="46.75901" lon="5.57861">
        <ele>254.8</ele>
        <time>2022-05-27T12:34:54Z</time>
      </trkpt>
      <trkpt lat="46.7592" lon="5.57888">
        <ele>255</ele>
        <time>2022-05-27T12:34:58Z</time>
      </trkpt>
      <trkpt lat="46.75947" lon="5.57929">
        <ele>255.2</ele>
        <time>2022-05-27T12:35:04Z</time>
      </trkpt>
      <trkpt lat="46.75987" lon="5.5799">
        <ele>255.4</ele>
        <time>2022-05-27T12:35:13Z</time>
      </trkpt>
      <trkpt lat="46.75992" lon="5.57996">
        <ele>255.6</ele>
        <time>2022-05-27T12:35:14Z</time>
      </trkpt>
      <trkpt lat="46.76023" lon="5.58044">
        <ele>255.8</ele>
        <time>2022-05-27T12:35:21Z</time>
      </trkpt>
      <trkpt lat="46.76054" lon="5.58093">
        <ele>256</ele>
        <time>2022-05-27T12:35:28Z</time>
      </trkpt>
      <trkpt lat="46.76084" lon="5.5814">
        <ele>256</ele>
        <time>2022-05-27T12:35:35Z</time>
      </trkpt>
      <trkpt lat="46.76089" lon="5.58158">
        <ele>256.2</ele>
        <time>2022-05-27T12:35:37Z</time>
      </trkpt>
      <trkpt lat="46.7609" lon="5.58168">
        <ele>256.2</ele>
        <time>2022-05-27T12:35:38Z</time>
      </trkpt>
      <trkpt lat="46.76093" lon="5.58187">
        <ele>256.4</ele>
        <time>2022-05-27T12:35:40Z</time>
      </trkpt>
      <trkpt lat="46.76103" lon="5.58214">
        <ele>256.6</ele>
        <time>2022-05-27T12:35:43Z</time>
      </trkpt>
      <trkpt lat="46.76124" lon="5.58288">
        <ele>256.4</ele>
        <time>2022-05-27T12:35:51Z</time>
      </trkpt>
      <trkpt lat="46.76126" lon="5.58298">
        <ele>256.4</ele>
        <time>2022-05-27T12:35:52Z</time>
      </trkpt>
      <trkpt lat="46.76129" lon="5.58307">
        <ele>256.4</ele>
        <time>2022-05-27T12:35:53Z</time>
      </trkpt>
      <trkpt lat="46.76147" lon="5.58388">
        <ele>256.2</ele>
        <time>2022-05-27T12:36:01Z</time>
      </trkpt>
      <trkpt lat="46.7615" lon="5.58397">
        <ele>256.2</ele>
        <time>2022-05-27T12:36:02Z</time>
      </trkpt>
      <trkpt lat="46.76169" lon="5.58473">
        <ele>256.2</ele>
        <time>2022-05-27T12:36:10Z</time>
      </trkpt>
      <trkpt lat="46.76172" lon="5.58481">
        <ele>256.2</ele>
        <time>2022-05-27T12:36:11Z</time>
      </trkpt>
      <trkpt lat="46.76187" lon="5.58532">
        <ele>256.8</ele>
        <time>2022-05-27T12:36:17Z</time>
      </trkpt>
      <trkpt lat="46.76194" lon="5.58558">
        <ele>256.8</ele>
        <time>2022-05-27T12:36:20Z</time>
      </trkpt>
      <trkpt lat="46.76206" lon="5.5861">
        <ele>257.4</ele>
        <time>2022-05-27T12:36:26Z</time>
      </trkpt>
      <trkpt lat="46.76211" lon="5.58637">
        <ele>257.6</ele>
        <time>2022-05-27T12:36:29Z</time>
      </trkpt>
      <trkpt lat="46.76223" lon="5.58693">
        <ele>258.4</ele>
        <time>2022-05-27T12:36:35Z</time>
      </trkpt>
      <trkpt lat="46.76232" lon="5.58729">
        <ele>259.4</ele>
        <time>2022-05-27T12:36:39Z</time>
      </trkpt>
      <trkpt lat="46.76236" lon="5.58747">
        <ele>259.6</ele>
        <time>2022-05-27T12:36:41Z</time>
      </trkpt>
      <trkpt lat="46.7624" lon="5.58765">
        <ele>259.6</ele>
        <time>2022-05-27T12:36:43Z</time>
      </trkpt>
      <trkpt lat="46.76246" lon="5.58803">
        <ele>259.6</ele>
        <time>2022-05-27T12:36:47Z</time>
      </trkpt>
      <trkpt lat="46.76265" lon="5.58885">
        <ele>259.6</ele>
        <time>2022-05-27T12:36:56Z</time>
      </trkpt>
      <trkpt lat="46.76267" lon="5.58892">
        <ele>259.6</ele>
        <time>2022-05-27T12:36:57Z</time>
      </trkpt>
      <trkpt lat="46.76284" lon="5.58963">
        <ele>260</ele>
        <time>2022-05-27T12:37:05Z</time>
      </trkpt>
      <trkpt lat="46.76301" lon="5.59045">
        <ele>260</ele>
        <time>2022-05-27T12:37:14Z</time>
      </trkpt>
      <trkpt lat="46.76307" lon="5.59072">
        <ele>260.2</ele>
        <time>2022-05-27T12:37:17Z</time>
      </trkpt>
      <trkpt lat="46.76323" lon="5.59144">
        <ele>260.2</ele>
        <time>2022-05-27T12:37:25Z</time>
      </trkpt>
      <trkpt lat="46.76343" lon="5.59226">
        <ele>260</ele>
        <time>2022-05-27T12:37:34Z</time>
      </trkpt>
      <trkpt lat="46.76349" lon="5.59253">
        <ele>260.2</ele>
        <time>2022-05-27T12:37:37Z</time>
      </trkpt>
      <trkpt lat="46.76364" lon="5.59329">
        <ele>259.8</ele>
        <time>2022-05-27T12:37:45Z</time>
      </trkpt>
      <trkpt lat="46.76367" lon="5.59347">
        <ele>260</ele>
        <time>2022-05-27T12:37:47Z</time>
      </trkpt>
      <trkpt lat="46.76375" lon="5.59381">
        <ele>259.6</ele>
        <time>2022-05-27T12:37:51Z</time>
      </trkpt>
      <trkpt lat="46.76377" lon="5.59389">
        <ele>259.6</ele>
        <time>2022-05-27T12:37:52Z</time>
      </trkpt>
      <trkpt lat="46.7638" lon="5.59396">
        <ele>259.6</ele>
        <time>2022-05-27T12:37:53Z</time>
      </trkpt>
      <trkpt lat="46.7639" lon="5.59419">
        <ele>259.8</ele>
        <time>2022-05-27T12:37:57Z</time>
      </trkpt>
      <trkpt lat="46.76391" lon="5.59426">
        <ele>260</ele>
        <time>2022-05-27T12:37:58Z</time>
      </trkpt>
      <trkpt lat="46.76392" lon="5.59434">
        <ele>260</ele>
        <time>2022-05-27T12:37:59Z</time>
      </trkpt>
      <trkpt lat="46.7639" lon="5.59462">
        <ele>260.2</ele>
        <time>2022-05-27T12:38:02Z</time>
      </trkpt>
      <trkpt lat="46.76386" lon="5.59511">
        <ele>260.2</ele>
        <time>2022-05-27T12:38:07Z</time>
      </trkpt>
      <trkpt lat="46.76378" lon="5.59592">
        <ele>260.2</ele>
        <time>2022-05-27T12:38:15Z</time>
      </trkpt>
      <trkpt lat="46.76376" lon="5.59602">
        <ele>260.2</ele>
        <time>2022-05-27T12:38:16Z</time>
      </trkpt>
      <trkpt lat="46.76365" lon="5.59682">
        <ele>259.8</ele>
        <time>2022-05-27T12:38:24Z</time>
      </trkpt>
      <trkpt lat="46.76363" lon="5.59692">
        <ele>259.8</ele>
        <time>2022-05-27T12:38:25Z</time>
      </trkpt>
      <trkpt lat="46.76347" lon="5.59756">
        <ele>260</ele>
        <time>2022-05-27T12:38:32Z</time>
      </trkpt>
      <trkpt lat="46.76331" lon="5.59816">
        <ele>260.4</ele>
        <time>2022-05-27T12:38:39Z</time>
      </trkpt>
      <trkpt lat="46.76314" lon="5.59873">
        <ele>260.4</ele>
        <time>2022-05-27T12:38:45Z</time>
      </trkpt>
      <trkpt lat="46.76288" lon="5.59946">
        <ele>259.8</ele>
        <time>2022-05-27T12:38:53Z</time>
      </trkpt>
      <trkpt lat="46.7626" lon="5.60013">
        <ele>259.6</ele>
        <time>2022-05-27T12:39:01Z</time>
      </trkpt>
      <trkpt lat="46.76226" lon="5.60084">
        <ele>260.2</ele>
        <time>2022-05-27T12:39:10Z</time>
      </trkpt>
      <trkpt lat="46.76215" lon="5.60107">
        <ele>260.4</ele>
        <time>2022-05-27T12:39:13Z</time>
      </trkpt>
      <trkpt lat="46.76178" lon="5.60179">
        <ele>260.6</ele>
        <time>2022-05-27T12:39:22Z</time>
      </trkpt>
      <trkpt lat="46.76174" lon="5.60187">
        <ele>260.6</ele>
        <time>2022-05-27T12:39:23Z</time>
      </trkpt>
      <trkpt lat="46.76143" lon="5.60247">
        <ele>260.2</ele>
        <time>2022-05-27T12:39:30Z</time>
      </trkpt>
      <trkpt lat="46.76113" lon="5.60303">
        <ele>259.8</ele>
        <time>2022-05-27T12:39:36Z</time>
      </trkpt>
      <trkpt lat="46.76087" lon="5.60357">
        <ele>258.6</ele>
        <time>2022-05-27T12:39:41Z</time>
      </trkpt>
      <trkpt lat="46.76078" lon="5.60377">
        <ele>258.4</ele>
        <time>2022-05-27T12:39:43Z</time>
      </trkpt>
      <trkpt lat="46.76064" lon="5.60412">
        <ele>257.4</ele>
        <time>2022-05-27T12:39:46Z</time>
      </trkpt>
      <trkpt lat="46.76052" lon="5.60449">
        <ele>256.6</ele>
        <time>2022-05-27T12:39:49Z</time>
      </trkpt>
      <trkpt lat="46.76046" lon="5.60474">
        <ele>256.4</ele>
        <time>2022-05-27T12:39:51Z</time>
      </trkpt>
      <trkpt lat="46.76032" lon="5.60536">
        <ele>256</ele>
        <time>2022-05-27T12:39:56Z</time>
      </trkpt>
      <trkpt lat="46.76015" lon="5.60623">
        <ele>255.6</ele>
        <time>2022-05-27T12:40:03Z</time>
      </trkpt>
      <trkpt lat="46.76007" lon="5.60657">
        <ele>255.2</ele>
        <time>2022-05-27T12:40:06Z</time>
      </trkpt>
      <trkpt lat="46.75981" lon="5.6073">
        <ele>255.2</ele>
        <time>2022-05-27T12:40:13Z</time>
      </trkpt>
      <trkpt lat="46.75952" lon="5.60779">
        <ele>255.2</ele>
        <time>2022-05-27T12:40:19Z</time>
      </trkpt>
      <trkpt lat="46.75909" lon="5.60834">
        <ele>256</ele>
        <time>2022-05-27T12:40:27Z</time>
      </trkpt>
      <trkpt lat="46.75898" lon="5.60846">
        <ele>256.2</ele>
        <time>2022-05-27T12:40:29Z</time>
      </trkpt>
      <trkpt lat="46.75869" lon="5.60874">
        <ele>257.2</ele>
        <time>2022-05-27T12:40:34Z</time>
      </trkpt>
      <trkpt lat="46.75858" lon="5.60885">
        <ele>257.4</ele>
        <time>2022-05-27T12:40:36Z</time>
      </trkpt>
      <trkpt lat="46.75823" lon="5.60916">
        <ele>257.8</ele>
        <time>2022-05-27T12:40:42Z</time>
      </trkpt>
      <trkpt lat="46.75778" lon="5.60952">
        <ele>258.4</ele>
        <time>2022-05-27T12:40:50Z</time>
      </trkpt>
      <trkpt lat="46.75772" lon="5.60957">
        <ele>258.6</ele>
        <time>2022-05-27T12:40:51Z</time>
      </trkpt>
      <trkpt lat="46.75726" lon="5.6099">
        <ele>259.2</ele>
        <time>2022-05-27T12:40:59Z</time>
      </trkpt>
      <trkpt lat="46.75709" lon="5.61002">
        <ele>259.4</ele>
        <time>2022-05-27T12:41:02Z</time>
      </trkpt>
      <trkpt lat="46.75698" lon="5.61011">
        <ele>259.8</ele>
        <time>2022-05-27T12:41:04Z</time>
      </trkpt>
      <trkpt lat="46.75677" lon="5.61028">
        <ele>260.2</ele>
        <time>2022-05-27T12:41:08Z</time>
      </trkpt>
      <trkpt lat="46.75663" lon="5.61041">
        <ele>260.4</ele>
        <time>2022-05-27T12:41:11Z</time>
      </trkpt>
      <trkpt lat="46.75652" lon="5.61051">
        <ele>260.6</ele>
        <time>2022-05-27T12:41:13Z</time>
      </trkpt>
      <trkpt lat="46.75642" lon="5.61059">
        <ele>260.8</ele>
        <time>2022-05-27T12:41:15Z</time>
      </trkpt>
      <trkpt lat="46.75607" lon="5.61093">
        <ele>261.4</ele>
        <time>2022-05-27T12:41:22Z</time>
      </trkpt>
      <trkpt lat="46.75566" lon="5.61134">
        <ele>261.8</ele>
        <time>2022-05-27T12:41:30Z</time>
      </trkpt>
      <trkpt lat="46.75556" lon="5.61146">
        <ele>261.8</ele>
        <time>2022-05-27T12:41:32Z</time>
      </trkpt>
      <trkpt lat="46.75545" lon="5.61158">
        <ele>261.8</ele>
        <time>2022-05-27T12:41:35Z</time>
      </trkpt>
      <trkpt lat="46.7554" lon="5.61163">
        <ele>262.2</ele>
        <time>2022-05-27T12:41:38Z</time>
      </trkpt>
      <trkpt lat="46.75543" lon="5.61175">
        <ele>262.6</ele>
        <time>2022-05-27T12:41:41Z</time>
      </trkpt>
      <trkpt lat="46.75554" lon="5.61193">
        <ele>262.8</ele>
        <time>2022-05-27T12:41:45Z</time>
      </trkpt>
      <trkpt lat="46.75561" lon="5.61202">
        <ele>262.8</ele>
        <time>2022-05-27T12:41:47Z</time>
      </trkpt>
      <trkpt lat="46.7558" lon="5.61223">
        <ele>262.8</ele>
        <time>2022-05-27T12:41:51Z</time>
      </trkpt>
      <trkpt lat="46.75613" lon="5.61264">
        <ele>262.6</ele>
        <time>2022-05-27T12:41:58Z</time>
      </trkpt>
      <trkpt lat="46.75652" lon="5.61313">
        <ele>262</ele>
        <time>2022-05-27T12:42:06Z</time>
      </trkpt>
      <trkpt lat="46.75656" lon="5.61319">
        <ele>262</ele>
        <time>2022-05-27T12:42:07Z</time>
      </trkpt>
      <trkpt lat="46.75664" lon="5.61333">
        <ele>261.8</ele>
        <time>2022-05-27T12:42:09Z</time>
      </trkpt>
      <trkpt lat="46.75672" lon="5.61347">
        <ele>261.6</ele>
        <time>2022-05-27T12:42:11Z</time>
      </trkpt>
      <trkpt lat="46.75705" lon="5.61406">
        <ele>261.4</ele>
        <time>2022-05-27T12:42:19Z</time>
      </trkpt>
      <trkpt lat="46.75734" lon="5.6146">
        <ele>260.8</ele>
        <time>2022-05-27T12:42:26Z</time>
      </trkpt>
      <trkpt lat="46.75763" lon="5.6151">
        <ele>261.4</ele>
        <time>2022-05-27T12:42:33Z</time>
      </trkpt>
      <trkpt lat="46.75791" lon="5.61558">
        <ele>261.6</ele>
        <time>2022-05-27T12:42:40Z</time>
      </trkpt>
      <trkpt lat="46.75817" lon="5.61585">
        <ele>261.2</ele>
        <time>2022-05-27T12:42:46Z</time>
      </trkpt>
      <trkpt lat="46.75825" lon="5.61593">
        <ele>261</ele>
        <time>2022-05-27T12:42:50Z</time>
      </trkpt>
      <trkpt lat="46.75835" lon="5.6161">
        <ele>261</ele>
        <time>2022-05-27T12:42:56Z</time>
      </trkpt>
      <trkpt lat="46.75842" lon="5.61622">
        <ele>261</ele>
        <time>2022-05-27T12:43:01Z</time>
      </trkpt>
      <trkpt lat="46.75853" lon="5.61644">
        <ele>261</ele>
        <time>2022-05-27T12:43:07Z</time>
      </trkpt>
      <trkpt lat="46.75856" lon="5.61651">
        <ele>261.6</ele>
        <time>2022-05-27T12:43:12Z</time>
      </trkpt>
      <trkpt lat="46.75856" lon="5.61651">
        <ele>261.6</ele>
        <time>2022-05-27T12:43:13Z</time>
      </trkpt>
      <trkpt lat="46.75858" lon="5.61658">
        <ele>261.8</ele>
        <time>2022-05-27T12:43:20Z</time>
      </trkpt>
      <trkpt lat="46.75862" lon="5.61666">
        <ele>261.8</ele>
        <time>2022-05-27T12:43:22Z</time>
      </trkpt>
      <trkpt lat="46.75877" lon="5.61699">
        <ele>262</ele>
        <time>2022-05-27T12:43:29Z</time>
      </trkpt>
      <trkpt lat="46.75882" lon="5.61713">
        <ele>263</ele>
        <time>2022-05-27T12:43:32Z</time>
      </trkpt>
      <trkpt lat="46.75887" lon="5.61728">
        <ele>263.4</ele>
        <time>2022-05-27T12:43:35Z</time>
      </trkpt>
      <trkpt lat="46.7589" lon="5.61738">
        <ele>264.4</ele>
        <time>2022-05-27T12:43:37Z</time>
      </trkpt>
      <trkpt lat="46.75894" lon="5.61753">
        <ele>265.8</ele>
        <time>2022-05-27T12:43:40Z</time>
      </trkpt>
      <trkpt lat="46.75896" lon="5.61769">
        <ele>266.4</ele>
        <time>2022-05-27T12:43:43Z</time>
      </trkpt>
      <trkpt lat="46.75894" lon="5.61779">
        <ele>267.2</ele>
        <time>2022-05-27T12:43:45Z</time>
      </trkpt>
      <trkpt lat="46.75888" lon="5.61792">
        <ele>268</ele>
        <time>2022-05-27T12:43:48Z</time>
      </trkpt>
      <trkpt lat="46.75885" lon="5.61795">
        <ele>268.4</ele>
        <time>2022-05-27T12:43:49Z</time>
      </trkpt>
      <trkpt lat="46.75866" lon="5.61803">
        <ele>269.8</ele>
        <time>2022-05-27T12:43:54Z</time>
      </trkpt>
      <trkpt lat="46.75851" lon="5.61805">
        <ele>270.8</ele>
        <time>2022-05-27T12:43:58Z</time>
      </trkpt>
      <trkpt lat="46.75835" lon="5.61806">
        <ele>271.8</ele>
        <time>2022-05-27T12:44:02Z</time>
      </trkpt>
      <trkpt lat="46.75832" lon="5.61806">
        <ele>272</ele>
        <time>2022-05-27T12:44:03Z</time>
      </trkpt>
      <trkpt lat="46.75813" lon="5.61807">
        <ele>273</ele>
        <time>2022-05-27T12:44:08Z</time>
      </trkpt>
      <trkpt lat="46.75805" lon="5.61806">
        <ele>273.2</ele>
        <time>2022-05-27T12:44:10Z</time>
      </trkpt>
      <trkpt lat="46.75787" lon="5.61805">
        <ele>274.2</ele>
        <time>2022-05-27T12:44:15Z</time>
      </trkpt>
      <trkpt lat="46.7578" lon="5.61805">
        <ele>274.6</ele>
        <time>2022-05-27T12:44:17Z</time>
      </trkpt>
      <trkpt lat="46.75765" lon="5.61807">
        <ele>275.2</ele>
        <time>2022-05-27T12:44:21Z</time>
      </trkpt>
      <trkpt lat="46.75738" lon="5.61807">
        <ele>276.2</ele>
        <time>2022-05-27T12:44:28Z</time>
      </trkpt>
      <trkpt lat="46.75709" lon="5.61804">
        <ele>277.6</ele>
        <time>2022-05-27T12:44:35Z</time>
      </trkpt>
      <trkpt lat="46.75698" lon="5.61805">
        <ele>278.2</ele>
        <time>2022-05-27T12:44:38Z</time>
      </trkpt>
      <trkpt lat="46.75681" lon="5.61807">
        <ele>278.8</ele>
        <time>2022-05-27T12:44:42Z</time>
      </trkpt>
      <trkpt lat="46.7566" lon="5.6181">
        <ele>279.8</ele>
        <time>2022-05-27T12:44:47Z</time>
      </trkpt>
      <trkpt lat="46.75656" lon="5.61811">
        <ele>280</ele>
        <time>2022-05-27T12:44:48Z</time>
      </trkpt>
      <trkpt lat="46.75635" lon="5.61816">
        <ele>281</ele>
        <time>2022-05-27T12:44:53Z</time>
      </trkpt>
      <trkpt lat="46.75614" lon="5.61821">
        <ele>281.6</ele>
        <time>2022-05-27T12:44:58Z</time>
      </trkpt>
      <trkpt lat="46.75597" lon="5.61826">
        <ele>282</ele>
        <time>2022-05-27T12:45:02Z</time>
      </trkpt>
      <trkpt lat="46.7559" lon="5.6183">
        <ele>282.4</ele>
        <time>2022-05-27T12:45:04Z</time>
      </trkpt>
      <trkpt lat="46.75586" lon="5.61834">
        <ele>282.4</ele>
        <time>2022-05-27T12:45:05Z</time>
      </trkpt>
      <trkpt lat="46.75584" lon="5.61838">
        <ele>282.8</ele>
        <time>2022-05-27T12:45:06Z</time>
      </trkpt>
      <trkpt lat="46.75581" lon="5.6185">
        <ele>283</ele>
        <time>2022-05-27T12:45:08Z</time>
      </trkpt>
      <trkpt lat="46.75582" lon="5.61856">
        <ele>283.2</ele>
        <time>2022-05-27T12:45:09Z</time>
      </trkpt>
      <trkpt lat="46.75583" lon="5.61862">
        <ele>283.4</ele>
        <time>2022-05-27T12:45:10Z</time>
      </trkpt>
      <trkpt lat="46.75586" lon="5.61867">
        <ele>283.4</ele>
        <time>2022-05-27T12:45:11Z</time>
      </trkpt>
      <trkpt lat="46.7559" lon="5.6187">
        <ele>283.6</ele>
        <time>2022-05-27T12:45:12Z</time>
      </trkpt>
      <trkpt lat="46.75599" lon="5.61872">
        <ele>283.8</ele>
        <time>2022-05-27T12:45:14Z</time>
      </trkpt>
      <trkpt lat="46.75603" lon="5.61871">
        <ele>284.2</ele>
        <time>2022-05-27T12:45:15Z</time>
      </trkpt>
      <trkpt lat="46.75625" lon="5.6186">
        <ele>285.4</ele>
        <time>2022-05-27T12:45:20Z</time>
      </trkpt>
      <trkpt lat="46.75641" lon="5.61854">
        <ele>286</ele>
        <time>2022-05-27T12:45:24Z</time>
      </trkpt>
      <trkpt lat="46.75654" lon="5.61853">
        <ele>286.4</ele>
        <time>2022-05-27T12:45:27Z</time>
      </trkpt>
      <trkpt lat="46.75684" lon="5.61852">
        <ele>287.4</ele>
        <time>2022-05-27T12:45:34Z</time>
      </trkpt>
      <trkpt lat="46.75688" lon="5.61853">
        <ele>287.8</ele>
        <time>2022-05-27T12:45:35Z</time>
      </trkpt>
      <trkpt lat="46.75692" lon="5.61854">
        <ele>288</ele>
        <time>2022-05-27T12:45:36Z</time>
      </trkpt>
      <trkpt lat="46.75703" lon="5.6186">
        <ele>288.6</ele>
        <time>2022-05-27T12:45:39Z</time>
      </trkpt>
      <trkpt lat="46.75707" lon="5.61863">
        <ele>288.8</ele>
        <time>2022-05-27T12:45:40Z</time>
      </trkpt>
      <trkpt lat="46.75721" lon="5.61877">
        <ele>289.6</ele>
        <time>2022-05-27T12:45:44Z</time>
      </trkpt>
      <trkpt lat="46.75725" lon="5.6188">
        <ele>290.2</ele>
        <time>2022-05-27T12:45:45Z</time>
      </trkpt>
      <trkpt lat="46.75734" lon="5.6189">
        <ele>290.8</ele>
        <time>2022-05-27T12:45:48Z</time>
      </trkpt>
      <trkpt lat="46.75746" lon="5.61905">
        <ele>292</ele>
        <time>2022-05-27T12:45:52Z</time>
      </trkpt>
      <trkpt lat="46.75764" lon="5.61927">
        <ele>293</ele>
        <time>2022-05-27T12:45:58Z</time>
      </trkpt>
      <trkpt lat="46.75767" lon="5.61931">
        <ele>293.2</ele>
        <time>2022-05-27T12:45:59Z</time>
      </trkpt>
      <trkpt lat="46.75778" lon="5.61948">
        <ele>294.4</ele>
        <time>2022-05-27T12:46:03Z</time>
      </trkpt>
      <trkpt lat="46.75785" lon="5.61962">
        <ele>295</ele>
        <time>2022-05-27T12:46:06Z</time>
      </trkpt>
      <trkpt lat="46.75794" lon="5.61982">
        <ele>295.6</ele>
        <time>2022-05-27T12:46:10Z</time>
      </trkpt>
      <trkpt lat="46.758" lon="5.61996">
        <ele>296.6</ele>
        <time>2022-05-27T12:46:13Z</time>
      </trkpt>
      <trkpt lat="46.75805" lon="5.62012">
        <ele>297.2</ele>
        <time>2022-05-27T12:46:16Z</time>
      </trkpt>
      <trkpt lat="46.75812" lon="5.62033">
        <ele>298.2</ele>
        <time>2022-05-27T12:46:20Z</time>
      </trkpt>
      <trkpt lat="46.75816" lon="5.62049">
        <ele>298.6</ele>
        <time>2022-05-27T12:46:23Z</time>
      </trkpt>
      <trkpt lat="46.7582" lon="5.62064">
        <ele>299.2</ele>
        <time>2022-05-27T12:46:26Z</time>
      </trkpt>
      <trkpt lat="46.75829" lon="5.621">
        <ele>300.2</ele>
        <time>2022-05-27T12:46:32Z</time>
      </trkpt>
      <trkpt lat="46.7583" lon="5.62105">
        <ele>300.2</ele>
        <time>2022-05-27T12:46:33Z</time>
      </trkpt>
      <trkpt lat="46.75837" lon="5.62133">
        <ele>301.6</ele>
        <time>2022-05-27T12:46:38Z</time>
      </trkpt>
      <trkpt lat="46.75844" lon="5.62159">
        <ele>302.8</ele>
        <time>2022-05-27T12:46:43Z</time>
      </trkpt>
      <trkpt lat="46.75851" lon="5.62185">
        <ele>303.8</ele>
        <time>2022-05-27T12:46:48Z</time>
      </trkpt>
      <trkpt lat="46.75857" lon="5.62208">
        <ele>304.4</ele>
        <time>2022-05-27T12:46:52Z</time>
      </trkpt>
      <trkpt lat="46.75861" lon="5.62225">
        <ele>304.8</ele>
        <time>2022-05-27T12:46:55Z</time>
      </trkpt>
      <trkpt lat="46.75868" lon="5.62259">
        <ele>306</ele>
        <time>2022-05-27T12:47:01Z</time>
      </trkpt>
      <trkpt lat="46.75873" lon="5.62281">
        <ele>307.2</ele>
        <time>2022-05-27T12:47:05Z</time>
      </trkpt>
      <trkpt lat="46.75877" lon="5.6231">
        <ele>308</ele>
        <time>2022-05-27T12:47:10Z</time>
      </trkpt>
      <trkpt lat="46.75878" lon="5.62316">
        <ele>308.2</ele>
        <time>2022-05-27T12:47:11Z</time>
      </trkpt>
      <trkpt lat="46.75881" lon="5.62337">
        <ele>309.4</ele>
        <time>2022-05-27T12:47:15Z</time>
      </trkpt>
      <trkpt lat="46.75883" lon="5.62353">
        <ele>310.4</ele>
        <time>2022-05-27T12:47:18Z</time>
      </trkpt>
      <trkpt lat="46.75884" lon="5.62358">
        <ele>310.6</ele>
        <time>2022-05-27T12:47:19Z</time>
      </trkpt>
      <trkpt lat="46.75889" lon="5.62388">
        <ele>311.6</ele>
        <time>2022-05-27T12:47:25Z</time>
      </trkpt>
      <trkpt lat="46.7589" lon="5.62398">
        <ele>312</ele>
        <time>2022-05-27T12:47:27Z</time>
      </trkpt>
      <trkpt lat="46.75893" lon="5.62422">
        <ele>312.8</ele>
        <time>2022-05-27T12:47:32Z</time>
      </trkpt>
      <trkpt lat="46.75897" lon="5.62457">
        <ele>314</ele>
        <time>2022-05-27T12:47:39Z</time>
      </trkpt>
      <trkpt lat="46.75898" lon="5.62463">
        <ele>314.2</ele>
        <time>2022-05-27T12:47:40Z</time>
      </trkpt>
      <trkpt lat="46.759" lon="5.62483">
        <ele>315</ele>
        <time>2022-05-27T12:47:44Z</time>
      </trkpt>
      <trkpt lat="46.75903" lon="5.62509">
        <ele>316</ele>
        <time>2022-05-27T12:47:49Z</time>
      </trkpt>
      <trkpt lat="46.75906" lon="5.62541">
        <ele>317.2</ele>
        <time>2022-05-27T12:47:55Z</time>
      </trkpt>
      <trkpt lat="46.75907" lon="5.62557">
        <ele>317.8</ele>
        <time>2022-05-27T12:47:58Z</time>
      </trkpt>
      <trkpt lat="46.75908" lon="5.62567">
        <ele>318.4</ele>
        <time>2022-05-27T12:48:00Z</time>
      </trkpt>
      <trkpt lat="46.75911" lon="5.62592">
        <ele>319.6</ele>
        <time>2022-05-27T12:48:05Z</time>
      </trkpt>
      <trkpt lat="46.75913" lon="5.62603">
        <ele>320</ele>
        <time>2022-05-27T12:48:07Z</time>
      </trkpt>
      <trkpt lat="46.75914" lon="5.62624">
        <ele>320.8</ele>
        <time>2022-05-27T12:48:11Z</time>
      </trkpt>
      <trkpt lat="46.75918" lon="5.62652">
        <ele>321.8</ele>
        <time>2022-05-27T12:48:16Z</time>
      </trkpt>
      <trkpt lat="46.75921" lon="5.62674">
        <ele>322.8</ele>
        <time>2022-05-27T12:48:20Z</time>
      </trkpt>
      <trkpt lat="46.75924" lon="5.62689">
        <ele>323.6</ele>
        <time>2022-05-27T12:48:23Z</time>
      </trkpt>
      <trkpt lat="46.75925" lon="5.627">
        <ele>324</ele>
        <time>2022-05-27T12:48:25Z</time>
      </trkpt>
      <trkpt lat="46.75928" lon="5.62725">
        <ele>325</ele>
        <time>2022-05-27T12:48:30Z</time>
      </trkpt>
      <trkpt lat="46.75928" lon="5.62731">
        <ele>325</ele>
        <time>2022-05-27T12:48:31Z</time>
      </trkpt>
      <trkpt lat="46.75931" lon="5.62752">
        <ele>326</ele>
        <time>2022-05-27T12:48:35Z</time>
      </trkpt>
      <trkpt lat="46.75934" lon="5.62763">
        <ele>326.2</ele>
        <time>2022-05-27T12:48:37Z</time>
      </trkpt>
      <trkpt lat="46.75936" lon="5.62774">
        <ele>326.6</ele>
        <time>2022-05-27T12:48:39Z</time>
      </trkpt>
      <trkpt lat="46.7594" lon="5.62789">
        <ele>327.2</ele>
        <time>2022-05-27T12:48:42Z</time>
      </trkpt>
      <trkpt lat="46.75946" lon="5.62809">
        <ele>328</ele>
        <time>2022-05-27T12:48:46Z</time>
      </trkpt>
      <trkpt lat="46.75951" lon="5.62819">
        <ele>328.4</ele>
        <time>2022-05-27T12:48:48Z</time>
      </trkpt>
      <trkpt lat="46.75962" lon="5.62839">
        <ele>329.6</ele>
        <time>2022-05-27T12:48:53Z</time>
      </trkpt>
      <trkpt lat="46.75964" lon="5.62843">
        <ele>329.8</ele>
        <time>2022-05-27T12:48:54Z</time>
      </trkpt>
      <trkpt lat="46.75976" lon="5.62867">
        <ele>330.8</ele>
        <time>2022-05-27T12:49:00Z</time>
      </trkpt>
      <trkpt lat="46.75979" lon="5.62876">
        <ele>331.2</ele>
        <time>2022-05-27T12:49:02Z</time>
      </trkpt>
      <trkpt lat="46.75985" lon="5.62895">
        <ele>331.8</ele>
        <time>2022-05-27T12:49:06Z</time>
      </trkpt>
      <trkpt lat="46.75989" lon="5.62922">
        <ele>333.2</ele>
        <time>2022-05-27T12:49:11Z</time>
      </trkpt>
      <trkpt lat="46.75992" lon="5.62944">
        <ele>333.6</ele>
        <time>2022-05-27T12:49:15Z</time>
      </trkpt>
      <trkpt lat="46.75994" lon="5.6296">
        <ele>334.2</ele>
        <time>2022-05-27T12:49:18Z</time>
      </trkpt>
      <trkpt lat="46.75996" lon="5.6297">
        <ele>334.4</ele>
        <time>2022-05-27T12:49:20Z</time>
      </trkpt>
      <trkpt lat="46.76002" lon="5.62996">
        <ele>335.6</ele>
        <time>2022-05-27T12:49:25Z</time>
      </trkpt>
      <trkpt lat="46.76005" lon="5.63013">
        <ele>336.4</ele>
        <time>2022-05-27T12:49:28Z</time>
      </trkpt>
      <trkpt lat="46.76008" lon="5.63023">
        <ele>336.6</ele>
        <time>2022-05-27T12:49:30Z</time>
      </trkpt>
      <trkpt lat="46.76015" lon="5.63042">
        <ele>337.6</ele>
        <time>2022-05-27T12:49:35Z</time>
      </trkpt>
      <trkpt lat="46.76016" lon="5.63046">
        <ele>337.6</ele>
        <time>2022-05-27T12:49:36Z</time>
      </trkpt>
      <trkpt lat="46.76022" lon="5.6306">
        <ele>338.6</ele>
        <time>2022-05-27T12:49:41Z</time>
      </trkpt>
      <trkpt lat="46.76023" lon="5.63063">
        <ele>338.8</ele>
        <time>2022-05-27T12:49:42Z</time>
      </trkpt>
      <trkpt lat="46.76029" lon="5.63073">
        <ele>339.2</ele>
        <time>2022-05-27T12:49:47Z</time>
      </trkpt>
      <trkpt lat="46.76033" lon="5.6308">
        <ele>339.8</ele>
        <time>2022-05-27T12:49:50Z</time>
      </trkpt>
      <trkpt lat="46.76039" lon="5.63091">
        <ele>340.2</ele>
        <time>2022-05-27T12:49:54Z</time>
      </trkpt>
      <trkpt lat="46.76052" lon="5.63114">
        <ele>340.8</ele>
        <time>2022-05-27T12:49:59Z</time>
      </trkpt>
      <trkpt lat="46.76055" lon="5.63118">
        <ele>341</ele>
        <time>2022-05-27T12:50:00Z</time>
      </trkpt>
      <trkpt lat="46.76076" lon="5.63154">
        <ele>342</ele>
        <time>2022-05-27T12:50:07Z</time>
      </trkpt>
      <trkpt lat="46.76078" lon="5.63159">
        <ele>342.2</ele>
        <time>2022-05-27T12:50:08Z</time>
      </trkpt>
      <trkpt lat="46.7608" lon="5.63164">
        <ele>342.2</ele>
        <time>2022-05-27T12:50:09Z</time>
      </trkpt>
      <trkpt lat="46.76083" lon="5.63176">
        <ele>342.6</ele>
        <time>2022-05-27T12:50:11Z</time>
      </trkpt>
      <trkpt lat="46.76085" lon="5.63188">
        <ele>342.8</ele>
        <time>2022-05-27T12:50:13Z</time>
      </trkpt>
      <trkpt lat="46.76085" lon="5.63193">
        <ele>343</ele>
        <time>2022-05-27T12:50:14Z</time>
      </trkpt>
      <trkpt lat="46.76091" lon="5.63222">
        <ele>344.2</ele>
        <time>2022-05-27T12:50:19Z</time>
      </trkpt>
      <trkpt lat="46.76092" lon="5.63227">
        <ele>344.4</ele>
        <time>2022-05-27T12:50:20Z</time>
      </trkpt>
      <trkpt lat="46.76105" lon="5.63251">
        <ele>345.2</ele>
        <time>2022-05-27T12:50:25Z</time>
      </trkpt>
      <trkpt lat="46.76111" lon="5.63258">
        <ele>345.4</ele>
        <time>2022-05-27T12:50:27Z</time>
      </trkpt>
      <trkpt lat="46.76129" lon="5.63277">
        <ele>346.4</ele>
        <time>2022-05-27T12:50:32Z</time>
      </trkpt>
      <trkpt lat="46.76133" lon="5.6328">
        <ele>346.4</ele>
        <time>2022-05-27T12:50:33Z</time>
      </trkpt>
      <trkpt lat="46.76141" lon="5.63286">
        <ele>346.8</ele>
        <time>2022-05-27T12:50:35Z</time>
      </trkpt>
      <trkpt lat="46.76164" lon="5.63298">
        <ele>347.4</ele>
        <time>2022-05-27T12:50:41Z</time>
      </trkpt>
      <trkpt lat="46.76172" lon="5.633">
        <ele>347.6</ele>
        <time>2022-05-27T12:50:43Z</time>
      </trkpt>
      <trkpt lat="46.76176" lon="5.63302">
        <ele>347.8</ele>
        <time>2022-05-27T12:50:44Z</time>
      </trkpt>
      <trkpt lat="46.76189" lon="5.63308">
        <ele>348.4</ele>
        <time>2022-05-27T12:50:47Z</time>
      </trkpt>
      <trkpt lat="46.76196" lon="5.63313">
        <ele>348.8</ele>
        <time>2022-05-27T12:50:49Z</time>
      </trkpt>
      <trkpt lat="46.762" lon="5.63316">
        <ele>348.8</ele>
        <time>2022-05-27T12:50:50Z</time>
      </trkpt>
      <trkpt lat="46.76213" lon="5.6333">
        <ele>349.6</ele>
        <time>2022-05-27T12:50:54Z</time>
      </trkpt>
      <trkpt lat="46.76228" lon="5.6335">
        <ele>350.6</ele>
        <time>2022-05-27T12:50:59Z</time>
      </trkpt>
      <trkpt lat="46.76231" lon="5.63354">
        <ele>350.6</ele>
        <time>2022-05-27T12:51:00Z</time>
      </trkpt>
      <trkpt lat="46.76234" lon="5.63358">
        <ele>350.8</ele>
        <time>2022-05-27T12:51:01Z</time>
      </trkpt>
      <trkpt lat="46.76249" lon="5.63376">
        <ele>351.8</ele>
        <time>2022-05-27T12:51:06Z</time>
      </trkpt>
      <trkpt lat="46.76263" lon="5.6339">
        <ele>352.8</ele>
        <time>2022-05-27T12:51:10Z</time>
      </trkpt>
      <trkpt lat="46.76278" lon="5.63406">
        <ele>353.6</ele>
        <time>2022-05-27T12:51:15Z</time>
      </trkpt>
      <trkpt lat="46.76285" lon="5.63416">
        <ele>353.8</ele>
        <time>2022-05-27T12:51:17Z</time>
      </trkpt>
      <trkpt lat="46.76294" lon="5.63436">
        <ele>354.2</ele>
        <time>2022-05-27T12:51:21Z</time>
      </trkpt>
      <trkpt lat="46.76308" lon="5.63477">
        <ele>355.2</ele>
        <time>2022-05-27T12:51:28Z</time>
      </trkpt>
      <trkpt lat="46.7631" lon="5.63483">
        <ele>355.2</ele>
        <time>2022-05-27T12:51:29Z</time>
      </trkpt>
      <trkpt lat="46.76313" lon="5.63489">
        <ele>355.4</ele>
        <time>2022-05-27T12:51:30Z</time>
      </trkpt>
      <trkpt lat="46.76319" lon="5.63501">
        <ele>355.6</ele>
        <time>2022-05-27T12:51:33Z</time>
      </trkpt>
      <trkpt lat="46.76331" lon="5.63527">
        <ele>356.4</ele>
        <time>2022-05-27T12:51:38Z</time>
      </trkpt>
      <trkpt lat="46.76338" lon="5.63553">
        <ele>357.6</ele>
        <time>2022-05-27T12:51:43Z</time>
      </trkpt>
      <trkpt lat="46.76339" lon="5.63558">
        <ele>357.8</ele>
        <time>2022-05-27T12:51:44Z</time>
      </trkpt>
      <trkpt lat="46.76346" lon="5.63576">
        <ele>358.6</ele>
        <time>2022-05-27T12:51:47Z</time>
      </trkpt>
      <trkpt lat="46.76349" lon="5.63581">
        <ele>358.8</ele>
        <time>2022-05-27T12:51:48Z</time>
      </trkpt>
      <trkpt lat="46.76353" lon="5.63586">
        <ele>359</ele>
        <time>2022-05-27T12:51:49Z</time>
      </trkpt>
      <trkpt lat="46.7636" lon="5.63598">
        <ele>359.4</ele>
        <time>2022-05-27T12:51:52Z</time>
      </trkpt>
      <trkpt lat="46.76367" lon="5.63606">
        <ele>359.8</ele>
        <time>2022-05-27T12:51:54Z</time>
      </trkpt>
      <trkpt lat="46.7637" lon="5.63609">
        <ele>360</ele>
        <time>2022-05-27T12:51:55Z</time>
      </trkpt>
      <trkpt lat="46.76378" lon="5.63615">
        <ele>360.4</ele>
        <time>2022-05-27T12:51:57Z</time>
      </trkpt>
      <trkpt lat="46.76382" lon="5.63617">
        <ele>360.6</ele>
        <time>2022-05-27T12:51:58Z</time>
      </trkpt>
      <trkpt lat="46.76401" lon="5.63625">
        <ele>361.4</ele>
        <time>2022-05-27T12:52:02Z</time>
      </trkpt>
      <trkpt lat="46.76405" lon="5.63625">
        <ele>361.6</ele>
        <time>2022-05-27T12:52:03Z</time>
      </trkpt>
      <trkpt lat="46.76409" lon="5.63625">
        <ele>362</ele>
        <time>2022-05-27T12:52:04Z</time>
      </trkpt>
      <trkpt lat="46.76426" lon="5.63621">
        <ele>362.8</ele>
        <time>2022-05-27T12:52:08Z</time>
      </trkpt>
      <trkpt lat="46.76434" lon="5.63621">
        <ele>363.2</ele>
        <time>2022-05-27T12:52:10Z</time>
      </trkpt>
      <trkpt lat="46.76454" lon="5.63622">
        <ele>364</ele>
        <time>2022-05-27T12:52:15Z</time>
      </trkpt>
      <trkpt lat="46.7647" lon="5.63625">
        <ele>364.8</ele>
        <time>2022-05-27T12:52:19Z</time>
      </trkpt>
      <trkpt lat="46.76474" lon="5.63626">
        <ele>365</ele>
        <time>2022-05-27T12:52:20Z</time>
      </trkpt>
      <trkpt lat="46.76498" lon="5.6363">
        <ele>366.2</ele>
        <time>2022-05-27T12:52:26Z</time>
      </trkpt>
      <trkpt lat="46.76501" lon="5.63632">
        <ele>366.4</ele>
        <time>2022-05-27T12:52:27Z</time>
      </trkpt>
      <trkpt lat="46.76505" lon="5.63633">
        <ele>366.4</ele>
        <time>2022-05-27T12:52:28Z</time>
      </trkpt>
      <trkpt lat="46.76515" lon="5.63642">
        <ele>367.2</ele>
        <time>2022-05-27T12:52:31Z</time>
      </trkpt>
      <trkpt lat="46.76518" lon="5.63647">
        <ele>367.2</ele>
        <time>2022-05-27T12:52:32Z</time>
      </trkpt>
      <trkpt lat="46.76519" lon="5.63669">
        <ele>368</ele>
        <time>2022-05-27T12:52:36Z</time>
      </trkpt>
      <trkpt lat="46.76515" lon="5.63677">
        <ele>368.4</ele>
        <time>2022-05-27T12:52:38Z</time>
      </trkpt>
      <trkpt lat="46.76508" lon="5.63683">
        <ele>368.8</ele>
        <time>2022-05-27T12:52:40Z</time>
      </trkpt>
      <trkpt lat="46.76488" lon="5.6369">
        <ele>369.6</ele>
        <time>2022-05-27T12:52:45Z</time>
      </trkpt>
      <trkpt lat="46.76483" lon="5.63691">
        <ele>369.8</ele>
        <time>2022-05-27T12:52:46Z</time>
      </trkpt>
      <trkpt lat="46.76466" lon="5.63694">
        <ele>370.6</ele>
        <time>2022-05-27T12:52:50Z</time>
      </trkpt>
      <trkpt lat="46.76446" lon="5.637">
        <ele>371.4</ele>
        <time>2022-05-27T12:52:55Z</time>
      </trkpt>
      <trkpt lat="46.76442" lon="5.637">
        <ele>372</ele>
        <time>2022-05-27T12:52:56Z</time>
      </trkpt>
      <trkpt lat="46.76425" lon="5.637">
        <ele>373.2</ele>
        <time>2022-05-27T12:53:01Z</time>
      </trkpt>
      <trkpt lat="46.76417" lon="5.63698">
        <ele>373.6</ele>
        <time>2022-05-27T12:53:03Z</time>
      </trkpt>
      <trkpt lat="46.76411" lon="5.63696">
        <ele>374.2</ele>
        <time>2022-05-27T12:53:05Z</time>
      </trkpt>
      <trkpt lat="46.76405" lon="5.63692">
        <ele>375</ele>
        <time>2022-05-27T12:53:08Z</time>
      </trkpt>
      <trkpt lat="46.76402" lon="5.63691">
        <ele>375.2</ele>
        <time>2022-05-27T12:53:09Z</time>
      </trkpt>
      <trkpt lat="46.76399" lon="5.63688">
        <ele>376.2</ele>
        <time>2022-05-27T12:53:13Z</time>
      </trkpt>
      <trkpt lat="46.76399" lon="5.63688">
        <ele>376.4</ele>
        <time>2022-05-27T12:53:14Z</time>
      </trkpt>
      <trkpt lat="46.76384" lon="5.63667">
        <ele>377.2</ele>
        <time>2022-05-27T12:53:32Z</time>
      </trkpt>
      <trkpt lat="46.76379" lon="5.63661">
        <ele>377.4</ele>
        <time>2022-05-27T12:53:34Z</time>
      </trkpt>
      <trkpt lat="46.76366" lon="5.63644">
        <ele>377.6</ele>
        <time>2022-05-27T12:53:39Z</time>
      </trkpt>
      <trkpt lat="46.76352" lon="5.63629">
        <ele>378.2</ele>
        <time>2022-05-27T12:53:43Z</time>
      </trkpt>
      <trkpt lat="46.76348" lon="5.63625">
        <ele>378.2</ele>
        <time>2022-05-27T12:53:44Z</time>
      </trkpt>
      <trkpt lat="46.76329" lon="5.63613">
        <ele>379.4</ele>
        <time>2022-05-27T12:53:49Z</time>
      </trkpt>
      <trkpt lat="46.76311" lon="5.63603">
        <ele>380.6</ele>
        <time>2022-05-27T12:53:54Z</time>
      </trkpt>
      <trkpt lat="46.76297" lon="5.63595">
        <ele>381.6</ele>
        <time>2022-05-27T12:53:58Z</time>
      </trkpt>
      <trkpt lat="46.76275" lon="5.63587">
        <ele>383</ele>
        <time>2022-05-27T12:54:04Z</time>
      </trkpt>
      <trkpt lat="46.76268" lon="5.63585">
        <ele>383.6</ele>
        <time>2022-05-27T12:54:06Z</time>
      </trkpt>
      <trkpt lat="46.76261" lon="5.63582">
        <ele>384</ele>
        <time>2022-05-27T12:54:08Z</time>
      </trkpt>
      <trkpt lat="46.76245" lon="5.63572">
        <ele>385.2</ele>
        <time>2022-05-27T12:54:13Z</time>
      </trkpt>
      <trkpt lat="46.76242" lon="5.63569">
        <ele>385.2</ele>
        <time>2022-05-27T12:54:14Z</time>
      </trkpt>
      <trkpt lat="46.76227" lon="5.63552">
        <ele>386.2</ele>
        <time>2022-05-27T12:54:19Z</time>
      </trkpt>
      <trkpt lat="46.76225" lon="5.63548">
        <ele>386.4</ele>
        <time>2022-05-27T12:54:20Z</time>
      </trkpt>
      <trkpt lat="46.76223" lon="5.63545">
        <ele>386.6</ele>
        <time>2022-05-27T12:54:21Z</time>
      </trkpt>
      <trkpt lat="46.76211" lon="5.63525">
        <ele>387.2</ele>
        <time>2022-05-27T12:54:27Z</time>
      </trkpt>
      <trkpt lat="46.76206" lon="5.63509">
        <ele>388.2</ele>
        <time>2022-05-27T12:54:32Z</time>
      </trkpt>
      <trkpt lat="46.76204" lon="5.63505">
        <ele>388.4</ele>
        <time>2022-05-27T12:54:33Z</time>
      </trkpt>
      <trkpt lat="46.76189" lon="5.63485">
        <ele>388.8</ele>
        <time>2022-05-27T12:54:38Z</time>
      </trkpt>
      <trkpt lat="46.76161" lon="5.63466">
        <ele>389.2</ele>
        <time>2022-05-27T12:54:44Z</time>
      </trkpt>
      <trkpt lat="46.76157" lon="5.63463">
        <ele>389.2</ele>
        <time>2022-05-27T12:54:45Z</time>
      </trkpt>
      <trkpt lat="46.76127" lon="5.63447">
        <ele>390</ele>
        <time>2022-05-27T12:54:51Z</time>
      </trkpt>
      <trkpt lat="46.76113" lon="5.6344">
        <ele>390.4</ele>
        <time>2022-05-27T12:54:54Z</time>
      </trkpt>
      <trkpt lat="46.76089" lon="5.63429">
        <ele>391</ele>
        <time>2022-05-27T12:54:59Z</time>
      </trkpt>
      <trkpt lat="46.76072" lon="5.63422">
        <ele>391.4</ele>
        <time>2022-05-27T12:55:03Z</time>
      </trkpt>
      <trkpt lat="46.76054" lon="5.63421">
        <ele>392.4</ele>
        <time>2022-05-27T12:55:07Z</time>
      </trkpt>
      <trkpt lat="46.7604" lon="5.63421">
        <ele>393.4</ele>
        <time>2022-05-27T12:55:10Z</time>
      </trkpt>
      <trkpt lat="46.76008" lon="5.63417">
        <ele>394.4</ele>
        <time>2022-05-27T12:55:17Z</time>
      </trkpt>
      <trkpt lat="46.76004" lon="5.63416">
        <ele>394.8</ele>
        <time>2022-05-27T12:55:18Z</time>
      </trkpt>
      <trkpt lat="46.75991" lon="5.63413">
        <ele>395</ele>
        <time>2022-05-27T12:55:21Z</time>
      </trkpt>
      <trkpt lat="46.75974" lon="5.63407">
        <ele>396</ele>
        <time>2022-05-27T12:55:25Z</time>
      </trkpt>
      <trkpt lat="46.75966" lon="5.63403">
        <ele>396.2</ele>
        <time>2022-05-27T12:55:27Z</time>
      </trkpt>
      <trkpt lat="46.7595" lon="5.63391">
        <ele>397</ele>
        <time>2022-05-27T12:55:31Z</time>
      </trkpt>
      <trkpt lat="46.75939" lon="5.63381">
        <ele>397.6</ele>
        <time>2022-05-27T12:55:34Z</time>
      </trkpt>
      <trkpt lat="46.75933" lon="5.63376">
        <ele>398.2</ele>
        <time>2022-05-27T12:55:36Z</time>
      </trkpt>
      <trkpt lat="46.7593" lon="5.63374">
        <ele>398.2</ele>
        <time>2022-05-27T12:55:37Z</time>
      </trkpt>
      <trkpt lat="46.7592" lon="5.63365">
        <ele>399.2</ele>
        <time>2022-05-27T12:55:40Z</time>
      </trkpt>
      <trkpt lat="46.7591" lon="5.63356">
        <ele>400.2</ele>
        <time>2022-05-27T12:55:43Z</time>
      </trkpt>
      <trkpt lat="46.75907" lon="5.63352">
        <ele>400.2</ele>
        <time>2022-05-27T12:55:44Z</time>
      </trkpt>
      <trkpt lat="46.75888" lon="5.63333">
        <ele>401.4</ele>
        <time>2022-05-27T12:55:50Z</time>
      </trkpt>
      <trkpt lat="46.75873" lon="5.63314">
        <ele>402.6</ele>
        <time>2022-05-27T12:55:55Z</time>
      </trkpt>
      <trkpt lat="46.75864" lon="5.63304">
        <ele>403</ele>
        <time>2022-05-27T12:55:58Z</time>
      </trkpt>
      <trkpt lat="46.75857" lon="5.63298">
        <ele>403.6</ele>
        <time>2022-05-27T12:56:00Z</time>
      </trkpt>
      <trkpt lat="46.75848" lon="5.63291">
        <ele>404.4</ele>
        <time>2022-05-27T12:56:03Z</time>
      </trkpt>
      <trkpt lat="46.75841" lon="5.63285">
        <ele>404.8</ele>
        <time>2022-05-27T12:56:05Z</time>
      </trkpt>
      <trkpt lat="46.75828" lon="5.63272">
        <ele>405.6</ele>
        <time>2022-05-27T12:56:09Z</time>
      </trkpt>
      <trkpt lat="46.75825" lon="5.63268">
        <ele>405.8</ele>
        <time>2022-05-27T12:56:10Z</time>
      </trkpt>
      <trkpt lat="46.75811" lon="5.63257">
        <ele>406.8</ele>
        <time>2022-05-27T12:56:14Z</time>
      </trkpt>
      <trkpt lat="46.75799" lon="5.63249">
        <ele>408.2</ele>
        <time>2022-05-27T12:56:18Z</time>
      </trkpt>
      <trkpt lat="46.75783" lon="5.63241">
        <ele>409.2</ele>
        <time>2022-05-27T12:56:23Z</time>
      </trkpt>
      <trkpt lat="46.75772" lon="5.63237">
        <ele>410.2</ele>
        <time>2022-05-27T12:56:27Z</time>
      </trkpt>
      <trkpt lat="46.75756" lon="5.63225">
        <ele>411.4</ele>
        <time>2022-05-27T12:56:33Z</time>
      </trkpt>
      <trkpt lat="46.75753" lon="5.63223">
        <ele>411.8</ele>
        <time>2022-05-27T12:56:34Z</time>
      </trkpt>
      <trkpt lat="46.75742" lon="5.63208">
        <ele>412.6</ele>
        <time>2022-05-27T12:56:38Z</time>
      </trkpt>
      <trkpt lat="46.75738" lon="5.63201">
        <ele>412.6</ele>
        <time>2022-05-27T12:56:40Z</time>
      </trkpt>
      <trkpt lat="46.7573" lon="5.63187">
        <ele>413.4</ele>
        <time>2022-05-27T12:56:43Z</time>
      </trkpt>
      <trkpt lat="46.75716" lon="5.63166">
        <ele>414.6</ele>
        <time>2022-05-27T12:56:48Z</time>
      </trkpt>
      <trkpt lat="46.75707" lon="5.6315">
        <ele>415.8</ele>
        <time>2022-05-27T12:56:52Z</time>
      </trkpt>
      <trkpt lat="46.75699" lon="5.63126">
        <ele>417</ele>
        <time>2022-05-27T12:56:57Z</time>
      </trkpt>
      <trkpt lat="46.75696" lon="5.63121">
        <ele>417.2</ele>
        <time>2022-05-27T12:56:58Z</time>
      </trkpt>
      <trkpt lat="46.75687" lon="5.63102">
        <ele>418.2</ele>
        <time>2022-05-27T12:57:02Z</time>
      </trkpt>
      <trkpt lat="46.75681" lon="5.63093">
        <ele>418.6</ele>
        <time>2022-05-27T12:57:04Z</time>
      </trkpt>
      <trkpt lat="46.75678" lon="5.63076">
        <ele>419</ele>
        <time>2022-05-27T12:57:07Z</time>
      </trkpt>
      <trkpt lat="46.7567" lon="5.63054">
        <ele>420</ele>
        <time>2022-05-27T12:57:11Z</time>
      </trkpt>
      <trkpt lat="46.75668" lon="5.63042">
        <ele>420.2</ele>
        <time>2022-05-27T12:57:13Z</time>
      </trkpt>
      <trkpt lat="46.75662" lon="5.63024">
        <ele>420.6</ele>
        <time>2022-05-27T12:57:16Z</time>
      </trkpt>
      <trkpt lat="46.75657" lon="5.63014">
        <ele>420.8</ele>
        <time>2022-05-27T12:57:18Z</time>
      </trkpt>
      <trkpt lat="46.75654" lon="5.63003">
        <ele>421</ele>
        <time>2022-05-27T12:57:20Z</time>
      </trkpt>
      <trkpt lat="46.75652" lon="5.62999">
        <ele>421.2</ele>
        <time>2022-05-27T12:57:21Z</time>
      </trkpt>
      <trkpt lat="46.75649" lon="5.62994">
        <ele>421.4</ele>
        <time>2022-05-27T12:57:22Z</time>
      </trkpt>
      <trkpt lat="46.7564" lon="5.62978">
        <ele>422.2</ele>
        <time>2022-05-27T12:57:26Z</time>
      </trkpt>
      <trkpt lat="46.75634" lon="5.62971">
        <ele>422.4</ele>
        <time>2022-05-27T12:57:28Z</time>
      </trkpt>
      <trkpt lat="46.75629" lon="5.62963">
        <ele>422.8</ele>
        <time>2022-05-27T12:57:30Z</time>
      </trkpt>
      <trkpt lat="46.75624" lon="5.62958">
        <ele>423.4</ele>
        <time>2022-05-27T12:57:32Z</time>
      </trkpt>
      <trkpt lat="46.75609" lon="5.62939">
        <ele>424.4</ele>
        <time>2022-05-27T12:57:37Z</time>
      </trkpt>
      <trkpt lat="46.75607" lon="5.62935">
        <ele>424.6</ele>
        <time>2022-05-27T12:57:38Z</time>
      </trkpt>
      <trkpt lat="46.75597" lon="5.62916">
        <ele>425.4</ele>
        <time>2022-05-27T12:57:42Z</time>
      </trkpt>
      <trkpt lat="46.75594" lon="5.62904">
        <ele>426.2</ele>
        <time>2022-05-27T12:57:44Z</time>
      </trkpt>
      <trkpt lat="46.75588" lon="5.62882">
        <ele>426.8</ele>
        <time>2022-05-27T12:57:48Z</time>
      </trkpt>
      <trkpt lat="46.75585" lon="5.62866">
        <ele>427.6</ele>
        <time>2022-05-27T12:57:51Z</time>
      </trkpt>
      <trkpt lat="46.75583" lon="5.62856">
        <ele>428</ele>
        <time>2022-05-27T12:57:53Z</time>
      </trkpt>
      <trkpt lat="46.75581" lon="5.62837">
        <ele>429</ele>
        <time>2022-05-27T12:57:57Z</time>
      </trkpt>
      <trkpt lat="46.7558" lon="5.62832">
        <ele>429.2</ele>
        <time>2022-05-27T12:57:58Z</time>
      </trkpt>
      <trkpt lat="46.75578" lon="5.62803">
        <ele>430.2</ele>
        <time>2022-05-27T12:58:03Z</time>
      </trkpt>
      <trkpt lat="46.75578" lon="5.62797">
        <ele>430.6</ele>
        <time>2022-05-27T12:58:04Z</time>
      </trkpt>
      <trkpt lat="46.75578" lon="5.62786">
        <ele>431.2</ele>
        <time>2022-05-27T12:58:06Z</time>
      </trkpt>
      <trkpt lat="46.75582" lon="5.62759">
        <ele>432.6</ele>
        <time>2022-05-27T12:58:11Z</time>
      </trkpt>
      <trkpt lat="46.75588" lon="5.62739">
        <ele>433.6</ele>
        <time>2022-05-27T12:58:15Z</time>
      </trkpt>
      <trkpt lat="46.75595" lon="5.62722">
        <ele>434.6</ele>
        <time>2022-05-27T12:58:19Z</time>
      </trkpt>
      <trkpt lat="46.75597" lon="5.62718">
        <ele>434.8</ele>
        <time>2022-05-27T12:58:20Z</time>
      </trkpt>
      <trkpt lat="46.75608" lon="5.62708">
        <ele>435.8</ele>
        <time>2022-05-27T12:58:24Z</time>
      </trkpt>
      <trkpt lat="46.75612" lon="5.62707">
        <ele>436</ele>
        <time>2022-05-27T12:58:25Z</time>
      </trkpt>
      <trkpt lat="46.75629" lon="5.62705">
        <ele>437.2</ele>
        <time>2022-05-27T12:58:30Z</time>
      </trkpt>
      <trkpt lat="46.75646" lon="5.62708">
        <ele>438.2</ele>
        <time>2022-05-27T12:58:35Z</time>
      </trkpt>
      <trkpt lat="46.75661" lon="5.62711">
        <ele>439.2</ele>
        <time>2022-05-27T12:58:39Z</time>
      </trkpt>
      <trkpt lat="46.75664" lon="5.62711">
        <ele>439.2</ele>
        <time>2022-05-27T12:58:40Z</time>
      </trkpt>
      <trkpt lat="46.75686" lon="5.62714">
        <ele>440.4</ele>
        <time>2022-05-27T12:58:46Z</time>
      </trkpt>
      <trkpt lat="46.75697" lon="5.62714">
        <ele>441.2</ele>
        <time>2022-05-27T12:58:49Z</time>
      </trkpt>
      <trkpt lat="46.7571" lon="5.6271">
        <ele>441.6</ele>
        <time>2022-05-27T12:58:53Z</time>
      </trkpt>
      <trkpt lat="46.7572" lon="5.62706">
        <ele>442.2</ele>
        <time>2022-05-27T12:58:56Z</time>
      </trkpt>
      <trkpt lat="46.75724" lon="5.62697">
        <ele>442.6</ele>
        <time>2022-05-27T12:58:58Z</time>
      </trkpt>
      <trkpt lat="46.75725" lon="5.62692">
        <ele>442.8</ele>
        <time>2022-05-27T12:58:59Z</time>
      </trkpt>
      <trkpt lat="46.75724" lon="5.62687">
        <ele>443.2</ele>
        <time>2022-05-27T12:59:00Z</time>
      </trkpt>
      <trkpt lat="46.75718" lon="5.6268">
        <ele>443.8</ele>
        <time>2022-05-27T12:59:02Z</time>
      </trkpt>
      <trkpt lat="46.75703" lon="5.62674">
        <ele>444.8</ele>
        <time>2022-05-27T12:59:06Z</time>
      </trkpt>
      <trkpt lat="46.75692" lon="5.62667">
        <ele>445.6</ele>
        <time>2022-05-27T12:59:09Z</time>
      </trkpt>
      <trkpt lat="46.75685" lon="5.6266">
        <ele>446.2</ele>
        <time>2022-05-27T12:59:11Z</time>
      </trkpt>
      <trkpt lat="46.75666" lon="5.62641">
        <ele>447.2</ele>
        <time>2022-05-27T12:59:16Z</time>
      </trkpt>
      <trkpt lat="46.75663" lon="5.62636">
        <ele>447.2</ele>
        <time>2022-05-27T12:59:17Z</time>
      </trkpt>
      <trkpt lat="46.75641" lon="5.62611">
        <ele>448.4</ele>
        <time>2022-05-27T12:59:23Z</time>
      </trkpt>
      <trkpt lat="46.75637" lon="5.62607">
        <ele>448.6</ele>
        <time>2022-05-27T12:59:24Z</time>
      </trkpt>
      <trkpt lat="46.75607" lon="5.62577">
        <ele>449.2</ele>
        <time>2022-05-27T12:59:31Z</time>
      </trkpt>
      <trkpt lat="46.75602" lon="5.62573">
        <ele>449.4</ele>
        <time>2022-05-27T12:59:32Z</time>
      </trkpt>
      <trkpt lat="46.75586" lon="5.62564">
        <ele>449.6</ele>
        <time>2022-05-27T12:59:35Z</time>
      </trkpt>
      <trkpt lat="46.75579" lon="5.62564">
        <ele>449.4</ele>
        <time>2022-05-27T12:59:36Z</time>
      </trkpt>
      <trkpt lat="46.75573" lon="5.62566">
        <ele>449.4</ele>
        <time>2022-05-27T12:59:37Z</time>
      </trkpt>
      <trkpt lat="46.7554" lon="5.62579">
        <ele>449.6</ele>
        <time>2022-05-27T12:59:43Z</time>
      </trkpt>
      <trkpt lat="46.75518" lon="5.62588">
        <ele>450</ele>
        <time>2022-05-27T12:59:48Z</time>
      </trkpt>
      <trkpt lat="46.75513" lon="5.6259">
        <ele>450.6</ele>
        <time>2022-05-27T12:59:49Z</time>
      </trkpt>
      <trkpt lat="46.75497" lon="5.62599">
        <ele>451.6</ele>
        <time>2022-05-27T12:59:53Z</time>
      </trkpt>
      <trkpt lat="46.75493" lon="5.62602">
        <ele>451.6</ele>
        <time>2022-05-27T12:59:54Z</time>
      </trkpt>
      <trkpt lat="46.7549" lon="5.62605">
        <ele>451.8</ele>
        <time>2022-05-27T12:59:55Z</time>
      </trkpt>
      <trkpt lat="46.75486" lon="5.62608">
        <ele>452.4</ele>
        <time>2022-05-27T12:59:56Z</time>
      </trkpt>
      <trkpt lat="46.75483" lon="5.62612">
        <ele>452.8</ele>
        <time>2022-05-27T12:59:57Z</time>
      </trkpt>
      <trkpt lat="46.75473" lon="5.62623">
        <ele>454</ele>
        <time>2022-05-27T13:00:00Z</time>
      </trkpt>
      <trkpt lat="46.75454" lon="5.62641">
        <ele>455.2</ele>
        <time>2022-05-27T13:00:05Z</time>
      </trkpt>
      <trkpt lat="46.75438" lon="5.62652">
        <ele>456.4</ele>
        <time>2022-05-27T13:00:09Z</time>
      </trkpt>
      <trkpt lat="46.75426" lon="5.6266">
        <ele>457.2</ele>
        <time>2022-05-27T13:00:12Z</time>
      </trkpt>
      <trkpt lat="46.75423" lon="5.62663">
        <ele>457.6</ele>
        <time>2022-05-27T13:00:13Z</time>
      </trkpt>
      <trkpt lat="46.75406" lon="5.62675">
        <ele>458.6</ele>
        <time>2022-05-27T13:00:18Z</time>
      </trkpt>
      <trkpt lat="46.75397" lon="5.62684">
        <ele>459.6</ele>
        <time>2022-05-27T13:00:21Z</time>
      </trkpt>
      <trkpt lat="46.75394" lon="5.62686">
        <ele>459.8</ele>
        <time>2022-05-27T13:00:22Z</time>
      </trkpt>
      <trkpt lat="46.75379" lon="5.62705">
        <ele>460.8</ele>
        <time>2022-05-27T13:00:27Z</time>
      </trkpt>
      <trkpt lat="46.75377" lon="5.62709">
        <ele>461</ele>
        <time>2022-05-27T13:00:28Z</time>
      </trkpt>
      <trkpt lat="46.75371" lon="5.62723">
        <ele>462</ele>
        <time>2022-05-27T13:00:31Z</time>
      </trkpt>
      <trkpt lat="46.75368" lon="5.62734">
        <ele>462.6</ele>
        <time>2022-05-27T13:00:33Z</time>
      </trkpt>
      <trkpt lat="46.75366" lon="5.62747">
        <ele>463</ele>
        <time>2022-05-27T13:00:35Z</time>
      </trkpt>
      <trkpt lat="46.75367" lon="5.62777">
        <ele>464</ele>
        <time>2022-05-27T13:00:40Z</time>
      </trkpt>
      <trkpt lat="46.75371" lon="5.6279">
        <ele>464</ele>
        <time>2022-05-27T13:00:42Z</time>
      </trkpt>
      <trkpt lat="46.75378" lon="5.62813">
        <ele>464.4</ele>
        <time>2022-05-27T13:00:46Z</time>
      </trkpt>
      <trkpt lat="46.75393" lon="5.62849">
        <ele>465.2</ele>
        <time>2022-05-27T13:00:52Z</time>
      </trkpt>
      <trkpt lat="46.75396" lon="5.62855">
        <ele>465.2</ele>
        <time>2022-05-27T13:00:53Z</time>
      </trkpt>
      <trkpt lat="46.75399" lon="5.62868">
        <ele>465.4</ele>
        <time>2022-05-27T13:00:55Z</time>
      </trkpt>
      <trkpt lat="46.75402" lon="5.62882">
        <ele>465.6</ele>
        <time>2022-05-27T13:00:57Z</time>
      </trkpt>
      <trkpt lat="46.75407" lon="5.62904">
        <ele>465.6</ele>
        <time>2022-05-27T13:01:00Z</time>
      </trkpt>
      <trkpt lat="46.75409" lon="5.6292">
        <ele>465.6</ele>
        <time>2022-05-27T13:01:02Z</time>
      </trkpt>
      <trkpt lat="46.75409" lon="5.62929">
        <ele>465.4</ele>
        <time>2022-05-27T13:01:03Z</time>
      </trkpt>
      <trkpt lat="46.75421" lon="5.62984">
        <ele>464.8</ele>
        <time>2022-05-27T13:01:09Z</time>
      </trkpt>
      <trkpt lat="46.7544" lon="5.63036">
        <ele>464.2</ele>
        <time>2022-05-27T13:01:15Z</time>
      </trkpt>
      <trkpt lat="46.75444" lon="5.63044">
        <ele>464</ele>
        <time>2022-05-27T13:01:16Z</time>
      </trkpt>
      <trkpt lat="46.75471" lon="5.63095">
        <ele>463.6</ele>
        <time>2022-05-27T13:01:23Z</time>
      </trkpt>
      <trkpt lat="46.75489" lon="5.63137">
        <ele>464.2</ele>
        <time>2022-05-27T13:01:29Z</time>
      </trkpt>
      <trkpt lat="46.75491" lon="5.63145">
        <ele>464.6</ele>
        <time>2022-05-27T13:01:30Z</time>
      </trkpt>
      <trkpt lat="46.75495" lon="5.63161">
        <ele>465</ele>
        <time>2022-05-27T13:01:32Z</time>
      </trkpt>
      <trkpt lat="46.75498" lon="5.63177">
        <ele>465.8</ele>
        <time>2022-05-27T13:01:34Z</time>
      </trkpt>
      <trkpt lat="46.75502" lon="5.63195">
        <ele>466</ele>
        <time>2022-05-27T13:01:36Z</time>
      </trkpt>
      <trkpt lat="46.75509" lon="5.63226">
        <ele>467.2</ele>
        <time>2022-05-27T13:01:40Z</time>
      </trkpt>
      <trkpt lat="46.75514" lon="5.63249">
        <ele>468.2</ele>
        <time>2022-05-27T13:01:43Z</time>
      </trkpt>
      <trkpt lat="46.75515" lon="5.63257">
        <ele>468.4</ele>
        <time>2022-05-27T13:01:44Z</time>
      </trkpt>
      <trkpt lat="46.75518" lon="5.63275">
        <ele>468.6</ele>
        <time>2022-05-27T13:01:46Z</time>
      </trkpt>
      <trkpt lat="46.75519" lon="5.63306">
        <ele>469.4</ele>
        <time>2022-05-27T13:01:50Z</time>
      </trkpt>
      <trkpt lat="46.75519" lon="5.6333">
        <ele>469.6</ele>
        <time>2022-05-27T13:01:53Z</time>
      </trkpt>
      <trkpt lat="46.75519" lon="5.63369">
        <ele>470</ele>
        <time>2022-05-27T13:01:58Z</time>
      </trkpt>
      <trkpt lat="46.7552" lon="5.63422">
        <ele>470.6</ele>
        <time>2022-05-27T13:02:05Z</time>
      </trkpt>
      <trkpt lat="46.7552" lon="5.6343">
        <ele>470.6</ele>
        <time>2022-05-27T13:02:06Z</time>
      </trkpt>
      <trkpt lat="46.75527" lon="5.63505">
        <ele>470.4</ele>
        <time>2022-05-27T13:02:15Z</time>
      </trkpt>
      <trkpt lat="46.75536" lon="5.6358">
        <ele>470</ele>
        <time>2022-05-27T13:02:23Z</time>
      </trkpt>
      <trkpt lat="46.75543" lon="5.63653">
        <ele>469.8</ele>
        <time>2022-05-27T13:02:31Z</time>
      </trkpt>
      <trkpt lat="46.75552" lon="5.63707">
        <ele>469.6</ele>
        <time>2022-05-27T13:02:37Z</time>
      </trkpt>
      <trkpt lat="46.75554" lon="5.63716">
        <ele>469.6</ele>
        <time>2022-05-27T13:02:38Z</time>
      </trkpt>
      <trkpt lat="46.75567" lon="5.63788">
        <ele>469.6</ele>
        <time>2022-05-27T13:02:46Z</time>
      </trkpt>
      <trkpt lat="46.75577" lon="5.63852">
        <ele>470.2</ele>
        <time>2022-05-27T13:02:54Z</time>
      </trkpt>
      <trkpt lat="46.75583" lon="5.63882">
        <ele>470.8</ele>
        <time>2022-05-27T13:02:58Z</time>
      </trkpt>
      <trkpt lat="46.7559" lon="5.63903">
        <ele>471.8</ele>
        <time>2022-05-27T13:03:01Z</time>
      </trkpt>
      <trkpt lat="46.75604" lon="5.63933">
        <ele>473</ele>
        <time>2022-05-27T13:03:06Z</time>
      </trkpt>
      <trkpt lat="46.7561" lon="5.63944">
        <ele>473.8</ele>
        <time>2022-05-27T13:03:08Z</time>
      </trkpt>
      <trkpt lat="46.75614" lon="5.63949">
        <ele>474</ele>
        <time>2022-05-27T13:03:09Z</time>
      </trkpt>
      <trkpt lat="46.75633" lon="5.63972">
        <ele>475.2</ele>
        <time>2022-05-27T13:03:14Z</time>
      </trkpt>
      <trkpt lat="46.75645" lon="5.63984">
        <ele>476</ele>
        <time>2022-05-27T13:03:17Z</time>
      </trkpt>
      <trkpt lat="46.75649" lon="5.63988">
        <ele>476.4</ele>
        <time>2022-05-27T13:03:18Z</time>
      </trkpt>
      <trkpt lat="46.75664" lon="5.64004">
        <ele>477.4</ele>
        <time>2022-05-27T13:03:22Z</time>
      </trkpt>
      <trkpt lat="46.75672" lon="5.64012">
        <ele>477.8</ele>
        <time>2022-05-27T13:03:24Z</time>
      </trkpt>
      <trkpt lat="46.75676" lon="5.64015">
        <ele>478</ele>
        <time>2022-05-27T13:03:25Z</time>
      </trkpt>
      <trkpt lat="46.75689" lon="5.64026">
        <ele>478.6</ele>
        <time>2022-05-27T13:03:28Z</time>
      </trkpt>
      <trkpt lat="46.75706" lon="5.64041">
        <ele>479.6</ele>
        <time>2022-05-27T13:03:32Z</time>
      </trkpt>
      <trkpt lat="46.7572" lon="5.64054">
        <ele>480</ele>
        <time>2022-05-27T13:03:35Z</time>
      </trkpt>
      <trkpt lat="46.75752" lon="5.64086">
        <ele>480.6</ele>
        <time>2022-05-27T13:03:42Z</time>
      </trkpt>
      <trkpt lat="46.75785" lon="5.64128">
        <ele>481</ele>
        <time>2022-05-27T13:03:50Z</time>
      </trkpt>
      <trkpt lat="46.75813" lon="5.64175">
        <ele>481.8</ele>
        <time>2022-05-27T13:03:58Z</time>
      </trkpt>
      <trkpt lat="46.75815" lon="5.64181">
        <ele>482</ele>
        <time>2022-05-27T13:03:59Z</time>
      </trkpt>
      <trkpt lat="46.75828" lon="5.64213">
        <ele>483</ele>
        <time>2022-05-27T13:04:04Z</time>
      </trkpt>
      <trkpt lat="46.75836" lon="5.64232">
        <ele>483.4</ele>
        <time>2022-05-27T13:04:07Z</time>
      </trkpt>
      <trkpt lat="46.75839" lon="5.64238">
        <ele>483.6</ele>
        <time>2022-05-27T13:04:08Z</time>
      </trkpt>
      <trkpt lat="46.75857" lon="5.64272">
        <ele>483.6</ele>
        <time>2022-05-27T13:04:13Z</time>
      </trkpt>
      <trkpt lat="46.75888" lon="5.64328">
        <ele>483.6</ele>
        <time>2022-05-27T13:04:20Z</time>
      </trkpt>
      <trkpt lat="46.75924" lon="5.64397">
        <ele>482</ele>
        <time>2022-05-27T13:04:28Z</time>
      </trkpt>
      <trkpt lat="46.75928" lon="5.64406">
        <ele>481.8</ele>
        <time>2022-05-27T13:04:29Z</time>
      </trkpt>
      <trkpt lat="46.75956" lon="5.64471">
        <ele>480.8</ele>
        <time>2022-05-27T13:04:36Z</time>
      </trkpt>
      <trkpt lat="46.75979" lon="5.64546">
        <ele>480.4</ele>
        <time>2022-05-27T13:04:44Z</time>
      </trkpt>
      <trkpt lat="46.75993" lon="5.64623">
        <ele>480.2</ele>
        <time>2022-05-27T13:04:52Z</time>
      </trkpt>
      <trkpt lat="46.76006" lon="5.64698">
        <ele>480.4</ele>
        <time>2022-05-27T13:05:00Z</time>
      </trkpt>
      <trkpt lat="46.7602" lon="5.64759">
        <ele>480.6</ele>
        <time>2022-05-27T13:05:07Z</time>
      </trkpt>
      <trkpt lat="46.76035" lon="5.64831">
        <ele>481.2</ele>
        <time>2022-05-27T13:05:16Z</time>
      </trkpt>
      <trkpt lat="46.76043" lon="5.64873">
        <ele>482</ele>
        <time>2022-05-27T13:05:22Z</time>
      </trkpt>
      <trkpt lat="46.76045" lon="5.64879">
        <ele>482.2</ele>
        <time>2022-05-27T13:05:23Z</time>
      </trkpt>
      <trkpt lat="46.76051" lon="5.64905">
        <ele>483.2</ele>
        <time>2022-05-27T13:05:27Z</time>
      </trkpt>
      <trkpt lat="46.76058" lon="5.64928">
        <ele>483.8</ele>
        <time>2022-05-27T13:05:31Z</time>
      </trkpt>
      <trkpt lat="46.76063" lon="5.64947">
        <ele>484.4</ele>
        <time>2022-05-27T13:05:34Z</time>
      </trkpt>
      <trkpt lat="46.76069" lon="5.64981">
        <ele>485</ele>
        <time>2022-05-27T13:05:39Z</time>
      </trkpt>
      <trkpt lat="46.76069" lon="5.64995">
        <ele>485.4</ele>
        <time>2022-05-27T13:05:41Z</time>
      </trkpt>
      <trkpt lat="46.76068" lon="5.65023">
        <ele>485.8</ele>
        <time>2022-05-27T13:05:45Z</time>
      </trkpt>
      <trkpt lat="46.76065" lon="5.65049">
        <ele>486.4</ele>
        <time>2022-05-27T13:05:49Z</time>
      </trkpt>
      <trkpt lat="46.76062" lon="5.65069">
        <ele>487.8</ele>
        <time>2022-05-27T13:05:52Z</time>
      </trkpt>
      <trkpt lat="46.76059" lon="5.651">
        <ele>488.8</ele>
        <time>2022-05-27T13:05:57Z</time>
      </trkpt>
      <trkpt lat="46.76056" lon="5.65119">
        <ele>489.2</ele>
        <time>2022-05-27T13:06:00Z</time>
      </trkpt>
      <trkpt lat="46.76055" lon="5.65137">
        <ele>490</ele>
        <time>2022-05-27T13:06:03Z</time>
      </trkpt>
      <trkpt lat="46.76054" lon="5.65143">
        <ele>490</ele>
        <time>2022-05-27T13:06:04Z</time>
      </trkpt>
      <trkpt lat="46.76052" lon="5.6516">
        <ele>490.8</ele>
        <time>2022-05-27T13:06:07Z</time>
      </trkpt>
      <trkpt lat="46.76052" lon="5.65166">
        <ele>491</ele>
        <time>2022-05-27T13:06:08Z</time>
      </trkpt>
      <trkpt lat="46.76048" lon="5.65207">
        <ele>492.2</ele>
        <time>2022-05-27T13:06:15Z</time>
      </trkpt>
      <trkpt lat="46.76047" lon="5.65218">
        <ele>492.4</ele>
        <time>2022-05-27T13:06:17Z</time>
      </trkpt>
      <trkpt lat="46.76046" lon="5.65247">
        <ele>493.6</ele>
        <time>2022-05-27T13:06:22Z</time>
      </trkpt>
      <trkpt lat="46.76045" lon="5.65275">
        <ele>494.8</ele>
        <time>2022-05-27T13:06:27Z</time>
      </trkpt>
      <trkpt lat="46.76045" lon="5.65281">
        <ele>494.8</ele>
        <time>2022-05-27T13:06:28Z</time>
      </trkpt>
      <trkpt lat="46.76043" lon="5.65316">
        <ele>496</ele>
        <time>2022-05-27T13:06:34Z</time>
      </trkpt>
      <trkpt lat="46.76043" lon="5.65344">
        <ele>496.6</ele>
        <time>2022-05-27T13:06:39Z</time>
      </trkpt>
      <trkpt lat="46.76042" lon="5.65362">
        <ele>497</ele>
        <time>2022-05-27T13:06:42Z</time>
      </trkpt>
      <trkpt lat="46.7604" lon="5.65399">
        <ele>497.6</ele>
        <time>2022-05-27T13:06:48Z</time>
      </trkpt>
      <trkpt lat="46.76039" lon="5.65425">
        <ele>498</ele>
        <time>2022-05-27T13:06:52Z</time>
      </trkpt>
      <trkpt lat="46.76039" lon="5.65473">
        <ele>498.6</ele>
        <time>2022-05-27T13:06:59Z</time>
      </trkpt>
      <trkpt lat="46.76039" lon="5.65507">
        <ele>499</ele>
        <time>2022-05-27T13:07:04Z</time>
      </trkpt>
      <trkpt lat="46.76039" lon="5.65554">
        <ele>500</ele>
        <time>2022-05-27T13:07:11Z</time>
      </trkpt>
      <trkpt lat="46.76039" lon="5.65561">
        <ele>500.2</ele>
        <time>2022-05-27T13:07:12Z</time>
      </trkpt>
      <trkpt lat="46.76038" lon="5.65588">
        <ele>501.4</ele>
        <time>2022-05-27T13:07:16Z</time>
      </trkpt>
      <trkpt lat="46.76037" lon="5.65601">
        <ele>502</ele>
        <time>2022-05-27T13:07:18Z</time>
      </trkpt>
      <trkpt lat="46.76036" lon="5.65615">
        <ele>502.4</ele>
        <time>2022-05-27T13:07:20Z</time>
      </trkpt>
      <trkpt lat="46.76037" lon="5.65626">
        <ele>503</ele>
        <time>2022-05-27T13:07:22Z</time>
      </trkpt>
      <trkpt lat="46.76038" lon="5.65639">
        <ele>503.6</ele>
        <time>2022-05-27T13:07:24Z</time>
      </trkpt>
      <trkpt lat="46.76038" lon="5.65645">
        <ele>504.2</ele>
        <time>2022-05-27T13:07:25Z</time>
      </trkpt>
      <trkpt lat="46.76039" lon="5.65652">
        <ele>504</ele>
        <time>2022-05-27T13:07:26Z</time>
      </trkpt>
      <trkpt lat="46.76043" lon="5.65668">
        <ele>504.8</ele>
        <time>2022-05-27T13:07:29Z</time>
      </trkpt>
      <trkpt lat="46.76045" lon="5.65672">
        <ele>505.2</ele>
        <time>2022-05-27T13:07:30Z</time>
      </trkpt>
      <trkpt lat="46.76052" lon="5.65686">
        <ele>506.2</ele>
        <time>2022-05-27T13:07:33Z</time>
      </trkpt>
      <trkpt lat="46.76062" lon="5.65704">
        <ele>507.4</ele>
        <time>2022-05-27T13:07:37Z</time>
      </trkpt>
      <trkpt lat="46.76073" lon="5.65718">
        <ele>508.4</ele>
        <time>2022-05-27T13:07:41Z</time>
      </trkpt>
      <trkpt lat="46.76079" lon="5.65724">
        <ele>509.2</ele>
        <time>2022-05-27T13:07:43Z</time>
      </trkpt>
      <trkpt lat="46.76086" lon="5.65731">
        <ele>510</ele>
        <time>2022-05-27T13:07:45Z</time>
      </trkpt>
      <trkpt lat="46.76097" lon="5.65741">
        <ele>511</ele>
        <time>2022-05-27T13:07:50Z</time>
      </trkpt>
      <trkpt lat="46.76107" lon="5.65754">
        <ele>511.6</ele>
        <time>2022-05-27T13:07:54Z</time>
      </trkpt>
      <trkpt lat="46.76111" lon="5.65758">
        <ele>511.6</ele>
        <time>2022-05-27T13:07:55Z</time>
      </trkpt>
      <trkpt lat="46.76123" lon="5.65772">
        <ele>512</ele>
        <time>2022-05-27T13:07:58Z</time>
      </trkpt>
      <trkpt lat="46.76127" lon="5.65773">
        <ele>512.4</ele>
        <time>2022-05-27T13:07:59Z</time>
      </trkpt>
      <trkpt lat="46.76139" lon="5.6578">
        <ele>513</ele>
        <time>2022-05-27T13:08:04Z</time>
      </trkpt>
      <trkpt lat="46.76146" lon="5.65786">
        <ele>513.4</ele>
        <time>2022-05-27T13:08:06Z</time>
      </trkpt>
      <trkpt lat="46.76156" lon="5.65793">
        <ele>513.8</ele>
        <time>2022-05-27T13:08:09Z</time>
      </trkpt>
      <trkpt lat="46.7617" lon="5.65803">
        <ele>514.6</ele>
        <time>2022-05-27T13:08:13Z</time>
      </trkpt>
      <trkpt lat="46.76184" lon="5.65814">
        <ele>515.6</ele>
        <time>2022-05-27T13:08:18Z</time>
      </trkpt>
      <trkpt lat="46.76193" lon="5.65821">
        <ele>516.2</ele>
        <time>2022-05-27T13:08:22Z</time>
      </trkpt>
      <trkpt lat="46.76196" lon="5.65823">
        <ele>516.6</ele>
        <time>2022-05-27T13:08:23Z</time>
      </trkpt>
      <trkpt lat="46.76211" lon="5.65839">
        <ele>517.8</ele>
        <time>2022-05-27T13:08:28Z</time>
      </trkpt>
      <trkpt lat="46.76226" lon="5.65855">
        <ele>518.4</ele>
        <time>2022-05-27T13:08:32Z</time>
      </trkpt>
      <trkpt lat="46.76232" lon="5.65865">
        <ele>518.6</ele>
        <time>2022-05-27T13:08:34Z</time>
      </trkpt>
      <trkpt lat="46.76234" lon="5.65868">
        <ele>518.8</ele>
        <time>2022-05-27T13:08:35Z</time>
      </trkpt>
      <trkpt lat="46.76237" lon="5.65873">
        <ele>519.2</ele>
        <time>2022-05-27T13:08:36Z</time>
      </trkpt>
      <trkpt lat="46.76245" lon="5.65888">
        <ele>519.8</ele>
        <time>2022-05-27T13:08:39Z</time>
      </trkpt>
      <trkpt lat="46.76246" lon="5.65892">
        <ele>520</ele>
        <time>2022-05-27T13:08:40Z</time>
      </trkpt>
      <trkpt lat="46.76254" lon="5.6591">
        <ele>521.2</ele>
        <time>2022-05-27T13:08:44Z</time>
      </trkpt>
      <trkpt lat="46.76256" lon="5.65915">
        <ele>521.4</ele>
        <time>2022-05-27T13:08:45Z</time>
      </trkpt>
      <trkpt lat="46.76265" lon="5.65928">
        <ele>522.2</ele>
        <time>2022-05-27T13:08:48Z</time>
      </trkpt>
      <trkpt lat="46.76273" lon="5.6594">
        <ele>522.8</ele>
        <time>2022-05-27T13:08:51Z</time>
      </trkpt>
      <trkpt lat="46.76279" lon="5.65951">
        <ele>523.4</ele>
        <time>2022-05-27T13:08:53Z</time>
      </trkpt>
      <trkpt lat="46.76291" lon="5.65969">
        <ele>523.8</ele>
        <time>2022-05-27T13:08:56Z</time>
      </trkpt>
      <trkpt lat="46.76296" lon="5.65978">
        <ele>524.2</ele>
        <time>2022-05-27T13:08:58Z</time>
      </trkpt>
      <trkpt lat="46.763" lon="5.65981">
        <ele>524.8</ele>
        <time>2022-05-27T13:09:00Z</time>
      </trkpt>
      <trkpt lat="46.76309" lon="5.65986">
        <ele>525.2</ele>
        <time>2022-05-27T13:09:02Z</time>
      </trkpt>
      <trkpt lat="46.76313" lon="5.65987">
        <ele>525.2</ele>
        <time>2022-05-27T13:09:03Z</time>
      </trkpt>
      <trkpt lat="46.76317" lon="5.6599">
        <ele>525.6</ele>
        <time>2022-05-27T13:09:05Z</time>
      </trkpt>
      <trkpt lat="46.76324" lon="5.65999">
        <ele>526.6</ele>
        <time>2022-05-27T13:09:07Z</time>
      </trkpt>
      <trkpt lat="46.76339" lon="5.6602">
        <ele>527.8</ele>
        <time>2022-05-27T13:09:11Z</time>
      </trkpt>
      <trkpt lat="46.76342" lon="5.66024">
        <ele>528</ele>
        <time>2022-05-27T13:09:12Z</time>
      </trkpt>
      <trkpt lat="46.76352" lon="5.6604">
        <ele>528.8</ele>
        <time>2022-05-27T13:09:16Z</time>
      </trkpt>
      <trkpt lat="46.76367" lon="5.66059">
        <ele>530</ele>
        <time>2022-05-27T13:09:21Z</time>
      </trkpt>
      <trkpt lat="46.7637" lon="5.66061">
        <ele>530.2</ele>
        <time>2022-05-27T13:09:22Z</time>
      </trkpt>
      <trkpt lat="46.76372" lon="5.66063">
        <ele>530.4</ele>
        <time>2022-05-27T13:09:23Z</time>
      </trkpt>
      <trkpt lat="46.76374" lon="5.66067">
        <ele>530.6</ele>
        <time>2022-05-27T13:09:24Z</time>
      </trkpt>
      <trkpt lat="46.76378" lon="5.66074">
        <ele>530.8</ele>
        <time>2022-05-27T13:09:25Z</time>
      </trkpt>
      <trkpt lat="46.76389" lon="5.6609">
        <ele>531.6</ele>
        <time>2022-05-27T13:09:28Z</time>
      </trkpt>
      <trkpt lat="46.76401" lon="5.66101">
        <ele>532</ele>
        <time>2022-05-27T13:09:31Z</time>
      </trkpt>
      <trkpt lat="46.7642" lon="5.66118">
        <ele>533.2</ele>
        <time>2022-05-27T13:09:35Z</time>
      </trkpt>
      <trkpt lat="46.76438" lon="5.66146">
        <ele>534.2</ele>
        <time>2022-05-27T13:09:42Z</time>
      </trkpt>
      <trkpt lat="46.76442" lon="5.66164">
        <ele>535</ele>
        <time>2022-05-27T13:09:47Z</time>
      </trkpt>
      <trkpt lat="46.76444" lon="5.66165">
        <ele>535.2</ele>
        <time>2022-05-27T13:09:48Z</time>
      </trkpt>
      <trkpt lat="46.76447" lon="5.6617">
        <ele>535.4</ele>
        <time>2022-05-27T13:09:50Z</time>
      </trkpt>
      <trkpt lat="46.76448" lon="5.66172">
        <ele>535.6</ele>
        <time>2022-05-27T13:09:51Z</time>
      </trkpt>
      <trkpt lat="46.76454" lon="5.66181">
        <ele>536.4</ele>
        <time>2022-05-27T13:09:55Z</time>
      </trkpt>
      <trkpt lat="46.76455" lon="5.66184">
        <ele>536.4</ele>
        <time>2022-05-27T13:09:56Z</time>
      </trkpt>
      <trkpt lat="46.76459" lon="5.66193">
        <ele>537.2</ele>
        <time>2022-05-27T13:09:59Z</time>
      </trkpt>
      <trkpt lat="46.76462" lon="5.66197">
        <ele>537.6</ele>
        <time>2022-05-27T13:10:00Z</time>
      </trkpt>
      <trkpt lat="46.76468" lon="5.66206">
        <ele>537.8</ele>
        <time>2022-05-27T13:10:02Z</time>
      </trkpt>
      <trkpt lat="46.76475" lon="5.66214">
        <ele>538.4</ele>
        <time>2022-05-27T13:10:04Z</time>
      </trkpt>
      <trkpt lat="46.76477" lon="5.66218">
        <ele>538.8</ele>
        <time>2022-05-27T13:10:05Z</time>
      </trkpt>
      <trkpt lat="46.7648" lon="5.66225">
        <ele>539</ele>
        <time>2022-05-27T13:10:07Z</time>
      </trkpt>
      <trkpt lat="46.76486" lon="5.6624">
        <ele>539.4</ele>
        <time>2022-05-27T13:10:10Z</time>
      </trkpt>
      <trkpt lat="46.76489" lon="5.66246">
        <ele>539.8</ele>
        <time>2022-05-27T13:10:11Z</time>
      </trkpt>
      <trkpt lat="46.76491" lon="5.66251">
        <ele>540</ele>
        <time>2022-05-27T13:10:12Z</time>
      </trkpt>
      <trkpt lat="46.76497" lon="5.66264">
        <ele>540.6</ele>
        <time>2022-05-27T13:10:14Z</time>
      </trkpt>
      <trkpt lat="46.76514" lon="5.66283">
        <ele>541.4</ele>
        <time>2022-05-27T13:10:18Z</time>
      </trkpt>
      <trkpt lat="46.76518" lon="5.66288">
        <ele>541.6</ele>
        <time>2022-05-27T13:10:19Z</time>
      </trkpt>
      <trkpt lat="46.76529" lon="5.66305">
        <ele>542</ele>
        <time>2022-05-27T13:10:22Z</time>
      </trkpt>
      <trkpt lat="46.76531" lon="5.6631">
        <ele>542.2</ele>
        <time>2022-05-27T13:10:23Z</time>
      </trkpt>
      <trkpt lat="46.76537" lon="5.66318">
        <ele>542.8</ele>
        <time>2022-05-27T13:10:25Z</time>
      </trkpt>
      <trkpt lat="46.76538" lon="5.66323">
        <ele>543</ele>
        <time>2022-05-27T13:10:26Z</time>
      </trkpt>
      <trkpt lat="46.76539" lon="5.66327">
        <ele>543</ele>
        <time>2022-05-27T13:10:27Z</time>
      </trkpt>
      <trkpt lat="46.76542" lon="5.66333">
        <ele>543.2</ele>
        <time>2022-05-27T13:10:28Z</time>
      </trkpt>
      <trkpt lat="46.76552" lon="5.66348">
        <ele>543.8</ele>
        <time>2022-05-27T13:10:31Z</time>
      </trkpt>
      <trkpt lat="46.76554" lon="5.66352">
        <ele>544.2</ele>
        <time>2022-05-27T13:10:32Z</time>
      </trkpt>
      <trkpt lat="46.7656" lon="5.66361">
        <ele>544.8</ele>
        <time>2022-05-27T13:10:35Z</time>
      </trkpt>
      <trkpt lat="46.76563" lon="5.66366">
        <ele>545.2</ele>
        <time>2022-05-27T13:10:37Z</time>
      </trkpt>
      <trkpt lat="46.76569" lon="5.66374">
        <ele>545.8</ele>
        <time>2022-05-27T13:10:39Z</time>
      </trkpt>
      <trkpt lat="46.76576" lon="5.66392">
        <ele>546.8</ele>
        <time>2022-05-27T13:10:43Z</time>
      </trkpt>
      <trkpt lat="46.76578" lon="5.66395">
        <ele>546.8</ele>
        <time>2022-05-27T13:10:44Z</time>
      </trkpt>
      <trkpt lat="46.76586" lon="5.66413">
        <ele>547.4</ele>
        <time>2022-05-27T13:10:48Z</time>
      </trkpt>
      <trkpt lat="46.76592" lon="5.66427">
        <ele>548</ele>
        <time>2022-05-27T13:10:51Z</time>
      </trkpt>
      <trkpt lat="46.76598" lon="5.66436">
        <ele>548.6</ele>
        <time>2022-05-27T13:10:54Z</time>
      </trkpt>
      <trkpt lat="46.76607" lon="5.66448">
        <ele>549</ele>
        <time>2022-05-27T13:10:57Z</time>
      </trkpt>
      <trkpt lat="46.76613" lon="5.66458">
        <ele>549.4</ele>
        <time>2022-05-27T13:10:59Z</time>
      </trkpt>
      <trkpt lat="46.76617" lon="5.66464">
        <ele>549.4</ele>
        <time>2022-05-27T13:11:00Z</time>
      </trkpt>
      <trkpt lat="46.76632" lon="5.66487">
        <ele>549.8</ele>
        <time>2022-05-27T13:11:03Z</time>
      </trkpt>
      <trkpt lat="46.76634" lon="5.66492">
        <ele>550.4</ele>
        <time>2022-05-27T13:11:04Z</time>
      </trkpt>
      <trkpt lat="46.76637" lon="5.66507">
        <ele>551.2</ele>
        <time>2022-05-27T13:11:06Z</time>
      </trkpt>
      <trkpt lat="46.76638" lon="5.66515">
        <ele>551.4</ele>
        <time>2022-05-27T13:11:07Z</time>
      </trkpt>
      <trkpt lat="46.76637" lon="5.66521">
        <ele>551.6</ele>
        <time>2022-05-27T13:11:08Z</time>
      </trkpt>
      <trkpt lat="46.76635" lon="5.66534">
        <ele>552</ele>
        <time>2022-05-27T13:11:10Z</time>
      </trkpt>
      <trkpt lat="46.76633" lon="5.66549">
        <ele>552.6</ele>
        <time>2022-05-27T13:11:12Z</time>
      </trkpt>
      <trkpt lat="46.76632" lon="5.66555">
        <ele>552.8</ele>
        <time>2022-05-27T13:11:13Z</time>
      </trkpt>
      <trkpt lat="46.76625" lon="5.6657">
        <ele>553.6</ele>
        <time>2022-05-27T13:11:16Z</time>
      </trkpt>
      <trkpt lat="46.76624" lon="5.66575">
        <ele>553.8</ele>
        <time>2022-05-27T13:11:17Z</time>
      </trkpt>
      <trkpt lat="46.76617" lon="5.66589">
        <ele>554.8</ele>
        <time>2022-05-27T13:11:20Z</time>
      </trkpt>
      <trkpt lat="46.76611" lon="5.66597">
        <ele>555.2</ele>
        <time>2022-05-27T13:11:22Z</time>
      </trkpt>
      <trkpt lat="46.76604" lon="5.66604">
        <ele>555.8</ele>
        <time>2022-05-27T13:11:24Z</time>
      </trkpt>
      <trkpt lat="46.76598" lon="5.6661">
        <ele>557</ele>
        <time>2022-05-27T13:11:26Z</time>
      </trkpt>
      <trkpt lat="46.76591" lon="5.66615">
        <ele>557.6</ele>
        <time>2022-05-27T13:11:28Z</time>
      </trkpt>
      <trkpt lat="46.7658" lon="5.66625">
        <ele>557.8</ele>
        <time>2022-05-27T13:11:31Z</time>
      </trkpt>
      <trkpt lat="46.76576" lon="5.66628">
        <ele>558</ele>
        <time>2022-05-27T13:11:32Z</time>
      </trkpt>
      <trkpt lat="46.76572" lon="5.66632">
        <ele>558.2</ele>
        <time>2022-05-27T13:11:33Z</time>
      </trkpt>
      <trkpt lat="46.76565" lon="5.66639">
        <ele>558.4</ele>
        <time>2022-05-27T13:11:35Z</time>
      </trkpt>
      <trkpt lat="46.76552" lon="5.66649">
        <ele>558.4</ele>
        <time>2022-05-27T13:11:38Z</time>
      </trkpt>
      <trkpt lat="46.7653" lon="5.66667">
        <ele>558.4</ele>
        <time>2022-05-27T13:11:42Z</time>
      </trkpt>
      <trkpt lat="46.76524" lon="5.66672">
        <ele>558.4</ele>
        <time>2022-05-27T13:11:43Z</time>
      </trkpt>
      <trkpt lat="46.76499" lon="5.66693">
        <ele>558</ele>
        <time>2022-05-27T13:11:47Z</time>
      </trkpt>
      <trkpt lat="46.76494" lon="5.66698">
        <ele>557.8</ele>
        <time>2022-05-27T13:11:48Z</time>
      </trkpt>
      <trkpt lat="46.76473" lon="5.66721">
        <ele>557.4</ele>
        <time>2022-05-27T13:11:51Z</time>
      </trkpt>
      <trkpt lat="46.76463" lon="5.66741">
        <ele>556.6</ele>
        <time>2022-05-27T13:11:53Z</time>
      </trkpt>
      <trkpt lat="46.76456" lon="5.66765">
        <ele>556.2</ele>
        <time>2022-05-27T13:11:55Z</time>
      </trkpt>
      <trkpt lat="46.76454" lon="5.66776">
        <ele>555.6</ele>
        <time>2022-05-27T13:11:56Z</time>
      </trkpt>
      <trkpt lat="46.76453" lon="5.66791">
        <ele>555.2</ele>
        <time>2022-05-27T13:11:57Z</time>
      </trkpt>
      <trkpt lat="46.76453" lon="5.66801">
        <ele>554.6</ele>
        <time>2022-05-27T13:11:58Z</time>
      </trkpt>
      <trkpt lat="46.76453" lon="5.66816">
        <ele>554.4</ele>
        <time>2022-05-27T13:11:59Z</time>
      </trkpt>
      <trkpt lat="46.76454" lon="5.66854">
        <ele>553.4</ele>
        <time>2022-05-27T13:12:02Z</time>
      </trkpt>
      <trkpt lat="46.76456" lon="5.6688">
        <ele>552.6</ele>
        <time>2022-05-27T13:12:04Z</time>
      </trkpt>
      <trkpt lat="46.76456" lon="5.66894">
        <ele>551.8</ele>
        <time>2022-05-27T13:12:05Z</time>
      </trkpt>
      <trkpt lat="46.76457" lon="5.66904">
        <ele>551.8</ele>
        <time>2022-05-27T13:12:06Z</time>
      </trkpt>
      <trkpt lat="46.76459" lon="5.66928">
        <ele>550.4</ele>
        <time>2022-05-27T13:12:08Z</time>
      </trkpt>
      <trkpt lat="46.76463" lon="5.66954">
        <ele>549.6</ele>
        <time>2022-05-27T13:12:10Z</time>
      </trkpt>
      <trkpt lat="46.76469" lon="5.67003">
        <ele>549.4</ele>
        <time>2022-05-27T13:12:14Z</time>
      </trkpt>
      <trkpt lat="46.76472" lon="5.67027">
        <ele>549.2</ele>
        <time>2022-05-27T13:12:16Z</time>
      </trkpt>
      <trkpt lat="46.76474" lon="5.67038">
        <ele>549</ele>
        <time>2022-05-27T13:12:17Z</time>
      </trkpt>
      <trkpt lat="46.76482" lon="5.67087">
        <ele>548.6</ele>
        <time>2022-05-27T13:12:21Z</time>
      </trkpt>
      <trkpt lat="46.76487" lon="5.6712">
        <ele>548.2</ele>
        <time>2022-05-27T13:12:24Z</time>
      </trkpt>
      <trkpt lat="46.76488" lon="5.67133">
        <ele>548</ele>
        <time>2022-05-27T13:12:25Z</time>
      </trkpt>
      <trkpt lat="46.7649" lon="5.6716">
        <ele>547.8</ele>
        <time>2022-05-27T13:12:27Z</time>
      </trkpt>
      <trkpt lat="46.76495" lon="5.67193">
        <ele>547</ele>
        <time>2022-05-27T13:12:30Z</time>
      </trkpt>
      <trkpt lat="46.76497" lon="5.67204">
        <ele>546.8</ele>
        <time>2022-05-27T13:12:31Z</time>
      </trkpt>
      <trkpt lat="46.765" lon="5.67226">
        <ele>546.6</ele>
        <time>2022-05-27T13:12:33Z</time>
      </trkpt>
      <trkpt lat="46.76503" lon="5.6725">
        <ele>546.2</ele>
        <time>2022-05-27T13:12:35Z</time>
      </trkpt>
      <trkpt lat="46.76507" lon="5.67272">
        <ele>546.2</ele>
        <time>2022-05-27T13:12:37Z</time>
      </trkpt>
      <trkpt lat="46.76519" lon="5.67337">
        <ele>545.6</ele>
        <time>2022-05-27T13:12:42Z</time>
      </trkpt>
      <trkpt lat="46.7653" lon="5.67391">
        <ele>544</ele>
        <time>2022-05-27T13:12:46Z</time>
      </trkpt>
      <trkpt lat="46.76536" lon="5.67431">
        <ele>542.8</ele>
        <time>2022-05-27T13:12:49Z</time>
      </trkpt>
      <trkpt lat="46.76538" lon="5.67439">
        <ele>542.6</ele>
        <time>2022-05-27T13:12:50Z</time>
      </trkpt>
      <trkpt lat="46.76546" lon="5.67496">
        <ele>542.2</ele>
        <time>2022-05-27T13:12:55Z</time>
      </trkpt>
      <trkpt lat="46.76555" lon="5.6755">
        <ele>542.8</ele>
        <time>2022-05-27T13:13:01Z</time>
      </trkpt>
      <trkpt lat="46.76567" lon="5.67604">
        <ele>543.4</ele>
        <time>2022-05-27T13:13:07Z</time>
      </trkpt>
      <trkpt lat="46.7658" lon="5.67657">
        <ele>543.6</ele>
        <time>2022-05-27T13:13:12Z</time>
      </trkpt>
      <trkpt lat="46.76593" lon="5.6773">
        <ele>541.8</ele>
        <time>2022-05-27T13:13:18Z</time>
      </trkpt>
      <trkpt lat="46.76595" lon="5.67743">
        <ele>541.6</ele>
        <time>2022-05-27T13:13:19Z</time>
      </trkpt>
      <trkpt lat="46.766" lon="5.67799">
        <ele>540.4</ele>
        <time>2022-05-27T13:13:23Z</time>
      </trkpt>
      <trkpt lat="46.76602" lon="5.67813">
        <ele>539.2</ele>
        <time>2022-05-27T13:13:24Z</time>
      </trkpt>
      <trkpt lat="46.76603" lon="5.67828">
        <ele>538.8</ele>
        <time>2022-05-27T13:13:25Z</time>
      </trkpt>
      <trkpt lat="46.76606" lon="5.67857">
        <ele>538</ele>
        <time>2022-05-27T13:13:27Z</time>
      </trkpt>
      <trkpt lat="46.76608" lon="5.67885">
        <ele>536.6</ele>
        <time>2022-05-27T13:13:29Z</time>
      </trkpt>
      <trkpt lat="46.76612" lon="5.67926">
        <ele>535.8</ele>
        <time>2022-05-27T13:13:32Z</time>
      </trkpt>
      <trkpt lat="46.76614" lon="5.67951">
        <ele>535.4</ele>
        <time>2022-05-27T13:13:34Z</time>
      </trkpt>
      <trkpt lat="46.76616" lon="5.67997">
        <ele>535.2</ele>
        <time>2022-05-27T13:13:38Z</time>
      </trkpt>
      <trkpt lat="46.76618" lon="5.68082">
        <ele>536.2</ele>
        <time>2022-05-27T13:13:46Z</time>
      </trkpt>
      <trkpt lat="46.76618" lon="5.68167">
        <ele>536.2</ele>
        <time>2022-05-27T13:13:54Z</time>
      </trkpt>
      <trkpt lat="46.76618" lon="5.68188">
        <ele>536.2</ele>
        <time>2022-05-27T13:13:56Z</time>
      </trkpt>
      <trkpt lat="46.7662" lon="5.6822">
        <ele>536.8</ele>
        <time>2022-05-27T13:13:59Z</time>
      </trkpt>
      <trkpt lat="46.76624" lon="5.68254">
        <ele>536.2</ele>
        <time>2022-05-27T13:14:02Z</time>
      </trkpt>
      <trkpt lat="46.76636" lon="5.68327">
        <ele>535</ele>
        <time>2022-05-27T13:14:08Z</time>
      </trkpt>
      <trkpt lat="46.76641" lon="5.6838">
        <ele>534</ele>
        <time>2022-05-27T13:14:12Z</time>
      </trkpt>
      <trkpt lat="46.76641" lon="5.68397">
        <ele>533.6</ele>
        <time>2022-05-27T13:14:13Z</time>
      </trkpt>
      <trkpt lat="46.76641" lon="5.68425">
        <ele>532.4</ele>
        <time>2022-05-27T13:14:15Z</time>
      </trkpt>
      <trkpt lat="46.76641" lon="5.68475">
        <ele>531.4</ele>
        <time>2022-05-27T13:14:19Z</time>
      </trkpt>
      <trkpt lat="46.7664" lon="5.68502">
        <ele>531</ele>
        <time>2022-05-27T13:14:21Z</time>
      </trkpt>
      <trkpt lat="46.7664" lon="5.6857">
        <ele>531</ele>
        <time>2022-05-27T13:14:27Z</time>
      </trkpt>
      <trkpt lat="46.7664" lon="5.68645">
        <ele>531.8</ele>
        <time>2022-05-27T13:14:34Z</time>
      </trkpt>
      <trkpt lat="46.7664" lon="5.68684">
        <ele>532.6</ele>
        <time>2022-05-27T13:14:38Z</time>
      </trkpt>
      <trkpt lat="46.7664" lon="5.68713">
        <ele>532.8</ele>
        <time>2022-05-27T13:14:41Z</time>
      </trkpt>
      <trkpt lat="46.76642" lon="5.68761">
        <ele>533.6</ele>
        <time>2022-05-27T13:14:46Z</time>
      </trkpt>
      <trkpt lat="46.76641" lon="5.68806">
        <ele>534.8</ele>
        <time>2022-05-27T13:14:51Z</time>
      </trkpt>
      <trkpt lat="46.76641" lon="5.68815">
        <ele>535</ele>
        <time>2022-05-27T13:14:52Z</time>
      </trkpt>
      <trkpt lat="46.76641" lon="5.68875">
        <ele>536</ele>
        <time>2022-05-27T13:14:59Z</time>
      </trkpt>
      <trkpt lat="46.76641" lon="5.6889">
        <ele>536.2</ele>
        <time>2022-05-27T13:15:01Z</time>
      </trkpt>
      <trkpt lat="46.7664" lon="5.68921">
        <ele>537</ele>
        <time>2022-05-27T13:15:05Z</time>
      </trkpt>
      <trkpt lat="46.76641" lon="5.68944">
        <ele>537.4</ele>
        <time>2022-05-27T13:15:08Z</time>
      </trkpt>
      <trkpt lat="46.76642" lon="5.6896">
        <ele>538</ele>
        <time>2022-05-27T13:15:10Z</time>
      </trkpt>
      <trkpt lat="46.76646" lon="5.69023">
        <ele>539</ele>
        <time>2022-05-27T13:15:18Z</time>
      </trkpt>
      <trkpt lat="46.76648" lon="5.6904">
        <ele>539.2</ele>
        <time>2022-05-27T13:15:20Z</time>
      </trkpt>
      <trkpt lat="46.76651" lon="5.69072">
        <ele>540</ele>
        <time>2022-05-27T13:15:24Z</time>
      </trkpt>
      <trkpt lat="46.76655" lon="5.69103">
        <ele>540.6</ele>
        <time>2022-05-27T13:15:28Z</time>
      </trkpt>
      <trkpt lat="46.76659" lon="5.69133">
        <ele>541.2</ele>
        <time>2022-05-27T13:15:32Z</time>
      </trkpt>
      <trkpt lat="46.76661" lon="5.69157">
        <ele>541.4</ele>
        <time>2022-05-27T13:15:35Z</time>
      </trkpt>
      <trkpt lat="46.76662" lon="5.69165">
        <ele>541.6</ele>
        <time>2022-05-27T13:15:36Z</time>
      </trkpt>
      <trkpt lat="46.76666" lon="5.69196">
        <ele>542.2</ele>
        <time>2022-05-27T13:15:40Z</time>
      </trkpt>
      <trkpt lat="46.76668" lon="5.69221">
        <ele>542.6</ele>
        <time>2022-05-27T13:15:43Z</time>
      </trkpt>
      <trkpt lat="46.76679" lon="5.69283">
        <ele>542.2</ele>
        <time>2022-05-27T13:15:50Z</time>
      </trkpt>
      <trkpt lat="46.76691" lon="5.69334">
        <ele>541.4</ele>
        <time>2022-05-27T13:15:55Z</time>
      </trkpt>
      <trkpt lat="46.76695" lon="5.69355">
        <ele>541</ele>
        <time>2022-05-27T13:15:57Z</time>
      </trkpt>
      <trkpt lat="46.76695" lon="5.69377">
        <ele>540.8</ele>
        <time>2022-05-27T13:15:59Z</time>
      </trkpt>
      <trkpt lat="46.76692" lon="5.69403">
        <ele>540.2</ele>
        <time>2022-05-27T13:16:01Z</time>
      </trkpt>
      <trkpt lat="46.7669" lon="5.69416">
        <ele>540.2</ele>
        <time>2022-05-27T13:16:02Z</time>
      </trkpt>
      <trkpt lat="46.76686" lon="5.69427">
        <ele>539.6</ele>
        <time>2022-05-27T13:16:03Z</time>
      </trkpt>
      <trkpt lat="46.76681" lon="5.69437">
        <ele>539</ele>
        <time>2022-05-27T13:16:04Z</time>
      </trkpt>
      <trkpt lat="46.76666" lon="5.69451">
        <ele>538.2</ele>
        <time>2022-05-27T13:16:06Z</time>
      </trkpt>
      <trkpt lat="46.76654" lon="5.69455">
        <ele>538.2</ele>
        <time>2022-05-27T13:16:07Z</time>
      </trkpt>
      <trkpt lat="46.76642" lon="5.69457">
        <ele>537.6</ele>
        <time>2022-05-27T13:16:08Z</time>
      </trkpt>
      <trkpt lat="46.76621" lon="5.69462">
        <ele>537</ele>
        <time>2022-05-27T13:16:10Z</time>
      </trkpt>
      <trkpt lat="46.7659" lon="5.69474">
        <ele>535.8</ele>
        <time>2022-05-27T13:16:13Z</time>
      </trkpt>
      <trkpt lat="46.76582" lon="5.69479">
        <ele>535.4</ele>
        <time>2022-05-27T13:16:14Z</time>
      </trkpt>
      <trkpt lat="46.76546" lon="5.695">
        <ele>534.6</ele>
        <time>2022-05-27T13:16:18Z</time>
      </trkpt>
      <trkpt lat="46.76537" lon="5.69504">
        <ele>534.2</ele>
        <time>2022-05-27T13:16:19Z</time>
      </trkpt>
      <trkpt lat="46.76528" lon="5.69508">
        <ele>534</ele>
        <time>2022-05-27T13:16:20Z</time>
      </trkpt>
      <trkpt lat="46.76509" lon="5.69511">
        <ele>533.8</ele>
        <time>2022-05-27T13:16:22Z</time>
      </trkpt>
      <trkpt lat="46.76491" lon="5.6951">
        <ele>533.8</ele>
        <time>2022-05-27T13:16:24Z</time>
      </trkpt>
      <trkpt lat="46.76473" lon="5.69509">
        <ele>533.4</ele>
        <time>2022-05-27T13:16:26Z</time>
      </trkpt>
      <trkpt lat="46.76447" lon="5.69507">
        <ele>532.2</ele>
        <time>2022-05-27T13:16:29Z</time>
      </trkpt>
      <trkpt lat="46.76431" lon="5.69503">
        <ele>531.8</ele>
        <time>2022-05-27T13:16:31Z</time>
      </trkpt>
      <trkpt lat="46.76408" lon="5.69499">
        <ele>531.2</ele>
        <time>2022-05-27T13:16:34Z</time>
      </trkpt>
      <trkpt lat="46.76361" lon="5.69496">
        <ele>530.6</ele>
        <time>2022-05-27T13:16:40Z</time>
      </trkpt>
      <trkpt lat="46.7633" lon="5.69496">
        <ele>530</ele>
        <time>2022-05-27T13:16:44Z</time>
      </trkpt>
      <trkpt lat="46.76307" lon="5.69497">
        <ele>530</ele>
        <time>2022-05-27T13:16:47Z</time>
      </trkpt>
      <trkpt lat="46.76276" lon="5.69505">
        <ele>530</ele>
        <time>2022-05-27T13:16:51Z</time>
      </trkpt>
      <trkpt lat="46.76261" lon="5.69511">
        <ele>530.2</ele>
        <time>2022-05-27T13:16:53Z</time>
      </trkpt>
      <trkpt lat="46.76205" lon="5.69532">
        <ele>530.6</ele>
        <time>2022-05-27T13:17:00Z</time>
      </trkpt>
      <trkpt lat="46.76145" lon="5.69539">
        <ele>530</ele>
        <time>2022-05-27T13:17:07Z</time>
      </trkpt>
      <trkpt lat="46.76088" lon="5.69544">
        <ele>529.6</ele>
        <time>2022-05-27T13:17:14Z</time>
      </trkpt>
      <trkpt lat="46.7608" lon="5.69544">
        <ele>529.8</ele>
        <time>2022-05-27T13:17:15Z</time>
      </trkpt>
      <trkpt lat="46.7602" lon="5.69543">
        <ele>529.4</ele>
        <time>2022-05-27T13:17:22Z</time>
      </trkpt>
      <trkpt lat="46.76012" lon="5.69543">
        <ele>529.2</ele>
        <time>2022-05-27T13:17:23Z</time>
      </trkpt>
      <trkpt lat="46.75995" lon="5.69544">
        <ele>529.2</ele>
        <time>2022-05-27T13:17:25Z</time>
      </trkpt>
      <trkpt lat="46.75958" lon="5.6955">
        <ele>528.6</ele>
        <time>2022-05-27T13:17:29Z</time>
      </trkpt>
      <trkpt lat="46.75927" lon="5.69556">
        <ele>528.2</ele>
        <time>2022-05-27T13:17:32Z</time>
      </trkpt>
      <trkpt lat="46.75908" lon="5.6956">
        <ele>526.8</ele>
        <time>2022-05-27T13:17:34Z</time>
      </trkpt>
      <trkpt lat="46.75898" lon="5.69564">
        <ele>526.8</ele>
        <time>2022-05-27T13:17:35Z</time>
      </trkpt>
      <trkpt lat="46.75855" lon="5.69591">
        <ele>526.4</ele>
        <time>2022-05-27T13:17:40Z</time>
      </trkpt>
      <trkpt lat="46.75808" lon="5.69611">
        <ele>526</ele>
        <time>2022-05-27T13:17:45Z</time>
      </trkpt>
      <trkpt lat="46.75782" lon="5.69615">
        <ele>526</ele>
        <time>2022-05-27T13:17:48Z</time>
      </trkpt>
      <trkpt lat="46.75766" lon="5.69615">
        <ele>526</ele>
        <time>2022-05-27T13:17:50Z</time>
      </trkpt>
      <trkpt lat="46.75708" lon="5.69612">
        <ele>527.2</ele>
        <time>2022-05-27T13:17:57Z</time>
      </trkpt>
      <trkpt lat="46.75657" lon="5.69613">
        <ele>527.4</ele>
        <time>2022-05-27T13:18:03Z</time>
      </trkpt>
      <trkpt lat="46.75622" lon="5.6962">
        <ele>528.4</ele>
        <time>2022-05-27T13:18:08Z</time>
      </trkpt>
      <trkpt lat="46.75575" lon="5.69628">
        <ele>529.2</ele>
        <time>2022-05-27T13:18:14Z</time>
      </trkpt>
      <trkpt lat="46.75558" lon="5.69627">
        <ele>528.8</ele>
        <time>2022-05-27T13:18:16Z</time>
      </trkpt>
      <trkpt lat="46.75514" lon="5.69618">
        <ele>528</ele>
        <time>2022-05-27T13:18:21Z</time>
      </trkpt>
      <trkpt lat="46.75496" lon="5.69612">
        <ele>527.2</ele>
        <time>2022-05-27T13:18:23Z</time>
      </trkpt>
      <trkpt lat="46.7546" lon="5.69599">
        <ele>526.4</ele>
        <time>2022-05-27T13:18:27Z</time>
      </trkpt>
      <trkpt lat="46.75452" lon="5.69595">
        <ele>526.2</ele>
        <time>2022-05-27T13:18:28Z</time>
      </trkpt>
      <trkpt lat="46.75422" lon="5.69578">
        <ele>525.8</ele>
        <time>2022-05-27T13:18:32Z</time>
      </trkpt>
      <trkpt lat="46.7538" lon="5.6954">
        <ele>525.8</ele>
        <time>2022-05-27T13:18:38Z</time>
      </trkpt>
      <trkpt lat="46.7533" lon="5.69501">
        <ele>525.8</ele>
        <time>2022-05-27T13:18:45Z</time>
      </trkpt>
      <trkpt lat="46.75316" lon="5.69493">
        <ele>525.8</ele>
        <time>2022-05-27T13:18:47Z</time>
      </trkpt>
      <trkpt lat="46.75279" lon="5.69485">
        <ele>526.4</ele>
        <time>2022-05-27T13:18:52Z</time>
      </trkpt>
      <trkpt lat="46.75218" lon="5.69483">
        <ele>526.8</ele>
        <time>2022-05-27T13:19:00Z</time>
      </trkpt>
      <trkpt lat="46.7516" lon="5.6948">
        <ele>527</ele>
        <time>2022-05-27T13:19:08Z</time>
      </trkpt>
      <trkpt lat="46.75153" lon="5.69479">
        <ele>527.2</ele>
        <time>2022-05-27T13:19:09Z</time>
      </trkpt>
      <trkpt lat="46.75138" lon="5.69479">
        <ele>527.2</ele>
        <time>2022-05-27T13:19:11Z</time>
      </trkpt>
      <trkpt lat="46.75096" lon="5.69479">
        <ele>528</ele>
        <time>2022-05-27T13:19:17Z</time>
      </trkpt>
      <trkpt lat="46.75089" lon="5.69479">
        <ele>528.2</ele>
        <time>2022-05-27T13:19:18Z</time>
      </trkpt>
      <trkpt lat="46.75033" lon="5.69479">
        <ele>529.2</ele>
        <time>2022-05-27T13:19:26Z</time>
      </trkpt>
      <trkpt lat="46.75026" lon="5.69478">
        <ele>529.6</ele>
        <time>2022-05-27T13:19:27Z</time>
      </trkpt>
      <trkpt lat="46.74988" lon="5.69472">
        <ele>530.4</ele>
        <time>2022-05-27T13:19:32Z</time>
      </trkpt>
      <trkpt lat="46.7498" lon="5.69473">
        <ele>530.4</ele>
        <time>2022-05-27T13:19:33Z</time>
      </trkpt>
      <trkpt lat="46.74971" lon="5.69477">
        <ele>530.4</ele>
        <time>2022-05-27T13:19:34Z</time>
      </trkpt>
      <trkpt lat="46.74959" lon="5.69489">
        <ele>530.2</ele>
        <time>2022-05-27T13:19:36Z</time>
      </trkpt>
      <trkpt lat="46.74933" lon="5.69532">
        <ele>529.8</ele>
        <time>2022-05-27T13:19:41Z</time>
      </trkpt>
      <trkpt lat="46.74922" lon="5.69548">
        <ele>529.8</ele>
        <time>2022-05-27T13:19:43Z</time>
      </trkpt>
      <trkpt lat="46.74907" lon="5.6956">
        <ele>529.6</ele>
        <time>2022-05-27T13:19:45Z</time>
      </trkpt>
      <trkpt lat="46.74893" lon="5.69563">
        <ele>529.4</ele>
        <time>2022-05-27T13:19:47Z</time>
      </trkpt>
      <trkpt lat="46.74883" lon="5.69562">
        <ele>529.4</ele>
        <time>2022-05-27T13:19:48Z</time>
      </trkpt>
      <trkpt lat="46.74874" lon="5.69559">
        <ele>529.4</ele>
        <time>2022-05-27T13:19:49Z</time>
      </trkpt>
      <trkpt lat="46.74844" lon="5.69543">
        <ele>529.2</ele>
        <time>2022-05-27T13:19:53Z</time>
      </trkpt>
      <trkpt lat="46.74813" lon="5.6953">
        <ele>529.2</ele>
        <time>2022-05-27T13:19:57Z</time>
      </trkpt>
      <trkpt lat="46.74805" lon="5.69529">
        <ele>529.2</ele>
        <time>2022-05-27T13:19:58Z</time>
      </trkpt>
      <trkpt lat="46.74746" lon="5.69526">
        <ele>529.4</ele>
        <time>2022-05-27T13:20:05Z</time>
      </trkpt>
      <trkpt lat="46.7473" lon="5.69532">
        <ele>529.4</ele>
        <time>2022-05-27T13:20:07Z</time>
      </trkpt>
      <trkpt lat="46.74716" lon="5.69543">
        <ele>529.4</ele>
        <time>2022-05-27T13:20:09Z</time>
      </trkpt>
      <trkpt lat="46.74687" lon="5.6958">
        <ele>530</ele>
        <time>2022-05-27T13:20:14Z</time>
      </trkpt>
      <trkpt lat="46.74643" lon="5.69631">
        <ele>530</ele>
        <time>2022-05-27T13:20:21Z</time>
      </trkpt>
      <trkpt lat="46.74636" lon="5.69637">
        <ele>530</ele>
        <time>2022-05-27T13:20:22Z</time>
      </trkpt>
      <trkpt lat="46.7462" lon="5.69644">
        <ele>529.6</ele>
        <time>2022-05-27T13:20:24Z</time>
      </trkpt>
      <trkpt lat="46.74611" lon="5.69646">
        <ele>529.4</ele>
        <time>2022-05-27T13:20:25Z</time>
      </trkpt>
      <trkpt lat="46.74603" lon="5.69647">
        <ele>529</ele>
        <time>2022-05-27T13:20:26Z</time>
      </trkpt>
      <trkpt lat="46.74585" lon="5.69644">
        <ele>529</ele>
        <time>2022-05-27T13:20:28Z</time>
      </trkpt>
      <trkpt lat="46.74579" lon="5.69642">
        <ele>528.8</ele>
        <time>2022-05-27T13:20:29Z</time>
      </trkpt>
      <trkpt lat="46.74521" lon="5.69624">
        <ele>529.4</ele>
        <time>2022-05-27T13:20:36Z</time>
      </trkpt>
      <trkpt lat="46.74513" lon="5.69622">
        <ele>529.6</ele>
        <time>2022-05-27T13:20:37Z</time>
      </trkpt>
      <trkpt lat="46.74459" lon="5.69612">
        <ele>530.6</ele>
        <time>2022-05-27T13:20:44Z</time>
      </trkpt>
      <trkpt lat="46.74443" lon="5.6961">
        <ele>530.8</ele>
        <time>2022-05-27T13:20:46Z</time>
      </trkpt>
      <trkpt lat="46.74387" lon="5.6961">
        <ele>531.2</ele>
        <time>2022-05-27T13:20:53Z</time>
      </trkpt>
      <trkpt lat="46.74333" lon="5.69612">
        <ele>531.8</ele>
        <time>2022-05-27T13:21:00Z</time>
      </trkpt>
      <trkpt lat="46.74318" lon="5.69612">
        <ele>531.8</ele>
        <time>2022-05-27T13:21:02Z</time>
      </trkpt>
      <trkpt lat="46.74263" lon="5.69614">
        <ele>532.2</ele>
        <time>2022-05-27T13:21:09Z</time>
      </trkpt>
      <trkpt lat="46.74246" lon="5.69614">
        <ele>532.2</ele>
        <time>2022-05-27T13:21:11Z</time>
      </trkpt>
      <trkpt lat="46.7421" lon="5.69604">
        <ele>532.4</ele>
        <time>2022-05-27T13:21:16Z</time>
      </trkpt>
      <trkpt lat="46.7419" lon="5.69593">
        <ele>533</ele>
        <time>2022-05-27T13:21:19Z</time>
      </trkpt>
      <trkpt lat="46.74153" lon="5.69567">
        <ele>533.8</ele>
        <time>2022-05-27T13:21:24Z</time>
      </trkpt>
      <trkpt lat="46.74132" lon="5.69556">
        <ele>533.8</ele>
        <time>2022-05-27T13:21:27Z</time>
      </trkpt>
      <trkpt lat="46.74122" lon="5.69554">
        <ele>534</ele>
        <time>2022-05-27T13:21:28Z</time>
      </trkpt>
      <trkpt lat="46.74066" lon="5.69549">
        <ele>533.4</ele>
        <time>2022-05-27T13:21:35Z</time>
      </trkpt>
      <trkpt lat="46.74049" lon="5.69549">
        <ele>533.4</ele>
        <time>2022-05-27T13:21:37Z</time>
      </trkpt>
      <trkpt lat="46.73995" lon="5.69552">
        <ele>534</ele>
        <time>2022-05-27T13:21:44Z</time>
      </trkpt>
      <trkpt lat="46.73959" lon="5.69567">
        <ele>534.2</ele>
        <time>2022-05-27T13:21:49Z</time>
      </trkpt>
      <trkpt lat="46.7395" lon="5.69572">
        <ele>534.2</ele>
        <time>2022-05-27T13:21:50Z</time>
      </trkpt>
      <trkpt lat="46.73913" lon="5.69607">
        <ele>535.2</ele>
        <time>2022-05-27T13:21:56Z</time>
      </trkpt>
      <trkpt lat="46.73897" lon="5.6963">
        <ele>535.4</ele>
        <time>2022-05-27T13:21:59Z</time>
      </trkpt>
      <trkpt lat="46.7388" lon="5.69655">
        <ele>535.4</ele>
        <time>2022-05-27T13:22:02Z</time>
      </trkpt>
      <trkpt lat="46.73867" lon="5.69667">
        <ele>535.4</ele>
        <time>2022-05-27T13:22:04Z</time>
      </trkpt>
      <trkpt lat="46.73859" lon="5.69671">
        <ele>535.4</ele>
        <time>2022-05-27T13:22:05Z</time>
      </trkpt>
      <trkpt lat="46.73851" lon="5.69674">
        <ele>535.4</ele>
        <time>2022-05-27T13:22:06Z</time>
      </trkpt>
      <trkpt lat="46.73819" lon="5.69681">
        <ele>535.2</ele>
        <time>2022-05-27T13:22:10Z</time>
      </trkpt>
      <trkpt lat="46.73796" lon="5.69687">
        <ele>535</ele>
        <time>2022-05-27T13:22:13Z</time>
      </trkpt>
      <trkpt lat="46.73782" lon="5.69695">
        <ele>535</ele>
        <time>2022-05-27T13:22:15Z</time>
      </trkpt>
      <trkpt lat="46.73754" lon="5.69727">
        <ele>535.4</ele>
        <time>2022-05-27T13:22:20Z</time>
      </trkpt>
      <trkpt lat="46.73729" lon="5.69761">
        <ele>536.4</ele>
        <time>2022-05-27T13:22:25Z</time>
      </trkpt>
      <trkpt lat="46.73724" lon="5.69767">
        <ele>536.6</ele>
        <time>2022-05-27T13:22:26Z</time>
      </trkpt>
      <trkpt lat="46.73719" lon="5.69773">
        <ele>536.8</ele>
        <time>2022-05-27T13:22:27Z</time>
      </trkpt>
      <trkpt lat="46.73704" lon="5.69789">
        <ele>537.4</ele>
        <time>2022-05-27T13:22:30Z</time>
      </trkpt>
      <trkpt lat="46.737" lon="5.69796">
        <ele>537.6</ele>
        <time>2022-05-27T13:22:31Z</time>
      </trkpt>
      <trkpt lat="46.73692" lon="5.69811">
        <ele>538</ele>
        <time>2022-05-27T13:22:33Z</time>
      </trkpt>
      <trkpt lat="46.7369" lon="5.69819">
        <ele>538</ele>
        <time>2022-05-27T13:22:34Z</time>
      </trkpt>
      <trkpt lat="46.73686" lon="5.69826">
        <ele>538.2</ele>
        <time>2022-05-27T13:22:35Z</time>
      </trkpt>
      <trkpt lat="46.73677" lon="5.69838">
        <ele>538.2</ele>
        <time>2022-05-27T13:22:37Z</time>
      </trkpt>
      <trkpt lat="46.7365" lon="5.69868">
        <ele>538.2</ele>
        <time>2022-05-27T13:22:42Z</time>
      </trkpt>
      <trkpt lat="46.73644" lon="5.69874">
        <ele>538</ele>
        <time>2022-05-27T13:22:43Z</time>
      </trkpt>
      <trkpt lat="46.73631" lon="5.69887">
        <ele>537.4</ele>
        <time>2022-05-27T13:22:45Z</time>
      </trkpt>
      <trkpt lat="46.7362" lon="5.69903">
        <ele>536.6</ele>
        <time>2022-05-27T13:22:47Z</time>
      </trkpt>
      <trkpt lat="46.73615" lon="5.69911">
        <ele>536.4</ele>
        <time>2022-05-27T13:22:48Z</time>
      </trkpt>
      <trkpt lat="46.73604" lon="5.69928">
        <ele>535.6</ele>
        <time>2022-05-27T13:22:50Z</time>
      </trkpt>
      <trkpt lat="46.7359" lon="5.69942">
        <ele>535.2</ele>
        <time>2022-05-27T13:22:52Z</time>
      </trkpt>
      <trkpt lat="46.73565" lon="5.69951">
        <ele>534.4</ele>
        <time>2022-05-27T13:22:55Z</time>
      </trkpt>
      <trkpt lat="46.73549" lon="5.6995">
        <ele>533.6</ele>
        <time>2022-05-27T13:22:57Z</time>
      </trkpt>
      <trkpt lat="46.73542" lon="5.69946">
        <ele>533.2</ele>
        <time>2022-05-27T13:22:58Z</time>
      </trkpt>
      <trkpt lat="46.73532" lon="5.69932">
        <ele>532.8</ele>
        <time>2022-05-27T13:23:00Z</time>
      </trkpt>
      <trkpt lat="46.73528" lon="5.69923">
        <ele>532.8</ele>
        <time>2022-05-27T13:23:01Z</time>
      </trkpt>
      <trkpt lat="46.73524" lon="5.69916">
        <ele>532.6</ele>
        <time>2022-05-27T13:23:02Z</time>
      </trkpt>
      <trkpt lat="46.73515" lon="5.6991">
        <ele>532.6</ele>
        <time>2022-05-27T13:23:04Z</time>
      </trkpt>
      <trkpt lat="46.7351" lon="5.69912">
        <ele>532.4</ele>
        <time>2022-05-27T13:23:05Z</time>
      </trkpt>
      <trkpt lat="46.73505" lon="5.69917">
        <ele>532.4</ele>
        <time>2022-05-27T13:23:06Z</time>
      </trkpt>
      <trkpt lat="46.73502" lon="5.69923">
        <ele>532.4</ele>
        <time>2022-05-27T13:23:07Z</time>
      </trkpt>
      <trkpt lat="46.73484" lon="5.69961">
        <ele>533.2</ele>
        <time>2022-05-27T13:23:12Z</time>
      </trkpt>
      <trkpt lat="46.7348" lon="5.69969">
        <ele>533.2</ele>
        <time>2022-05-27T13:23:13Z</time>
      </trkpt>
      <trkpt lat="46.73475" lon="5.69988">
        <ele>533.6</ele>
        <time>2022-05-27T13:23:15Z</time>
      </trkpt>
      <trkpt lat="46.73465" lon="5.70026">
        <ele>534.2</ele>
        <time>2022-05-27T13:23:19Z</time>
      </trkpt>
      <trkpt lat="46.73462" lon="5.70034">
        <ele>534.4</ele>
        <time>2022-05-27T13:23:20Z</time>
      </trkpt>
      <trkpt lat="46.73453" lon="5.70048">
        <ele>534.6</ele>
        <time>2022-05-27T13:23:22Z</time>
      </trkpt>
      <trkpt lat="46.73447" lon="5.70055">
        <ele>534.6</ele>
        <time>2022-05-27T13:23:23Z</time>
      </trkpt>
      <trkpt lat="46.73442" lon="5.70061">
        <ele>534.8</ele>
        <time>2022-05-27T13:23:24Z</time>
      </trkpt>
      <trkpt lat="46.7343" lon="5.70084">
        <ele>534.8</ele>
        <time>2022-05-27T13:23:27Z</time>
      </trkpt>
      <trkpt lat="46.73412" lon="5.70127">
        <ele>534.4</ele>
        <time>2022-05-27T13:23:32Z</time>
      </trkpt>
      <trkpt lat="46.7341" lon="5.70136">
        <ele>534.2</ele>
        <time>2022-05-27T13:23:33Z</time>
      </trkpt>
      <trkpt lat="46.73387" lon="5.70209">
        <ele>534</ele>
        <time>2022-05-27T13:23:41Z</time>
      </trkpt>
      <trkpt lat="46.73382" lon="5.70229">
        <ele>533.8</ele>
        <time>2022-05-27T13:23:43Z</time>
      </trkpt>
      <trkpt lat="46.73363" lon="5.70301">
        <ele>533.4</ele>
        <time>2022-05-27T13:23:50Z</time>
      </trkpt>
      <trkpt lat="46.73362" lon="5.70312">
        <ele>533.2</ele>
        <time>2022-05-27T13:23:51Z</time>
      </trkpt>
      <trkpt lat="46.73357" lon="5.70334">
        <ele>533</ele>
        <time>2022-05-27T13:23:53Z</time>
      </trkpt>
      <trkpt lat="46.73347" lon="5.70352">
        <ele>532.8</ele>
        <time>2022-05-27T13:23:55Z</time>
      </trkpt>
      <trkpt lat="46.73333" lon="5.70364">
        <ele>532.2</ele>
        <time>2022-05-27T13:23:57Z</time>
      </trkpt>
      <trkpt lat="46.73318" lon="5.70375">
        <ele>531.8</ele>
        <time>2022-05-27T13:23:59Z</time>
      </trkpt>
      <trkpt lat="46.73267" lon="5.70411">
        <ele>531.2</ele>
        <time>2022-05-27T13:24:06Z</time>
      </trkpt>
      <trkpt lat="46.73259" lon="5.70415">
        <ele>531</ele>
        <time>2022-05-27T13:24:07Z</time>
      </trkpt>
      <trkpt lat="46.73211" lon="5.70435">
        <ele>530.6</ele>
        <time>2022-05-27T13:24:13Z</time>
      </trkpt>
      <trkpt lat="46.73196" lon="5.70447">
        <ele>530.2</ele>
        <time>2022-05-27T13:24:15Z</time>
      </trkpt>
      <trkpt lat="46.73182" lon="5.70462">
        <ele>529.6</ele>
        <time>2022-05-27T13:24:17Z</time>
      </trkpt>
      <trkpt lat="46.73167" lon="5.70475">
        <ele>529</ele>
        <time>2022-05-27T13:24:19Z</time>
      </trkpt>
      <trkpt lat="46.73159" lon="5.7048">
        <ele>528.8</ele>
        <time>2022-05-27T13:24:20Z</time>
      </trkpt>
      <trkpt lat="46.73151" lon="5.70484">
        <ele>528.8</ele>
        <time>2022-05-27T13:24:21Z</time>
      </trkpt>
      <trkpt lat="46.73114" lon="5.70497">
        <ele>529.2</ele>
        <time>2022-05-27T13:24:26Z</time>
      </trkpt>
      <trkpt lat="46.73102" lon="5.70507">
        <ele>529.2</ele>
        <time>2022-05-27T13:24:28Z</time>
      </trkpt>
      <trkpt lat="46.73097" lon="5.70514">
        <ele>529.4</ele>
        <time>2022-05-27T13:24:29Z</time>
      </trkpt>
      <trkpt lat="46.73093" lon="5.70522">
        <ele>529.6</ele>
        <time>2022-05-27T13:24:30Z</time>
      </trkpt>
      <trkpt lat="46.7309" lon="5.7053">
        <ele>530.2</ele>
        <time>2022-05-27T13:24:31Z</time>
      </trkpt>
      <trkpt lat="46.73084" lon="5.70548">
        <ele>530.8</ele>
        <time>2022-05-27T13:24:33Z</time>
      </trkpt>
      <trkpt lat="46.73078" lon="5.70567">
        <ele>531.2</ele>
        <time>2022-05-27T13:24:35Z</time>
      </trkpt>
      <trkpt lat="46.73066" lon="5.70617">
        <ele>531.8</ele>
        <time>2022-05-27T13:24:40Z</time>
      </trkpt>
      <trkpt lat="46.73049" lon="5.70676">
        <ele>531.8</ele>
        <time>2022-05-27T13:24:46Z</time>
      </trkpt>
      <trkpt lat="46.73023" lon="5.70745">
        <ele>531.8</ele>
        <time>2022-05-27T13:24:53Z</time>
      </trkpt>
      <trkpt lat="46.72998" lon="5.70789">
        <ele>531.6</ele>
        <time>2022-05-27T13:24:58Z</time>
      </trkpt>
      <trkpt lat="46.72954" lon="5.70845">
        <ele>531.8</ele>
        <time>2022-05-27T13:25:06Z</time>
      </trkpt>
      <trkpt lat="46.72932" lon="5.70867">
        <ele>532.2</ele>
        <time>2022-05-27T13:25:10Z</time>
      </trkpt>
      <trkpt lat="46.72927" lon="5.70872">
        <ele>532.4</ele>
        <time>2022-05-27T13:25:11Z</time>
      </trkpt>
      <trkpt lat="46.7291" lon="5.70889">
        <ele>533</ele>
        <time>2022-05-27T13:25:14Z</time>
      </trkpt>
      <trkpt lat="46.72892" lon="5.70906">
        <ele>533.4</ele>
        <time>2022-05-27T13:25:17Z</time>
      </trkpt>
      <trkpt lat="46.72862" lon="5.7093">
        <ele>533.6</ele>
        <time>2022-05-27T13:25:22Z</time>
      </trkpt>
      <trkpt lat="46.72856" lon="5.70933">
        <ele>533.4</ele>
        <time>2022-05-27T13:25:23Z</time>
      </trkpt>
      <trkpt lat="46.72842" lon="5.70934">
        <ele>533.2</ele>
        <time>2022-05-27T13:25:25Z</time>
      </trkpt>
      <trkpt lat="46.72835" lon="5.70932">
        <ele>533.2</ele>
        <time>2022-05-27T13:25:26Z</time>
      </trkpt>
      <trkpt lat="46.72829" lon="5.70928">
        <ele>533.2</ele>
        <time>2022-05-27T13:25:27Z</time>
      </trkpt>
      <trkpt lat="46.72817" lon="5.70916">
        <ele>533.2</ele>
        <time>2022-05-27T13:25:29Z</time>
      </trkpt>
      <trkpt lat="46.72791" lon="5.70871">
        <ele>534</ele>
        <time>2022-05-27T13:25:35Z</time>
      </trkpt>
      <trkpt lat="46.72775" lon="5.70833">
        <ele>534.6</ele>
        <time>2022-05-27T13:25:40Z</time>
      </trkpt>
      <trkpt lat="46.72772" lon="5.70824">
        <ele>534.8</ele>
        <time>2022-05-27T13:25:41Z</time>
      </trkpt>
      <trkpt lat="46.72749" lon="5.70778">
        <ele>535</ele>
        <time>2022-05-27T13:25:47Z</time>
      </trkpt>
      <trkpt lat="46.72743" lon="5.70772">
        <ele>535.2</ele>
        <time>2022-05-27T13:25:48Z</time>
      </trkpt>
      <trkpt lat="46.72737" lon="5.70767">
        <ele>535.2</ele>
        <time>2022-05-27T13:25:49Z</time>
      </trkpt>
      <trkpt lat="46.72721" lon="5.70763">
        <ele>535.2</ele>
        <time>2022-05-27T13:25:51Z</time>
      </trkpt>
      <trkpt lat="46.72678" lon="5.70768">
        <ele>534.4</ele>
        <time>2022-05-27T13:25:56Z</time>
      </trkpt>
      <trkpt lat="46.72635" lon="5.70773">
        <ele>533.8</ele>
        <time>2022-05-27T13:26:01Z</time>
      </trkpt>
      <trkpt lat="46.72627" lon="5.70773">
        <ele>533.6</ele>
        <time>2022-05-27T13:26:02Z</time>
      </trkpt>
      <trkpt lat="46.72571" lon="5.70771">
        <ele>533.2</ele>
        <time>2022-05-27T13:26:09Z</time>
      </trkpt>
      <trkpt lat="46.72523" lon="5.70783">
        <ele>533</ele>
        <time>2022-05-27T13:26:15Z</time>
      </trkpt>
      <trkpt lat="46.72483" lon="5.70786">
        <ele>533</ele>
        <time>2022-05-27T13:26:20Z</time>
      </trkpt>
      <trkpt lat="46.72428" lon="5.70786">
        <ele>533</ele>
        <time>2022-05-27T13:26:27Z</time>
      </trkpt>
      <trkpt lat="46.72421" lon="5.70787">
        <ele>533</ele>
        <time>2022-05-27T13:26:28Z</time>
      </trkpt>
      <trkpt lat="46.72371" lon="5.7079">
        <ele>534.4</ele>
        <time>2022-05-27T13:26:35Z</time>
      </trkpt>
      <trkpt lat="46.72363" lon="5.70791">
        <ele>534.6</ele>
        <time>2022-05-27T13:26:36Z</time>
      </trkpt>
      <trkpt lat="46.72349" lon="5.70796">
        <ele>534.8</ele>
        <time>2022-05-27T13:26:38Z</time>
      </trkpt>
      <trkpt lat="46.72336" lon="5.70805">
        <ele>535</ele>
        <time>2022-05-27T13:26:40Z</time>
      </trkpt>
      <trkpt lat="46.72308" lon="5.7083">
        <ele>535.4</ele>
        <time>2022-05-27T13:26:45Z</time>
      </trkpt>
      <trkpt lat="46.72303" lon="5.70834">
        <ele>535.8</ele>
        <time>2022-05-27T13:26:46Z</time>
      </trkpt>
      <trkpt lat="46.72281" lon="5.70852">
        <ele>537</ele>
        <time>2022-05-27T13:26:50Z</time>
      </trkpt>
      <trkpt lat="46.72269" lon="5.70863">
        <ele>537.4</ele>
        <time>2022-05-27T13:26:52Z</time>
      </trkpt>
      <trkpt lat="46.72248" lon="5.70878">
        <ele>537.6</ele>
        <time>2022-05-27T13:26:55Z</time>
      </trkpt>
      <trkpt lat="46.72232" lon="5.70885">
        <ele>537.4</ele>
        <time>2022-05-27T13:26:57Z</time>
      </trkpt>
      <trkpt lat="46.72174" lon="5.709">
        <ele>536.4</ele>
        <time>2022-05-27T13:27:04Z</time>
      </trkpt>
      <trkpt lat="46.72142" lon="5.70905">
        <ele>536</ele>
        <time>2022-05-27T13:27:08Z</time>
      </trkpt>
      <trkpt lat="46.72134" lon="5.70904">
        <ele>535.8</ele>
        <time>2022-05-27T13:27:09Z</time>
      </trkpt>
      <trkpt lat="46.72097" lon="5.7089">
        <ele>535.2</ele>
        <time>2022-05-27T13:27:14Z</time>
      </trkpt>
      <trkpt lat="46.7206" lon="5.70855">
        <ele>535.8</ele>
        <time>2022-05-27T13:27:20Z</time>
      </trkpt>
      <trkpt lat="46.72017" lon="5.70823">
        <ele>536.8</ele>
        <time>2022-05-27T13:27:27Z</time>
      </trkpt>
      <trkpt lat="46.72011" lon="5.70818">
        <ele>537</ele>
        <time>2022-05-27T13:27:28Z</time>
      </trkpt>
      <trkpt lat="46.71976" lon="5.70799">
        <ele>538</ele>
        <time>2022-05-27T13:27:34Z</time>
      </trkpt>
      <trkpt lat="46.71946" lon="5.70794">
        <ele>538.6</ele>
        <time>2022-05-27T13:27:39Z</time>
      </trkpt>
      <trkpt lat="46.71933" lon="5.70794">
        <ele>539.2</ele>
        <time>2022-05-27T13:27:41Z</time>
      </trkpt>
      <trkpt lat="46.71915" lon="5.70794">
        <ele>540.2</ele>
        <time>2022-05-27T13:27:44Z</time>
      </trkpt>
      <trkpt lat="46.71903" lon="5.70794">
        <ele>540.6</ele>
        <time>2022-05-27T13:27:46Z</time>
      </trkpt>
      <trkpt lat="46.71891" lon="5.70795">
        <ele>541</ele>
        <time>2022-05-27T13:27:48Z</time>
      </trkpt>
      <trkpt lat="46.71879" lon="5.70799">
        <ele>541.4</ele>
        <time>2022-05-27T13:27:50Z</time>
      </trkpt>
      <trkpt lat="46.71874" lon="5.70803">
        <ele>541.4</ele>
        <time>2022-05-27T13:27:51Z</time>
      </trkpt>
      <trkpt lat="46.71828" lon="5.70843">
        <ele>542</ele>
        <time>2022-05-27T13:27:59Z</time>
      </trkpt>
      <trkpt lat="46.71785" lon="5.70892">
        <ele>541</ele>
        <time>2022-05-27T13:28:07Z</time>
      </trkpt>
      <trkpt lat="46.71776" lon="5.70902">
        <ele>541.2</ele>
        <time>2022-05-27T13:28:09Z</time>
      </trkpt>
      <trkpt lat="46.7176" lon="5.70914">
        <ele>541.6</ele>
        <time>2022-05-27T13:28:12Z</time>
      </trkpt>
      <trkpt lat="46.71738" lon="5.70926">
        <ele>542.4</ele>
        <time>2022-05-27T13:28:16Z</time>
      </trkpt>
      <trkpt lat="46.71728" lon="5.70934">
        <ele>542.8</ele>
        <time>2022-05-27T13:28:18Z</time>
      </trkpt>
      <trkpt lat="46.71712" lon="5.70947">
        <ele>543.4</ele>
        <time>2022-05-27T13:28:21Z</time>
      </trkpt>
      <trkpt lat="46.71686" lon="5.70971">
        <ele>544.2</ele>
        <time>2022-05-27T13:28:26Z</time>
      </trkpt>
      <trkpt lat="46.71674" lon="5.70979">
        <ele>544.4</ele>
        <time>2022-05-27T13:28:28Z</time>
      </trkpt>
      <trkpt lat="46.71663" lon="5.70982">
        <ele>544.6</ele>
        <time>2022-05-27T13:28:30Z</time>
      </trkpt>
      <trkpt lat="46.71658" lon="5.70982">
        <ele>544.8</ele>
        <time>2022-05-27T13:28:31Z</time>
      </trkpt>
      <trkpt lat="46.71652" lon="5.70981">
        <ele>545</ele>
        <time>2022-05-27T13:28:32Z</time>
      </trkpt>
      <trkpt lat="46.71637" lon="5.70975">
        <ele>545.4</ele>
        <time>2022-05-27T13:28:35Z</time>
      </trkpt>
      <trkpt lat="46.71632" lon="5.70973">
        <ele>545.6</ele>
        <time>2022-05-27T13:28:36Z</time>
      </trkpt>
      <trkpt lat="46.71605" lon="5.70963">
        <ele>546.8</ele>
        <time>2022-05-27T13:28:41Z</time>
      </trkpt>
      <trkpt lat="46.71588" lon="5.70956">
        <ele>547</ele>
        <time>2022-05-27T13:28:44Z</time>
      </trkpt>
      <trkpt lat="46.71562" lon="5.70947">
        <ele>547.4</ele>
        <time>2022-05-27T13:28:49Z</time>
      </trkpt>
      <trkpt lat="46.71552" lon="5.7094">
        <ele>547.8</ele>
        <time>2022-05-27T13:28:51Z</time>
      </trkpt>
      <trkpt lat="46.71548" lon="5.70936">
        <ele>547.8</ele>
        <time>2022-05-27T13:28:52Z</time>
      </trkpt>
      <trkpt lat="46.7154" lon="5.70926">
        <ele>548.2</ele>
        <time>2022-05-27T13:28:54Z</time>
      </trkpt>
      <trkpt lat="46.71534" lon="5.70914">
        <ele>548.4</ele>
        <time>2022-05-27T13:28:56Z</time>
      </trkpt>
      <trkpt lat="46.7153" lon="5.70902">
        <ele>548.8</ele>
        <time>2022-05-27T13:28:58Z</time>
      </trkpt>
      <trkpt lat="46.71523" lon="5.70882">
        <ele>549.4</ele>
        <time>2022-05-27T13:29:01Z</time>
      </trkpt>
      <trkpt lat="46.71519" lon="5.70876">
        <ele>549.8</ele>
        <time>2022-05-27T13:29:02Z</time>
      </trkpt>
      <trkpt lat="46.71511" lon="5.70867">
        <ele>550</ele>
        <time>2022-05-27T13:29:04Z</time>
      </trkpt>
      <trkpt lat="46.71497" lon="5.70855">
        <ele>551</ele>
        <time>2022-05-27T13:29:08Z</time>
      </trkpt>
      <trkpt lat="46.71493" lon="5.70852">
        <ele>551.2</ele>
        <time>2022-05-27T13:29:09Z</time>
      </trkpt>
      <trkpt lat="46.71472" lon="5.70839">
        <ele>552.6</ele>
        <time>2022-05-27T13:29:14Z</time>
      </trkpt>
      <trkpt lat="46.71469" lon="5.70837">
        <ele>552.6</ele>
        <time>2022-05-27T13:29:15Z</time>
      </trkpt>
      <trkpt lat="46.71456" lon="5.70832">
        <ele>553.6</ele>
        <time>2022-05-27T13:29:18Z</time>
      </trkpt>
      <trkpt lat="46.71442" lon="5.70826">
        <ele>554.4</ele>
        <time>2022-05-27T13:29:21Z</time>
      </trkpt>
      <trkpt lat="46.71437" lon="5.70824">
        <ele>554.6</ele>
        <time>2022-05-27T13:29:22Z</time>
      </trkpt>
      <trkpt lat="46.71431" lon="5.70823">
        <ele>555.2</ele>
        <time>2022-05-27T13:29:23Z</time>
      </trkpt>
      <trkpt lat="46.71426" lon="5.70823">
        <ele>555.2</ele>
        <time>2022-05-27T13:29:24Z</time>
      </trkpt>
      <trkpt lat="46.71415" lon="5.70825">
        <ele>555.6</ele>
        <time>2022-05-27T13:29:26Z</time>
      </trkpt>
      <trkpt lat="46.71406" lon="5.7083">
        <ele>555.8</ele>
        <time>2022-05-27T13:29:28Z</time>
      </trkpt>
      <trkpt lat="46.71401" lon="5.70834">
        <ele>555.8</ele>
        <time>2022-05-27T13:29:29Z</time>
      </trkpt>
      <trkpt lat="46.71385" lon="5.70849">
        <ele>556.4</ele>
        <time>2022-05-27T13:29:33Z</time>
      </trkpt>
      <trkpt lat="46.71382" lon="5.70854">
        <ele>556.8</ele>
        <time>2022-05-27T13:29:34Z</time>
      </trkpt>
      <trkpt lat="46.71376" lon="5.70864">
        <ele>557.2</ele>
        <time>2022-05-27T13:29:36Z</time>
      </trkpt>
      <trkpt lat="46.71369" lon="5.70879">
        <ele>558.4</ele>
        <time>2022-05-27T13:29:39Z</time>
      </trkpt>
      <trkpt lat="46.71365" lon="5.709">
        <ele>559.8</ele>
        <time>2022-05-27T13:29:43Z</time>
      </trkpt>
      <trkpt lat="46.71362" lon="5.70929">
        <ele>560.8</ele>
        <time>2022-05-27T13:29:47Z</time>
      </trkpt>
      <trkpt lat="46.7136" lon="5.70937">
        <ele>561</ele>
        <time>2022-05-27T13:29:48Z</time>
      </trkpt>
      <trkpt lat="46.71352" lon="5.70979">
        <ele>561.4</ele>
        <time>2022-05-27T13:29:53Z</time>
      </trkpt>
      <trkpt lat="46.71346" lon="5.70997">
        <ele>561.6</ele>
        <time>2022-05-27T13:29:55Z</time>
      </trkpt>
      <trkpt lat="46.71325" lon="5.71054">
        <ele>560.8</ele>
        <time>2022-05-27T13:30:01Z</time>
      </trkpt>
      <trkpt lat="46.71315" lon="5.71087">
        <ele>559.8</ele>
        <time>2022-05-27T13:30:04Z</time>
      </trkpt>
      <trkpt lat="46.7131" lon="5.71111">
        <ele>558.8</ele>
        <time>2022-05-27T13:30:06Z</time>
      </trkpt>
      <trkpt lat="46.71308" lon="5.71122">
        <ele>558.4</ele>
        <time>2022-05-27T13:30:07Z</time>
      </trkpt>
      <trkpt lat="46.7129" lon="5.7119">
        <ele>557.4</ele>
        <time>2022-05-27T13:30:13Z</time>
      </trkpt>
      <trkpt lat="46.71266" lon="5.71254">
        <ele>557.2</ele>
        <time>2022-05-27T13:30:19Z</time>
      </trkpt>
      <trkpt lat="46.71252" lon="5.71282">
        <ele>557.4</ele>
        <time>2022-05-27T13:30:22Z</time>
      </trkpt>
      <trkpt lat="46.71242" lon="5.71297">
        <ele>557.4</ele>
        <time>2022-05-27T13:30:24Z</time>
      </trkpt>
      <trkpt lat="46.71221" lon="5.71322">
        <ele>557.8</ele>
        <time>2022-05-27T13:30:28Z</time>
      </trkpt>
      <trkpt lat="46.71215" lon="5.71326">
        <ele>558.2</ele>
        <time>2022-05-27T13:30:29Z</time>
      </trkpt>
      <trkpt lat="46.71209" lon="5.71329">
        <ele>558.6</ele>
        <time>2022-05-27T13:30:30Z</time>
      </trkpt>
      <trkpt lat="46.71183" lon="5.71336">
        <ele>559.8</ele>
        <time>2022-05-27T13:30:34Z</time>
      </trkpt>
      <trkpt lat="46.71144" lon="5.71349">
        <ele>560.2</ele>
        <time>2022-05-27T13:30:39Z</time>
      </trkpt>
      <trkpt lat="46.7113" lon="5.71357">
        <ele>560.4</ele>
        <time>2022-05-27T13:30:41Z</time>
      </trkpt>
      <trkpt lat="46.71118" lon="5.71369">
        <ele>560.6</ele>
        <time>2022-05-27T13:30:43Z</time>
      </trkpt>
      <trkpt lat="46.71102" lon="5.71396">
        <ele>560.8</ele>
        <time>2022-05-27T13:30:47Z</time>
      </trkpt>
      <trkpt lat="46.71093" lon="5.71417">
        <ele>562</ele>
        <time>2022-05-27T13:30:50Z</time>
      </trkpt>
      <trkpt lat="46.71089" lon="5.71429">
        <ele>562.6</ele>
        <time>2022-05-27T13:30:52Z</time>
      </trkpt>
      <trkpt lat="46.71082" lon="5.71447">
        <ele>563.2</ele>
        <time>2022-05-27T13:30:55Z</time>
      </trkpt>
      <trkpt lat="46.71077" lon="5.71458">
        <ele>563.8</ele>
        <time>2022-05-27T13:30:57Z</time>
      </trkpt>
      <trkpt lat="46.71074" lon="5.71463">
        <ele>564.2</ele>
        <time>2022-05-27T13:30:58Z</time>
      </trkpt>
      <trkpt lat="46.71072" lon="5.71468">
        <ele>564.4</ele>
        <time>2022-05-27T13:30:59Z</time>
      </trkpt>
      <trkpt lat="46.71061" lon="5.7148">
        <ele>565.4</ele>
        <time>2022-05-27T13:31:02Z</time>
      </trkpt>
      <trkpt lat="46.71049" lon="5.7149">
        <ele>566</ele>
        <time>2022-05-27T13:31:05Z</time>
      </trkpt>
      <trkpt lat="46.7104" lon="5.71493">
        <ele>566.6</ele>
        <time>2022-05-27T13:31:07Z</time>
      </trkpt>
      <trkpt lat="46.71035" lon="5.71494">
        <ele>567</ele>
        <time>2022-05-27T13:31:08Z</time>
      </trkpt>
      <trkpt lat="46.71025" lon="5.71495">
        <ele>567.6</ele>
        <time>2022-05-27T13:31:10Z</time>
      </trkpt>
      <trkpt lat="46.7102" lon="5.71494">
        <ele>567.6</ele>
        <time>2022-05-27T13:31:11Z</time>
      </trkpt>
      <trkpt lat="46.7101" lon="5.71493">
        <ele>567.8</ele>
        <time>2022-05-27T13:31:13Z</time>
      </trkpt>
      <trkpt lat="46.70988" lon="5.7149">
        <ele>568.4</ele>
        <time>2022-05-27T13:31:17Z</time>
      </trkpt>
      <trkpt lat="46.70976" lon="5.71494">
        <ele>568.6</ele>
        <time>2022-05-27T13:31:19Z</time>
      </trkpt>
      <trkpt lat="46.70964" lon="5.715">
        <ele>568.6</ele>
        <time>2022-05-27T13:31:21Z</time>
      </trkpt>
      <trkpt lat="46.70934" lon="5.71528">
        <ele>568.8</ele>
        <time>2022-05-27T13:31:27Z</time>
      </trkpt>
      <trkpt lat="46.70924" lon="5.71538">
        <ele>568.8</ele>
        <time>2022-05-27T13:31:29Z</time>
      </trkpt>
      <trkpt lat="46.70919" lon="5.71544">
        <ele>569</ele>
        <time>2022-05-27T13:31:30Z</time>
      </trkpt>
      <trkpt lat="46.70914" lon="5.7155">
        <ele>569.4</ele>
        <time>2022-05-27T13:31:31Z</time>
      </trkpt>
      <trkpt lat="46.7091" lon="5.71556">
        <ele>569.4</ele>
        <time>2022-05-27T13:31:32Z</time>
      </trkpt>
      <trkpt lat="46.70888" lon="5.7161">
        <ele>570.2</ele>
        <time>2022-05-27T13:31:39Z</time>
      </trkpt>
      <trkpt lat="46.70882" lon="5.71649">
        <ele>571.2</ele>
        <time>2022-05-27T13:31:44Z</time>
      </trkpt>
      <trkpt lat="46.70881" lon="5.71657">
        <ele>571.2</ele>
        <time>2022-05-27T13:31:45Z</time>
      </trkpt>
      <trkpt lat="46.7088" lon="5.71665">
        <ele>571.4</ele>
        <time>2022-05-27T13:31:46Z</time>
      </trkpt>
      <trkpt lat="46.70876" lon="5.7168">
        <ele>571.8</ele>
        <time>2022-05-27T13:31:48Z</time>
      </trkpt>
      <trkpt lat="46.70874" lon="5.71687">
        <ele>572</ele>
        <time>2022-05-27T13:31:49Z</time>
      </trkpt>
      <trkpt lat="46.70868" lon="5.71699">
        <ele>572.6</ele>
        <time>2022-05-27T13:31:51Z</time>
      </trkpt>
      <trkpt lat="46.7086" lon="5.7171">
        <ele>572.8</ele>
        <time>2022-05-27T13:31:53Z</time>
      </trkpt>
      <trkpt lat="46.70854" lon="5.71714">
        <ele>573.2</ele>
        <time>2022-05-27T13:31:54Z</time>
      </trkpt>
      <trkpt lat="46.70849" lon="5.71716">
        <ele>573.4</ele>
        <time>2022-05-27T13:31:55Z</time>
      </trkpt>
      <trkpt lat="46.70836" lon="5.71718">
        <ele>573.8</ele>
        <time>2022-05-27T13:31:57Z</time>
      </trkpt>
      <trkpt lat="46.70828" lon="5.71717">
        <ele>574</ele>
        <time>2022-05-27T13:31:58Z</time>
      </trkpt>
      <trkpt lat="46.70794" lon="5.71701">
        <ele>573.8</ele>
        <time>2022-05-27T13:32:03Z</time>
      </trkpt>
      <trkpt lat="46.70751" lon="5.71677">
        <ele>573</ele>
        <time>2022-05-27T13:32:09Z</time>
      </trkpt>
      <trkpt lat="46.70742" lon="5.71675">
        <ele>572.8</ele>
        <time>2022-05-27T13:32:10Z</time>
      </trkpt>
      <trkpt lat="46.70726" lon="5.71674">
        <ele>572.6</ele>
        <time>2022-05-27T13:32:12Z</time>
      </trkpt>
      <trkpt lat="46.70711" lon="5.71679">
        <ele>572.4</ele>
        <time>2022-05-27T13:32:14Z</time>
      </trkpt>
      <trkpt lat="46.70702" lon="5.71683">
        <ele>572.4</ele>
        <time>2022-05-27T13:32:15Z</time>
      </trkpt>
      <trkpt lat="46.70667" lon="5.71704">
        <ele>571</ele>
        <time>2022-05-27T13:32:19Z</time>
      </trkpt>
      <trkpt lat="46.70652" lon="5.71712">
        <ele>570.4</ele>
        <time>2022-05-27T13:32:21Z</time>
      </trkpt>
      <trkpt lat="46.70638" lon="5.71727">
        <ele>570</ele>
        <time>2022-05-27T13:32:23Z</time>
      </trkpt>
      <trkpt lat="46.70625" lon="5.71749">
        <ele>569.8</ele>
        <time>2022-05-27T13:32:25Z</time>
      </trkpt>
      <trkpt lat="46.70622" lon="5.7176">
        <ele>569.6</ele>
        <time>2022-05-27T13:32:26Z</time>
      </trkpt>
      <trkpt lat="46.70613" lon="5.71786">
        <ele>569</ele>
        <time>2022-05-27T13:32:28Z</time>
      </trkpt>
      <trkpt lat="46.70597" lon="5.71851">
        <ele>568.2</ele>
        <time>2022-05-27T13:32:33Z</time>
      </trkpt>
      <trkpt lat="46.70589" lon="5.71889">
        <ele>567.8</ele>
        <time>2022-05-27T13:32:36Z</time>
      </trkpt>
      <trkpt lat="46.70578" lon="5.71925">
        <ele>567.4</ele>
        <time>2022-05-27T13:32:39Z</time>
      </trkpt>
      <trkpt lat="46.70573" lon="5.71936">
        <ele>567.2</ele>
        <time>2022-05-27T13:32:40Z</time>
      </trkpt>
      <trkpt lat="46.70544" lon="5.71989">
        <ele>566.6</ele>
        <time>2022-05-27T13:32:45Z</time>
      </trkpt>
      <trkpt lat="46.70531" lon="5.72007">
        <ele>566.2</ele>
        <time>2022-05-27T13:32:47Z</time>
      </trkpt>
      <trkpt lat="46.70499" lon="5.72043">
        <ele>566.2</ele>
        <time>2022-05-27T13:32:52Z</time>
      </trkpt>
      <trkpt lat="46.70476" lon="5.72064">
        <ele>567.6</ele>
        <time>2022-05-27T13:32:56Z</time>
      </trkpt>
      <trkpt lat="46.70464" lon="5.72074">
        <ele>568.4</ele>
        <time>2022-05-27T13:32:58Z</time>
      </trkpt>
      <trkpt lat="46.70459" lon="5.72078">
        <ele>568.8</ele>
        <time>2022-05-27T13:32:59Z</time>
      </trkpt>
      <trkpt lat="46.70449" lon="5.72088">
        <ele>569.8</ele>
        <time>2022-05-27T13:33:01Z</time>
      </trkpt>
      <trkpt lat="46.7044" lon="5.721">
        <ele>570.8</ele>
        <time>2022-05-27T13:33:03Z</time>
      </trkpt>
      <trkpt lat="46.70435" lon="5.72107">
        <ele>571.2</ele>
        <time>2022-05-27T13:33:04Z</time>
      </trkpt>
      <trkpt lat="46.70416" lon="5.72138">
        <ele>572</ele>
        <time>2022-05-27T13:33:08Z</time>
      </trkpt>
      <trkpt lat="46.70385" lon="5.72183">
        <ele>572.4</ele>
        <time>2022-05-27T13:33:15Z</time>
      </trkpt>
      <trkpt lat="46.7038" lon="5.72189">
        <ele>572.4</ele>
        <time>2022-05-27T13:33:16Z</time>
      </trkpt>
      <trkpt lat="46.70362" lon="5.72213">
        <ele>573.6</ele>
        <time>2022-05-27T13:33:20Z</time>
      </trkpt>
      <trkpt lat="46.70328" lon="5.72254">
        <ele>574.6</ele>
        <time>2022-05-27T13:33:27Z</time>
      </trkpt>
      <trkpt lat="46.70293" lon="5.7229">
        <ele>573.4</ele>
        <time>2022-05-27T13:33:33Z</time>
      </trkpt>
      <trkpt lat="46.70268" lon="5.72319">
        <ele>572.4</ele>
        <time>2022-05-27T13:33:37Z</time>
      </trkpt>
      <trkpt lat="46.70248" lon="5.72343">
        <ele>571.4</ele>
        <time>2022-05-27T13:33:40Z</time>
      </trkpt>
      <trkpt lat="46.70216" lon="5.72384">
        <ele>570.2</ele>
        <time>2022-05-27T13:33:45Z</time>
      </trkpt>
      <trkpt lat="46.70205" lon="5.72402">
        <ele>569.8</ele>
        <time>2022-05-27T13:33:47Z</time>
      </trkpt>
      <trkpt lat="46.70187" lon="5.72425">
        <ele>569.6</ele>
        <time>2022-05-27T13:33:50Z</time>
      </trkpt>
      <trkpt lat="46.7018" lon="5.72431">
        <ele>569.4</ele>
        <time>2022-05-27T13:33:51Z</time>
      </trkpt>
      <trkpt lat="46.70164" lon="5.72439">
        <ele>569.4</ele>
        <time>2022-05-27T13:33:53Z</time>
      </trkpt>
      <trkpt lat="46.70148" lon="5.72441">
        <ele>569.6</ele>
        <time>2022-05-27T13:33:55Z</time>
      </trkpt>
      <trkpt lat="46.70116" lon="5.72431">
        <ele>569.8</ele>
        <time>2022-05-27T13:33:59Z</time>
      </trkpt>
      <trkpt lat="46.70103" lon="5.72418">
        <ele>569.8</ele>
        <time>2022-05-27T13:34:01Z</time>
      </trkpt>
      <trkpt lat="46.70091" lon="5.72403">
        <ele>570</ele>
        <time>2022-05-27T13:34:03Z</time>
      </trkpt>
      <trkpt lat="46.70069" lon="5.72375">
        <ele>570.6</ele>
        <time>2022-05-27T13:34:07Z</time>
      </trkpt>
      <trkpt lat="46.70063" lon="5.7237">
        <ele>570.8</ele>
        <time>2022-05-27T13:34:08Z</time>
      </trkpt>
      <trkpt lat="46.70057" lon="5.72366">
        <ele>570.8</ele>
        <time>2022-05-27T13:34:09Z</time>
      </trkpt>
      <trkpt lat="46.70039" lon="5.72358">
        <ele>571.4</ele>
        <time>2022-05-27T13:34:12Z</time>
      </trkpt>
      <trkpt lat="46.70033" lon="5.72356">
        <ele>571.6</ele>
        <time>2022-05-27T13:34:13Z</time>
      </trkpt>
      <trkpt lat="46.7002" lon="5.72355">
        <ele>572.2</ele>
        <time>2022-05-27T13:34:15Z</time>
      </trkpt>
      <trkpt lat="46.70002" lon="5.72359">
        <ele>572.8</ele>
        <time>2022-05-27T13:34:18Z</time>
      </trkpt>
      <trkpt lat="46.69991" lon="5.72365">
        <ele>573.4</ele>
        <time>2022-05-27T13:34:20Z</time>
      </trkpt>
      <trkpt lat="46.69981" lon="5.72373">
        <ele>573.8</ele>
        <time>2022-05-27T13:34:22Z</time>
      </trkpt>
      <trkpt lat="46.69972" lon="5.7238">
        <ele>574.4</ele>
        <time>2022-05-27T13:34:24Z</time>
      </trkpt>
      <trkpt lat="46.69963" lon="5.72388">
        <ele>574.8</ele>
        <time>2022-05-27T13:34:26Z</time>
      </trkpt>
      <trkpt lat="46.69953" lon="5.724">
        <ele>576.2</ele>
        <time>2022-05-27T13:34:29Z</time>
      </trkpt>
      <trkpt lat="46.6995" lon="5.72405">
        <ele>576.4</ele>
        <time>2022-05-27T13:34:30Z</time>
      </trkpt>
      <trkpt lat="46.69942" lon="5.72421">
        <ele>577.4</ele>
        <time>2022-05-27T13:34:33Z</time>
      </trkpt>
      <trkpt lat="46.69937" lon="5.72436">
        <ele>578</ele>
        <time>2022-05-27T13:34:35Z</time>
      </trkpt>
      <trkpt lat="46.69926" lon="5.72475">
        <ele>578.4</ele>
        <time>2022-05-27T13:34:40Z</time>
      </trkpt>
      <trkpt lat="46.69922" lon="5.72482">
        <ele>578.6</ele>
        <time>2022-05-27T13:34:41Z</time>
      </trkpt>
      <trkpt lat="46.69918" lon="5.72487">
        <ele>578.8</ele>
        <time>2022-05-27T13:34:42Z</time>
      </trkpt>
      <trkpt lat="46.6991" lon="5.72496">
        <ele>579</ele>
        <time>2022-05-27T13:34:44Z</time>
      </trkpt>
      <trkpt lat="46.69905" lon="5.72501">
        <ele>579.2</ele>
        <time>2022-05-27T13:34:45Z</time>
      </trkpt>
      <trkpt lat="46.69893" lon="5.72509">
        <ele>579.6</ele>
        <time>2022-05-27T13:34:48Z</time>
      </trkpt>
      <trkpt lat="46.69882" lon="5.72505">
        <ele>580.2</ele>
        <time>2022-05-27T13:34:51Z</time>
      </trkpt>
      <trkpt lat="46.69877" lon="5.72503">
        <ele>580.4</ele>
        <time>2022-05-27T13:34:52Z</time>
      </trkpt>
      <trkpt lat="46.69864" lon="5.72499">
        <ele>580.6</ele>
        <time>2022-05-27T13:34:55Z</time>
      </trkpt>
      <trkpt lat="46.69859" lon="5.72498">
        <ele>580.8</ele>
        <time>2022-05-27T13:34:56Z</time>
      </trkpt>
      <trkpt lat="46.69855" lon="5.72496">
        <ele>580.8</ele>
        <time>2022-05-27T13:34:57Z</time>
      </trkpt>
      <trkpt lat="46.69841" lon="5.72493">
        <ele>581.2</ele>
        <time>2022-05-27T13:35:00Z</time>
      </trkpt>
      <trkpt lat="46.6983" lon="5.72496">
        <ele>581.4</ele>
        <time>2022-05-27T13:35:02Z</time>
      </trkpt>
      <trkpt lat="46.69819" lon="5.72498">
        <ele>581.4</ele>
        <time>2022-05-27T13:35:04Z</time>
      </trkpt>
      <trkpt lat="46.69808" lon="5.72496">
        <ele>581.4</ele>
        <time>2022-05-27T13:35:06Z</time>
      </trkpt>
      <trkpt lat="46.69785" lon="5.72481">
        <ele>581.4</ele>
        <time>2022-05-27T13:35:10Z</time>
      </trkpt>
      <trkpt lat="46.69765" lon="5.72478">
        <ele>581.6</ele>
        <time>2022-05-27T13:35:14Z</time>
      </trkpt>
      <trkpt lat="46.69761" lon="5.72479">
        <ele>582</ele>
        <time>2022-05-27T13:35:15Z</time>
      </trkpt>
      <trkpt lat="46.69748" lon="5.72483">
        <ele>583.4</ele>
        <time>2022-05-27T13:35:18Z</time>
      </trkpt>
      <trkpt lat="46.69739" lon="5.72486">
        <ele>584</ele>
        <time>2022-05-27T13:35:20Z</time>
      </trkpt>
      <trkpt lat="46.6973" lon="5.72489">
        <ele>584.4</ele>
        <time>2022-05-27T13:35:22Z</time>
      </trkpt>
      <trkpt lat="46.69722" lon="5.72492">
        <ele>585</ele>
        <time>2022-05-27T13:35:24Z</time>
      </trkpt>
      <trkpt lat="46.69718" lon="5.72492">
        <ele>585.4</ele>
        <time>2022-05-27T13:35:25Z</time>
      </trkpt>
      <trkpt lat="46.69714" lon="5.72493">
        <ele>585.6</ele>
        <time>2022-05-27T13:35:26Z</time>
      </trkpt>
      <trkpt lat="46.69703" lon="5.72495">
        <ele>586.6</ele>
        <time>2022-05-27T13:35:29Z</time>
      </trkpt>
      <trkpt lat="46.69694" lon="5.72495">
        <ele>587.6</ele>
        <time>2022-05-27T13:35:31Z</time>
      </trkpt>
      <trkpt lat="46.6969" lon="5.72494">
        <ele>588.2</ele>
        <time>2022-05-27T13:35:32Z</time>
      </trkpt>
      <trkpt lat="46.69674" lon="5.72494">
        <ele>588.8</ele>
        <time>2022-05-27T13:35:37Z</time>
      </trkpt>
      <trkpt lat="46.6967" lon="5.72494">
        <ele>589.2</ele>
        <time>2022-05-27T13:35:39Z</time>
      </trkpt>
      <trkpt lat="46.69663" lon="5.72497">
        <ele>589.4</ele>
        <time>2022-05-27T13:35:43Z</time>
      </trkpt>
      <trkpt lat="46.69658" lon="5.72503">
        <ele>589.4</ele>
        <time>2022-05-27T13:35:47Z</time>
      </trkpt>
      <trkpt lat="46.69658" lon="5.7251">
        <ele>589.4</ele>
        <time>2022-05-27T13:35:49Z</time>
      </trkpt>
      <trkpt lat="46.69659" lon="5.7254">
        <ele>589.4</ele>
        <time>2022-05-27T13:35:54Z</time>
      </trkpt>
      <trkpt lat="46.69662" lon="5.7259">
        <ele>589</ele>
        <time>2022-05-27T13:36:00Z</time>
      </trkpt>
      <trkpt lat="46.69666" lon="5.72633">
        <ele>588.2</ele>
        <time>2022-05-27T13:36:05Z</time>
      </trkpt>
      <trkpt lat="46.69666" lon="5.72643">
        <ele>587.8</ele>
        <time>2022-05-27T13:36:06Z</time>
      </trkpt>
      <trkpt lat="46.69666" lon="5.7265">
        <ele>587.6</ele>
        <time>2022-05-27T13:36:07Z</time>
      </trkpt>
      <trkpt lat="46.69664" lon="5.72666">
        <ele>587.4</ele>
        <time>2022-05-27T13:36:09Z</time>
      </trkpt>
      <trkpt lat="46.69661" lon="5.72672">
        <ele>587.4</ele>
        <time>2022-05-27T13:36:10Z</time>
      </trkpt>
      <trkpt lat="46.69656" lon="5.72676">
        <ele>587.2</ele>
        <time>2022-05-27T13:36:11Z</time>
      </trkpt>
      <trkpt lat="46.69646" lon="5.72679">
        <ele>587.2</ele>
        <time>2022-05-27T13:36:13Z</time>
      </trkpt>
      <trkpt lat="46.6961" lon="5.72685">
        <ele>587.8</ele>
        <time>2022-05-27T13:36:20Z</time>
      </trkpt>
      <trkpt lat="46.69605" lon="5.72686">
        <ele>587.8</ele>
        <time>2022-05-27T13:36:21Z</time>
      </trkpt>
      <trkpt lat="46.69586" lon="5.72688">
        <ele>588.8</ele>
        <time>2022-05-27T13:36:25Z</time>
      </trkpt>
      <trkpt lat="46.69575" lon="5.72691">
        <ele>589</ele>
        <time>2022-05-27T13:36:27Z</time>
      </trkpt>
      <trkpt lat="46.6957" lon="5.72692">
        <ele>589.2</ele>
        <time>2022-05-27T13:36:28Z</time>
      </trkpt>
      <trkpt lat="46.69565" lon="5.72692">
        <ele>589.4</ele>
        <time>2022-05-27T13:36:29Z</time>
      </trkpt>
      <trkpt lat="46.69549" lon="5.72697">
        <ele>590.2</ele>
        <time>2022-05-27T13:36:32Z</time>
      </trkpt>
      <trkpt lat="46.69543" lon="5.72698">
        <ele>590.2</ele>
        <time>2022-05-27T13:36:33Z</time>
      </trkpt>
      <trkpt lat="46.69512" lon="5.72706">
        <ele>591</ele>
        <time>2022-05-27T13:36:38Z</time>
      </trkpt>
      <trkpt lat="46.69493" lon="5.72712">
        <ele>591.4</ele>
        <time>2022-05-27T13:36:41Z</time>
      </trkpt>
      <trkpt lat="46.69465" lon="5.7272">
        <ele>591.4</ele>
        <time>2022-05-27T13:36:45Z</time>
      </trkpt>
      <trkpt lat="46.69414" lon="5.72734">
        <ele>591.4</ele>
        <time>2022-05-27T13:36:53Z</time>
      </trkpt>
      <trkpt lat="46.69366" lon="5.72745">
        <ele>590.2</ele>
        <time>2022-05-27T13:37:00Z</time>
      </trkpt>
      <trkpt lat="46.6935" lon="5.7275">
        <ele>589.6</ele>
        <time>2022-05-27T13:37:02Z</time>
      </trkpt>
      <trkpt lat="46.69307" lon="5.72761">
        <ele>589.2</ele>
        <time>2022-05-27T13:37:08Z</time>
      </trkpt>
      <trkpt lat="46.69299" lon="5.72764">
        <ele>589.2</ele>
        <time>2022-05-27T13:37:09Z</time>
      </trkpt>
      <trkpt lat="46.69254" lon="5.72775">
        <ele>588.8</ele>
        <time>2022-05-27T13:37:15Z</time>
      </trkpt>
      <trkpt lat="46.69197" lon="5.7279">
        <ele>589.2</ele>
        <time>2022-05-27T13:37:23Z</time>
      </trkpt>
      <trkpt lat="46.69184" lon="5.72794">
        <ele>589.8</ele>
        <time>2022-05-27T13:37:25Z</time>
      </trkpt>
      <trkpt lat="46.69171" lon="5.72798">
        <ele>590.2</ele>
        <time>2022-05-27T13:37:27Z</time>
      </trkpt>
      <trkpt lat="46.69153" lon="5.72801">
        <ele>590.6</ele>
        <time>2022-05-27T13:37:30Z</time>
      </trkpt>
      <trkpt lat="46.6914" lon="5.72804">
        <ele>591.4</ele>
        <time>2022-05-27T13:37:32Z</time>
      </trkpt>
      <trkpt lat="46.69124" lon="5.72809">
        <ele>593.2</ele>
        <time>2022-05-27T13:37:35Z</time>
      </trkpt>
      <trkpt lat="46.69119" lon="5.7281">
        <ele>593.4</ele>
        <time>2022-05-27T13:37:36Z</time>
      </trkpt>
      <trkpt lat="46.69114" lon="5.72812">
        <ele>593.6</ele>
        <time>2022-05-27T13:37:37Z</time>
      </trkpt>
      <trkpt lat="46.69102" lon="5.72816">
        <ele>594.8</ele>
        <time>2022-05-27T13:37:39Z</time>
      </trkpt>
      <trkpt lat="46.69089" lon="5.72818">
        <ele>595.6</ele>
        <time>2022-05-27T13:37:41Z</time>
      </trkpt>
      <trkpt lat="46.69071" lon="5.72814">
        <ele>596</ele>
        <time>2022-05-27T13:37:44Z</time>
      </trkpt>
      <trkpt lat="46.6903" lon="5.72801">
        <ele>596.2</ele>
        <time>2022-05-27T13:37:50Z</time>
      </trkpt>
      <trkpt lat="46.68996" lon="5.72779">
        <ele>596</ele>
        <time>2022-05-27T13:37:55Z</time>
      </trkpt>
      <trkpt lat="46.68988" lon="5.72773">
        <ele>595.8</ele>
        <time>2022-05-27T13:37:56Z</time>
      </trkpt>
      <trkpt lat="46.68981" lon="5.72767">
        <ele>595.6</ele>
        <time>2022-05-27T13:37:57Z</time>
      </trkpt>
      <trkpt lat="46.68959" lon="5.72748">
        <ele>595</ele>
        <time>2022-05-27T13:38:00Z</time>
      </trkpt>
      <trkpt lat="46.68952" lon="5.72742">
        <ele>594.8</ele>
        <time>2022-05-27T13:38:01Z</time>
      </trkpt>
      <trkpt lat="46.68919" lon="5.72712">
        <ele>594.8</ele>
        <time>2022-05-27T13:38:06Z</time>
      </trkpt>
      <trkpt lat="46.68876" lon="5.72674">
        <ele>594.8</ele>
        <time>2022-05-27T13:38:12Z</time>
      </trkpt>
      <trkpt lat="46.68835" lon="5.72637">
        <ele>594.6</ele>
        <time>2022-05-27T13:38:18Z</time>
      </trkpt>
      <trkpt lat="46.68781" lon="5.72603">
        <ele>594.2</ele>
        <time>2022-05-27T13:38:25Z</time>
      </trkpt>
      <trkpt lat="46.68775" lon="5.726">
        <ele>594</ele>
        <time>2022-05-27T13:38:26Z</time>
      </trkpt>
      <trkpt lat="46.68721" lon="5.72575">
        <ele>594</ele>
        <time>2022-05-27T13:38:33Z</time>
      </trkpt>
      <trkpt lat="46.68712" lon="5.7257">
        <ele>594</ele>
        <time>2022-05-27T13:38:34Z</time>
      </trkpt>
      <trkpt lat="46.68689" lon="5.72557">
        <ele>594</ele>
        <time>2022-05-27T13:38:37Z</time>
      </trkpt>
      <trkpt lat="46.6865" lon="5.72534">
        <ele>593.8</ele>
        <time>2022-05-27T13:38:42Z</time>
      </trkpt>
      <trkpt lat="46.68626" lon="5.72521">
        <ele>593.2</ele>
        <time>2022-05-27T13:38:45Z</time>
      </trkpt>
      <trkpt lat="46.68617" lon="5.72515">
        <ele>593.4</ele>
        <time>2022-05-27T13:38:46Z</time>
      </trkpt>
      <trkpt lat="46.68586" lon="5.72498">
        <ele>592.8</ele>
        <time>2022-05-27T13:38:50Z</time>
      </trkpt>
      <trkpt lat="46.68579" lon="5.72494">
        <ele>592.6</ele>
        <time>2022-05-27T13:38:51Z</time>
      </trkpt>
      <trkpt lat="46.68541" lon="5.72475">
        <ele>592</ele>
        <time>2022-05-27T13:38:56Z</time>
      </trkpt>
      <trkpt lat="46.68532" lon="5.7247">
        <ele>592</ele>
        <time>2022-05-27T13:38:57Z</time>
      </trkpt>
      <trkpt lat="46.68509" lon="5.72458">
        <ele>592</ele>
        <time>2022-05-27T13:39:00Z</time>
      </trkpt>
      <trkpt lat="46.68494" lon="5.72448">
        <ele>591.8</ele>
        <time>2022-05-27T13:39:02Z</time>
      </trkpt>
      <trkpt lat="46.68479" lon="5.72434">
        <ele>591.6</ele>
        <time>2022-05-27T13:39:04Z</time>
      </trkpt>
      <trkpt lat="46.68465" lon="5.72421">
        <ele>591.4</ele>
        <time>2022-05-27T13:39:06Z</time>
      </trkpt>
      <trkpt lat="46.68439" lon="5.724">
        <ele>591.6</ele>
        <time>2022-05-27T13:39:10Z</time>
      </trkpt>
      <trkpt lat="46.68422" lon="5.7239">
        <ele>591.6</ele>
        <time>2022-05-27T13:39:12Z</time>
      </trkpt>
      <trkpt lat="46.68393" lon="5.72377">
        <ele>591.4</ele>
        <time>2022-05-27T13:39:16Z</time>
      </trkpt>
      <trkpt lat="46.68384" lon="5.72375">
        <ele>591.4</ele>
        <time>2022-05-27T13:39:17Z</time>
      </trkpt>
      <trkpt lat="46.68354" lon="5.72373">
        <ele>591.2</ele>
        <time>2022-05-27T13:39:21Z</time>
      </trkpt>
      <trkpt lat="46.68298" lon="5.72381">
        <ele>591</ele>
        <time>2022-05-27T13:39:28Z</time>
      </trkpt>
      <trkpt lat="46.68288" lon="5.72383">
        <ele>591</ele>
        <time>2022-05-27T13:39:29Z</time>
      </trkpt>
      <trkpt lat="46.6826" lon="5.72395">
        <ele>591.4</ele>
        <time>2022-05-27T13:39:33Z</time>
      </trkpt>
      <trkpt lat="46.68246" lon="5.72401">
        <ele>591.2</ele>
        <time>2022-05-27T13:39:35Z</time>
      </trkpt>
      <trkpt lat="46.6823" lon="5.72408">
        <ele>591.2</ele>
        <time>2022-05-27T13:39:37Z</time>
      </trkpt>
      <trkpt lat="46.68201" lon="5.72418">
        <ele>590.8</ele>
        <time>2022-05-27T13:39:41Z</time>
      </trkpt>
      <trkpt lat="46.68193" lon="5.72419">
        <ele>590.8</ele>
        <time>2022-05-27T13:39:42Z</time>
      </trkpt>
      <trkpt lat="46.6816" lon="5.72428">
        <ele>590.6</ele>
        <time>2022-05-27T13:39:46Z</time>
      </trkpt>
      <trkpt lat="46.68153" lon="5.72429">
        <ele>590.8</ele>
        <time>2022-05-27T13:39:47Z</time>
      </trkpt>
      <trkpt lat="46.68136" lon="5.7243">
        <ele>590.4</ele>
        <time>2022-05-27T13:39:49Z</time>
      </trkpt>
      <trkpt lat="46.68128" lon="5.72429">
        <ele>590.4</ele>
        <time>2022-05-27T13:39:50Z</time>
      </trkpt>
      <trkpt lat="46.68112" lon="5.72427">
        <ele>590.4</ele>
        <time>2022-05-27T13:39:52Z</time>
      </trkpt>
      <trkpt lat="46.68088" lon="5.72422">
        <ele>590.6</ele>
        <time>2022-05-27T13:39:55Z</time>
      </trkpt>
      <trkpt lat="46.68082" lon="5.72419">
        <ele>590.6</ele>
        <time>2022-05-27T13:39:56Z</time>
      </trkpt>
      <trkpt lat="46.68039" lon="5.724">
        <ele>591.2</ele>
        <time>2022-05-27T13:40:02Z</time>
      </trkpt>
      <trkpt lat="46.68032" lon="5.72398">
        <ele>591.2</ele>
        <time>2022-05-27T13:40:03Z</time>
      </trkpt>
      <trkpt lat="46.67997" lon="5.72379">
        <ele>591</ele>
        <time>2022-05-27T13:40:07Z</time>
      </trkpt>
      <trkpt lat="46.6799" lon="5.72374">
        <ele>590.6</ele>
        <time>2022-05-27T13:40:08Z</time>
      </trkpt>
      <trkpt lat="46.67969" lon="5.72355">
        <ele>590.6</ele>
        <time>2022-05-27T13:40:11Z</time>
      </trkpt>
      <trkpt lat="46.67952" lon="5.72343">
        <ele>590.2</ele>
        <time>2022-05-27T13:40:13Z</time>
      </trkpt>
      <trkpt lat="46.67926" lon="5.72325">
        <ele>589.8</ele>
        <time>2022-05-27T13:40:16Z</time>
      </trkpt>
      <trkpt lat="46.67901" lon="5.72306">
        <ele>590.2</ele>
        <time>2022-05-27T13:40:20Z</time>
      </trkpt>
      <trkpt lat="46.67893" lon="5.72303">
        <ele>590.2</ele>
        <time>2022-05-27T13:40:21Z</time>
      </trkpt>
      <trkpt lat="46.6788" lon="5.72294">
        <ele>590.2</ele>
        <time>2022-05-27T13:40:23Z</time>
      </trkpt>
      <trkpt lat="46.67854" lon="5.72276">
        <ele>590.2</ele>
        <time>2022-05-27T13:40:27Z</time>
      </trkpt>
      <trkpt lat="46.67822" lon="5.72251">
        <ele>589.2</ele>
        <time>2022-05-27T13:40:31Z</time>
      </trkpt>
      <trkpt lat="46.67794" lon="5.72229">
        <ele>588.8</ele>
        <time>2022-05-27T13:40:35Z</time>
      </trkpt>
      <trkpt lat="46.67787" lon="5.72224">
        <ele>588.8</ele>
        <time>2022-05-27T13:40:36Z</time>
      </trkpt>
      <trkpt lat="46.67764" lon="5.72211">
        <ele>588.6</ele>
        <time>2022-05-27T13:40:39Z</time>
      </trkpt>
      <trkpt lat="46.67719" lon="5.72182">
        <ele>588.8</ele>
        <time>2022-05-27T13:40:45Z</time>
      </trkpt>
      <trkpt lat="46.67711" lon="5.72179">
        <ele>588.8</ele>
        <time>2022-05-27T13:40:46Z</time>
      </trkpt>
      <trkpt lat="46.67682" lon="5.72161">
        <ele>588.6</ele>
        <time>2022-05-27T13:40:50Z</time>
      </trkpt>
      <trkpt lat="46.67675" lon="5.72158">
        <ele>588.6</ele>
        <time>2022-05-27T13:40:51Z</time>
      </trkpt>
      <trkpt lat="46.67637" lon="5.72139">
        <ele>588.4</ele>
        <time>2022-05-27T13:40:56Z</time>
      </trkpt>
      <trkpt lat="46.676" lon="5.7213">
        <ele>588.2</ele>
        <time>2022-05-27T13:41:01Z</time>
      </trkpt>
      <trkpt lat="46.67542" lon="5.72122">
        <ele>588.4</ele>
        <time>2022-05-27T13:41:08Z</time>
      </trkpt>
      <trkpt lat="46.67536" lon="5.7212">
        <ele>588.2</ele>
        <time>2022-05-27T13:41:09Z</time>
      </trkpt>
      <trkpt lat="46.67489" lon="5.72112">
        <ele>587.6</ele>
        <time>2022-05-27T13:41:15Z</time>
      </trkpt>
      <trkpt lat="46.6748" lon="5.72111">
        <ele>587.6</ele>
        <time>2022-05-27T13:41:16Z</time>
      </trkpt>
      <trkpt lat="46.67441" lon="5.7211">
        <ele>587.2</ele>
        <time>2022-05-27T13:41:21Z</time>
      </trkpt>
      <trkpt lat="46.67434" lon="5.72111">
        <ele>587</ele>
        <time>2022-05-27T13:41:22Z</time>
      </trkpt>
      <trkpt lat="46.67386" lon="5.72115">
        <ele>586.6</ele>
        <time>2022-05-27T13:41:28Z</time>
      </trkpt>
      <trkpt lat="46.67338" lon="5.72122">
        <ele>586.8</ele>
        <time>2022-05-27T13:41:34Z</time>
      </trkpt>
      <trkpt lat="46.67321" lon="5.72124">
        <ele>586.6</ele>
        <time>2022-05-27T13:41:36Z</time>
      </trkpt>
      <trkpt lat="46.67265" lon="5.72134">
        <ele>586.2</ele>
        <time>2022-05-27T13:41:43Z</time>
      </trkpt>
      <trkpt lat="46.67257" lon="5.72135">
        <ele>586.2</ele>
        <time>2022-05-27T13:41:44Z</time>
      </trkpt>
      <trkpt lat="46.67202" lon="5.72141">
        <ele>586.2</ele>
        <time>2022-05-27T13:41:51Z</time>
      </trkpt>
      <trkpt lat="46.67145" lon="5.72141">
        <ele>586.8</ele>
        <time>2022-05-27T13:41:58Z</time>
      </trkpt>
      <trkpt lat="46.67136" lon="5.72141">
        <ele>586.6</ele>
        <time>2022-05-27T13:41:59Z</time>
      </trkpt>
      <trkpt lat="46.67077" lon="5.72141">
        <ele>586.2</ele>
        <time>2022-05-27T13:42:06Z</time>
      </trkpt>
      <trkpt lat="46.67019" lon="5.72138">
        <ele>585.8</ele>
        <time>2022-05-27T13:42:13Z</time>
      </trkpt>
      <trkpt lat="46.67003" lon="5.72139">
        <ele>585.6</ele>
        <time>2022-05-27T13:42:15Z</time>
      </trkpt>
      <trkpt lat="46.66971" lon="5.7214">
        <ele>586</ele>
        <time>2022-05-27T13:42:19Z</time>
      </trkpt>
      <trkpt lat="46.66955" lon="5.72143">
        <ele>586</ele>
        <time>2022-05-27T13:42:21Z</time>
      </trkpt>
      <trkpt lat="46.66913" lon="5.72151">
        <ele>586.4</ele>
        <time>2022-05-27T13:42:26Z</time>
      </trkpt>
      <trkpt lat="46.66904" lon="5.72151">
        <ele>586.4</ele>
        <time>2022-05-27T13:42:27Z</time>
      </trkpt>
      <trkpt lat="46.66853" lon="5.72147">
        <ele>586.2</ele>
        <time>2022-05-27T13:42:33Z</time>
      </trkpt>
      <trkpt lat="46.66795" lon="5.72139">
        <ele>585.6</ele>
        <time>2022-05-27T13:42:40Z</time>
      </trkpt>
      <trkpt lat="46.66787" lon="5.72138">
        <ele>585.8</ele>
        <time>2022-05-27T13:42:41Z</time>
      </trkpt>
      <trkpt lat="46.66754" lon="5.7213">
        <ele>585.4</ele>
        <time>2022-05-27T13:42:45Z</time>
      </trkpt>
      <trkpt lat="46.66746" lon="5.72123">
        <ele>585.4</ele>
        <time>2022-05-27T13:42:46Z</time>
      </trkpt>
      <trkpt lat="46.66739" lon="5.72116">
        <ele>585.4</ele>
        <time>2022-05-27T13:42:47Z</time>
      </trkpt>
      <trkpt lat="46.66721" lon="5.7209">
        <ele>585.2</ele>
        <time>2022-05-27T13:42:50Z</time>
      </trkpt>
      <trkpt lat="46.66715" lon="5.72082">
        <ele>585.2</ele>
        <time>2022-05-27T13:42:51Z</time>
      </trkpt>
      <trkpt lat="46.66701" lon="5.72072">
        <ele>585.2</ele>
        <time>2022-05-27T13:42:53Z</time>
      </trkpt>
      <trkpt lat="46.66686" lon="5.72066">
        <ele>585.2</ele>
        <time>2022-05-27T13:42:55Z</time>
      </trkpt>
      <trkpt lat="46.66678" lon="5.72064">
        <ele>585</ele>
        <time>2022-05-27T13:42:56Z</time>
      </trkpt>
      <trkpt lat="46.6667" lon="5.72063">
        <ele>585</ele>
        <time>2022-05-27T13:42:57Z</time>
      </trkpt>
      <trkpt lat="46.66613" lon="5.72052">
        <ele>584.4</ele>
        <time>2022-05-27T13:43:04Z</time>
      </trkpt>
      <trkpt lat="46.66559" lon="5.72043">
        <ele>584.8</ele>
        <time>2022-05-27T13:43:11Z</time>
      </trkpt>
      <trkpt lat="46.6655" lon="5.72041">
        <ele>584.8</ele>
        <time>2022-05-27T13:43:12Z</time>
      </trkpt>
      <trkpt lat="46.66541" lon="5.7204">
        <ele>585</ele>
        <time>2022-05-27T13:43:13Z</time>
      </trkpt>
      <trkpt lat="46.66518" lon="5.72036">
        <ele>585</ele>
        <time>2022-05-27T13:43:16Z</time>
      </trkpt>
      <trkpt lat="46.6646" lon="5.72024">
        <ele>584.4</ele>
        <time>2022-05-27T13:43:23Z</time>
      </trkpt>
      <trkpt lat="46.66437" lon="5.72015">
        <ele>584</ele>
        <time>2022-05-27T13:43:26Z</time>
      </trkpt>
      <trkpt lat="46.66407" lon="5.72">
        <ele>583.6</ele>
        <time>2022-05-27T13:43:30Z</time>
      </trkpt>
      <trkpt lat="46.66371" lon="5.71975">
        <ele>583.6</ele>
        <time>2022-05-27T13:43:35Z</time>
      </trkpt>
      <trkpt lat="46.66344" lon="5.71933">
        <ele>583.6</ele>
        <time>2022-05-27T13:43:40Z</time>
      </trkpt>
      <trkpt lat="46.66339" lon="5.71925">
        <ele>583.6</ele>
        <time>2022-05-27T13:43:41Z</time>
      </trkpt>
      <trkpt lat="46.66306" lon="5.71891">
        <ele>583.6</ele>
        <time>2022-05-27T13:43:46Z</time>
      </trkpt>
      <trkpt lat="46.66261" lon="5.71851">
        <ele>583.2</ele>
        <time>2022-05-27T13:43:53Z</time>
      </trkpt>
      <trkpt lat="46.66213" lon="5.71815">
        <ele>583.2</ele>
        <time>2022-05-27T13:44:00Z</time>
      </trkpt>
      <trkpt lat="46.66205" lon="5.71808">
        <ele>583</ele>
        <time>2022-05-27T13:44:01Z</time>
      </trkpt>
      <trkpt lat="46.66187" lon="5.71794">
        <ele>582.6</ele>
        <time>2022-05-27T13:44:04Z</time>
      </trkpt>
      <trkpt lat="46.66162" lon="5.71774">
        <ele>582.2</ele>
        <time>2022-05-27T13:44:08Z</time>
      </trkpt>
      <trkpt lat="46.66128" lon="5.71752">
        <ele>582</ele>
        <time>2022-05-27T13:44:14Z</time>
      </trkpt>
      <trkpt lat="46.66116" lon="5.71751">
        <ele>582</ele>
        <time>2022-05-27T13:44:16Z</time>
      </trkpt>
      <trkpt lat="46.66111" lon="5.71753">
        <ele>582</ele>
        <time>2022-05-27T13:44:17Z</time>
      </trkpt>
      <trkpt lat="46.66107" lon="5.71757">
        <ele>582</ele>
        <time>2022-05-27T13:44:18Z</time>
      </trkpt>
      <trkpt lat="46.66102" lon="5.71769">
        <ele>582.2</ele>
        <time>2022-05-27T13:44:20Z</time>
      </trkpt>
      <trkpt lat="46.66093" lon="5.71801">
        <ele>582.4</ele>
        <time>2022-05-27T13:44:24Z</time>
      </trkpt>
      <trkpt lat="46.66078" lon="5.71847">
        <ele>584</ele>
        <time>2022-05-27T13:44:30Z</time>
      </trkpt>
      <trkpt lat="46.66076" lon="5.71854">
        <ele>584.2</ele>
        <time>2022-05-27T13:44:31Z</time>
      </trkpt>
      <trkpt lat="46.66063" lon="5.71892">
        <ele>585</ele>
        <time>2022-05-27T13:44:36Z</time>
      </trkpt>
      <trkpt lat="46.6606" lon="5.71902">
        <ele>585</ele>
        <time>2022-05-27T13:44:37Z</time>
      </trkpt>
      <trkpt lat="46.66041" lon="5.71955">
        <ele>584</ele>
        <time>2022-05-27T13:44:42Z</time>
      </trkpt>
      <trkpt lat="46.66037" lon="5.71967">
        <ele>583.6</ele>
        <time>2022-05-27T13:44:43Z</time>
      </trkpt>
      <trkpt lat="46.66024" lon="5.72005">
        <ele>582.4</ele>
        <time>2022-05-27T13:44:46Z</time>
      </trkpt>
      <trkpt lat="46.6602" lon="5.72018">
        <ele>582.2</ele>
        <time>2022-05-27T13:44:47Z</time>
      </trkpt>
      <trkpt lat="46.6601" lon="5.72044">
        <ele>580.8</ele>
        <time>2022-05-27T13:44:49Z</time>
      </trkpt>
      <trkpt lat="46.65996" lon="5.72086">
        <ele>579.8</ele>
        <time>2022-05-27T13:44:52Z</time>
      </trkpt>
      <trkpt lat="46.65994" lon="5.72101">
        <ele>579.2</ele>
        <time>2022-05-27T13:44:53Z</time>
      </trkpt>
      <trkpt lat="46.65992" lon="5.72115">
        <ele>578.6</ele>
        <time>2022-05-27T13:44:54Z</time>
      </trkpt>
      <trkpt lat="46.65997" lon="5.72143">
        <ele>577</ele>
        <time>2022-05-27T13:44:56Z</time>
      </trkpt>
      <trkpt lat="46.66018" lon="5.7218">
        <ele>575.6</ele>
        <time>2022-05-27T13:44:59Z</time>
      </trkpt>
      <trkpt lat="46.66035" lon="5.72203">
        <ele>574.4</ele>
        <time>2022-05-27T13:45:01Z</time>
      </trkpt>
      <trkpt lat="46.66059" lon="5.7224">
        <ele>572.8</ele>
        <time>2022-05-27T13:45:04Z</time>
      </trkpt>
      <trkpt lat="46.66067" lon="5.72252">
        <ele>572</ele>
        <time>2022-05-27T13:45:05Z</time>
      </trkpt>
      <trkpt lat="46.66078" lon="5.72265">
        <ele>571.6</ele>
        <time>2022-05-27T13:45:06Z</time>
      </trkpt>
      <trkpt lat="46.66089" lon="5.72273">
        <ele>571</ele>
        <time>2022-05-27T13:45:07Z</time>
      </trkpt>
      <trkpt lat="46.66114" lon="5.7228">
        <ele>570</ele>
        <time>2022-05-27T13:45:09Z</time>
      </trkpt>
      <trkpt lat="46.66126" lon="5.72282">
        <ele>569.8</ele>
        <time>2022-05-27T13:45:10Z</time>
      </trkpt>
      <trkpt lat="46.66138" lon="5.72284">
        <ele>568.8</ele>
        <time>2022-05-27T13:45:11Z</time>
      </trkpt>
      <trkpt lat="46.66158" lon="5.72294">
        <ele>567.8</ele>
        <time>2022-05-27T13:45:13Z</time>
      </trkpt>
      <trkpt lat="46.66168" lon="5.72303">
        <ele>566.8</ele>
        <time>2022-05-27T13:45:14Z</time>
      </trkpt>
      <trkpt lat="46.66188" lon="5.72329">
        <ele>565.2</ele>
        <time>2022-05-27T13:45:16Z</time>
      </trkpt>
      <trkpt lat="46.66206" lon="5.72355">
        <ele>563.2</ele>
        <time>2022-05-27T13:45:18Z</time>
      </trkpt>
      <trkpt lat="46.66215" lon="5.72368">
        <ele>562</ele>
        <time>2022-05-27T13:45:19Z</time>
      </trkpt>
      <trkpt lat="46.66224" lon="5.7238">
        <ele>561.2</ele>
        <time>2022-05-27T13:45:20Z</time>
      </trkpt>
      <trkpt lat="46.66233" lon="5.72392">
        <ele>560.2</ele>
        <time>2022-05-27T13:45:21Z</time>
      </trkpt>
      <trkpt lat="46.6625" lon="5.72417">
        <ele>559</ele>
        <time>2022-05-27T13:45:23Z</time>
      </trkpt>
      <trkpt lat="46.66277" lon="5.72456">
        <ele>558</ele>
        <time>2022-05-27T13:45:26Z</time>
      </trkpt>
      <trkpt lat="46.66293" lon="5.72485">
        <ele>556.8</ele>
        <time>2022-05-27T13:45:28Z</time>
      </trkpt>
      <trkpt lat="46.66306" lon="5.72516">
        <ele>555.8</ele>
        <time>2022-05-27T13:45:30Z</time>
      </trkpt>
      <trkpt lat="46.66316" lon="5.72548">
        <ele>554.6</ele>
        <time>2022-05-27T13:45:32Z</time>
      </trkpt>
      <trkpt lat="46.6632" lon="5.72565">
        <ele>554.2</ele>
        <time>2022-05-27T13:45:33Z</time>
      </trkpt>
      <trkpt lat="46.66322" lon="5.72582">
        <ele>553</ele>
        <time>2022-05-27T13:45:34Z</time>
      </trkpt>
      <trkpt lat="46.66322" lon="5.72596">
        <ele>551.4</ele>
        <time>2022-05-27T13:45:35Z</time>
      </trkpt>
      <trkpt lat="46.6632" lon="5.72632">
        <ele>550</ele>
        <time>2022-05-27T13:45:37Z</time>
      </trkpt>
      <trkpt lat="46.66312" lon="5.72664">
        <ele>548.6</ele>
        <time>2022-05-27T13:45:39Z</time>
      </trkpt>
      <trkpt lat="46.66308" lon="5.72676">
        <ele>548.2</ele>
        <time>2022-05-27T13:45:40Z</time>
      </trkpt>
      <trkpt lat="46.66302" lon="5.72694">
        <ele>547.4</ele>
        <time>2022-05-27T13:45:41Z</time>
      </trkpt>
      <trkpt lat="46.66292" lon="5.72721">
        <ele>546.4</ele>
        <time>2022-05-27T13:45:43Z</time>
      </trkpt>
      <trkpt lat="46.6628" lon="5.72749">
        <ele>545</ele>
        <time>2022-05-27T13:45:45Z</time>
      </trkpt>
      <trkpt lat="46.66272" lon="5.72762">
        <ele>544.2</ele>
        <time>2022-05-27T13:45:46Z</time>
      </trkpt>
      <trkpt lat="46.66263" lon="5.72773">
        <ele>544</ele>
        <time>2022-05-27T13:45:47Z</time>
      </trkpt>
      <trkpt lat="46.66251" lon="5.72785">
        <ele>543.6</ele>
        <time>2022-05-27T13:45:48Z</time>
      </trkpt>
      <trkpt lat="46.6624" lon="5.72795">
        <ele>543.2</ele>
        <time>2022-05-27T13:45:49Z</time>
      </trkpt>
      <trkpt lat="46.66232" lon="5.72801">
        <ele>542.6</ele>
        <time>2022-05-27T13:45:50Z</time>
      </trkpt>
      <trkpt lat="46.6622" lon="5.72808">
        <ele>541.4</ele>
        <time>2022-05-27T13:45:51Z</time>
      </trkpt>
      <trkpt lat="46.66195" lon="5.72822">
        <ele>540</ele>
        <time>2022-05-27T13:45:53Z</time>
      </trkpt>
      <trkpt lat="46.66185" lon="5.72828">
        <ele>539.6</ele>
        <time>2022-05-27T13:45:54Z</time>
      </trkpt>
      <trkpt lat="46.66174" lon="5.72834">
        <ele>539</ele>
        <time>2022-05-27T13:45:55Z</time>
      </trkpt>
      <trkpt lat="46.66148" lon="5.72849">
        <ele>537.6</ele>
        <time>2022-05-27T13:45:57Z</time>
      </trkpt>
      <trkpt lat="46.66137" lon="5.72855">
        <ele>536.4</ele>
        <time>2022-05-27T13:45:58Z</time>
      </trkpt>
      <trkpt lat="46.66128" lon="5.72859">
        <ele>536.2</ele>
        <time>2022-05-27T13:45:59Z</time>
      </trkpt>
      <trkpt lat="46.66114" lon="5.72866">
        <ele>535.2</ele>
        <time>2022-05-27T13:46:00Z</time>
      </trkpt>
      <trkpt lat="46.66084" lon="5.72884">
        <ele>533.8</ele>
        <time>2022-05-27T13:46:03Z</time>
      </trkpt>
      <trkpt lat="46.66075" lon="5.72894">
        <ele>533.4</ele>
        <time>2022-05-27T13:46:04Z</time>
      </trkpt>
      <trkpt lat="46.66065" lon="5.72908">
        <ele>532.4</ele>
        <time>2022-05-27T13:46:05Z</time>
      </trkpt>
      <trkpt lat="46.66041" lon="5.72943">
        <ele>531.2</ele>
        <time>2022-05-27T13:46:08Z</time>
      </trkpt>
      <trkpt lat="46.66032" lon="5.72955">
        <ele>530.8</ele>
        <time>2022-05-27T13:46:09Z</time>
      </trkpt>
      <trkpt lat="46.66022" lon="5.72965">
        <ele>529.2</ele>
        <time>2022-05-27T13:46:10Z</time>
      </trkpt>
      <trkpt lat="46.66004" lon="5.72987">
        <ele>527.8</ele>
        <time>2022-05-27T13:46:12Z</time>
      </trkpt>
      <trkpt lat="46.65972" lon="5.73034">
        <ele>526.4</ele>
        <time>2022-05-27T13:46:16Z</time>
      </trkpt>
      <trkpt lat="46.65964" lon="5.73044">
        <ele>526.2</ele>
        <time>2022-05-27T13:46:17Z</time>
      </trkpt>
      <trkpt lat="46.65956" lon="5.73052">
        <ele>525.4</ele>
        <time>2022-05-27T13:46:18Z</time>
      </trkpt>
      <trkpt lat="46.65948" lon="5.73055">
        <ele>525</ele>
        <time>2022-05-27T13:46:19Z</time>
      </trkpt>
      <trkpt lat="46.65938" lon="5.73056">
        <ele>524.8</ele>
        <time>2022-05-27T13:46:20Z</time>
      </trkpt>
      <trkpt lat="46.65923" lon="5.73049">
        <ele>524</ele>
        <time>2022-05-27T13:46:22Z</time>
      </trkpt>
      <trkpt lat="46.65915" lon="5.73043">
        <ele>523</ele>
        <time>2022-05-27T13:46:23Z</time>
      </trkpt>
      <trkpt lat="46.65908" lon="5.73034">
        <ele>522.8</ele>
        <time>2022-05-27T13:46:24Z</time>
      </trkpt>
      <trkpt lat="46.65897" lon="5.73012">
        <ele>522.4</ele>
        <time>2022-05-27T13:46:26Z</time>
      </trkpt>
      <trkpt lat="46.6588" lon="5.72965">
        <ele>522</ele>
        <time>2022-05-27T13:46:30Z</time>
      </trkpt>
      <trkpt lat="46.65877" lon="5.72953">
        <ele>522</ele>
        <time>2022-05-27T13:46:31Z</time>
      </trkpt>
      <trkpt lat="46.65865" lon="5.72901">
        <ele>521.6</ele>
        <time>2022-05-27T13:46:35Z</time>
      </trkpt>
      <trkpt lat="46.65851" lon="5.72839">
        <ele>520.6</ele>
        <time>2022-05-27T13:46:40Z</time>
      </trkpt>
      <trkpt lat="46.65841" lon="5.72803">
        <ele>520.4</ele>
        <time>2022-05-27T13:46:43Z</time>
      </trkpt>
      <trkpt lat="46.65835" lon="5.72792">
        <ele>520.6</ele>
        <time>2022-05-27T13:46:44Z</time>
      </trkpt>
      <trkpt lat="46.65809" lon="5.72746">
        <ele>520.2</ele>
        <time>2022-05-27T13:46:48Z</time>
      </trkpt>
      <trkpt lat="46.65805" lon="5.72732">
        <ele>519.2</ele>
        <time>2022-05-27T13:46:49Z</time>
      </trkpt>
      <trkpt lat="46.65803" lon="5.72718">
        <ele>518.8</ele>
        <time>2022-05-27T13:46:50Z</time>
      </trkpt>
      <trkpt lat="46.65801" lon="5.72704">
        <ele>518.2</ele>
        <time>2022-05-27T13:46:51Z</time>
      </trkpt>
      <trkpt lat="46.65798" lon="5.72679">
        <ele>517.2</ele>
        <time>2022-05-27T13:46:53Z</time>
      </trkpt>
      <trkpt lat="46.65795" lon="5.7267">
        <ele>516.4</ele>
        <time>2022-05-27T13:46:54Z</time>
      </trkpt>
      <trkpt lat="46.65788" lon="5.72664">
        <ele>515.4</ele>
        <time>2022-05-27T13:46:55Z</time>
      </trkpt>
      <trkpt lat="46.6578" lon="5.72665">
        <ele>514.6</ele>
        <time>2022-05-27T13:46:56Z</time>
      </trkpt>
      <trkpt lat="46.65771" lon="5.72669">
        <ele>514.4</ele>
        <time>2022-05-27T13:46:57Z</time>
      </trkpt>
      <trkpt lat="46.65761" lon="5.72685">
        <ele>514</ele>
        <time>2022-05-27T13:46:59Z</time>
      </trkpt>
      <trkpt lat="46.65764" lon="5.72728">
        <ele>513</ele>
        <time>2022-05-27T13:47:02Z</time>
      </trkpt>
      <trkpt lat="46.65766" lon="5.72769">
        <ele>511.6</ele>
        <time>2022-05-27T13:47:05Z</time>
      </trkpt>
      <trkpt lat="46.65771" lon="5.72808">
        <ele>510.6</ele>
        <time>2022-05-27T13:47:08Z</time>
      </trkpt>
      <trkpt lat="46.65775" lon="5.72844">
        <ele>509.4</ele>
        <time>2022-05-27T13:47:11Z</time>
      </trkpt>
      <trkpt lat="46.65774" lon="5.72854">
        <ele>509</ele>
        <time>2022-05-27T13:47:12Z</time>
      </trkpt>
      <trkpt lat="46.65771" lon="5.72863">
        <ele>509</ele>
        <time>2022-05-27T13:47:13Z</time>
      </trkpt>
      <trkpt lat="46.65766" lon="5.72869">
        <ele>508.6</ele>
        <time>2022-05-27T13:47:14Z</time>
      </trkpt>
      <trkpt lat="46.65751" lon="5.72874">
        <ele>508.2</ele>
        <time>2022-05-27T13:47:16Z</time>
      </trkpt>
      <trkpt lat="46.65745" lon="5.72866">
        <ele>507.4</ele>
        <time>2022-05-27T13:47:17Z</time>
      </trkpt>
      <trkpt lat="46.6574" lon="5.72855">
        <ele>507</ele>
        <time>2022-05-27T13:47:18Z</time>
      </trkpt>
      <trkpt lat="46.65732" lon="5.72826">
        <ele>506</ele>
        <time>2022-05-27T13:47:20Z</time>
      </trkpt>
      <trkpt lat="46.65729" lon="5.7281">
        <ele>504.6</ele>
        <time>2022-05-27T13:47:21Z</time>
      </trkpt>
      <trkpt lat="46.65725" lon="5.72776">
        <ele>502.6</ele>
        <time>2022-05-27T13:47:23Z</time>
      </trkpt>
      <trkpt lat="46.65723" lon="5.7276">
        <ele>501.4</ele>
        <time>2022-05-27T13:47:24Z</time>
      </trkpt>
      <trkpt lat="46.65718" lon="5.72728">
        <ele>500</ele>
        <time>2022-05-27T13:47:26Z</time>
      </trkpt>
      <trkpt lat="46.65717" lon="5.72711">
        <ele>499.6</ele>
        <time>2022-05-27T13:47:27Z</time>
      </trkpt>
      <trkpt lat="46.65716" lon="5.72694">
        <ele>498.8</ele>
        <time>2022-05-27T13:47:28Z</time>
      </trkpt>
      <trkpt lat="46.65715" lon="5.72678">
        <ele>498.6</ele>
        <time>2022-05-27T13:47:29Z</time>
      </trkpt>
      <trkpt lat="46.6571" lon="5.72646">
        <ele>498.2</ele>
        <time>2022-05-27T13:47:31Z</time>
      </trkpt>
      <trkpt lat="46.65707" lon="5.7263">
        <ele>497.6</ele>
        <time>2022-05-27T13:47:32Z</time>
      </trkpt>
      <trkpt lat="46.65703" lon="5.72614">
        <ele>496</ele>
        <time>2022-05-27T13:47:33Z</time>
      </trkpt>
      <trkpt lat="46.65698" lon="5.72599">
        <ele>495.4</ele>
        <time>2022-05-27T13:47:34Z</time>
      </trkpt>
      <trkpt lat="46.65692" lon="5.72584">
        <ele>494.2</ele>
        <time>2022-05-27T13:47:35Z</time>
      </trkpt>
      <trkpt lat="46.65685" lon="5.7257">
        <ele>493.4</ele>
        <time>2022-05-27T13:47:36Z</time>
      </trkpt>
      <trkpt lat="46.65679" lon="5.72556">
        <ele>492.4</ele>
        <time>2022-05-27T13:47:37Z</time>
      </trkpt>
      <trkpt lat="46.65665" lon="5.72531">
        <ele>491.2</ele>
        <time>2022-05-27T13:47:39Z</time>
      </trkpt>
      <trkpt lat="46.65657" lon="5.72518">
        <ele>490.6</ele>
        <time>2022-05-27T13:47:40Z</time>
      </trkpt>
      <trkpt lat="46.65641" lon="5.72495">
        <ele>490</ele>
        <time>2022-05-27T13:47:42Z</time>
      </trkpt>
      <trkpt lat="46.65607" lon="5.72453">
        <ele>489.2</ele>
        <time>2022-05-27T13:47:46Z</time>
      </trkpt>
      <trkpt lat="46.65599" lon="5.72445">
        <ele>488.6</ele>
        <time>2022-05-27T13:47:47Z</time>
      </trkpt>
      <trkpt lat="46.65572" lon="5.7242">
        <ele>487.4</ele>
        <time>2022-05-27T13:47:50Z</time>
      </trkpt>
      <trkpt lat="46.65553" lon="5.72406">
        <ele>486.8</ele>
        <time>2022-05-27T13:47:52Z</time>
      </trkpt>
      <trkpt lat="46.65543" lon="5.72398">
        <ele>486.4</ele>
        <time>2022-05-27T13:47:53Z</time>
      </trkpt>
      <trkpt lat="46.65513" lon="5.72372">
        <ele>485</ele>
        <time>2022-05-27T13:47:56Z</time>
      </trkpt>
      <trkpt lat="46.65493" lon="5.72353">
        <ele>484</ele>
        <time>2022-05-27T13:47:58Z</time>
      </trkpt>
      <trkpt lat="46.65465" lon="5.72322">
        <ele>482</ele>
        <time>2022-05-27T13:48:01Z</time>
      </trkpt>
      <trkpt lat="46.65446" lon="5.72304">
        <ele>480.8</ele>
        <time>2022-05-27T13:48:03Z</time>
      </trkpt>
      <trkpt lat="46.65419" lon="5.7228">
        <ele>479.8</ele>
        <time>2022-05-27T13:48:06Z</time>
      </trkpt>
      <trkpt lat="46.65393" lon="5.72256">
        <ele>479.6</ele>
        <time>2022-05-27T13:48:09Z</time>
      </trkpt>
      <trkpt lat="46.65348" lon="5.7221">
        <ele>479.4</ele>
        <time>2022-05-27T13:48:15Z</time>
      </trkpt>
      <trkpt lat="46.65309" lon="5.72166">
        <ele>479.6</ele>
        <time>2022-05-27T13:48:21Z</time>
      </trkpt>
      <trkpt lat="46.65296" lon="5.72152">
        <ele>479.8</ele>
        <time>2022-05-27T13:48:23Z</time>
      </trkpt>
      <trkpt lat="46.65259" lon="5.72115">
        <ele>480.8</ele>
        <time>2022-05-27T13:48:29Z</time>
      </trkpt>
      <trkpt lat="46.65253" lon="5.72108">
        <ele>481</ele>
        <time>2022-05-27T13:48:30Z</time>
      </trkpt>
      <trkpt lat="46.65223" lon="5.72066">
        <ele>481.6</ele>
        <time>2022-05-27T13:48:36Z</time>
      </trkpt>
      <trkpt lat="46.65198" lon="5.72019">
        <ele>481.6</ele>
        <time>2022-05-27T13:48:41Z</time>
      </trkpt>
      <trkpt lat="46.65187" lon="5.71982">
        <ele>479.6</ele>
        <time>2022-05-27T13:48:44Z</time>
      </trkpt>
      <trkpt lat="46.6518" lon="5.71956">
        <ele>479</ele>
        <time>2022-05-27T13:48:46Z</time>
      </trkpt>
      <trkpt lat="46.65168" lon="5.71921">
        <ele>478.4</ele>
        <time>2022-05-27T13:48:49Z</time>
      </trkpt>
      <trkpt lat="46.65158" lon="5.71902">
        <ele>478.2</ele>
        <time>2022-05-27T13:48:51Z</time>
      </trkpt>
      <trkpt lat="46.65136" lon="5.71867">
        <ele>478.2</ele>
        <time>2022-05-27T13:48:55Z</time>
      </trkpt>
      <trkpt lat="46.65132" lon="5.71858">
        <ele>478.2</ele>
        <time>2022-05-27T13:48:56Z</time>
      </trkpt>
      <trkpt lat="46.65119" lon="5.71819">
        <ele>478.4</ele>
        <time>2022-05-27T13:49:00Z</time>
      </trkpt>
      <trkpt lat="46.65115" lon="5.71801">
        <ele>478.6</ele>
        <time>2022-05-27T13:49:01Z</time>
      </trkpt>
      <trkpt lat="46.65111" lon="5.71776">
        <ele>479.4</ele>
        <time>2022-05-27T13:49:05Z</time>
      </trkpt>
      <trkpt lat="46.65109" lon="5.71768">
        <ele>479.8</ele>
        <time>2022-05-27T13:49:06Z</time>
      </trkpt>
      <trkpt lat="46.65106" lon="5.71742">
        <ele>481</ele>
        <time>2022-05-27T13:49:09Z</time>
      </trkpt>
      <trkpt lat="46.65105" lon="5.71735">
        <ele>481.8</ele>
        <time>2022-05-27T13:49:10Z</time>
      </trkpt>
      <trkpt lat="46.65105" lon="5.71735">
        <ele>482</ele>
        <time>2022-05-27T13:49:11Z</time>
      </trkpt>
      <trkpt lat="46.65104" lon="5.71716">
        <ele>483.2</ele>
        <time>2022-05-27T13:49:13Z</time>
      </trkpt>
      <trkpt lat="46.65104" lon="5.7171">
        <ele>484.4</ele>
        <time>2022-05-27T13:49:15Z</time>
      </trkpt>
      <trkpt lat="46.65103" lon="5.71698">
        <ele>484.6</ele>
        <time>2022-05-27T13:49:16Z</time>
      </trkpt>
      <trkpt lat="46.65102" lon="5.71686">
        <ele>485.4</ele>
        <time>2022-05-27T13:49:18Z</time>
      </trkpt>
      <trkpt lat="46.65101" lon="5.7168">
        <ele>486</ele>
        <time>2022-05-27T13:49:19Z</time>
      </trkpt>
      <trkpt lat="46.65099" lon="5.71668">
        <ele>487</ele>
        <time>2022-05-27T13:49:21Z</time>
      </trkpt>
      <trkpt lat="46.65092" lon="5.71637">
        <ele>488.2</ele>
        <time>2022-05-27T13:49:26Z</time>
      </trkpt>
      <trkpt lat="46.6509" lon="5.71631">
        <ele>488.4</ele>
        <time>2022-05-27T13:49:27Z</time>
      </trkpt>
      <trkpt lat="46.65085" lon="5.71619">
        <ele>489</ele>
        <time>2022-05-27T13:49:29Z</time>
      </trkpt>
      <trkpt lat="46.65077" lon="5.716">
        <ele>489.2</ele>
        <time>2022-05-27T13:49:32Z</time>
      </trkpt>
      <trkpt lat="46.65068" lon="5.71582">
        <ele>489.6</ele>
        <time>2022-05-27T13:49:35Z</time>
      </trkpt>
      <trkpt lat="46.65054" lon="5.71555">
        <ele>490.6</ele>
        <time>2022-05-27T13:49:40Z</time>
      </trkpt>
      <trkpt lat="46.65044" lon="5.71539">
        <ele>491</ele>
        <time>2022-05-27T13:49:44Z</time>
      </trkpt>
      <trkpt lat="46.65034" lon="5.71524">
        <ele>491.6</ele>
        <time>2022-05-27T13:49:46Z</time>
      </trkpt>
      <trkpt lat="46.65019" lon="5.71504">
        <ele>492.8</ele>
        <time>2022-05-27T13:49:51Z</time>
      </trkpt>
      <trkpt lat="46.65" lon="5.71481">
        <ele>493.8</ele>
        <time>2022-05-27T13:49:55Z</time>
      </trkpt>
      <trkpt lat="46.6499" lon="5.71466">
        <ele>494.2</ele>
        <time>2022-05-27T13:49:58Z</time>
      </trkpt>
      <trkpt lat="46.64986" lon="5.71461">
        <ele>494.4</ele>
        <time>2022-05-27T13:50:00Z</time>
      </trkpt>
      <trkpt lat="46.64979" lon="5.71451">
        <ele>494.4</ele>
        <time>2022-05-27T13:50:01Z</time>
      </trkpt>
      <trkpt lat="46.64972" lon="5.71442">
        <ele>494.8</ele>
        <time>2022-05-27T13:50:03Z</time>
      </trkpt>
      <trkpt lat="46.64954" lon="5.71417">
        <ele>496</ele>
        <time>2022-05-27T13:50:08Z</time>
      </trkpt>
      <trkpt lat="46.6494" lon="5.71398">
        <ele>496.8</ele>
        <time>2022-05-27T13:50:12Z</time>
      </trkpt>
      <trkpt lat="46.6493" lon="5.71384">
        <ele>497.4</ele>
        <time>2022-05-27T13:50:15Z</time>
      </trkpt>
      <trkpt lat="46.64905" lon="5.7135">
        <ele>498.6</ele>
        <time>2022-05-27T13:50:22Z</time>
      </trkpt>
      <trkpt lat="46.64873" lon="5.71307">
        <ele>499.6</ele>
        <time>2022-05-27T13:50:31Z</time>
      </trkpt>
      <trkpt lat="46.6487" lon="5.71303">
        <ele>499.8</ele>
        <time>2022-05-27T13:50:32Z</time>
      </trkpt>
      <trkpt lat="46.64867" lon="5.71299">
        <ele>500</ele>
        <time>2022-05-27T13:50:33Z</time>
      </trkpt>
      <trkpt lat="46.64857" lon="5.71286">
        <ele>501.2</ele>
        <time>2022-05-27T13:50:36Z</time>
      </trkpt>
      <trkpt lat="46.64842" lon="5.71266">
        <ele>502.4</ele>
        <time>2022-05-27T13:50:41Z</time>
      </trkpt>
      <trkpt lat="46.64839" lon="5.71262">
        <ele>502.8</ele>
        <time>2022-05-27T13:50:42Z</time>
      </trkpt>
      <trkpt lat="46.6483" lon="5.7125">
        <ele>503.4</ele>
        <time>2022-05-27T13:50:45Z</time>
      </trkpt>
      <trkpt lat="46.64827" lon="5.71246">
        <ele>503.6</ele>
        <time>2022-05-27T13:50:46Z</time>
      </trkpt>
      <trkpt lat="46.64825" lon="5.71243">
        <ele>504</ele>
        <time>2022-05-27T13:50:48Z</time>
      </trkpt>
      <trkpt lat="46.6481" lon="5.71222">
        <ele>504.8</ele>
        <time>2022-05-27T13:50:52Z</time>
      </trkpt>
      <trkpt lat="46.64802" lon="5.71211">
        <ele>506</ele>
        <time>2022-05-27T13:50:56Z</time>
      </trkpt>
      <trkpt lat="46.64796" lon="5.71203">
        <ele>506.2</ele>
        <time>2022-05-27T13:50:57Z</time>
      </trkpt>
      <trkpt lat="46.6478" lon="5.71187">
        <ele>507</ele>
        <time>2022-05-27T13:51:02Z</time>
      </trkpt>
      <trkpt lat="46.64772" lon="5.71181">
        <ele>508</ele>
        <time>2022-05-27T13:51:05Z</time>
      </trkpt>
      <trkpt lat="46.64765" lon="5.71176">
        <ele>508.4</ele>
        <time>2022-05-27T13:51:06Z</time>
      </trkpt>
      <trkpt lat="46.64754" lon="5.71169">
        <ele>509.2</ele>
        <time>2022-05-27T13:51:09Z</time>
      </trkpt>
      <trkpt lat="46.64742" lon="5.71163">
        <ele>509.8</ele>
        <time>2022-05-27T13:51:12Z</time>
      </trkpt>
      <trkpt lat="46.64725" lon="5.71157">
        <ele>510.2</ele>
        <time>2022-05-27T13:51:16Z</time>
      </trkpt>
      <trkpt lat="46.6471" lon="5.71151">
        <ele>510.6</ele>
        <time>2022-05-27T13:51:19Z</time>
      </trkpt>
      <trkpt lat="46.64666" lon="5.71132">
        <ele>511.4</ele>
        <time>2022-05-27T13:51:27Z</time>
      </trkpt>
      <trkpt lat="46.64621" lon="5.71112">
        <ele>512.2</ele>
        <time>2022-05-27T13:51:35Z</time>
      </trkpt>
      <trkpt lat="46.64621" lon="5.71112">
        <ele>512.4</ele>
        <time>2022-05-27T13:51:36Z</time>
      </trkpt>
      <trkpt lat="46.64611" lon="5.71107">
        <ele>512.4</ele>
        <time>2022-05-27T13:51:37Z</time>
      </trkpt>
      <trkpt lat="46.64572" lon="5.71091">
        <ele>513.4</ele>
        <time>2022-05-27T13:51:44Z</time>
      </trkpt>
      <trkpt lat="46.6455" lon="5.7108">
        <ele>514.2</ele>
        <time>2022-05-27T13:51:48Z</time>
      </trkpt>
      <trkpt lat="46.64497" lon="5.71057">
        <ele>514.6</ele>
        <time>2022-05-27T13:51:57Z</time>
      </trkpt>
      <trkpt lat="46.64483" lon="5.71052">
        <ele>514.8</ele>
        <time>2022-05-27T13:51:59Z</time>
      </trkpt>
      <trkpt lat="46.64466" lon="5.71047">
        <ele>514.8</ele>
        <time>2022-05-27T13:52:02Z</time>
      </trkpt>
      <trkpt lat="46.64459" lon="5.71047">
        <ele>514.8</ele>
        <time>2022-05-27T13:52:03Z</time>
      </trkpt>
      <trkpt lat="46.64452" lon="5.71048">
        <ele>514.8</ele>
        <time>2022-05-27T13:52:04Z</time>
      </trkpt>
      <trkpt lat="46.6444" lon="5.71053">
        <ele>514.8</ele>
        <time>2022-05-27T13:52:06Z</time>
      </trkpt>
      <trkpt lat="46.64434" lon="5.71057">
        <ele>514.8</ele>
        <time>2022-05-27T13:52:07Z</time>
      </trkpt>
      <trkpt lat="46.64427" lon="5.71063">
        <ele>515</ele>
        <time>2022-05-27T13:52:08Z</time>
      </trkpt>
      <trkpt lat="46.64418" lon="5.71076">
        <ele>515</ele>
        <time>2022-05-27T13:52:10Z</time>
      </trkpt>
      <trkpt lat="46.64414" lon="5.71084">
        <ele>515.2</ele>
        <time>2022-05-27T13:52:11Z</time>
      </trkpt>
      <trkpt lat="46.64411" lon="5.71092">
        <ele>515.4</ele>
        <time>2022-05-27T13:52:12Z</time>
      </trkpt>
      <trkpt lat="46.64405" lon="5.71111">
        <ele>515.6</ele>
        <time>2022-05-27T13:52:14Z</time>
      </trkpt>
      <trkpt lat="46.64404" lon="5.71118">
        <ele>515.8</ele>
        <time>2022-05-27T13:52:15Z</time>
      </trkpt>
      <trkpt lat="46.64404" lon="5.71118">
        <ele>515.8</ele>
        <time>2022-05-27T13:52:16Z</time>
      </trkpt>
      <trkpt lat="46.644" lon="5.71138">
        <ele>516</ele>
        <time>2022-05-27T13:52:17Z</time>
      </trkpt>
      <trkpt lat="46.64394" lon="5.71184">
        <ele>516.8</ele>
        <time>2022-05-27T13:52:22Z</time>
      </trkpt>
      <trkpt lat="46.64386" lon="5.7123">
        <ele>518.2</ele>
        <time>2022-05-27T13:52:27Z</time>
      </trkpt>
      <trkpt lat="46.64383" lon="5.71248">
        <ele>518.4</ele>
        <time>2022-05-27T13:52:29Z</time>
      </trkpt>
      <trkpt lat="46.64381" lon="5.71256">
        <ele>518.6</ele>
        <time>2022-05-27T13:52:30Z</time>
      </trkpt>
      <trkpt lat="46.64378" lon="5.71273">
        <ele>519.4</ele>
        <time>2022-05-27T13:52:32Z</time>
      </trkpt>
      <trkpt lat="46.64376" lon="5.71282">
        <ele>519.6</ele>
        <time>2022-05-27T13:52:33Z</time>
      </trkpt>
      <trkpt lat="46.64373" lon="5.71297">
        <ele>519.8</ele>
        <time>2022-05-27T13:52:35Z</time>
      </trkpt>
      <trkpt lat="46.64365" lon="5.71329">
        <ele>520.4</ele>
        <time>2022-05-27T13:52:39Z</time>
      </trkpt>
      <trkpt lat="46.64359" lon="5.71354">
        <ele>521</ele>
        <time>2022-05-27T13:52:42Z</time>
      </trkpt>
      <trkpt lat="46.64354" lon="5.71369">
        <ele>521.4</ele>
        <time>2022-05-27T13:52:44Z</time>
      </trkpt>
      <trkpt lat="46.64344" lon="5.71399">
        <ele>522.4</ele>
        <time>2022-05-27T13:52:48Z</time>
      </trkpt>
      <trkpt lat="46.64339" lon="5.71412">
        <ele>522.6</ele>
        <time>2022-05-27T13:52:50Z</time>
      </trkpt>
      <trkpt lat="46.64334" lon="5.71426">
        <ele>523</ele>
        <time>2022-05-27T13:52:52Z</time>
      </trkpt>
      <trkpt lat="46.64327" lon="5.71446">
        <ele>523.6</ele>
        <time>2022-05-27T13:52:55Z</time>
      </trkpt>
      <trkpt lat="46.64322" lon="5.71459">
        <ele>524</ele>
        <time>2022-05-27T13:52:57Z</time>
      </trkpt>
      <trkpt lat="46.64318" lon="5.71473">
        <ele>524.2</ele>
        <time>2022-05-27T13:52:59Z</time>
      </trkpt>
      <trkpt lat="46.64317" lon="5.71481">
        <ele>524.6</ele>
        <time>2022-05-27T13:53:00Z</time>
      </trkpt>
      <trkpt lat="46.64317" lon="5.71506">
        <ele>525</ele>
        <time>2022-05-27T13:53:03Z</time>
      </trkpt>
      <trkpt lat="46.64317" lon="5.71539">
        <ele>525.8</ele>
        <time>2022-05-27T13:53:07Z</time>
      </trkpt>
      <trkpt lat="46.64316" lon="5.71547">
        <ele>526</ele>
        <time>2022-05-27T13:53:08Z</time>
      </trkpt>
      <trkpt lat="46.64312" lon="5.71577">
        <ele>526.4</ele>
        <time>2022-05-27T13:53:12Z</time>
      </trkpt>
      <trkpt lat="46.6431" lon="5.71585">
        <ele>526.6</ele>
        <time>2022-05-27T13:53:13Z</time>
      </trkpt>
      <trkpt lat="46.64309" lon="5.71591">
        <ele>526.8</ele>
        <time>2022-05-27T13:53:14Z</time>
      </trkpt>
      <trkpt lat="46.64301" lon="5.71612">
        <ele>527</ele>
        <time>2022-05-27T13:53:17Z</time>
      </trkpt>
      <trkpt lat="46.64299" lon="5.71618">
        <ele>527.4</ele>
        <time>2022-05-27T13:53:18Z</time>
      </trkpt>
      <trkpt lat="46.64296" lon="5.71624">
        <ele>527.4</ele>
        <time>2022-05-27T13:53:19Z</time>
      </trkpt>
      <trkpt lat="46.64293" lon="5.71629">
        <ele>527.8</ele>
        <time>2022-05-27T13:53:20Z</time>
      </trkpt>
      <trkpt lat="46.64291" lon="5.71633">
        <ele>528</ele>
        <time>2022-05-27T13:53:21Z</time>
      </trkpt>
      <trkpt lat="46.64285" lon="5.7164">
        <ele>528.6</ele>
        <time>2022-05-27T13:53:23Z</time>
      </trkpt>
      <trkpt lat="46.64275" lon="5.71656">
        <ele>529</ele>
        <time>2022-05-27T13:53:26Z</time>
      </trkpt>
      <trkpt lat="46.64261" lon="5.71675">
        <ele>530</ele>
        <time>2022-05-27T13:53:29Z</time>
      </trkpt>
      <trkpt lat="46.64256" lon="5.71682">
        <ele>530.2</ele>
        <time>2022-05-27T13:53:30Z</time>
      </trkpt>
      <trkpt lat="46.64235" lon="5.71703">
        <ele>530.2</ele>
        <time>2022-05-27T13:53:33Z</time>
      </trkpt>
      <trkpt lat="46.64192" lon="5.71735">
        <ele>529.2</ele>
        <time>2022-05-27T13:53:38Z</time>
      </trkpt>
      <trkpt lat="46.64183" lon="5.7174">
        <ele>529</ele>
        <time>2022-05-27T13:53:39Z</time>
      </trkpt>
      <trkpt lat="46.64174" lon="5.71743">
        <ele>528.8</ele>
        <time>2022-05-27T13:53:40Z</time>
      </trkpt>
      <trkpt lat="46.64156" lon="5.71743">
        <ele>528</ele>
        <time>2022-05-27T13:53:42Z</time>
      </trkpt>
      <trkpt lat="46.64147" lon="5.71742">
        <ele>527.4</ele>
        <time>2022-05-27T13:53:43Z</time>
      </trkpt>
      <trkpt lat="46.6412" lon="5.71736">
        <ele>526.4</ele>
        <time>2022-05-27T13:53:46Z</time>
      </trkpt>
      <trkpt lat="46.64112" lon="5.71733">
        <ele>526.2</ele>
        <time>2022-05-27T13:53:47Z</time>
      </trkpt>
      <trkpt lat="46.64097" lon="5.71725">
        <ele>526</ele>
        <time>2022-05-27T13:53:49Z</time>
      </trkpt>
      <trkpt lat="46.6407" lon="5.71708">
        <ele>525.2</ele>
        <time>2022-05-27T13:53:52Z</time>
      </trkpt>
      <trkpt lat="46.64032" lon="5.71673">
        <ele>524.2</ele>
        <time>2022-05-27T13:53:57Z</time>
      </trkpt>
      <trkpt lat="46.64026" lon="5.71664">
        <ele>524.2</ele>
        <time>2022-05-27T13:53:58Z</time>
      </trkpt>
      <trkpt lat="46.63992" lon="5.7162">
        <ele>523.8</ele>
        <time>2022-05-27T13:54:03Z</time>
      </trkpt>
      <trkpt lat="46.63984" lon="5.71612">
        <ele>523.8</ele>
        <time>2022-05-27T13:54:04Z</time>
      </trkpt>
      <trkpt lat="46.6394" lon="5.71569">
        <ele>524.2</ele>
        <time>2022-05-27T13:54:10Z</time>
      </trkpt>
      <trkpt lat="46.63886" lon="5.71519">
        <ele>524</ele>
        <time>2022-05-27T13:54:17Z</time>
      </trkpt>
      <trkpt lat="46.63878" lon="5.71511">
        <ele>523.8</ele>
        <time>2022-05-27T13:54:18Z</time>
      </trkpt>
      <trkpt lat="46.63847" lon="5.71479">
        <ele>523</ele>
        <time>2022-05-27T13:54:22Z</time>
      </trkpt>
      <trkpt lat="46.6384" lon="5.71471">
        <ele>522.6</ele>
        <time>2022-05-27T13:54:23Z</time>
      </trkpt>
      <trkpt lat="46.63832" lon="5.71463">
        <ele>522.6</ele>
        <time>2022-05-27T13:54:24Z</time>
      </trkpt>
      <trkpt lat="46.63816" lon="5.71446">
        <ele>522</ele>
        <time>2022-05-27T13:54:26Z</time>
      </trkpt>
      <trkpt lat="46.638" lon="5.71431">
        <ele>521</ele>
        <time>2022-05-27T13:54:28Z</time>
      </trkpt>
      <trkpt lat="46.63792" lon="5.71425">
        <ele>520.6</ele>
        <time>2022-05-27T13:54:29Z</time>
      </trkpt>
      <trkpt lat="46.63748" lon="5.71395">
        <ele>519.6</ele>
        <time>2022-05-27T13:54:34Z</time>
      </trkpt>
      <trkpt lat="46.63736" lon="5.71388">
        <ele>519.6</ele>
        <time>2022-05-27T13:54:35Z</time>
      </trkpt>
      <trkpt lat="46.6369" lon="5.71357">
        <ele>518.4</ele>
        <time>2022-05-27T13:54:40Z</time>
      </trkpt>
      <trkpt lat="46.63674" lon="5.71339">
        <ele>517.2</ele>
        <time>2022-05-27T13:54:42Z</time>
      </trkpt>
      <trkpt lat="46.63668" lon="5.7133">
        <ele>516.8</ele>
        <time>2022-05-27T13:54:43Z</time>
      </trkpt>
      <trkpt lat="46.63661" lon="5.71316">
        <ele>516.2</ele>
        <time>2022-05-27T13:54:44Z</time>
      </trkpt>
      <trkpt lat="46.63652" lon="5.71292">
        <ele>515.2</ele>
        <time>2022-05-27T13:54:46Z</time>
      </trkpt>
      <trkpt lat="46.63643" lon="5.71268">
        <ele>514</ele>
        <time>2022-05-27T13:54:49Z</time>
      </trkpt>
      <trkpt lat="46.63626" lon="5.71223">
        <ele>513.8</ele>
        <time>2022-05-27T13:54:52Z</time>
      </trkpt>
      <trkpt lat="46.6361" lon="5.71194">
        <ele>513.8</ele>
        <time>2022-05-27T13:54:55Z</time>
      </trkpt>
      <trkpt lat="46.63604" lon="5.71186">
        <ele>514</ele>
        <time>2022-05-27T13:54:56Z</time>
      </trkpt>
      <trkpt lat="46.63597" lon="5.71179">
        <ele>514.2</ele>
        <time>2022-05-27T13:54:57Z</time>
      </trkpt>
      <trkpt lat="46.63582" lon="5.71168">
        <ele>514.6</ele>
        <time>2022-05-27T13:54:59Z</time>
      </trkpt>
      <trkpt lat="46.63574" lon="5.71164">
        <ele>515</ele>
        <time>2022-05-27T13:55:00Z</time>
      </trkpt>
      <trkpt lat="46.63549" lon="5.71155">
        <ele>515.4</ele>
        <time>2022-05-27T13:55:03Z</time>
      </trkpt>
      <trkpt lat="46.63521" lon="5.7115">
        <ele>515.4</ele>
        <time>2022-05-27T13:55:06Z</time>
      </trkpt>
      <trkpt lat="46.63463" lon="5.7114">
        <ele>514</ele>
        <time>2022-05-27T13:55:12Z</time>
      </trkpt>
      <trkpt lat="46.63453" lon="5.71138">
        <ele>513.8</ele>
        <time>2022-05-27T13:55:13Z</time>
      </trkpt>
      <trkpt lat="46.63423" lon="5.71133">
        <ele>512.8</ele>
        <time>2022-05-27T13:55:16Z</time>
      </trkpt>
      <trkpt lat="46.63395" lon="5.7113">
        <ele>511.6</ele>
        <time>2022-05-27T13:55:19Z</time>
      </trkpt>
      <trkpt lat="46.63382" lon="5.71131">
        <ele>511.4</ele>
        <time>2022-05-27T13:55:20Z</time>
      </trkpt>
      <trkpt lat="46.63352" lon="5.71131">
        <ele>510.2</ele>
        <time>2022-05-27T13:55:23Z</time>
      </trkpt>
      <trkpt lat="46.6331" lon="5.71131">
        <ele>509.2</ele>
        <time>2022-05-27T13:55:27Z</time>
      </trkpt>
      <trkpt lat="46.63279" lon="5.71129">
        <ele>508</ele>
        <time>2022-05-27T13:55:30Z</time>
      </trkpt>
      <trkpt lat="46.63246" lon="5.71124">
        <ele>506.8</ele>
        <time>2022-05-27T13:55:33Z</time>
      </trkpt>
      <trkpt lat="46.63235" lon="5.71121">
        <ele>506.4</ele>
        <time>2022-05-27T13:55:34Z</time>
      </trkpt>
      <trkpt lat="46.63224" lon="5.71116">
        <ele>505.6</ele>
        <time>2022-05-27T13:55:35Z</time>
      </trkpt>
      <trkpt lat="46.63214" lon="5.71108">
        <ele>505.6</ele>
        <time>2022-05-27T13:55:36Z</time>
      </trkpt>
      <trkpt lat="46.63204" lon="5.71098">
        <ele>504.8</ele>
        <time>2022-05-27T13:55:37Z</time>
      </trkpt>
      <trkpt lat="46.63196" lon="5.71086">
        <ele>504.4</ele>
        <time>2022-05-27T13:55:38Z</time>
      </trkpt>
      <trkpt lat="46.63188" lon="5.71073">
        <ele>503.8</ele>
        <time>2022-05-27T13:55:39Z</time>
      </trkpt>
      <trkpt lat="46.63182" lon="5.71058">
        <ele>503.4</ele>
        <time>2022-05-27T13:55:40Z</time>
      </trkpt>
      <trkpt lat="46.6317" lon="5.71028">
        <ele>501.6</ele>
        <time>2022-05-27T13:55:42Z</time>
      </trkpt>
      <trkpt lat="46.63165" lon="5.71012">
        <ele>501.2</ele>
        <time>2022-05-27T13:55:43Z</time>
      </trkpt>
      <trkpt lat="46.63159" lon="5.70996">
        <ele>500.2</ele>
        <time>2022-05-27T13:55:44Z</time>
      </trkpt>
      <trkpt lat="46.63147" lon="5.70964">
        <ele>499</ele>
        <time>2022-05-27T13:55:46Z</time>
      </trkpt>
      <trkpt lat="46.63134" lon="5.70933">
        <ele>497.8</ele>
        <time>2022-05-27T13:55:48Z</time>
      </trkpt>
      <trkpt lat="46.63127" lon="5.70918">
        <ele>496.6</ele>
        <time>2022-05-27T13:55:49Z</time>
      </trkpt>
      <trkpt lat="46.63111" lon="5.7089">
        <ele>495.4</ele>
        <time>2022-05-27T13:55:51Z</time>
      </trkpt>
      <trkpt lat="46.63092" lon="5.70866">
        <ele>493</ele>
        <time>2022-05-27T13:55:53Z</time>
      </trkpt>
      <trkpt lat="46.63081" lon="5.70856">
        <ele>492.4</ele>
        <time>2022-05-27T13:55:54Z</time>
      </trkpt>
      <trkpt lat="46.63058" lon="5.70839">
        <ele>491.2</ele>
        <time>2022-05-27T13:55:56Z</time>
      </trkpt>
      <trkpt lat="46.63036" lon="5.70829">
        <ele>489.6</ele>
        <time>2022-05-27T13:55:58Z</time>
      </trkpt>
      <trkpt lat="46.63009" lon="5.70818">
        <ele>488</ele>
        <time>2022-05-27T13:56:00Z</time>
      </trkpt>
      <trkpt lat="46.62996" lon="5.70813">
        <ele>487.6</ele>
        <time>2022-05-27T13:56:01Z</time>
      </trkpt>
      <trkpt lat="46.62986" lon="5.70809">
        <ele>486.8</ele>
        <time>2022-05-27T13:56:02Z</time>
      </trkpt>
      <trkpt lat="46.62962" lon="5.70799">
        <ele>485.6</ele>
        <time>2022-05-27T13:56:04Z</time>
      </trkpt>
      <trkpt lat="46.62948" lon="5.70792">
        <ele>484.4</ele>
        <time>2022-05-27T13:56:05Z</time>
      </trkpt>
      <trkpt lat="46.62927" lon="5.70783">
        <ele>483.2</ele>
        <time>2022-05-27T13:56:07Z</time>
      </trkpt>
      <trkpt lat="46.62901" lon="5.70771">
        <ele>482</ele>
        <time>2022-05-27T13:56:09Z</time>
      </trkpt>
      <trkpt lat="46.6288" lon="5.70761">
        <ele>480.8</ele>
        <time>2022-05-27T13:56:11Z</time>
      </trkpt>
      <trkpt lat="46.62855" lon="5.7075">
        <ele>479.6</ele>
        <time>2022-05-27T13:56:13Z</time>
      </trkpt>
      <trkpt lat="46.62843" lon="5.70745">
        <ele>478.4</ele>
        <time>2022-05-27T13:56:15Z</time>
      </trkpt>
      <trkpt lat="46.62812" lon="5.70732">
        <ele>477.2</ele>
        <time>2022-05-27T13:56:17Z</time>
      </trkpt>
      <trkpt lat="46.62766" lon="5.70717">
        <ele>476.2</ele>
        <time>2022-05-27T13:56:21Z</time>
      </trkpt>
      <trkpt lat="46.62709" lon="5.70695">
        <ele>476.4</ele>
        <time>2022-05-27T13:56:27Z</time>
      </trkpt>
      <trkpt lat="46.62674" lon="5.70678">
        <ele>478</ele>
        <time>2022-05-27T13:56:32Z</time>
      </trkpt>
      <trkpt lat="46.62667" lon="5.70675">
        <ele>478.6</ele>
        <time>2022-05-27T13:56:33Z</time>
      </trkpt>
      <trkpt lat="46.62647" lon="5.70664">
        <ele>480</ele>
        <time>2022-05-27T13:56:36Z</time>
      </trkpt>
      <trkpt lat="46.62634" lon="5.70656">
        <ele>481.2</ele>
        <time>2022-05-27T13:56:38Z</time>
      </trkpt>
      <trkpt lat="46.62628" lon="5.70651">
        <ele>481.8</ele>
        <time>2022-05-27T13:56:39Z</time>
      </trkpt>
      <trkpt lat="46.62595" lon="5.70623">
        <ele>482.6</ele>
        <time>2022-05-27T13:56:44Z</time>
      </trkpt>
      <trkpt lat="46.62556" lon="5.70596">
        <ele>482</ele>
        <time>2022-05-27T13:56:49Z</time>
      </trkpt>
      <trkpt lat="46.62522" lon="5.70572">
        <ele>480.6</ele>
        <time>2022-05-27T13:56:53Z</time>
      </trkpt>
      <trkpt lat="46.6251" lon="5.70562">
        <ele>480.2</ele>
        <time>2022-05-27T13:56:55Z</time>
      </trkpt>
      <trkpt lat="46.62489" lon="5.70541">
        <ele>480.2</ele>
        <time>2022-05-27T13:56:59Z</time>
      </trkpt>
      <trkpt lat="46.6248" lon="5.70529">
        <ele>481.6</ele>
        <time>2022-05-27T13:57:01Z</time>
      </trkpt>
      <trkpt lat="46.62459" lon="5.70506">
        <ele>482.8</ele>
        <time>2022-05-27T13:57:05Z</time>
      </trkpt>
      <trkpt lat="46.62423" lon="5.70465">
        <ele>483</ele>
        <time>2022-05-27T13:57:11Z</time>
      </trkpt>
      <trkpt lat="46.62411" lon="5.70449">
        <ele>482.8</ele>
        <time>2022-05-27T13:57:13Z</time>
      </trkpt>
      <trkpt lat="46.62395" lon="5.70439">
        <ele>482.4</ele>
        <time>2022-05-27T13:57:15Z</time>
      </trkpt>
      <trkpt lat="46.62381" lon="5.70436">
        <ele>481.6</ele>
        <time>2022-05-27T13:57:17Z</time>
      </trkpt>
      <trkpt lat="46.62364" lon="5.70435">
        <ele>481.2</ele>
        <time>2022-05-27T13:57:19Z</time>
      </trkpt>
      <trkpt lat="46.62313" lon="5.70426">
        <ele>481.4</ele>
        <time>2022-05-27T13:57:26Z</time>
      </trkpt>
      <trkpt lat="46.62293" lon="5.70416">
        <ele>481.6</ele>
        <time>2022-05-27T13:57:29Z</time>
      </trkpt>
      <trkpt lat="46.62288" lon="5.70409">
        <ele>482</ele>
        <time>2022-05-27T13:57:30Z</time>
      </trkpt>
      <trkpt lat="46.62284" lon="5.704">
        <ele>482</ele>
        <time>2022-05-27T13:57:31Z</time>
      </trkpt>
      <trkpt lat="46.62282" lon="5.7038">
        <ele>482</ele>
        <time>2022-05-27T13:57:33Z</time>
      </trkpt>
      <trkpt lat="46.62281" lon="5.7036">
        <ele>482.2</ele>
        <time>2022-05-27T13:57:35Z</time>
      </trkpt>
      <trkpt lat="46.62274" lon="5.70346">
        <ele>482.2</ele>
        <time>2022-05-27T13:57:37Z</time>
      </trkpt>
      <trkpt lat="46.62269" lon="5.70343">
        <ele>482.2</ele>
        <time>2022-05-27T13:57:38Z</time>
      </trkpt>
      <trkpt lat="46.62261" lon="5.70339">
        <ele>482.4</ele>
        <time>2022-05-27T13:57:39Z</time>
      </trkpt>
      <trkpt lat="46.62246" lon="5.70335">
        <ele>482.4</ele>
        <time>2022-05-27T13:57:41Z</time>
      </trkpt>
      <trkpt lat="46.62206" lon="5.70323">
        <ele>482.2</ele>
        <time>2022-05-27T13:57:46Z</time>
      </trkpt>
      <trkpt lat="46.6218" lon="5.70316">
        <ele>481.8</ele>
        <time>2022-05-27T13:57:49Z</time>
      </trkpt>
      <trkpt lat="46.62166" lon="5.70306">
        <ele>481.2</ele>
        <time>2022-05-27T13:57:51Z</time>
      </trkpt>
      <trkpt lat="46.6212" lon="5.70277">
        <ele>480.8</ele>
        <time>2022-05-27T13:57:57Z</time>
      </trkpt>
      <trkpt lat="46.62084" lon="5.70261">
        <ele>481</ele>
        <time>2022-05-27T13:58:02Z</time>
      </trkpt>
      <trkpt lat="46.62031" lon="5.70242">
        <ele>481.6</ele>
        <time>2022-05-27T13:58:09Z</time>
      </trkpt>
      <trkpt lat="46.62023" lon="5.7024">
        <ele>481.8</ele>
        <time>2022-05-27T13:58:10Z</time>
      </trkpt>
      <trkpt lat="46.61971" lon="5.7022">
        <ele>482.2</ele>
        <time>2022-05-27T13:58:17Z</time>
      </trkpt>
      <trkpt lat="46.61964" lon="5.70218">
        <ele>482.4</ele>
        <time>2022-05-27T13:58:18Z</time>
      </trkpt>
      <trkpt lat="46.61909" lon="5.70196">
        <ele>482</ele>
        <time>2022-05-27T13:58:25Z</time>
      </trkpt>
      <trkpt lat="46.61902" lon="5.70193">
        <ele>482</ele>
        <time>2022-05-27T13:58:26Z</time>
      </trkpt>
      <trkpt lat="46.61844" lon="5.70168">
        <ele>481.8</ele>
        <time>2022-05-27T13:58:33Z</time>
      </trkpt>
      <trkpt lat="46.6183" lon="5.70163">
        <ele>481.8</ele>
        <time>2022-05-27T13:58:35Z</time>
      </trkpt>
      <trkpt lat="46.61772" lon="5.70144">
        <ele>481.8</ele>
        <time>2022-05-27T13:58:42Z</time>
      </trkpt>
      <trkpt lat="46.61722" lon="5.70133">
        <ele>481.4</ele>
        <time>2022-05-27T13:58:48Z</time>
      </trkpt>
      <trkpt lat="46.61677" lon="5.7014">
        <ele>481</ele>
        <time>2022-05-27T13:58:53Z</time>
      </trkpt>
      <trkpt lat="46.61667" lon="5.70142">
        <ele>480.8</ele>
        <time>2022-05-27T13:58:54Z</time>
      </trkpt>
      <trkpt lat="46.61629" lon="5.70148">
        <ele>480</ele>
        <time>2022-05-27T13:58:58Z</time>
      </trkpt>
      <trkpt lat="46.61619" lon="5.70149">
        <ele>479.6</ele>
        <time>2022-05-27T13:58:59Z</time>
      </trkpt>
      <trkpt lat="46.6159" lon="5.70149">
        <ele>479.4</ele>
        <time>2022-05-27T13:59:02Z</time>
      </trkpt>
      <trkpt lat="46.6158" lon="5.70146">
        <ele>479</ele>
        <time>2022-05-27T13:59:03Z</time>
      </trkpt>
      <trkpt lat="46.61563" lon="5.7014">
        <ele>478.8</ele>
        <time>2022-05-27T13:59:05Z</time>
      </trkpt>
      <trkpt lat="46.61534" lon="5.70126">
        <ele>478.6</ele>
        <time>2022-05-27T13:59:08Z</time>
      </trkpt>
      <trkpt lat="46.61481" lon="5.701">
        <ele>478.6</ele>
        <time>2022-05-27T13:59:14Z</time>
      </trkpt>
      <trkpt lat="46.6146" lon="5.70092">
        <ele>478.6</ele>
        <time>2022-05-27T13:59:16Z</time>
      </trkpt>
      <trkpt lat="46.61406" lon="5.70065">
        <ele>478.4</ele>
        <time>2022-05-27T13:59:22Z</time>
      </trkpt>
      <trkpt lat="46.61388" lon="5.70054">
        <ele>478</ele>
        <time>2022-05-27T13:59:24Z</time>
      </trkpt>
      <trkpt lat="46.61339" lon="5.70017">
        <ele>478</ele>
        <time>2022-05-27T13:59:30Z</time>
      </trkpt>
      <trkpt lat="46.61331" lon="5.7001">
        <ele>478</ele>
        <time>2022-05-27T13:59:31Z</time>
      </trkpt>
      <trkpt lat="46.61307" lon="5.6999">
        <ele>478</ele>
        <time>2022-05-27T13:59:34Z</time>
      </trkpt>
      <trkpt lat="46.61278" lon="5.6996">
        <ele>478</ele>
        <time>2022-05-27T13:59:38Z</time>
      </trkpt>
      <trkpt lat="46.61265" lon="5.69942">
        <ele>478</ele>
        <time>2022-05-27T13:59:40Z</time>
      </trkpt>
      <trkpt lat="46.6126" lon="5.69932">
        <ele>478.2</ele>
        <time>2022-05-27T13:59:42Z</time>
      </trkpt>
      <trkpt lat="46.61235" lon="5.69869">
        <ele>478</ele>
        <time>2022-05-27T13:59:47Z</time>
      </trkpt>
      <trkpt lat="46.61208" lon="5.69792">
        <ele>478.4</ele>
        <time>2022-05-27T13:59:54Z</time>
      </trkpt>
      <trkpt lat="46.61179" lon="5.69715">
        <ele>478.6</ele>
        <time>2022-05-27T14:00:01Z</time>
      </trkpt>
      <trkpt lat="46.61175" lon="5.69705">
        <ele>478.6</ele>
        <time>2022-05-27T14:00:02Z</time>
      </trkpt>
      <trkpt lat="46.61142" lon="5.69639">
        <ele>478</ele>
        <time>2022-05-27T14:00:08Z</time>
      </trkpt>
      <trkpt lat="46.61135" lon="5.69629">
        <ele>477.8</ele>
        <time>2022-05-27T14:00:09Z</time>
      </trkpt>
      <trkpt lat="46.61127" lon="5.69619">
        <ele>477.4</ele>
        <time>2022-05-27T14:00:10Z</time>
      </trkpt>
      <trkpt lat="46.61108" lon="5.69602">
        <ele>477</ele>
        <time>2022-05-27T14:00:12Z</time>
      </trkpt>
      <trkpt lat="46.61089" lon="5.69588">
        <ele>476.4</ele>
        <time>2022-05-27T14:00:14Z</time>
      </trkpt>
      <trkpt lat="46.61068" lon="5.69575">
        <ele>475</ele>
        <time>2022-05-27T14:00:16Z</time>
      </trkpt>
      <trkpt lat="46.61057" lon="5.69567">
        <ele>474</ele>
        <time>2022-05-27T14:00:17Z</time>
      </trkpt>
      <trkpt lat="46.61047" lon="5.69559">
        <ele>472.8</ele>
        <time>2022-05-27T14:00:18Z</time>
      </trkpt>
      <trkpt lat="46.61027" lon="5.69541">
        <ele>471.4</ele>
        <time>2022-05-27T14:00:20Z</time>
      </trkpt>
      <trkpt lat="46.61009" lon="5.69522">
        <ele>469.6</ele>
        <time>2022-05-27T14:00:22Z</time>
      </trkpt>
      <trkpt lat="46.60991" lon="5.69504">
        <ele>468.6</ele>
        <time>2022-05-27T14:00:24Z</time>
      </trkpt>
      <trkpt lat="46.60943" lon="5.69456">
        <ele>467.8</ele>
        <time>2022-05-27T14:00:30Z</time>
      </trkpt>
      <trkpt lat="46.60913" lon="5.69425">
        <ele>469.4</ele>
        <time>2022-05-27T14:00:35Z</time>
      </trkpt>
      <trkpt lat="46.60907" lon="5.69419">
        <ele>470</ele>
        <time>2022-05-27T14:00:36Z</time>
      </trkpt>
      <trkpt lat="46.60891" lon="5.69401">
        <ele>471.4</ele>
        <time>2022-05-27T14:00:39Z</time>
      </trkpt>
      <trkpt lat="46.60875" lon="5.69384">
        <ele>472.2</ele>
        <time>2022-05-27T14:00:42Z</time>
      </trkpt>
      <trkpt lat="46.60869" lon="5.69378">
        <ele>473</ele>
        <time>2022-05-27T14:00:43Z</time>
      </trkpt>
      <trkpt lat="46.60854" lon="5.69361">
        <ele>474.2</ele>
        <time>2022-05-27T14:00:46Z</time>
      </trkpt>
      <trkpt lat="46.60835" lon="5.69339">
        <ele>475</ele>
        <time>2022-05-27T14:00:50Z</time>
      </trkpt>
      <trkpt lat="46.60826" lon="5.69328">
        <ele>475.8</ele>
        <time>2022-05-27T14:00:52Z</time>
      </trkpt>
      <trkpt lat="46.60809" lon="5.69309">
        <ele>476.8</ele>
        <time>2022-05-27T14:00:56Z</time>
      </trkpt>
      <trkpt lat="46.60805" lon="5.69304">
        <ele>477.4</ele>
        <time>2022-05-27T14:00:57Z</time>
      </trkpt>
      <trkpt lat="46.60796" lon="5.69295">
        <ele>478.2</ele>
        <time>2022-05-27T14:00:59Z</time>
      </trkpt>
      <trkpt lat="46.60776" lon="5.69275">
        <ele>479.4</ele>
        <time>2022-05-27T14:01:04Z</time>
      </trkpt>
      <trkpt lat="46.60772" lon="5.69271">
        <ele>479.6</ele>
        <time>2022-05-27T14:01:05Z</time>
      </trkpt>
      <trkpt lat="46.60754" lon="5.69253">
        <ele>480.8</ele>
        <time>2022-05-27T14:01:09Z</time>
      </trkpt>
      <trkpt lat="46.60732" lon="5.69229">
        <ele>481.6</ele>
        <time>2022-05-27T14:01:14Z</time>
      </trkpt>
      <trkpt lat="46.60727" lon="5.69224">
        <ele>481.8</ele>
        <time>2022-05-27T14:01:15Z</time>
      </trkpt>
      <trkpt lat="46.60686" lon="5.69184">
        <ele>482</ele>
        <time>2022-05-27T14:01:23Z</time>
      </trkpt>
      <trkpt lat="46.60651" lon="5.69149">
        <ele>482.8</ele>
        <time>2022-05-27T14:01:30Z</time>
      </trkpt>
      <trkpt lat="46.60638" lon="5.69135">
        <ele>483.6</ele>
        <time>2022-05-27T14:01:33Z</time>
      </trkpt>
      <trkpt lat="46.60634" lon="5.6913">
        <ele>483.8</ele>
        <time>2022-05-27T14:01:34Z</time>
      </trkpt>
      <trkpt lat="46.60614" lon="5.69102">
        <ele>485.2</ele>
        <time>2022-05-27T14:01:39Z</time>
      </trkpt>
      <trkpt lat="46.60602" lon="5.69082">
        <ele>485.6</ele>
        <time>2022-05-27T14:01:42Z</time>
      </trkpt>
      <trkpt lat="46.60579" lon="5.69045">
        <ele>486</ele>
        <time>2022-05-27T14:01:47Z</time>
      </trkpt>
      <trkpt lat="46.60547" lon="5.69005">
        <ele>485.2</ele>
        <time>2022-05-27T14:01:52Z</time>
      </trkpt>
      <trkpt lat="46.60525" lon="5.68982">
        <ele>484</ele>
        <time>2022-05-27T14:01:55Z</time>
      </trkpt>
      <trkpt lat="46.60499" lon="5.68957">
        <ele>483.6</ele>
        <time>2022-05-27T14:01:59Z</time>
      </trkpt>
      <trkpt lat="46.60456" lon="5.68919">
        <ele>484</ele>
        <time>2022-05-27T14:02:06Z</time>
      </trkpt>
      <trkpt lat="46.60421" lon="5.68894">
        <ele>484.2</ele>
        <time>2022-05-27T14:02:11Z</time>
      </trkpt>
      <trkpt lat="46.60413" lon="5.68891">
        <ele>484.2</ele>
        <time>2022-05-27T14:02:12Z</time>
      </trkpt>
      <trkpt lat="46.60397" lon="5.6889">
        <ele>484</ele>
        <time>2022-05-27T14:02:14Z</time>
      </trkpt>
      <trkpt lat="46.60389" lon="5.68893">
        <ele>484</ele>
        <time>2022-05-27T14:02:15Z</time>
      </trkpt>
      <trkpt lat="46.60382" lon="5.68898">
        <ele>483.4</ele>
        <time>2022-05-27T14:02:16Z</time>
      </trkpt>
      <trkpt lat="46.60369" lon="5.68912">
        <ele>483</ele>
        <time>2022-05-27T14:02:18Z</time>
      </trkpt>
      <trkpt lat="46.60364" lon="5.68918">
        <ele>483</ele>
        <time>2022-05-27T14:02:19Z</time>
      </trkpt>
      <trkpt lat="46.60339" lon="5.68947">
        <ele>482.6</ele>
        <time>2022-05-27T14:02:23Z</time>
      </trkpt>
      <trkpt lat="46.60332" lon="5.68953">
        <ele>482.4</ele>
        <time>2022-05-27T14:02:24Z</time>
      </trkpt>
      <trkpt lat="46.60325" lon="5.68957">
        <ele>482.6</ele>
        <time>2022-05-27T14:02:25Z</time>
      </trkpt>
      <trkpt lat="46.60313" lon="5.68958">
        <ele>483</ele>
        <time>2022-05-27T14:02:27Z</time>
      </trkpt>
      <trkpt lat="46.60266" lon="5.68946">
        <ele>483.8</ele>
        <time>2022-05-27T14:02:33Z</time>
      </trkpt>
      <trkpt lat="46.60224" lon="5.68932">
        <ele>483.8</ele>
        <time>2022-05-27T14:02:38Z</time>
      </trkpt>
      <trkpt lat="46.6017" lon="5.68917">
        <ele>482.2</ele>
        <time>2022-05-27T14:02:44Z</time>
      </trkpt>
      <trkpt lat="46.60163" lon="5.68914">
        <ele>482</ele>
        <time>2022-05-27T14:02:45Z</time>
      </trkpt>
      <trkpt lat="46.60153" lon="5.6891">
        <ele>482</ele>
        <time>2022-05-27T14:02:46Z</time>
      </trkpt>
      <trkpt lat="46.60093" lon="5.68886">
        <ele>481.4</ele>
        <time>2022-05-27T14:02:53Z</time>
      </trkpt>
      <trkpt lat="46.60066" lon="5.68874">
        <ele>481</ele>
        <time>2022-05-27T14:02:56Z</time>
      </trkpt>
      <trkpt lat="46.60038" lon="5.68868">
        <ele>480.6</ele>
        <time>2022-05-27T14:02:59Z</time>
      </trkpt>
      <trkpt lat="46.60007" lon="5.68859">
        <ele>479.8</ele>
        <time>2022-05-27T14:03:02Z</time>
      </trkpt>
      <trkpt lat="46.59997" lon="5.68854">
        <ele>479.2</ele>
        <time>2022-05-27T14:03:03Z</time>
      </trkpt>
      <trkpt lat="46.59987" lon="5.68848">
        <ele>479</ele>
        <time>2022-05-27T14:03:04Z</time>
      </trkpt>
      <trkpt lat="46.59977" lon="5.6884">
        <ele>478.6</ele>
        <time>2022-05-27T14:03:05Z</time>
      </trkpt>
      <trkpt lat="46.59957" lon="5.68825">
        <ele>477.8</ele>
        <time>2022-05-27T14:03:07Z</time>
      </trkpt>
      <trkpt lat="46.59946" lon="5.68821">
        <ele>476.8</ele>
        <time>2022-05-27T14:03:08Z</time>
      </trkpt>
      <trkpt lat="46.59934" lon="5.68821">
        <ele>475.4</ele>
        <time>2022-05-27T14:03:09Z</time>
      </trkpt>
      <trkpt lat="46.59912" lon="5.68826">
        <ele>474.2</ele>
        <time>2022-05-27T14:03:11Z</time>
      </trkpt>
      <trkpt lat="46.59881" lon="5.68832">
        <ele>472.6</ele>
        <time>2022-05-27T14:03:13Z</time>
      </trkpt>
      <trkpt lat="46.59853" lon="5.68836">
        <ele>471.2</ele>
        <time>2022-05-27T14:03:15Z</time>
      </trkpt>
      <trkpt lat="46.59839" lon="5.68837">
        <ele>469.8</ele>
        <time>2022-05-27T14:03:16Z</time>
      </trkpt>
      <trkpt lat="46.59828" lon="5.68838">
        <ele>467.6</ele>
        <time>2022-05-27T14:03:17Z</time>
      </trkpt>
      <trkpt lat="46.59797" lon="5.68845">
        <ele>465.6</ele>
        <time>2022-05-27T14:03:19Z</time>
      </trkpt>
      <trkpt lat="46.59786" lon="5.68848">
        <ele>464.2</ele>
        <time>2022-05-27T14:03:20Z</time>
      </trkpt>
      <trkpt lat="46.5977" lon="5.68854">
        <ele>462.6</ele>
        <time>2022-05-27T14:03:21Z</time>
      </trkpt>
      <trkpt lat="46.59744" lon="5.68863">
        <ele>461.2</ele>
        <time>2022-05-27T14:03:23Z</time>
      </trkpt>
      <trkpt lat="46.59705" lon="5.68878">
        <ele>459.6</ele>
        <time>2022-05-27T14:03:26Z</time>
      </trkpt>
      <trkpt lat="46.59693" lon="5.68883">
        <ele>459.2</ele>
        <time>2022-05-27T14:03:27Z</time>
      </trkpt>
      <trkpt lat="46.59681" lon="5.68888">
        <ele>458.6</ele>
        <time>2022-05-27T14:03:28Z</time>
      </trkpt>
      <trkpt lat="46.59623" lon="5.68912">
        <ele>457.4</ele>
        <time>2022-05-27T14:03:33Z</time>
      </trkpt>
      <trkpt lat="46.59564" lon="5.68931">
        <ele>457</ele>
        <time>2022-05-27T14:03:38Z</time>
      </trkpt>
      <trkpt lat="46.59552" lon="5.68932">
        <ele>457</ele>
        <time>2022-05-27T14:03:39Z</time>
      </trkpt>
      <trkpt lat="46.59494" lon="5.68941">
        <ele>456.6</ele>
        <time>2022-05-27T14:03:44Z</time>
      </trkpt>
      <trkpt lat="46.59482" lon="5.68945">
        <ele>456.4</ele>
        <time>2022-05-27T14:03:45Z</time>
      </trkpt>
      <trkpt lat="46.59473" lon="5.68949">
        <ele>456.4</ele>
        <time>2022-05-27T14:03:46Z</time>
      </trkpt>
      <trkpt lat="46.5946" lon="5.68957">
        <ele>456.2</ele>
        <time>2022-05-27T14:03:47Z</time>
      </trkpt>
      <trkpt lat="46.59449" lon="5.68965">
        <ele>456</ele>
        <time>2022-05-27T14:03:48Z</time>
      </trkpt>
      <trkpt lat="46.59428" lon="5.68981">
        <ele>455.8</ele>
        <time>2022-05-27T14:03:50Z</time>
      </trkpt>
      <trkpt lat="46.59416" lon="5.68987">
        <ele>455.4</ele>
        <time>2022-05-27T14:03:51Z</time>
      </trkpt>
      <trkpt lat="46.59404" lon="5.68989">
        <ele>455.2</ele>
        <time>2022-05-27T14:03:52Z</time>
      </trkpt>
      <trkpt lat="46.59392" lon="5.68989">
        <ele>455</ele>
        <time>2022-05-27T14:03:53Z</time>
      </trkpt>
      <trkpt lat="46.59382" lon="5.68989">
        <ele>454.6</ele>
        <time>2022-05-27T14:03:54Z</time>
      </trkpt>
      <trkpt lat="46.59356" lon="5.68989">
        <ele>453.4</ele>
        <time>2022-05-27T14:03:56Z</time>
      </trkpt>
      <trkpt lat="46.59309" lon="5.6899">
        <ele>452.2</ele>
        <time>2022-05-27T14:04:00Z</time>
      </trkpt>
      <trkpt lat="46.59298" lon="5.68989">
        <ele>451.6</ele>
        <time>2022-05-27T14:04:01Z</time>
      </trkpt>
      <trkpt lat="46.59264" lon="5.68988">
        <ele>451.2</ele>
        <time>2022-05-27T14:04:04Z</time>
      </trkpt>
      <trkpt lat="46.59253" lon="5.68991">
        <ele>451</ele>
        <time>2022-05-27T14:04:05Z</time>
      </trkpt>
      <trkpt lat="46.59242" lon="5.68995">
        <ele>451</ele>
        <time>2022-05-27T14:04:06Z</time>
      </trkpt>
      <trkpt lat="46.59214" lon="5.69015">
        <ele>450.8</ele>
        <time>2022-05-27T14:04:09Z</time>
      </trkpt>
      <trkpt lat="46.59179" lon="5.69044">
        <ele>450.2</ele>
        <time>2022-05-27T14:04:13Z</time>
      </trkpt>
      <trkpt lat="46.59169" lon="5.6905">
        <ele>450</ele>
        <time>2022-05-27T14:04:14Z</time>
      </trkpt>
      <trkpt lat="46.59162" lon="5.69054">
        <ele>450</ele>
        <time>2022-05-27T14:04:15Z</time>
      </trkpt>
      <trkpt lat="46.59116" lon="5.69073">
        <ele>449.8</ele>
        <time>2022-05-27T14:04:20Z</time>
      </trkpt>
      <trkpt lat="46.59055" lon="5.69095">
        <ele>449.8</ele>
        <time>2022-05-27T14:04:27Z</time>
      </trkpt>
      <trkpt lat="46.58996" lon="5.69107">
        <ele>449.8</ele>
        <time>2022-05-27T14:04:34Z</time>
      </trkpt>
      <trkpt lat="46.58985" lon="5.6911">
        <ele>449.8</ele>
        <time>2022-05-27T14:04:35Z</time>
      </trkpt>
      <trkpt lat="46.58946" lon="5.69133">
        <ele>449.6</ele>
        <time>2022-05-27T14:04:40Z</time>
      </trkpt>
      <trkpt lat="46.58903" lon="5.69181">
        <ele>449.4</ele>
        <time>2022-05-27T14:04:46Z</time>
      </trkpt>
      <trkpt lat="46.58868" lon="5.6922">
        <ele>449.2</ele>
        <time>2022-05-27T14:04:51Z</time>
      </trkpt>
      <trkpt lat="46.58861" lon="5.69226">
        <ele>449</ele>
        <time>2022-05-27T14:04:52Z</time>
      </trkpt>
      <trkpt lat="46.58853" lon="5.69231">
        <ele>449</ele>
        <time>2022-05-27T14:04:53Z</time>
      </trkpt>
      <trkpt lat="46.58836" lon="5.69234">
        <ele>448.8</ele>
        <time>2022-05-27T14:04:55Z</time>
      </trkpt>
      <trkpt lat="46.58796" lon="5.69225">
        <ele>448.6</ele>
        <time>2022-05-27T14:05:00Z</time>
      </trkpt>
      <trkpt lat="46.58757" lon="5.69213">
        <ele>450</ele>
        <time>2022-05-27T14:05:06Z</time>
      </trkpt>
      <trkpt lat="46.58747" lon="5.6921">
        <ele>450.8</ele>
        <time>2022-05-27T14:05:08Z</time>
      </trkpt>
      <trkpt lat="46.58742" lon="5.69208">
        <ele>451</ele>
        <time>2022-05-27T14:05:09Z</time>
      </trkpt>
      <trkpt lat="46.58733" lon="5.69202">
        <ele>451.8</ele>
        <time>2022-05-27T14:05:11Z</time>
      </trkpt>
      <trkpt lat="46.58727" lon="5.69195">
        <ele>452.8</ele>
        <time>2022-05-27T14:05:14Z</time>
      </trkpt>
      <trkpt lat="46.58726" lon="5.69194">
        <ele>453</ele>
        <time>2022-05-27T14:05:15Z</time>
      </trkpt>
      <trkpt lat="46.58725" lon="5.69193">
        <ele>453.2</ele>
        <time>2022-05-27T14:05:16Z</time>
      </trkpt>
      <trkpt lat="46.58722" lon="5.69191">
        <ele>453.4</ele>
        <time>2022-05-27T14:05:18Z</time>
      </trkpt>
      <trkpt lat="46.58719" lon="5.69192">
        <ele>453.6</ele>
        <time>2022-05-27T14:05:19Z</time>
      </trkpt>
      <trkpt lat="46.58717" lon="5.69195">
        <ele>453.6</ele>
        <time>2022-05-27T14:05:20Z</time>
      </trkpt>
      <trkpt lat="46.58713" lon="5.69208">
        <ele>453.8</ele>
        <time>2022-05-27T14:05:22Z</time>
      </trkpt>
      <trkpt lat="46.58712" lon="5.69217">
        <ele>453.8</ele>
        <time>2022-05-27T14:05:23Z</time>
      </trkpt>
      <trkpt lat="46.58707" lon="5.69234">
        <ele>453.8</ele>
        <time>2022-05-27T14:05:25Z</time>
      </trkpt>
      <trkpt lat="46.58705" lon="5.69241">
        <ele>453.8</ele>
        <time>2022-05-27T14:05:26Z</time>
      </trkpt>
      <trkpt lat="46.58681" lon="5.69318">
        <ele>453.8</ele>
        <time>2022-05-27T14:05:34Z</time>
      </trkpt>
      <trkpt lat="46.58664" lon="5.69377">
        <ele>453.8</ele>
        <time>2022-05-27T14:05:40Z</time>
      </trkpt>
      <trkpt lat="46.58642" lon="5.69452">
        <ele>453.4</ele>
        <time>2022-05-27T14:05:47Z</time>
      </trkpt>
      <trkpt lat="46.58636" lon="5.69473">
        <ele>453.2</ele>
        <time>2022-05-27T14:05:49Z</time>
      </trkpt>
      <trkpt lat="46.58629" lon="5.69494">
        <ele>452.6</ele>
        <time>2022-05-27T14:05:51Z</time>
      </trkpt>
      <trkpt lat="46.58606" lon="5.69572">
        <ele>451.8</ele>
        <time>2022-05-27T14:05:58Z</time>
      </trkpt>
      <trkpt lat="46.58603" lon="5.69583">
        <ele>451.6</ele>
        <time>2022-05-27T14:05:59Z</time>
      </trkpt>
      <trkpt lat="46.58579" lon="5.69661">
        <ele>451.2</ele>
        <time>2022-05-27T14:06:06Z</time>
      </trkpt>
      <trkpt lat="46.58576" lon="5.69672">
        <ele>451.2</ele>
        <time>2022-05-27T14:06:07Z</time>
      </trkpt>
      <trkpt lat="46.58563" lon="5.69715">
        <ele>450.6</ele>
        <time>2022-05-27T14:06:11Z</time>
      </trkpt>
      <trkpt lat="46.58548" lon="5.69768">
        <ele>450.4</ele>
        <time>2022-05-27T14:06:16Z</time>
      </trkpt>
      <trkpt lat="46.58533" lon="5.69817">
        <ele>450.4</ele>
        <time>2022-05-27T14:06:21Z</time>
      </trkpt>
      <trkpt lat="46.58509" lon="5.69899">
        <ele>450.2</ele>
        <time>2022-05-27T14:06:29Z</time>
      </trkpt>
      <trkpt lat="46.58495" lon="5.6995">
        <ele>450</ele>
        <time>2022-05-27T14:06:34Z</time>
      </trkpt>
      <trkpt lat="46.58494" lon="5.69961">
        <ele>450</ele>
        <time>2022-05-27T14:06:35Z</time>
      </trkpt>
      <trkpt lat="46.58495" lon="5.69972">
        <ele>450</ele>
        <time>2022-05-27T14:06:36Z</time>
      </trkpt>
      <trkpt lat="46.58498" lon="5.70013">
        <ele>450.2</ele>
        <time>2022-05-27T14:06:40Z</time>
      </trkpt>
      <trkpt lat="46.58502" lon="5.70068">
        <ele>452</ele>
        <time>2022-05-27T14:06:46Z</time>
      </trkpt>
      <trkpt lat="46.58503" lon="5.70078">
        <ele>452.4</ele>
        <time>2022-05-27T14:06:47Z</time>
      </trkpt>
      <trkpt lat="46.58504" lon="5.70087">
        <ele>453</ele>
        <time>2022-05-27T14:06:48Z</time>
      </trkpt>
      <trkpt lat="46.58513" lon="5.70142">
        <ele>453.6</ele>
        <time>2022-05-27T14:06:54Z</time>
      </trkpt>
      <trkpt lat="46.58514" lon="5.7015">
        <ele>453.6</ele>
        <time>2022-05-27T14:06:55Z</time>
      </trkpt>
      <trkpt lat="46.5851" lon="5.70162">
        <ele>453.6</ele>
        <time>2022-05-27T14:06:57Z</time>
      </trkpt>
      <trkpt lat="46.58497" lon="5.70171">
        <ele>453.6</ele>
        <time>2022-05-27T14:07:00Z</time>
      </trkpt>
      <trkpt lat="46.5847" lon="5.70173">
        <ele>453.6</ele>
        <time>2022-05-27T14:07:04Z</time>
      </trkpt>
      <trkpt lat="46.58463" lon="5.70174">
        <ele>453.6</ele>
        <time>2022-05-27T14:07:05Z</time>
      </trkpt>
      <trkpt lat="46.58436" lon="5.70179">
        <ele>453.8</ele>
        <time>2022-05-27T14:07:09Z</time>
      </trkpt>
      <trkpt lat="46.58428" lon="5.70181">
        <ele>453.6</ele>
        <time>2022-05-27T14:07:10Z</time>
      </trkpt>
      <trkpt lat="46.58402" lon="5.70192">
        <ele>453.4</ele>
        <time>2022-05-27T14:07:13Z</time>
      </trkpt>
      <trkpt lat="46.58354" lon="5.70211">
        <ele>452.2</ele>
        <time>2022-05-27T14:07:19Z</time>
      </trkpt>
      <trkpt lat="46.58346" lon="5.70217">
        <ele>451.8</ele>
        <time>2022-05-27T14:07:20Z</time>
      </trkpt>
      <trkpt lat="46.58315" lon="5.70242">
        <ele>450.8</ele>
        <time>2022-05-27T14:07:24Z</time>
      </trkpt>
      <trkpt lat="46.58299" lon="5.70254">
        <ele>450.2</ele>
        <time>2022-05-27T14:07:26Z</time>
      </trkpt>
      <trkpt lat="46.58276" lon="5.70271">
        <ele>449.8</ele>
        <time>2022-05-27T14:07:29Z</time>
      </trkpt>
      <trkpt lat="46.58241" lon="5.70299">
        <ele>449.4</ele>
        <time>2022-05-27T14:07:34Z</time>
      </trkpt>
      <trkpt lat="46.58227" lon="5.70309">
        <ele>449.6</ele>
        <time>2022-05-27T14:07:36Z</time>
      </trkpt>
      <trkpt lat="46.58215" lon="5.70319">
        <ele>450</ele>
        <time>2022-05-27T14:07:38Z</time>
      </trkpt>
      <trkpt lat="46.58195" lon="5.70334">
        <ele>450.8</ele>
        <time>2022-05-27T14:07:41Z</time>
      </trkpt>
      <trkpt lat="46.58171" lon="5.70351">
        <ele>451.4</ele>
        <time>2022-05-27T14:07:45Z</time>
      </trkpt>
      <trkpt lat="46.5816" lon="5.70361">
        <ele>451.4</ele>
        <time>2022-05-27T14:07:47Z</time>
      </trkpt>
      <trkpt lat="46.58123" lon="5.70388">
        <ele>451.6</ele>
        <time>2022-05-27T14:07:53Z</time>
      </trkpt>
      <trkpt lat="46.58117" lon="5.70392">
        <ele>451.6</ele>
        <time>2022-05-27T14:07:54Z</time>
      </trkpt>
      <trkpt lat="46.58104" lon="5.70398">
        <ele>451.8</ele>
        <time>2022-05-27T14:07:56Z</time>
      </trkpt>
      <trkpt lat="46.58091" lon="5.70403">
        <ele>451.8</ele>
        <time>2022-05-27T14:07:58Z</time>
      </trkpt>
      <trkpt lat="46.58044" lon="5.70409">
        <ele>451.8</ele>
        <time>2022-05-27T14:08:05Z</time>
      </trkpt>
      <trkpt lat="46.58009" lon="5.70413">
        <ele>452.6</ele>
        <time>2022-05-27T14:08:11Z</time>
      </trkpt>
      <trkpt lat="46.58004" lon="5.70414">
        <ele>452.8</ele>
        <time>2022-05-27T14:08:12Z</time>
      </trkpt>
      <trkpt lat="46.57986" lon="5.70416">
        <ele>454</ele>
        <time>2022-05-27T14:08:16Z</time>
      </trkpt>
      <trkpt lat="46.57977" lon="5.70417">
        <ele>454.4</ele>
        <time>2022-05-27T14:08:18Z</time>
      </trkpt>
      <trkpt lat="46.57968" lon="5.70418">
        <ele>455</ele>
        <time>2022-05-27T14:08:20Z</time>
      </trkpt>
      <trkpt lat="46.57949" lon="5.7042">
        <ele>456.4</ele>
        <time>2022-05-27T14:08:24Z</time>
      </trkpt>
      <trkpt lat="46.57945" lon="5.70421">
        <ele>456.8</ele>
        <time>2022-05-27T14:08:25Z</time>
      </trkpt>
      <trkpt lat="46.57932" lon="5.70423">
        <ele>457.6</ele>
        <time>2022-05-27T14:08:28Z</time>
      </trkpt>
      <trkpt lat="46.57924" lon="5.70426">
        <ele>458</ele>
        <time>2022-05-27T14:08:30Z</time>
      </trkpt>
      <trkpt lat="46.57916" lon="5.7043">
        <ele>458.4</ele>
        <time>2022-05-27T14:08:32Z</time>
      </trkpt>
      <trkpt lat="46.57911" lon="5.70432">
        <ele>458.8</ele>
        <time>2022-05-27T14:08:33Z</time>
      </trkpt>
      <trkpt lat="46.57906" lon="5.70435">
        <ele>458.8</ele>
        <time>2022-05-27T14:08:34Z</time>
      </trkpt>
      <trkpt lat="46.57889" lon="5.70446">
        <ele>459.2</ele>
        <time>2022-05-27T14:08:38Z</time>
      </trkpt>
      <trkpt lat="46.57884" lon="5.70449">
        <ele>459.4</ele>
        <time>2022-05-27T14:08:39Z</time>
      </trkpt>
      <trkpt lat="46.57875" lon="5.70456">
        <ele>459.8</ele>
        <time>2022-05-27T14:08:41Z</time>
      </trkpt>
      <trkpt lat="46.57865" lon="5.70462">
        <ele>460.2</ele>
        <time>2022-05-27T14:08:43Z</time>
      </trkpt>
      <trkpt lat="46.57851" lon="5.70472">
        <ele>460.8</ele>
        <time>2022-05-27T14:08:46Z</time>
      </trkpt>
      <trkpt lat="46.57841" lon="5.70477">
        <ele>461</ele>
        <time>2022-05-27T14:08:48Z</time>
      </trkpt>
      <trkpt lat="46.57826" lon="5.7048">
        <ele>461.4</ele>
        <time>2022-05-27T14:08:51Z</time>
      </trkpt>
      <trkpt lat="46.57817" lon="5.70482">
        <ele>461.8</ele>
        <time>2022-05-27T14:08:53Z</time>
      </trkpt>
      <trkpt lat="46.57801" lon="5.70485">
        <ele>463</ele>
        <time>2022-05-27T14:08:57Z</time>
      </trkpt>
      <trkpt lat="46.57789" lon="5.70486">
        <ele>464</ele>
        <time>2022-05-27T14:09:00Z</time>
      </trkpt>
      <trkpt lat="46.57785" lon="5.70486">
        <ele>464.2</ele>
        <time>2022-05-27T14:09:01Z</time>
      </trkpt>
      <trkpt lat="46.57765" lon="5.70487">
        <ele>465.4</ele>
        <time>2022-05-27T14:09:07Z</time>
      </trkpt>
      <trkpt lat="46.57755" lon="5.70489">
        <ele>466.6</ele>
        <time>2022-05-27T14:09:10Z</time>
      </trkpt>
      <trkpt lat="46.57742" lon="5.70497">
        <ele>468</ele>
        <time>2022-05-27T14:09:14Z</time>
      </trkpt>
      <trkpt lat="46.57739" lon="5.705">
        <ele>468.2</ele>
        <time>2022-05-27T14:09:15Z</time>
      </trkpt>
      <trkpt lat="46.57723" lon="5.70517">
        <ele>469.2</ele>
        <time>2022-05-27T14:09:20Z</time>
      </trkpt>
      <trkpt lat="46.57717" lon="5.70523">
        <ele>469.6</ele>
        <time>2022-05-27T14:09:22Z</time>
      </trkpt>
      <trkpt lat="46.57691" lon="5.70552">
        <ele>470.6</ele>
        <time>2022-05-27T14:09:30Z</time>
      </trkpt>
      <trkpt lat="46.57684" lon="5.70559">
        <ele>471</ele>
        <time>2022-05-27T14:09:32Z</time>
      </trkpt>
      <trkpt lat="46.57665" lon="5.70579">
        <ele>471.8</ele>
        <time>2022-05-27T14:09:38Z</time>
      </trkpt>
      <trkpt lat="46.57655" lon="5.70589">
        <ele>472.4</ele>
        <time>2022-05-27T14:09:41Z</time>
      </trkpt>
      <trkpt lat="46.57652" lon="5.70593">
        <ele>472.8</ele>
        <time>2022-05-27T14:09:42Z</time>
      </trkpt>
      <trkpt lat="46.57631" lon="5.70615">
        <ele>473.8</ele>
        <time>2022-05-27T14:09:48Z</time>
      </trkpt>
      <trkpt lat="46.57624" lon="5.70622">
        <ele>474.2</ele>
        <time>2022-05-27T14:09:50Z</time>
      </trkpt>
      <trkpt lat="46.57609" lon="5.70637">
        <ele>474.8</ele>
        <time>2022-05-27T14:09:54Z</time>
      </trkpt>
      <trkpt lat="46.57599" lon="5.70647">
        <ele>475.2</ele>
        <time>2022-05-27T14:09:57Z</time>
      </trkpt>
      <trkpt lat="46.57588" lon="5.70659">
        <ele>476</ele>
        <time>2022-05-27T14:10:00Z</time>
      </trkpt>
      <trkpt lat="46.57577" lon="5.70669">
        <ele>477</ele>
        <time>2022-05-27T14:10:03Z</time>
      </trkpt>
      <trkpt lat="46.57562" lon="5.7068">
        <ele>477.8</ele>
        <time>2022-05-27T14:10:07Z</time>
      </trkpt>
      <trkpt lat="46.57558" lon="5.70682">
        <ele>478.2</ele>
        <time>2022-05-27T14:10:08Z</time>
      </trkpt>
      <trkpt lat="46.57551" lon="5.70685">
        <ele>478.6</ele>
        <time>2022-05-27T14:10:10Z</time>
      </trkpt>
      <trkpt lat="46.5754" lon="5.70689">
        <ele>479.4</ele>
        <time>2022-05-27T14:10:13Z</time>
      </trkpt>
      <trkpt lat="46.57532" lon="5.70692">
        <ele>479.8</ele>
        <time>2022-05-27T14:10:15Z</time>
      </trkpt>
      <trkpt lat="46.57524" lon="5.70695">
        <ele>480.4</ele>
        <time>2022-05-27T14:10:17Z</time>
      </trkpt>
      <trkpt lat="46.57505" lon="5.70703">
        <ele>481.4</ele>
        <time>2022-05-27T14:10:22Z</time>
      </trkpt>
      <trkpt lat="46.57493" lon="5.70709">
        <ele>482.4</ele>
        <time>2022-05-27T14:10:25Z</time>
      </trkpt>
      <trkpt lat="46.5749" lon="5.70712">
        <ele>482.6</ele>
        <time>2022-05-27T14:10:26Z</time>
      </trkpt>
      <trkpt lat="46.57482" lon="5.70717">
        <ele>483.2</ele>
        <time>2022-05-27T14:10:28Z</time>
      </trkpt>
      <trkpt lat="46.57472" lon="5.70726">
        <ele>484</ele>
        <time>2022-05-27T14:10:31Z</time>
      </trkpt>
      <trkpt lat="46.57465" lon="5.70733">
        <ele>484.6</ele>
        <time>2022-05-27T14:10:33Z</time>
      </trkpt>
      <trkpt lat="46.57458" lon="5.70739">
        <ele>485</ele>
        <time>2022-05-27T14:10:35Z</time>
      </trkpt>
      <trkpt lat="46.57441" lon="5.70753">
        <ele>486.2</ele>
        <time>2022-05-27T14:10:40Z</time>
      </trkpt>
      <trkpt lat="46.57434" lon="5.70759">
        <ele>486.8</ele>
        <time>2022-05-27T14:10:42Z</time>
      </trkpt>
      <trkpt lat="46.57428" lon="5.70765">
        <ele>487.2</ele>
        <time>2022-05-27T14:10:44Z</time>
      </trkpt>
      <trkpt lat="46.574" lon="5.70789">
        <ele>488.2</ele>
        <time>2022-05-27T14:10:51Z</time>
      </trkpt>
      <trkpt lat="46.57396" lon="5.70793">
        <ele>488.4</ele>
        <time>2022-05-27T14:10:52Z</time>
      </trkpt>
      <trkpt lat="46.5736" lon="5.70822">
        <ele>489.6</ele>
        <time>2022-05-27T14:11:01Z</time>
      </trkpt>
      <trkpt lat="46.57327" lon="5.70847">
        <ele>490.6</ele>
        <time>2022-05-27T14:11:08Z</time>
      </trkpt>
      <trkpt lat="46.57317" lon="5.70854">
        <ele>491</ele>
        <time>2022-05-27T14:11:10Z</time>
      </trkpt>
      <trkpt lat="46.57289" lon="5.70877">
        <ele>491.6</ele>
        <time>2022-05-27T14:11:16Z</time>
      </trkpt>
      <trkpt lat="46.57268" lon="5.70892">
        <ele>492.2</ele>
        <time>2022-05-27T14:11:20Z</time>
      </trkpt>
      <trkpt lat="46.57246" lon="5.70908">
        <ele>492.8</ele>
        <time>2022-05-27T14:11:24Z</time>
      </trkpt>
      <trkpt lat="46.57229" lon="5.70919">
        <ele>493.2</ele>
        <time>2022-05-27T14:11:27Z</time>
      </trkpt>
      <trkpt lat="46.57222" lon="5.70922">
        <ele>493.2</ele>
        <time>2022-05-27T14:11:28Z</time>
      </trkpt>
      <trkpt lat="46.57184" lon="5.70943">
        <ele>494</ele>
        <time>2022-05-27T14:11:34Z</time>
      </trkpt>
      <trkpt lat="46.57177" lon="5.70946">
        <ele>494</ele>
        <time>2022-05-27T14:11:35Z</time>
      </trkpt>
      <trkpt lat="46.57123" lon="5.70974">
        <ele>494.8</ele>
        <time>2022-05-27T14:11:43Z</time>
      </trkpt>
      <trkpt lat="46.57117" lon="5.70977">
        <ele>495</ele>
        <time>2022-05-27T14:11:44Z</time>
      </trkpt>
      <trkpt lat="46.57111" lon="5.7098">
        <ele>495.4</ele>
        <time>2022-05-27T14:11:45Z</time>
      </trkpt>
      <trkpt lat="46.57082" lon="5.70994">
        <ele>496.2</ele>
        <time>2022-05-27T14:11:50Z</time>
      </trkpt>
      <trkpt lat="46.57062" lon="5.71002">
        <ele>496.4</ele>
        <time>2022-05-27T14:11:53Z</time>
      </trkpt>
      <trkpt lat="46.57026" lon="5.71016">
        <ele>497.2</ele>
        <time>2022-05-27T14:11:59Z</time>
      </trkpt>
      <trkpt lat="46.57" lon="5.71028">
        <ele>497.6</ele>
        <time>2022-05-27T14:12:03Z</time>
      </trkpt>
      <trkpt lat="46.56993" lon="5.71033">
        <ele>497.6</ele>
        <time>2022-05-27T14:12:04Z</time>
      </trkpt>
      <trkpt lat="46.56984" lon="5.71047">
        <ele>497.4</ele>
        <time>2022-05-27T14:12:06Z</time>
      </trkpt>
      <trkpt lat="46.5698" lon="5.71067">
        <ele>497.2</ele>
        <time>2022-05-27T14:12:08Z</time>
      </trkpt>
      <trkpt lat="46.56979" lon="5.71087">
        <ele>497.2</ele>
        <time>2022-05-27T14:12:10Z</time>
      </trkpt>
      <trkpt lat="46.56976" lon="5.71172">
        <ele>497</ele>
        <time>2022-05-27T14:12:18Z</time>
      </trkpt>
      <trkpt lat="46.56972" lon="5.71255">
        <ele>497.2</ele>
        <time>2022-05-27T14:12:26Z</time>
      </trkpt>
      <trkpt lat="46.56971" lon="5.71266">
        <ele>497.4</ele>
        <time>2022-05-27T14:12:27Z</time>
      </trkpt>
      <trkpt lat="46.56965" lon="5.71346">
        <ele>498</ele>
        <time>2022-05-27T14:12:35Z</time>
      </trkpt>
      <trkpt lat="46.56953" lon="5.71419">
        <ele>498.4</ele>
        <time>2022-05-27T14:12:43Z</time>
      </trkpt>
      <trkpt lat="46.56946" lon="5.71444">
        <ele>498.6</ele>
        <time>2022-05-27T14:12:46Z</time>
      </trkpt>
      <trkpt lat="46.56934" lon="5.71476">
        <ele>498.8</ele>
        <time>2022-05-27T14:12:50Z</time>
      </trkpt>
      <trkpt lat="46.56903" lon="5.71546">
        <ele>499.2</ele>
        <time>2022-05-27T14:12:59Z</time>
      </trkpt>
      <trkpt lat="46.56883" lon="5.71589">
        <ele>498.8</ele>
        <time>2022-05-27T14:13:04Z</time>
      </trkpt>
      <trkpt lat="46.56857" lon="5.71645">
        <ele>497.6</ele>
        <time>2022-05-27T14:13:10Z</time>
      </trkpt>
      <trkpt lat="46.56848" lon="5.71663">
        <ele>497.4</ele>
        <time>2022-05-27T14:13:12Z</time>
      </trkpt>
      <trkpt lat="46.56818" lon="5.71727">
        <ele>497</ele>
        <time>2022-05-27T14:13:19Z</time>
      </trkpt>
      <trkpt lat="46.56787" lon="5.71799">
        <ele>496.8</ele>
        <time>2022-05-27T14:13:26Z</time>
      </trkpt>
      <trkpt lat="46.56773" lon="5.71829">
        <ele>496.6</ele>
        <time>2022-05-27T14:13:29Z</time>
      </trkpt>
      <trkpt lat="46.56751" lon="5.71877">
        <ele>495.8</ele>
        <time>2022-05-27T14:13:34Z</time>
      </trkpt>
      <trkpt lat="46.56746" lon="5.71887">
        <ele>495.2</ele>
        <time>2022-05-27T14:13:35Z</time>
      </trkpt>
      <trkpt lat="46.56718" lon="5.71947">
        <ele>494.8</ele>
        <time>2022-05-27T14:13:41Z</time>
      </trkpt>
      <trkpt lat="46.5669" lon="5.72008">
        <ele>494.2</ele>
        <time>2022-05-27T14:13:47Z</time>
      </trkpt>
      <trkpt lat="46.56685" lon="5.72018">
        <ele>494.2</ele>
        <time>2022-05-27T14:13:48Z</time>
      </trkpt>
      <trkpt lat="46.56652" lon="5.7208">
        <ele>494.4</ele>
        <time>2022-05-27T14:13:55Z</time>
      </trkpt>
      <trkpt lat="46.5662" lon="5.72131">
        <ele>495</ele>
        <time>2022-05-27T14:14:01Z</time>
      </trkpt>
      <trkpt lat="46.56608" lon="5.72147">
        <ele>495.6</ele>
        <time>2022-05-27T14:14:03Z</time>
      </trkpt>
      <trkpt lat="46.56571" lon="5.72192">
        <ele>495.8</ele>
        <time>2022-05-27T14:14:09Z</time>
      </trkpt>
      <trkpt lat="46.56528" lon="5.72232">
        <ele>495</ele>
        <time>2022-05-27T14:14:15Z</time>
      </trkpt>
      <trkpt lat="46.5648" lon="5.72266">
        <ele>494.8</ele>
        <time>2022-05-27T14:14:22Z</time>
      </trkpt>
      <trkpt lat="46.56443" lon="5.7229">
        <ele>494.8</ele>
        <time>2022-05-27T14:14:28Z</time>
      </trkpt>
      <trkpt lat="46.56403" lon="5.72317">
        <ele>495</ele>
        <time>2022-05-27T14:14:35Z</time>
      </trkpt>
      <trkpt lat="46.56389" lon="5.72325">
        <ele>495</ele>
        <time>2022-05-27T14:14:39Z</time>
      </trkpt>
      <trkpt lat="46.56387" lon="5.72325">
        <ele>494.8</ele>
        <time>2022-05-27T14:14:43Z</time>
      </trkpt>
      <trkpt lat="46.56384" lon="5.7233">
        <ele>495</ele>
        <time>2022-05-27T14:16:51Z</time>
      </trkpt>
      <trkpt lat="46.56368" lon="5.72341">
        <ele>495</ele>
        <time>2022-05-27T14:16:55Z</time>
      </trkpt>
      <trkpt lat="46.56347" lon="5.72355">
        <ele>495</ele>
        <time>2022-05-27T14:16:59Z</time>
      </trkpt>
      <trkpt lat="46.56335" lon="5.72363">
        <ele>494.6</ele>
        <time>2022-05-27T14:17:01Z</time>
      </trkpt>
      <trkpt lat="46.56299" lon="5.72388">
        <ele>494.8</ele>
        <time>2022-05-27T14:17:07Z</time>
      </trkpt>
      <trkpt lat="46.56244" lon="5.72425">
        <ele>495.4</ele>
        <time>2022-05-27T14:17:16Z</time>
      </trkpt>
      <trkpt lat="46.56219" lon="5.72442">
        <ele>496.2</ele>
        <time>2022-05-27T14:17:20Z</time>
      </trkpt>
      <trkpt lat="46.56203" lon="5.72453">
        <ele>496.4</ele>
        <time>2022-05-27T14:17:23Z</time>
      </trkpt>
      <trkpt lat="46.56173" lon="5.72472">
        <ele>497.2</ele>
        <time>2022-05-27T14:17:28Z</time>
      </trkpt>
      <trkpt lat="46.5615" lon="5.72488">
        <ele>497.6</ele>
        <time>2022-05-27T14:17:32Z</time>
      </trkpt>
      <trkpt lat="46.56108" lon="5.72516">
        <ele>497.8</ele>
        <time>2022-05-27T14:17:39Z</time>
      </trkpt>
      <trkpt lat="46.56054" lon="5.72551">
        <ele>498</ele>
        <time>2022-05-27T14:17:48Z</time>
      </trkpt>
      <trkpt lat="46.56044" lon="5.72558">
        <ele>498.4</ele>
        <time>2022-05-27T14:17:50Z</time>
      </trkpt>
      <trkpt lat="46.56016" lon="5.72576">
        <ele>499</ele>
        <time>2022-05-27T14:17:55Z</time>
      </trkpt>
      <trkpt lat="46.55996" lon="5.7259">
        <ele>499.4</ele>
        <time>2022-05-27T14:17:59Z</time>
      </trkpt>
      <trkpt lat="46.55964" lon="5.72611">
        <ele>500.6</ele>
        <time>2022-05-27T14:18:05Z</time>
      </trkpt>
      <trkpt lat="46.55954" lon="5.72618">
        <ele>501</ele>
        <time>2022-05-27T14:18:07Z</time>
      </trkpt>
      <trkpt lat="46.55922" lon="5.72638">
        <ele>501.8</ele>
        <time>2022-05-27T14:18:13Z</time>
      </trkpt>
      <trkpt lat="46.55917" lon="5.72642">
        <ele>502</ele>
        <time>2022-05-27T14:18:14Z</time>
      </trkpt>
      <trkpt lat="46.55886" lon="5.72662">
        <ele>502.8</ele>
        <time>2022-05-27T14:18:20Z</time>
      </trkpt>
      <trkpt lat="46.55871" lon="5.72672">
        <ele>503.4</ele>
        <time>2022-05-27T14:18:23Z</time>
      </trkpt>
      <trkpt lat="46.5585" lon="5.72686">
        <ele>504</ele>
        <time>2022-05-27T14:18:27Z</time>
      </trkpt>
      <trkpt lat="46.55834" lon="5.72696">
        <ele>505</ele>
        <time>2022-05-27T14:18:30Z</time>
      </trkpt>
      <trkpt lat="46.55808" lon="5.72713">
        <ele>506.2</ele>
        <time>2022-05-27T14:18:35Z</time>
      </trkpt>
      <trkpt lat="46.55788" lon="5.72728">
        <ele>506.8</ele>
        <time>2022-05-27T14:18:39Z</time>
      </trkpt>
      <trkpt lat="46.55758" lon="5.72747">
        <ele>507.2</ele>
        <time>2022-05-27T14:18:44Z</time>
      </trkpt>
      <trkpt lat="46.55747" lon="5.72755">
        <ele>507.4</ele>
        <time>2022-05-27T14:18:46Z</time>
      </trkpt>
      <trkpt lat="46.55707" lon="5.72782">
        <ele>508.6</ele>
        <time>2022-05-27T14:18:53Z</time>
      </trkpt>
      <trkpt lat="46.55676" lon="5.72817">
        <ele>509</ele>
        <time>2022-05-27T14:18:59Z</time>
      </trkpt>
      <trkpt lat="46.55649" lon="5.72854">
        <ele>509</ele>
        <time>2022-05-27T14:19:04Z</time>
      </trkpt>
      <trkpt lat="46.55608" lon="5.72913">
        <ele>508.8</ele>
        <time>2022-05-27T14:19:12Z</time>
      </trkpt>
      <trkpt lat="46.55602" lon="5.7292">
        <ele>508.8</ele>
        <time>2022-05-27T14:19:13Z</time>
      </trkpt>
      <trkpt lat="46.55563" lon="5.7298">
        <ele>509.6</ele>
        <time>2022-05-27T14:19:21Z</time>
      </trkpt>
      <trkpt lat="46.55526" lon="5.73042">
        <ele>509.8</ele>
        <time>2022-05-27T14:19:29Z</time>
      </trkpt>
      <trkpt lat="46.55491" lon="5.73083">
        <ele>510.6</ele>
        <time>2022-05-27T14:19:36Z</time>
      </trkpt>
      <trkpt lat="46.55485" lon="5.73086">
        <ele>510.8</ele>
        <time>2022-05-27T14:19:37Z</time>
      </trkpt>
      <trkpt lat="46.55461" lon="5.73097">
        <ele>511.2</ele>
        <time>2022-05-27T14:19:41Z</time>
      </trkpt>
      <trkpt lat="46.55437" lon="5.73106">
        <ele>511.6</ele>
        <time>2022-05-27T14:19:45Z</time>
      </trkpt>
      <trkpt lat="46.55431" lon="5.7311">
        <ele>512</ele>
        <time>2022-05-27T14:19:46Z</time>
      </trkpt>
      <trkpt lat="46.55426" lon="5.73115">
        <ele>512.2</ele>
        <time>2022-05-27T14:19:47Z</time>
      </trkpt>
      <trkpt lat="46.55411" lon="5.73141">
        <ele>513.2</ele>
        <time>2022-05-27T14:19:51Z</time>
      </trkpt>
      <trkpt lat="46.55407" lon="5.73147">
        <ele>513.4</ele>
        <time>2022-05-27T14:19:52Z</time>
      </trkpt>
      <trkpt lat="46.55398" lon="5.73156">
        <ele>513.6</ele>
        <time>2022-05-27T14:19:54Z</time>
      </trkpt>
      <trkpt lat="46.55393" lon="5.73158">
        <ele>513.8</ele>
        <time>2022-05-27T14:19:55Z</time>
      </trkpt>
      <trkpt lat="46.55387" lon="5.73159">
        <ele>514</ele>
        <time>2022-05-27T14:19:56Z</time>
      </trkpt>
      <trkpt lat="46.55382" lon="5.73159">
        <ele>514.2</ele>
        <time>2022-05-27T14:19:57Z</time>
      </trkpt>
      <trkpt lat="46.55376" lon="5.73158">
        <ele>515</ele>
        <time>2022-05-27T14:19:58Z</time>
      </trkpt>
      <trkpt lat="46.55371" lon="5.73156">
        <ele>515.2</ele>
        <time>2022-05-27T14:19:59Z</time>
      </trkpt>
      <trkpt lat="46.55365" lon="5.73155">
        <ele>515.4</ele>
        <time>2022-05-27T14:20:00Z</time>
      </trkpt>
      <trkpt lat="46.55335" lon="5.73145">
        <ele>516.6</ele>
        <time>2022-05-27T14:20:05Z</time>
      </trkpt>
      <trkpt lat="46.55329" lon="5.73143">
        <ele>516.8</ele>
        <time>2022-05-27T14:20:06Z</time>
      </trkpt>
      <trkpt lat="46.55323" lon="5.73142">
        <ele>517</ele>
        <time>2022-05-27T14:20:07Z</time>
      </trkpt>
      <trkpt lat="46.55317" lon="5.73142">
        <ele>517</ele>
        <time>2022-05-27T14:20:08Z</time>
      </trkpt>
      <trkpt lat="46.55304" lon="5.73145">
        <ele>517.2</ele>
        <time>2022-05-27T14:20:10Z</time>
      </trkpt>
      <trkpt lat="46.55299" lon="5.7315">
        <ele>517.4</ele>
        <time>2022-05-27T14:20:11Z</time>
      </trkpt>
      <trkpt lat="46.55294" lon="5.73157">
        <ele>517.4</ele>
        <time>2022-05-27T14:20:12Z</time>
      </trkpt>
      <trkpt lat="46.55288" lon="5.73174">
        <ele>517.6</ele>
        <time>2022-05-27T14:20:14Z</time>
      </trkpt>
      <trkpt lat="46.55277" lon="5.7322">
        <ele>517.6</ele>
        <time>2022-05-27T14:20:19Z</time>
      </trkpt>
      <trkpt lat="46.55254" lon="5.73279">
        <ele>518.2</ele>
        <time>2022-05-27T14:20:26Z</time>
      </trkpt>
      <trkpt lat="46.55241" lon="5.73312">
        <ele>518.4</ele>
        <time>2022-05-27T14:20:30Z</time>
      </trkpt>
      <trkpt lat="46.5524" lon="5.73322">
        <ele>518.2</ele>
        <time>2022-05-27T14:20:31Z</time>
      </trkpt>
      <trkpt lat="46.55239" lon="5.73331">
        <ele>518.2</ele>
        <time>2022-05-27T14:20:32Z</time>
      </trkpt>
      <trkpt lat="46.5524" lon="5.73376">
        <ele>518.4</ele>
        <time>2022-05-27T14:20:37Z</time>
      </trkpt>
      <trkpt lat="46.55241" lon="5.73402">
        <ele>518.8</ele>
        <time>2022-05-27T14:20:40Z</time>
      </trkpt>
      <trkpt lat="46.55243" lon="5.73437">
        <ele>519.8</ele>
        <time>2022-05-27T14:20:44Z</time>
      </trkpt>
      <trkpt lat="46.55245" lon="5.73454">
        <ele>520.2</ele>
        <time>2022-05-27T14:20:46Z</time>
      </trkpt>
      <trkpt lat="46.55247" lon="5.73488">
        <ele>521</ele>
        <time>2022-05-27T14:20:51Z</time>
      </trkpt>
      <trkpt lat="46.55247" lon="5.735">
        <ele>521.4</ele>
        <time>2022-05-27T14:20:53Z</time>
      </trkpt>
      <trkpt lat="46.55245" lon="5.73518">
        <ele>522.2</ele>
        <time>2022-05-27T14:20:56Z</time>
      </trkpt>
      <trkpt lat="46.55244" lon="5.73524">
        <ele>522.2</ele>
        <time>2022-05-27T14:20:57Z</time>
      </trkpt>
      <trkpt lat="46.55242" lon="5.73539">
        <ele>523.2</ele>
        <time>2022-05-27T14:21:00Z</time>
      </trkpt>
      <trkpt lat="46.55239" lon="5.73559">
        <ele>524.4</ele>
        <time>2022-05-27T14:21:04Z</time>
      </trkpt>
      <trkpt lat="46.55238" lon="5.73564">
        <ele>524.8</ele>
        <time>2022-05-27T14:21:05Z</time>
      </trkpt>
      <trkpt lat="46.55236" lon="5.73575">
        <ele>525.4</ele>
        <time>2022-05-27T14:21:07Z</time>
      </trkpt>
      <trkpt lat="46.55233" lon="5.7359">
        <ele>526.6</ele>
        <time>2022-05-27T14:21:10Z</time>
      </trkpt>
      <trkpt lat="46.5523" lon="5.73606">
        <ele>527.6</ele>
        <time>2022-05-27T14:21:13Z</time>
      </trkpt>
      <trkpt lat="46.5523" lon="5.7361">
        <ele>528</ele>
        <time>2022-05-27T14:21:14Z</time>
      </trkpt>
      <trkpt lat="46.55225" lon="5.73644">
        <ele>529.2</ele>
        <time>2022-05-27T14:21:21Z</time>
      </trkpt>
      <trkpt lat="46.55224" lon="5.73662">
        <ele>530.2</ele>
        <time>2022-05-27T14:21:25Z</time>
      </trkpt>
      <trkpt lat="46.55225" lon="5.73676">
        <ele>531.2</ele>
        <time>2022-05-27T14:21:28Z</time>
      </trkpt>
      <trkpt lat="46.55225" lon="5.7368">
        <ele>531.6</ele>
        <time>2022-05-27T14:21:29Z</time>
      </trkpt>
      <trkpt lat="46.55229" lon="5.73703">
        <ele>532.8</ele>
        <time>2022-05-27T14:21:34Z</time>
      </trkpt>
      <trkpt lat="46.55231" lon="5.73716">
        <ele>534</ele>
        <time>2022-05-27T14:21:37Z</time>
      </trkpt>
      <trkpt lat="46.55234" lon="5.73734">
        <ele>535.2</ele>
        <time>2022-05-27T14:21:41Z</time>
      </trkpt>
      <trkpt lat="46.55236" lon="5.73753">
        <ele>536.2</ele>
        <time>2022-05-27T14:21:45Z</time>
      </trkpt>
      <trkpt lat="46.55236" lon="5.73757">
        <ele>536.4</ele>
        <time>2022-05-27T14:21:46Z</time>
      </trkpt>
      <trkpt lat="46.55233" lon="5.7378">
        <ele>537.6</ele>
        <time>2022-05-27T14:21:51Z</time>
      </trkpt>
      <trkpt lat="46.55233" lon="5.73794">
        <ele>538.4</ele>
        <time>2022-05-27T14:21:54Z</time>
      </trkpt>
      <trkpt lat="46.55232" lon="5.73804">
        <ele>538.8</ele>
        <time>2022-05-27T14:21:56Z</time>
      </trkpt>
      <trkpt lat="46.55231" lon="5.73828">
        <ele>540.2</ele>
        <time>2022-05-27T14:22:01Z</time>
      </trkpt>
      <trkpt lat="46.55232" lon="5.73842">
        <ele>540.8</ele>
        <time>2022-05-27T14:22:04Z</time>
      </trkpt>
      <trkpt lat="46.55231" lon="5.73851">
        <ele>541.6</ele>
        <time>2022-05-27T14:22:06Z</time>
      </trkpt>
      <trkpt lat="46.55232" lon="5.73868">
        <ele>542.6</ele>
        <time>2022-05-27T14:22:10Z</time>
      </trkpt>
      <trkpt lat="46.55232" lon="5.73877">
        <ele>542.8</ele>
        <time>2022-05-27T14:22:12Z</time>
      </trkpt>
      <trkpt lat="46.55233" lon="5.73891">
        <ele>543.6</ele>
        <time>2022-05-27T14:22:15Z</time>
      </trkpt>
      <trkpt lat="46.55233" lon="5.73904">
        <ele>544.2</ele>
        <time>2022-05-27T14:22:18Z</time>
      </trkpt>
      <trkpt lat="46.55234" lon="5.73913">
        <ele>544.8</ele>
        <time>2022-05-27T14:22:20Z</time>
      </trkpt>
      <trkpt lat="46.55236" lon="5.73927">
        <ele>545.2</ele>
        <time>2022-05-27T14:22:23Z</time>
      </trkpt>
      <trkpt lat="46.5524" lon="5.73941">
        <ele>546</ele>
        <time>2022-05-27T14:22:26Z</time>
      </trkpt>
      <trkpt lat="46.55243" lon="5.73949">
        <ele>546.8</ele>
        <time>2022-05-27T14:22:28Z</time>
      </trkpt>
      <trkpt lat="46.55244" lon="5.73953">
        <ele>547.4</ele>
        <time>2022-05-27T14:22:29Z</time>
      </trkpt>
      <trkpt lat="46.55252" lon="5.73974">
        <ele>548.4</ele>
        <time>2022-05-27T14:22:34Z</time>
      </trkpt>
      <trkpt lat="46.55254" lon="5.73977">
        <ele>548.4</ele>
        <time>2022-05-27T14:22:35Z</time>
      </trkpt>
      <trkpt lat="46.55261" lon="5.73997">
        <ele>549.6</ele>
        <time>2022-05-27T14:22:40Z</time>
      </trkpt>
      <trkpt lat="46.55267" lon="5.74019">
        <ele>550.6</ele>
        <time>2022-05-27T14:22:45Z</time>
      </trkpt>
      <trkpt lat="46.55268" lon="5.74023">
        <ele>550.8</ele>
        <time>2022-05-27T14:22:46Z</time>
      </trkpt>
      <trkpt lat="46.5527" lon="5.74041">
        <ele>551.8</ele>
        <time>2022-05-27T14:22:50Z</time>
      </trkpt>
      <trkpt lat="46.55269" lon="5.74051">
        <ele>552.4</ele>
        <time>2022-05-27T14:22:52Z</time>
      </trkpt>
      <trkpt lat="46.55266" lon="5.7406">
        <ele>552.8</ele>
        <time>2022-05-27T14:22:54Z</time>
      </trkpt>
      <trkpt lat="46.55256" lon="5.74081">
        <ele>553.8</ele>
        <time>2022-05-27T14:22:59Z</time>
      </trkpt>
      <trkpt lat="46.55232" lon="5.74102">
        <ele>555</ele>
        <time>2022-05-27T14:23:07Z</time>
      </trkpt>
      <trkpt lat="46.55212" lon="5.74119">
        <ele>556</ele>
        <time>2022-05-27T14:23:13Z</time>
      </trkpt>
      <trkpt lat="46.55206" lon="5.74125">
        <ele>556.4</ele>
        <time>2022-05-27T14:23:15Z</time>
      </trkpt>
      <trkpt lat="46.55194" lon="5.74136">
        <ele>557.2</ele>
        <time>2022-05-27T14:23:19Z</time>
      </trkpt>
      <trkpt lat="46.55181" lon="5.74153">
        <ele>558.2</ele>
        <time>2022-05-27T14:23:24Z</time>
      </trkpt>
      <trkpt lat="46.55172" lon="5.74184">
        <ele>559.4</ele>
        <time>2022-05-27T14:23:30Z</time>
      </trkpt>
      <trkpt lat="46.55172" lon="5.74214">
        <ele>560.2</ele>
        <time>2022-05-27T14:23:35Z</time>
      </trkpt>
      <trkpt lat="46.55174" lon="5.74232">
        <ele>561</ele>
        <time>2022-05-27T14:23:38Z</time>
      </trkpt>
      <trkpt lat="46.55174" lon="5.74249">
        <ele>562</ele>
        <time>2022-05-27T14:23:41Z</time>
      </trkpt>
      <trkpt lat="46.55174" lon="5.74255">
        <ele>562.2</ele>
        <time>2022-05-27T14:23:42Z</time>
      </trkpt>
      <trkpt lat="46.55174" lon="5.74273">
        <ele>563</ele>
        <time>2022-05-27T14:23:45Z</time>
      </trkpt>
      <trkpt lat="46.55171" lon="5.74309">
        <ele>564</ele>
        <time>2022-05-27T14:23:51Z</time>
      </trkpt>
      <trkpt lat="46.55168" lon="5.7432">
        <ele>564.2</ele>
        <time>2022-05-27T14:23:53Z</time>
      </trkpt>
      <trkpt lat="46.55159" lon="5.74339">
        <ele>565.2</ele>
        <time>2022-05-27T14:23:57Z</time>
      </trkpt>
      <trkpt lat="46.55156" lon="5.74344">
        <ele>565.4</ele>
        <time>2022-05-27T14:23:58Z</time>
      </trkpt>
      <trkpt lat="46.55147" lon="5.74356">
        <ele>566.2</ele>
        <time>2022-05-27T14:24:01Z</time>
      </trkpt>
      <trkpt lat="46.55134" lon="5.74368">
        <ele>566.8</ele>
        <time>2022-05-27T14:24:05Z</time>
      </trkpt>
      <trkpt lat="46.55124" lon="5.7438">
        <ele>567.4</ele>
        <time>2022-05-27T14:24:08Z</time>
      </trkpt>
      <trkpt lat="46.55113" lon="5.74388">
        <ele>568</ele>
        <time>2022-05-27T14:24:11Z</time>
      </trkpt>
      <trkpt lat="46.55107" lon="5.74393">
        <ele>568.4</ele>
        <time>2022-05-27T14:24:13Z</time>
      </trkpt>
      <trkpt lat="46.55094" lon="5.74404">
        <ele>569.6</ele>
        <time>2022-05-27T14:24:17Z</time>
      </trkpt>
      <trkpt lat="46.55076" lon="5.74421">
        <ele>570.6</ele>
        <time>2022-05-27T14:24:22Z</time>
      </trkpt>
      <trkpt lat="46.55058" lon="5.74438">
        <ele>571.8</ele>
        <time>2022-05-27T14:24:27Z</time>
      </trkpt>
      <trkpt lat="46.55035" lon="5.74457">
        <ele>573</ele>
        <time>2022-05-27T14:24:34Z</time>
      </trkpt>
      <trkpt lat="46.55028" lon="5.74464">
        <ele>573.6</ele>
        <time>2022-05-27T14:24:36Z</time>
      </trkpt>
      <trkpt lat="46.55022" lon="5.7447">
        <ele>574.2</ele>
        <time>2022-05-27T14:24:38Z</time>
      </trkpt>
      <trkpt lat="46.55001" lon="5.74489">
        <ele>575.4</ele>
        <time>2022-05-27T14:24:44Z</time>
      </trkpt>
      <trkpt lat="46.5499" lon="5.74504">
        <ele>576.4</ele>
        <time>2022-05-27T14:24:48Z</time>
      </trkpt>
      <trkpt lat="46.54979" lon="5.74516">
        <ele>577</ele>
        <time>2022-05-27T14:24:51Z</time>
      </trkpt>
      <trkpt lat="46.54971" lon="5.74525">
        <ele>577.6</ele>
        <time>2022-05-27T14:24:53Z</time>
      </trkpt>
      <trkpt lat="46.54951" lon="5.74547">
        <ele>578.4</ele>
        <time>2022-05-27T14:24:58Z</time>
      </trkpt>
      <trkpt lat="46.54938" lon="5.74561">
        <ele>578.6</ele>
        <time>2022-05-27T14:25:01Z</time>
      </trkpt>
      <trkpt lat="46.54912" lon="5.74587">
        <ele>579.2</ele>
        <time>2022-05-27T14:25:07Z</time>
      </trkpt>
      <trkpt lat="46.54903" lon="5.74597">
        <ele>579.6</ele>
        <time>2022-05-27T14:25:09Z</time>
      </trkpt>
      <trkpt lat="46.54865" lon="5.74628">
        <ele>580.6</ele>
        <time>2022-05-27T14:25:17Z</time>
      </trkpt>
      <trkpt lat="46.5486" lon="5.74632">
        <ele>580.6</ele>
        <time>2022-05-27T14:25:18Z</time>
      </trkpt>
      <trkpt lat="46.54828" lon="5.74654">
        <ele>581.8</ele>
        <time>2022-05-27T14:25:25Z</time>
      </trkpt>
      <trkpt lat="46.54823" lon="5.74657">
        <ele>582</ele>
        <time>2022-05-27T14:25:26Z</time>
      </trkpt>
      <trkpt lat="46.54805" lon="5.74668">
        <ele>583</ele>
        <time>2022-05-27T14:25:30Z</time>
      </trkpt>
      <trkpt lat="46.54776" lon="5.74687">
        <ele>583.8</ele>
        <time>2022-05-27T14:25:36Z</time>
      </trkpt>
      <trkpt lat="46.54761" lon="5.74697">
        <ele>584</ele>
        <time>2022-05-27T14:25:39Z</time>
      </trkpt>
      <trkpt lat="46.54742" lon="5.74711">
        <ele>585.2</ele>
        <time>2022-05-27T14:25:43Z</time>
      </trkpt>
      <trkpt lat="46.54724" lon="5.74726">
        <ele>586.2</ele>
        <time>2022-05-27T14:25:47Z</time>
      </trkpt>
      <trkpt lat="46.54696" lon="5.74752">
        <ele>587.2</ele>
        <time>2022-05-27T14:25:53Z</time>
      </trkpt>
      <trkpt lat="46.54686" lon="5.74761">
        <ele>587.4</ele>
        <time>2022-05-27T14:25:55Z</time>
      </trkpt>
      <trkpt lat="46.5466" lon="5.74784">
        <ele>588.2</ele>
        <time>2022-05-27T14:26:00Z</time>
      </trkpt>
      <trkpt lat="46.54638" lon="5.74803">
        <ele>588.6</ele>
        <time>2022-05-27T14:26:04Z</time>
      </trkpt>
      <trkpt lat="46.54583" lon="5.7484">
        <ele>589</ele>
        <time>2022-05-27T14:26:13Z</time>
      </trkpt>
      <trkpt lat="46.54534" lon="5.74873">
        <ele>589.2</ele>
        <time>2022-05-27T14:26:21Z</time>
      </trkpt>
      <trkpt lat="46.54527" lon="5.74876">
        <ele>589.4</ele>
        <time>2022-05-27T14:26:22Z</time>
      </trkpt>
      <trkpt lat="46.54509" lon="5.74888">
        <ele>589.6</ele>
        <time>2022-05-27T14:26:25Z</time>
      </trkpt>
      <trkpt lat="46.54473" lon="5.74912">
        <ele>590.2</ele>
        <time>2022-05-27T14:26:31Z</time>
      </trkpt>
      <trkpt lat="46.54467" lon="5.74916">
        <ele>590.4</ele>
        <time>2022-05-27T14:26:32Z</time>
      </trkpt>
      <trkpt lat="46.54443" lon="5.74931">
        <ele>590.6</ele>
        <time>2022-05-27T14:26:36Z</time>
      </trkpt>
      <trkpt lat="46.5442" lon="5.74946">
        <ele>591.2</ele>
        <time>2022-05-27T14:26:40Z</time>
      </trkpt>
      <trkpt lat="46.54408" lon="5.74953">
        <ele>591.8</ele>
        <time>2022-05-27T14:26:42Z</time>
      </trkpt>
      <trkpt lat="46.54385" lon="5.74968">
        <ele>592.8</ele>
        <time>2022-05-27T14:26:46Z</time>
      </trkpt>
      <trkpt lat="46.54362" lon="5.74983">
        <ele>593.2</ele>
        <time>2022-05-27T14:26:50Z</time>
      </trkpt>
      <trkpt lat="46.5434" lon="5.74997">
        <ele>593.8</ele>
        <time>2022-05-27T14:26:54Z</time>
      </trkpt>
      <trkpt lat="46.54313" lon="5.75015">
        <ele>594.6</ele>
        <time>2022-05-27T14:26:59Z</time>
      </trkpt>
      <trkpt lat="46.54308" lon="5.75019">
        <ele>595</ele>
        <time>2022-05-27T14:27:00Z</time>
      </trkpt>
      <trkpt lat="46.5428" lon="5.75037">
        <ele>596</ele>
        <time>2022-05-27T14:27:05Z</time>
      </trkpt>
      <trkpt lat="46.54269" lon="5.75045">
        <ele>596.4</ele>
        <time>2022-05-27T14:27:07Z</time>
      </trkpt>
      <trkpt lat="46.54251" lon="5.75058">
        <ele>597</ele>
        <time>2022-05-27T14:27:10Z</time>
      </trkpt>
      <trkpt lat="46.54214" lon="5.75083">
        <ele>597.6</ele>
        <time>2022-05-27T14:27:16Z</time>
      </trkpt>
      <trkpt lat="46.54182" lon="5.75105">
        <ele>598</ele>
        <time>2022-05-27T14:27:21Z</time>
      </trkpt>
      <trkpt lat="46.54164" lon="5.75121">
        <ele>598.4</ele>
        <time>2022-05-27T14:27:24Z</time>
      </trkpt>
      <trkpt lat="46.54125" lon="5.75164">
        <ele>598.8</ele>
        <time>2022-05-27T14:27:31Z</time>
      </trkpt>
      <trkpt lat="46.54119" lon="5.75169">
        <ele>599</ele>
        <time>2022-05-27T14:27:32Z</time>
      </trkpt>
      <trkpt lat="46.54113" lon="5.75173">
        <ele>599.2</ele>
        <time>2022-05-27T14:27:33Z</time>
      </trkpt>
      <trkpt lat="46.54099" lon="5.7518">
        <ele>599.4</ele>
        <time>2022-05-27T14:27:35Z</time>
      </trkpt>
      <trkpt lat="46.54045" lon="5.75203">
        <ele>600.2</ele>
        <time>2022-05-27T14:27:43Z</time>
      </trkpt>
      <trkpt lat="46.54038" lon="5.75207">
        <ele>600.2</ele>
        <time>2022-05-27T14:27:44Z</time>
      </trkpt>
      <trkpt lat="46.54017" lon="5.75216">
        <ele>600.4</ele>
        <time>2022-05-27T14:27:47Z</time>
      </trkpt>
      <trkpt lat="46.53959" lon="5.75241">
        <ele>600.2</ele>
        <time>2022-05-27T14:27:55Z</time>
      </trkpt>
      <trkpt lat="46.53913" lon="5.75262">
        <ele>600.4</ele>
        <time>2022-05-27T14:28:01Z</time>
      </trkpt>
      <trkpt lat="46.53859" lon="5.75286">
        <ele>600.4</ele>
        <time>2022-05-27T14:28:08Z</time>
      </trkpt>
      <trkpt lat="46.53842" lon="5.75293">
        <ele>600.4</ele>
        <time>2022-05-27T14:28:10Z</time>
      </trkpt>
      <trkpt lat="46.53784" lon="5.7532">
        <ele>600</ele>
        <time>2022-05-27T14:28:17Z</time>
      </trkpt>
      <trkpt lat="46.5375" lon="5.75335">
        <ele>599.6</ele>
        <time>2022-05-27T14:28:21Z</time>
      </trkpt>
      <trkpt lat="46.53714" lon="5.75352">
        <ele>599.2</ele>
        <time>2022-05-27T14:28:25Z</time>
      </trkpt>
      <trkpt lat="46.53669" lon="5.75372">
        <ele>598.6</ele>
        <time>2022-05-27T14:28:30Z</time>
      </trkpt>
      <trkpt lat="46.53642" lon="5.75384">
        <ele>598.2</ele>
        <time>2022-05-27T14:28:33Z</time>
      </trkpt>
      <trkpt lat="46.53589" lon="5.75409">
        <ele>597.6</ele>
        <time>2022-05-27T14:28:39Z</time>
      </trkpt>
      <trkpt lat="46.5358" lon="5.75413">
        <ele>597.6</ele>
        <time>2022-05-27T14:28:40Z</time>
      </trkpt>
      <trkpt lat="46.53527" lon="5.75436">
        <ele>597.2</ele>
        <time>2022-05-27T14:28:46Z</time>
      </trkpt>
      <trkpt lat="46.53483" lon="5.75457">
        <ele>597</ele>
        <time>2022-05-27T14:28:51Z</time>
      </trkpt>
      <trkpt lat="46.53431" lon="5.75481">
        <ele>596.8</ele>
        <time>2022-05-27T14:28:57Z</time>
      </trkpt>
      <trkpt lat="46.53414" lon="5.75489">
        <ele>596.6</ele>
        <time>2022-05-27T14:28:59Z</time>
      </trkpt>
      <trkpt lat="46.53354" lon="5.75515">
        <ele>597</ele>
        <time>2022-05-27T14:29:06Z</time>
      </trkpt>
      <trkpt lat="46.533" lon="5.75537">
        <ele>597.8</ele>
        <time>2022-05-27T14:29:13Z</time>
      </trkpt>
      <trkpt lat="46.5329" lon="5.7554">
        <ele>597.8</ele>
        <time>2022-05-27T14:29:14Z</time>
      </trkpt>
      <trkpt lat="46.53231" lon="5.7555">
        <ele>598</ele>
        <time>2022-05-27T14:29:21Z</time>
      </trkpt>
      <trkpt lat="46.53224" lon="5.7555">
        <ele>597.8</ele>
        <time>2022-05-27T14:29:22Z</time>
      </trkpt>
      <trkpt lat="46.53164" lon="5.75544">
        <ele>597.8</ele>
        <time>2022-05-27T14:29:29Z</time>
      </trkpt>
      <trkpt lat="46.53104" lon="5.75528">
        <ele>597.2</ele>
        <time>2022-05-27T14:29:36Z</time>
      </trkpt>
      <trkpt lat="46.53078" lon="5.7552">
        <ele>597.2</ele>
        <time>2022-05-27T14:29:39Z</time>
      </trkpt>
      <trkpt lat="46.53017" lon="5.75502">
        <ele>596.6</ele>
        <time>2022-05-27T14:29:46Z</time>
      </trkpt>
      <trkpt lat="46.52983" lon="5.75493">
        <ele>596.2</ele>
        <time>2022-05-27T14:29:50Z</time>
      </trkpt>
      <trkpt lat="46.52956" lon="5.75486">
        <ele>596</ele>
        <time>2022-05-27T14:29:53Z</time>
      </trkpt>
      <trkpt lat="46.52903" lon="5.75471">
        <ele>595.6</ele>
        <time>2022-05-27T14:29:59Z</time>
      </trkpt>
      <trkpt lat="46.52842" lon="5.75453">
        <ele>595.2</ele>
        <time>2022-05-27T14:30:06Z</time>
      </trkpt>
      <trkpt lat="46.52815" lon="5.75446">
        <ele>595</ele>
        <time>2022-05-27T14:30:09Z</time>
      </trkpt>
      <trkpt lat="46.52755" lon="5.75428">
        <ele>594.4</ele>
        <time>2022-05-27T14:30:16Z</time>
      </trkpt>
      <trkpt lat="46.52746" lon="5.75425">
        <ele>594.2</ele>
        <time>2022-05-27T14:30:17Z</time>
      </trkpt>
      <trkpt lat="46.52728" lon="5.7542">
        <ele>594</ele>
        <time>2022-05-27T14:30:19Z</time>
      </trkpt>
      <trkpt lat="46.52672" lon="5.75403">
        <ele>593.4</ele>
        <time>2022-05-27T14:30:25Z</time>
      </trkpt>
      <trkpt lat="46.52653" lon="5.75397">
        <ele>593.2</ele>
        <time>2022-05-27T14:30:27Z</time>
      </trkpt>
      <trkpt lat="46.52634" lon="5.75392">
        <ele>592.8</ele>
        <time>2022-05-27T14:30:29Z</time>
      </trkpt>
      <trkpt lat="46.52587" lon="5.75374">
        <ele>592</ele>
        <time>2022-05-27T14:30:34Z</time>
      </trkpt>
      <trkpt lat="46.5256" lon="5.75361">
        <ele>591.6</ele>
        <time>2022-05-27T14:30:37Z</time>
      </trkpt>
      <trkpt lat="46.52524" lon="5.75343">
        <ele>591</ele>
        <time>2022-05-27T14:30:41Z</time>
      </trkpt>
      <trkpt lat="46.52489" lon="5.75325">
        <ele>590.8</ele>
        <time>2022-05-27T14:30:45Z</time>
      </trkpt>
      <trkpt lat="46.52436" lon="5.75299">
        <ele>590.6</ele>
        <time>2022-05-27T14:30:51Z</time>
      </trkpt>
      <trkpt lat="46.52402" lon="5.75281">
        <ele>590.4</ele>
        <time>2022-05-27T14:30:55Z</time>
      </trkpt>
      <trkpt lat="46.52352" lon="5.75252">
        <ele>590.2</ele>
        <time>2022-05-27T14:31:01Z</time>
      </trkpt>
      <trkpt lat="46.52335" lon="5.75242">
        <ele>590</ele>
        <time>2022-05-27T14:31:03Z</time>
      </trkpt>
      <trkpt lat="46.52311" lon="5.75226">
        <ele>589.2</ele>
        <time>2022-05-27T14:31:06Z</time>
      </trkpt>
      <trkpt lat="46.52294" lon="5.75214">
        <ele>588.8</ele>
        <time>2022-05-27T14:31:08Z</time>
      </trkpt>
      <trkpt lat="46.52263" lon="5.75185">
        <ele>588.4</ele>
        <time>2022-05-27T14:31:12Z</time>
      </trkpt>
      <trkpt lat="46.52212" lon="5.75145">
        <ele>587.6</ele>
        <time>2022-05-27T14:31:18Z</time>
      </trkpt>
      <trkpt lat="46.52203" lon="5.7514">
        <ele>587.4</ele>
        <time>2022-05-27T14:31:19Z</time>
      </trkpt>
      <trkpt lat="46.52144" lon="5.75111">
        <ele>586.8</ele>
        <time>2022-05-27T14:31:25Z</time>
      </trkpt>
      <trkpt lat="46.52135" lon="5.75105">
        <ele>586.6</ele>
        <time>2022-05-27T14:31:26Z</time>
      </trkpt>
      <trkpt lat="46.52125" lon="5.75098">
        <ele>586.4</ele>
        <time>2022-05-27T14:31:27Z</time>
      </trkpt>
      <trkpt lat="46.52114" lon="5.75089">
        <ele>586.4</ele>
        <time>2022-05-27T14:31:28Z</time>
      </trkpt>
      <trkpt lat="46.52097" lon="5.75072">
        <ele>585.2</ele>
        <time>2022-05-27T14:31:30Z</time>
      </trkpt>
      <trkpt lat="46.52088" lon="5.75062">
        <ele>585</ele>
        <time>2022-05-27T14:31:31Z</time>
      </trkpt>
      <trkpt lat="46.52064" lon="5.75033">
        <ele>584</ele>
        <time>2022-05-27T14:31:34Z</time>
      </trkpt>
      <trkpt lat="46.52031" lon="5.74997">
        <ele>583.4</ele>
        <time>2022-05-27T14:31:38Z</time>
      </trkpt>
      <trkpt lat="46.52004" lon="5.74976">
        <ele>583</ele>
        <time>2022-05-27T14:31:41Z</time>
      </trkpt>
      <trkpt lat="46.51985" lon="5.74964">
        <ele>582.8</ele>
        <time>2022-05-27T14:31:43Z</time>
      </trkpt>
      <trkpt lat="46.51937" lon="5.74943">
        <ele>581.8</ele>
        <time>2022-05-27T14:31:48Z</time>
      </trkpt>
      <trkpt lat="46.51928" lon="5.7494">
        <ele>581.8</ele>
        <time>2022-05-27T14:31:49Z</time>
      </trkpt>
      <trkpt lat="46.51875" lon="5.74922">
        <ele>581.2</ele>
        <time>2022-05-27T14:31:55Z</time>
      </trkpt>
      <trkpt lat="46.51815" lon="5.749">
        <ele>581.4</ele>
        <time>2022-05-27T14:32:02Z</time>
      </trkpt>
      <trkpt lat="46.51807" lon="5.74897">
        <ele>581.4</ele>
        <time>2022-05-27T14:32:03Z</time>
      </trkpt>
      <trkpt lat="46.51769" lon="5.74886">
        <ele>582.4</ele>
        <time>2022-05-27T14:32:08Z</time>
      </trkpt>
      <trkpt lat="46.51746" lon="5.74882">
        <ele>582.8</ele>
        <time>2022-05-27T14:32:11Z</time>
      </trkpt>
      <trkpt lat="46.51711" lon="5.74879">
        <ele>584.2</ele>
        <time>2022-05-27T14:32:16Z</time>
      </trkpt>
      <trkpt lat="46.51675" lon="5.74877">
        <ele>585.2</ele>
        <time>2022-05-27T14:32:21Z</time>
      </trkpt>
      <trkpt lat="46.51655" lon="5.74877">
        <ele>586.2</ele>
        <time>2022-05-27T14:32:24Z</time>
      </trkpt>
      <trkpt lat="46.51648" lon="5.74878">
        <ele>586.4</ele>
        <time>2022-05-27T14:32:25Z</time>
      </trkpt>
      <trkpt lat="46.51612" lon="5.74882">
        <ele>587.4</ele>
        <time>2022-05-27T14:32:30Z</time>
      </trkpt>
      <trkpt lat="46.51595" lon="5.74887">
        <ele>587.8</ele>
        <time>2022-05-27T14:32:32Z</time>
      </trkpt>
      <trkpt lat="46.51554" lon="5.749">
        <ele>588.2</ele>
        <time>2022-05-27T14:32:38Z</time>
      </trkpt>
      <trkpt lat="46.51501" lon="5.74918">
        <ele>588.2</ele>
        <time>2022-05-27T14:32:45Z</time>
      </trkpt>
      <trkpt lat="46.51495" lon="5.74919">
        <ele>588.2</ele>
        <time>2022-05-27T14:32:46Z</time>
      </trkpt>
      <trkpt lat="46.51445" lon="5.74933">
        <ele>588.6</ele>
        <time>2022-05-27T14:32:53Z</time>
      </trkpt>
      <trkpt lat="46.51406" lon="5.74943">
        <ele>588.4</ele>
        <time>2022-05-27T14:32:58Z</time>
      </trkpt>
      <trkpt lat="46.51393" lon="5.74943">
        <ele>588.4</ele>
        <time>2022-05-27T14:33:00Z</time>
      </trkpt>
      <trkpt lat="46.51376" lon="5.74938">
        <ele>588.4</ele>
        <time>2022-05-27T14:33:02Z</time>
      </trkpt>
      <trkpt lat="46.51324" lon="5.74912">
        <ele>587.8</ele>
        <time>2022-05-27T14:33:09Z</time>
      </trkpt>
      <trkpt lat="46.51318" lon="5.74909">
        <ele>587.8</ele>
        <time>2022-05-27T14:33:10Z</time>
      </trkpt>
      <trkpt lat="46.51308" lon="5.74906">
        <ele>587.8</ele>
        <time>2022-05-27T14:33:11Z</time>
      </trkpt>
      <trkpt lat="46.51283" lon="5.74904">
        <ele>587.6</ele>
        <time>2022-05-27T14:33:14Z</time>
      </trkpt>
      <trkpt lat="46.51242" lon="5.74917">
        <ele>587</ele>
        <time>2022-05-27T14:33:19Z</time>
      </trkpt>
      <trkpt lat="46.51196" lon="5.74926">
        <ele>586.8</ele>
        <time>2022-05-27T14:33:24Z</time>
      </trkpt>
      <trkpt lat="46.51178" lon="5.74927">
        <ele>586.6</ele>
        <time>2022-05-27T14:33:26Z</time>
      </trkpt>
      <trkpt lat="46.51123" lon="5.74924">
        <ele>585.6</ele>
        <time>2022-05-27T14:33:32Z</time>
      </trkpt>
      <trkpt lat="46.51114" lon="5.74921">
        <ele>585.4</ele>
        <time>2022-05-27T14:33:33Z</time>
      </trkpt>
      <trkpt lat="46.51087" lon="5.74905">
        <ele>584.8</ele>
        <time>2022-05-27T14:33:36Z</time>
      </trkpt>
      <trkpt lat="46.51061" lon="5.74887">
        <ele>584.2</ele>
        <time>2022-05-27T14:33:39Z</time>
      </trkpt>
      <trkpt lat="46.51015" lon="5.74859">
        <ele>583</ele>
        <time>2022-05-27T14:33:44Z</time>
      </trkpt>
      <trkpt lat="46.50977" lon="5.74841">
        <ele>582</ele>
        <time>2022-05-27T14:33:48Z</time>
      </trkpt>
      <trkpt lat="46.5096" lon="5.74832">
        <ele>581</ele>
        <time>2022-05-27T14:33:50Z</time>
      </trkpt>
      <trkpt lat="46.50943" lon="5.74822">
        <ele>580.2</ele>
        <time>2022-05-27T14:33:52Z</time>
      </trkpt>
      <trkpt lat="46.50906" lon="5.74789">
        <ele>580</ele>
        <time>2022-05-27T14:33:57Z</time>
      </trkpt>
      <trkpt lat="46.50865" lon="5.74744">
        <ele>581.4</ele>
        <time>2022-05-27T14:34:04Z</time>
      </trkpt>
      <trkpt lat="46.50847" lon="5.74725">
        <ele>582</ele>
        <time>2022-05-27T14:34:07Z</time>
      </trkpt>
      <trkpt lat="46.50831" lon="5.74701">
        <ele>582.8</ele>
        <time>2022-05-27T14:34:10Z</time>
      </trkpt>
      <trkpt lat="46.50826" lon="5.74692">
        <ele>583</ele>
        <time>2022-05-27T14:34:11Z</time>
      </trkpt>
      <trkpt lat="46.50821" lon="5.74683">
        <ele>583.2</ele>
        <time>2022-05-27T14:34:12Z</time>
      </trkpt>
      <trkpt lat="46.50806" lon="5.74643">
        <ele>583.2</ele>
        <time>2022-05-27T14:34:16Z</time>
      </trkpt>
      <trkpt lat="46.50803" lon="5.74634">
        <ele>583.2</ele>
        <time>2022-05-27T14:34:17Z</time>
      </trkpt>
      <trkpt lat="46.50785" lon="5.74589">
        <ele>582.8</ele>
        <time>2022-05-27T14:34:21Z</time>
      </trkpt>
      <trkpt lat="46.50764" lon="5.74531">
        <ele>581.6</ele>
        <time>2022-05-27T14:34:26Z</time>
      </trkpt>
      <trkpt lat="46.50751" lon="5.74495">
        <ele>580.2</ele>
        <time>2022-05-27T14:34:29Z</time>
      </trkpt>
      <trkpt lat="46.50742" lon="5.7447">
        <ele>578.8</ele>
        <time>2022-05-27T14:34:31Z</time>
      </trkpt>
      <trkpt lat="46.50713" lon="5.74393">
        <ele>577.6</ele>
        <time>2022-05-27T14:34:37Z</time>
      </trkpt>
      <trkpt lat="46.50701" lon="5.74368">
        <ele>576.6</ele>
        <time>2022-05-27T14:34:39Z</time>
      </trkpt>
      <trkpt lat="46.50688" lon="5.74346">
        <ele>575.4</ele>
        <time>2022-05-27T14:34:41Z</time>
      </trkpt>
      <trkpt lat="46.50671" lon="5.74329">
        <ele>574.4</ele>
        <time>2022-05-27T14:34:43Z</time>
      </trkpt>
      <trkpt lat="46.50662" lon="5.74323">
        <ele>573.8</ele>
        <time>2022-05-27T14:34:44Z</time>
      </trkpt>
      <trkpt lat="46.50653" lon="5.74318">
        <ele>573.2</ele>
        <time>2022-05-27T14:34:45Z</time>
      </trkpt>
      <trkpt lat="46.50623" lon="5.74308">
        <ele>572.2</ele>
        <time>2022-05-27T14:34:48Z</time>
      </trkpt>
      <trkpt lat="46.50612" lon="5.74306">
        <ele>572</ele>
        <time>2022-05-27T14:34:49Z</time>
      </trkpt>
      <trkpt lat="46.50558" lon="5.74294">
        <ele>571</ele>
        <time>2022-05-27T14:34:54Z</time>
      </trkpt>
      <trkpt lat="46.50537" lon="5.74286">
        <ele>569.6</ele>
        <time>2022-05-27T14:34:56Z</time>
      </trkpt>
      <trkpt lat="46.50518" lon="5.74274">
        <ele>568.6</ele>
        <time>2022-05-27T14:34:58Z</time>
      </trkpt>
      <trkpt lat="46.50509" lon="5.74266">
        <ele>568.4</ele>
        <time>2022-05-27T14:34:59Z</time>
      </trkpt>
      <trkpt lat="46.50501" lon="5.74258">
        <ele>567.8</ele>
        <time>2022-05-27T14:35:00Z</time>
      </trkpt>
      <trkpt lat="46.50494" lon="5.74248">
        <ele>567.4</ele>
        <time>2022-05-27T14:35:01Z</time>
      </trkpt>
      <trkpt lat="46.50487" lon="5.74238">
        <ele>567.2</ele>
        <time>2022-05-27T14:35:02Z</time>
      </trkpt>
      <trkpt lat="46.50475" lon="5.74216">
        <ele>566.8</ele>
        <time>2022-05-27T14:35:04Z</time>
      </trkpt>
      <trkpt lat="46.50465" lon="5.74192">
        <ele>566.4</ele>
        <time>2022-05-27T14:35:06Z</time>
      </trkpt>
      <trkpt lat="46.50458" lon="5.74168">
        <ele>566</ele>
        <time>2022-05-27T14:35:08Z</time>
      </trkpt>
      <trkpt lat="46.50436" lon="5.74097">
        <ele>565.4</ele>
        <time>2022-05-27T14:35:14Z</time>
      </trkpt>
      <trkpt lat="46.50425" lon="5.74061">
        <ele>565.4</ele>
        <time>2022-05-27T14:35:17Z</time>
      </trkpt>
      <trkpt lat="46.50418" lon="5.74038">
        <ele>565.4</ele>
        <time>2022-05-27T14:35:19Z</time>
      </trkpt>
      <trkpt lat="46.50393" lon="5.73957">
        <ele>564.4</ele>
        <time>2022-05-27T14:35:26Z</time>
      </trkpt>
      <trkpt lat="46.50386" lon="5.73934">
        <ele>564.2</ele>
        <time>2022-05-27T14:35:28Z</time>
      </trkpt>
      <trkpt lat="46.50363" lon="5.73856">
        <ele>563</ele>
        <time>2022-05-27T14:35:35Z</time>
      </trkpt>
      <trkpt lat="46.50342" lon="5.73773">
        <ele>563.6</ele>
        <time>2022-05-27T14:35:43Z</time>
      </trkpt>
      <trkpt lat="46.50335" lon="5.73743">
        <ele>564.2</ele>
        <time>2022-05-27T14:35:46Z</time>
      </trkpt>
      <trkpt lat="46.50323" lon="5.73696">
        <ele>565.2</ele>
        <time>2022-05-27T14:35:51Z</time>
      </trkpt>
      <trkpt lat="46.50321" lon="5.73686">
        <ele>565.4</ele>
        <time>2022-05-27T14:35:52Z</time>
      </trkpt>
      <trkpt lat="46.5031" lon="5.73643">
        <ele>566.4</ele>
        <time>2022-05-27T14:35:57Z</time>
      </trkpt>
      <trkpt lat="46.50308" lon="5.73634">
        <ele>566.4</ele>
        <time>2022-05-27T14:35:58Z</time>
      </trkpt>
      <trkpt lat="46.50301" lon="5.7361">
        <ele>567.4</ele>
        <time>2022-05-27T14:36:01Z</time>
      </trkpt>
      <trkpt lat="46.5029" lon="5.73568">
        <ele>567.8</ele>
        <time>2022-05-27T14:36:06Z</time>
      </trkpt>
      <trkpt lat="46.50276" lon="5.73523">
        <ele>568.4</ele>
        <time>2022-05-27T14:36:12Z</time>
      </trkpt>
      <trkpt lat="46.50274" lon="5.73516">
        <ele>568.6</ele>
        <time>2022-05-27T14:36:13Z</time>
      </trkpt>
      <trkpt lat="46.50272" lon="5.73509">
        <ele>568.6</ele>
        <time>2022-05-27T14:36:14Z</time>
      </trkpt>
      <trkpt lat="46.50269" lon="5.73496">
        <ele>569</ele>
        <time>2022-05-27T14:36:16Z</time>
      </trkpt>
      <trkpt lat="46.50266" lon="5.73491">
        <ele>569.2</ele>
        <time>2022-05-27T14:36:17Z</time>
      </trkpt>
      <trkpt lat="46.50264" lon="5.73486">
        <ele>569.2</ele>
        <time>2022-05-27T14:36:18Z</time>
      </trkpt>
      <trkpt lat="46.50263" lon="5.7348">
        <ele>569.6</ele>
        <time>2022-05-27T14:36:19Z</time>
      </trkpt>
      <trkpt lat="46.50262" lon="5.73475">
        <ele>570</ele>
        <time>2022-05-27T14:36:20Z</time>
      </trkpt>
      <trkpt lat="46.5026" lon="5.73461">
        <ele>570.4</ele>
        <time>2022-05-27T14:36:22Z</time>
      </trkpt>
      <trkpt lat="46.50256" lon="5.73447">
        <ele>570.6</ele>
        <time>2022-05-27T14:36:24Z</time>
      </trkpt>
      <trkpt lat="46.50255" lon="5.73441">
        <ele>570.8</ele>
        <time>2022-05-27T14:36:25Z</time>
      </trkpt>
      <trkpt lat="46.50254" lon="5.7343">
        <ele>572</ele>
        <time>2022-05-27T14:36:27Z</time>
      </trkpt>
      <trkpt lat="46.50251" lon="5.73419">
        <ele>572.4</ele>
        <time>2022-05-27T14:36:29Z</time>
      </trkpt>
      <trkpt lat="46.5025" lon="5.73412">
        <ele>572.4</ele>
        <time>2022-05-27T14:36:30Z</time>
      </trkpt>
      <trkpt lat="46.50244" lon="5.73397">
        <ele>573</ele>
        <time>2022-05-27T14:36:32Z</time>
      </trkpt>
      <trkpt lat="46.50242" lon="5.7339">
        <ele>573.4</ele>
        <time>2022-05-27T14:36:33Z</time>
      </trkpt>
      <trkpt lat="46.50238" lon="5.73376">
        <ele>574</ele>
        <time>2022-05-27T14:36:35Z</time>
      </trkpt>
      <trkpt lat="46.50238" lon="5.7337">
        <ele>574.2</ele>
        <time>2022-05-27T14:36:36Z</time>
      </trkpt>
      <trkpt lat="46.50237" lon="5.73335">
        <ele>575.2</ele>
        <time>2022-05-27T14:36:42Z</time>
      </trkpt>
      <trkpt lat="46.50234" lon="5.73306">
        <ele>576.4</ele>
        <time>2022-05-27T14:36:47Z</time>
      </trkpt>
      <trkpt lat="46.50234" lon="5.733">
        <ele>576.8</ele>
        <time>2022-05-27T14:36:48Z</time>
      </trkpt>
      <trkpt lat="46.50233" lon="5.7329">
        <ele>577.6</ele>
        <time>2022-05-27T14:36:50Z</time>
      </trkpt>
      <trkpt lat="46.50231" lon="5.73274">
        <ele>578.8</ele>
        <time>2022-05-27T14:36:53Z</time>
      </trkpt>
      <trkpt lat="46.50231" lon="5.73269">
        <ele>579</ele>
        <time>2022-05-27T14:36:54Z</time>
      </trkpt>
      <trkpt lat="46.50228" lon="5.73249">
        <ele>579.8</ele>
        <time>2022-05-27T14:36:58Z</time>
      </trkpt>
      <trkpt lat="46.50226" lon="5.73233">
        <ele>580.4</ele>
        <time>2022-05-27T14:37:01Z</time>
      </trkpt>
      <trkpt lat="46.50225" lon="5.73218">
        <ele>581.2</ele>
        <time>2022-05-27T14:37:04Z</time>
      </trkpt>
      <trkpt lat="46.50223" lon="5.73191">
        <ele>582.2</ele>
        <time>2022-05-27T14:37:09Z</time>
      </trkpt>
      <trkpt lat="46.50222" lon="5.73185">
        <ele>582.6</ele>
        <time>2022-05-27T14:37:10Z</time>
      </trkpt>
      <trkpt lat="46.50219" lon="5.73158">
        <ele>583.6</ele>
        <time>2022-05-27T14:37:15Z</time>
      </trkpt>
      <trkpt lat="46.50219" lon="5.7315">
        <ele>584</ele>
        <time>2022-05-27T14:37:17Z</time>
      </trkpt>
      <trkpt lat="46.50217" lon="5.73134">
        <ele>584.6</ele>
        <time>2022-05-27T14:37:20Z</time>
      </trkpt>
      <trkpt lat="46.50211" lon="5.73102">
        <ele>585.6</ele>
        <time>2022-05-27T14:37:26Z</time>
      </trkpt>
      <trkpt lat="46.5021" lon="5.73096">
        <ele>585.8</ele>
        <time>2022-05-27T14:37:27Z</time>
      </trkpt>
      <trkpt lat="46.50197" lon="5.73056">
        <ele>587</ele>
        <time>2022-05-27T14:37:34Z</time>
      </trkpt>
      <trkpt lat="46.50193" lon="5.73045">
        <ele>587.6</ele>
        <time>2022-05-27T14:37:36Z</time>
      </trkpt>
      <trkpt lat="46.50185" lon="5.73028">
        <ele>588.2</ele>
        <time>2022-05-27T14:37:39Z</time>
      </trkpt>
      <trkpt lat="46.50178" lon="5.73017">
        <ele>588.2</ele>
        <time>2022-05-27T14:37:41Z</time>
      </trkpt>
      <trkpt lat="46.50154" lon="5.7298">
        <ele>589.2</ele>
        <time>2022-05-27T14:37:48Z</time>
      </trkpt>
      <trkpt lat="46.50146" lon="5.7297">
        <ele>589.4</ele>
        <time>2022-05-27T14:37:50Z</time>
      </trkpt>
      <trkpt lat="46.50113" lon="5.72929">
        <ele>590</ele>
        <time>2022-05-27T14:37:58Z</time>
      </trkpt>
      <trkpt lat="46.50097" lon="5.72909">
        <ele>590.4</ele>
        <time>2022-05-27T14:38:02Z</time>
      </trkpt>
      <trkpt lat="46.50077" lon="5.72884">
        <ele>590.6</ele>
        <time>2022-05-27T14:38:07Z</time>
      </trkpt>
      <trkpt lat="46.50061" lon="5.72865">
        <ele>591.4</ele>
        <time>2022-05-27T14:38:11Z</time>
      </trkpt>
      <trkpt lat="46.50057" lon="5.7286">
        <ele>591.6</ele>
        <time>2022-05-27T14:38:12Z</time>
      </trkpt>
      <trkpt lat="46.50045" lon="5.72846">
        <ele>592</ele>
        <time>2022-05-27T14:38:15Z</time>
      </trkpt>
      <trkpt lat="46.50033" lon="5.7283">
        <ele>592.6</ele>
        <time>2022-05-27T14:38:18Z</time>
      </trkpt>
      <trkpt lat="46.50007" lon="5.72797">
        <ele>593.2</ele>
        <time>2022-05-27T14:38:24Z</time>
      </trkpt>
      <trkpt lat="46.49983" lon="5.72768">
        <ele>593.6</ele>
        <time>2022-05-27T14:38:29Z</time>
      </trkpt>
      <trkpt lat="46.49975" lon="5.72757">
        <ele>593.6</ele>
        <time>2022-05-27T14:38:31Z</time>
      </trkpt>
      <trkpt lat="46.4997" lon="5.72751">
        <ele>593.6</ele>
        <time>2022-05-27T14:38:32Z</time>
      </trkpt>
      <trkpt lat="46.49938" lon="5.72712">
        <ele>594.6</ele>
        <time>2022-05-27T14:38:39Z</time>
      </trkpt>
      <trkpt lat="46.49933" lon="5.72706">
        <ele>594.6</ele>
        <time>2022-05-27T14:38:40Z</time>
      </trkpt>
      <trkpt lat="46.49906" lon="5.72679">
        <ele>595.4</ele>
        <time>2022-05-27T14:38:46Z</time>
      </trkpt>
      <trkpt lat="46.49895" lon="5.72669">
        <ele>595.8</ele>
        <time>2022-05-27T14:38:49Z</time>
      </trkpt>
      <trkpt lat="46.49889" lon="5.72663">
        <ele>596.2</ele>
        <time>2022-05-27T14:38:51Z</time>
      </trkpt>
      <trkpt lat="46.49888" lon="5.72661">
        <ele>596.4</ele>
        <time>2022-05-27T14:38:52Z</time>
      </trkpt>
      <trkpt lat="46.49887" lon="5.72659">
        <ele>597</ele>
        <time>2022-05-27T14:38:53Z</time>
      </trkpt>
      <trkpt lat="46.49887" lon="5.72657">
        <ele>597.2</ele>
        <time>2022-05-27T14:38:54Z</time>
      </trkpt>
      <trkpt lat="46.49893" lon="5.72641">
        <ele>597.4</ele>
        <time>2022-05-27T14:38:59Z</time>
      </trkpt>
      <trkpt lat="46.49905" lon="5.72615">
        <ele>597.4</ele>
        <time>2022-05-27T14:39:03Z</time>
      </trkpt>
      <trkpt lat="46.49917" lon="5.72594">
        <ele>597</ele>
        <time>2022-05-27T14:39:06Z</time>
      </trkpt>
      <trkpt lat="46.49921" lon="5.72576">
        <ele>597</ele>
        <time>2022-05-27T14:39:08Z</time>
      </trkpt>
      <trkpt lat="46.49922" lon="5.72535">
        <ele>596.4</ele>
        <time>2022-05-27T14:39:12Z</time>
      </trkpt>
      <trkpt lat="46.4992" lon="5.72513">
        <ele>596</ele>
        <time>2022-05-27T14:39:14Z</time>
      </trkpt>
      <trkpt lat="46.4992" lon="5.72491">
        <ele>595.8</ele>
        <time>2022-05-27T14:39:16Z</time>
      </trkpt>
      <trkpt lat="46.49921" lon="5.7248">
        <ele>595.8</ele>
        <time>2022-05-27T14:39:17Z</time>
      </trkpt>
      <trkpt lat="46.49925" lon="5.72402">
        <ele>595.4</ele>
        <time>2022-05-27T14:39:24Z</time>
      </trkpt>
      <trkpt lat="46.49927" lon="5.72337">
        <ele>594.8</ele>
        <time>2022-05-27T14:39:30Z</time>
      </trkpt>
      <trkpt lat="46.49928" lon="5.72315">
        <ele>594.2</ele>
        <time>2022-05-27T14:39:32Z</time>
      </trkpt>
      <trkpt lat="46.49928" lon="5.72295">
        <ele>593.8</ele>
        <time>2022-05-27T14:39:34Z</time>
      </trkpt>
      <trkpt lat="46.49928" lon="5.72276">
        <ele>594</ele>
        <time>2022-05-27T14:39:36Z</time>
      </trkpt>
      <trkpt lat="46.49929" lon="5.72267">
        <ele>594.2</ele>
        <time>2022-05-27T14:39:37Z</time>
      </trkpt>
      <trkpt lat="46.49936" lon="5.7224">
        <ele>594</ele>
        <time>2022-05-27T14:39:40Z</time>
      </trkpt>
      <trkpt lat="46.49945" lon="5.72223">
        <ele>594</ele>
        <time>2022-05-27T14:39:42Z</time>
      </trkpt>
      <trkpt lat="46.49957" lon="5.72209">
        <ele>594</ele>
        <time>2022-05-27T14:39:44Z</time>
      </trkpt>
      <trkpt lat="46.4997" lon="5.72195">
        <ele>593.8</ele>
        <time>2022-05-27T14:39:46Z</time>
      </trkpt>
      <trkpt lat="46.49991" lon="5.72171">
        <ele>592.6</ele>
        <time>2022-05-27T14:39:49Z</time>
      </trkpt>
      <trkpt lat="46.50016" lon="5.72134">
        <ele>591.4</ele>
        <time>2022-05-27T14:39:53Z</time>
      </trkpt>
      <trkpt lat="46.50023" lon="5.72124">
        <ele>591.2</ele>
        <time>2022-05-27T14:39:54Z</time>
      </trkpt>
      <trkpt lat="46.50029" lon="5.72114">
        <ele>590.8</ele>
        <time>2022-05-27T14:39:55Z</time>
      </trkpt>
      <trkpt lat="46.50035" lon="5.72103">
        <ele>590.4</ele>
        <time>2022-05-27T14:39:56Z</time>
      </trkpt>
      <trkpt lat="46.50039" lon="5.72092">
        <ele>590.4</ele>
        <time>2022-05-27T14:39:57Z</time>
      </trkpt>
      <trkpt lat="46.50056" lon="5.72044">
        <ele>589.2</ele>
        <time>2022-05-27T14:40:01Z</time>
      </trkpt>
      <trkpt lat="46.50071" lon="5.72008">
        <ele>588.4</ele>
        <time>2022-05-27T14:40:04Z</time>
      </trkpt>
      <trkpt lat="46.50075" lon="5.71996">
        <ele>588</ele>
        <time>2022-05-27T14:40:05Z</time>
      </trkpt>
      <trkpt lat="46.50095" lon="5.7195">
        <ele>587.2</ele>
        <time>2022-05-27T14:40:09Z</time>
      </trkpt>
      <trkpt lat="46.50118" lon="5.71915">
        <ele>586.8</ele>
        <time>2022-05-27T14:40:13Z</time>
      </trkpt>
      <trkpt lat="46.50153" lon="5.71866">
        <ele>586.6</ele>
        <time>2022-05-27T14:40:19Z</time>
      </trkpt>
      <trkpt lat="46.50194" lon="5.71807">
        <ele>587</ele>
        <time>2022-05-27T14:40:26Z</time>
      </trkpt>
      <trkpt lat="46.50229" lon="5.71755">
        <ele>587.2</ele>
        <time>2022-05-27T14:40:32Z</time>
      </trkpt>
      <trkpt lat="46.50244" lon="5.71719">
        <ele>586.8</ele>
        <time>2022-05-27T14:40:35Z</time>
      </trkpt>
      <trkpt lat="46.50247" lon="5.71705">
        <ele>586.6</ele>
        <time>2022-05-27T14:40:36Z</time>
      </trkpt>
      <trkpt lat="46.5026" lon="5.71662">
        <ele>585.4</ele>
        <time>2022-05-27T14:40:39Z</time>
      </trkpt>
      <trkpt lat="46.50266" lon="5.71649">
        <ele>584</ele>
        <time>2022-05-27T14:40:40Z</time>
      </trkpt>
      <trkpt lat="46.50279" lon="5.71622">
        <ele>582.8</ele>
        <time>2022-05-27T14:40:42Z</time>
      </trkpt>
      <trkpt lat="46.50293" lon="5.71595">
        <ele>580.6</ele>
        <time>2022-05-27T14:40:44Z</time>
      </trkpt>
      <trkpt lat="46.50301" lon="5.71582">
        <ele>579.8</ele>
        <time>2022-05-27T14:40:45Z</time>
      </trkpt>
      <trkpt lat="46.50309" lon="5.7157">
        <ele>578.8</ele>
        <time>2022-05-27T14:40:46Z</time>
      </trkpt>
      <trkpt lat="46.50325" lon="5.71545">
        <ele>577.6</ele>
        <time>2022-05-27T14:40:48Z</time>
      </trkpt>
      <trkpt lat="46.50334" lon="5.71533">
        <ele>576.4</ele>
        <time>2022-05-27T14:40:49Z</time>
      </trkpt>
      <trkpt lat="46.50351" lon="5.71509">
        <ele>574.8</ele>
        <time>2022-05-27T14:40:51Z</time>
      </trkpt>
      <trkpt lat="46.5037" lon="5.71484">
        <ele>573.2</ele>
        <time>2022-05-27T14:40:53Z</time>
      </trkpt>
      <trkpt lat="46.50385" lon="5.71463">
        <ele>572</ele>
        <time>2022-05-27T14:40:55Z</time>
      </trkpt>
      <trkpt lat="46.50411" lon="5.71427">
        <ele>570.4</ele>
        <time>2022-05-27T14:40:58Z</time>
      </trkpt>
      <trkpt lat="46.50426" lon="5.71403">
        <ele>569.6</ele>
        <time>2022-05-27T14:41:00Z</time>
      </trkpt>
      <trkpt lat="46.50434" lon="5.71391">
        <ele>568.8</ele>
        <time>2022-05-27T14:41:01Z</time>
      </trkpt>
      <trkpt lat="46.50458" lon="5.71344">
        <ele>567.6</ele>
        <time>2022-05-27T14:41:05Z</time>
      </trkpt>
      <trkpt lat="46.50464" lon="5.71331">
        <ele>567.6</ele>
        <time>2022-05-27T14:41:06Z</time>
      </trkpt>
      <trkpt lat="46.50493" lon="5.71264">
        <ele>567</ele>
        <time>2022-05-27T14:41:11Z</time>
      </trkpt>
      <trkpt lat="46.50511" lon="5.71223">
        <ele>566.4</ele>
        <time>2022-05-27T14:41:14Z</time>
      </trkpt>
      <trkpt lat="46.50517" lon="5.7121">
        <ele>565.8</ele>
        <time>2022-05-27T14:41:15Z</time>
      </trkpt>
      <trkpt lat="46.50523" lon="5.71196">
        <ele>564.8</ele>
        <time>2022-05-27T14:41:16Z</time>
      </trkpt>
      <trkpt lat="46.50541" lon="5.71154">
        <ele>563.8</ele>
        <time>2022-05-27T14:41:19Z</time>
      </trkpt>
      <trkpt lat="46.50559" lon="5.71112">
        <ele>562.4</ele>
        <time>2022-05-27T14:41:22Z</time>
      </trkpt>
      <trkpt lat="46.50564" lon="5.71099">
        <ele>561.6</ele>
        <time>2022-05-27T14:41:23Z</time>
      </trkpt>
      <trkpt lat="46.5057" lon="5.71085">
        <ele>560.6</ele>
        <time>2022-05-27T14:41:24Z</time>
      </trkpt>
      <trkpt lat="46.50582" lon="5.71058">
        <ele>559.6</ele>
        <time>2022-05-27T14:41:26Z</time>
      </trkpt>
      <trkpt lat="46.50612" lon="5.70994">
        <ele>558.2</ele>
        <time>2022-05-27T14:41:31Z</time>
      </trkpt>
      <trkpt lat="46.50651" lon="5.70926">
        <ele>557.6</ele>
        <time>2022-05-27T14:41:37Z</time>
      </trkpt>
      <trkpt lat="46.50658" lon="5.70915">
        <ele>557</ele>
        <time>2022-05-27T14:41:38Z</time>
      </trkpt>
      <trkpt lat="46.50698" lon="5.70852">
        <ele>556.2</ele>
        <time>2022-05-27T14:41:44Z</time>
      </trkpt>
      <trkpt lat="46.50705" lon="5.70842">
        <ele>555.8</ele>
        <time>2022-05-27T14:41:45Z</time>
      </trkpt>
      <trkpt lat="46.50744" lon="5.70778">
        <ele>555</ele>
        <time>2022-05-27T14:41:51Z</time>
      </trkpt>
      <trkpt lat="46.50764" lon="5.70747">
        <ele>554.6</ele>
        <time>2022-05-27T14:41:54Z</time>
      </trkpt>
      <trkpt lat="46.50771" lon="5.70737">
        <ele>554.6</ele>
        <time>2022-05-27T14:41:55Z</time>
      </trkpt>
      <trkpt lat="46.5081" lon="5.70673">
        <ele>553.6</ele>
        <time>2022-05-27T14:42:01Z</time>
      </trkpt>
      <trkpt lat="46.50843" lon="5.70621">
        <ele>552.4</ele>
        <time>2022-05-27T14:42:06Z</time>
      </trkpt>
      <trkpt lat="46.5087" lon="5.70579">
        <ele>551.2</ele>
        <time>2022-05-27T14:42:10Z</time>
      </trkpt>
      <trkpt lat="46.50902" lon="5.70527">
        <ele>550.4</ele>
        <time>2022-05-27T14:42:15Z</time>
      </trkpt>
      <trkpt lat="46.50916" lon="5.70506">
        <ele>550.2</ele>
        <time>2022-05-27T14:42:17Z</time>
      </trkpt>
      <trkpt lat="46.50956" lon="5.70442">
        <ele>549.6</ele>
        <time>2022-05-27T14:42:23Z</time>
      </trkpt>
      <trkpt lat="46.50976" lon="5.70409">
        <ele>549.2</ele>
        <time>2022-05-27T14:42:26Z</time>
      </trkpt>
      <trkpt lat="46.50983" lon="5.70398">
        <ele>549</ele>
        <time>2022-05-27T14:42:27Z</time>
      </trkpt>
      <trkpt lat="46.5101" lon="5.70355">
        <ele>548</ele>
        <time>2022-05-27T14:42:31Z</time>
      </trkpt>
      <trkpt lat="46.51041" lon="5.703">
        <ele>547.6</ele>
        <time>2022-05-27T14:42:36Z</time>
      </trkpt>
      <trkpt lat="46.51071" lon="5.7023">
        <ele>547.4</ele>
        <time>2022-05-27T14:42:42Z</time>
      </trkpt>
      <trkpt lat="46.51098" lon="5.70157">
        <ele>547</ele>
        <time>2022-05-27T14:42:48Z</time>
      </trkpt>
      <trkpt lat="46.51102" lon="5.70144">
        <ele>546.6</ele>
        <time>2022-05-27T14:42:49Z</time>
      </trkpt>
      <trkpt lat="46.5112" lon="5.70094">
        <ele>545.8</ele>
        <time>2022-05-27T14:42:53Z</time>
      </trkpt>
      <trkpt lat="46.51124" lon="5.70081">
        <ele>545.4</ele>
        <time>2022-05-27T14:42:54Z</time>
      </trkpt>
      <trkpt lat="46.51138" lon="5.70043">
        <ele>544.2</ele>
        <time>2022-05-27T14:42:57Z</time>
      </trkpt>
      <trkpt lat="46.51157" lon="5.69994">
        <ele>543.4</ele>
        <time>2022-05-27T14:43:01Z</time>
      </trkpt>
      <trkpt lat="46.51161" lon="5.69981">
        <ele>543.2</ele>
        <time>2022-05-27T14:43:02Z</time>
      </trkpt>
      <trkpt lat="46.5117" lon="5.69956">
        <ele>542</ele>
        <time>2022-05-27T14:43:04Z</time>
      </trkpt>
      <trkpt lat="46.51192" lon="5.69893">
        <ele>541</ele>
        <time>2022-05-27T14:43:09Z</time>
      </trkpt>
      <trkpt lat="46.512" lon="5.69867">
        <ele>540.2</ele>
        <time>2022-05-27T14:43:11Z</time>
      </trkpt>
      <trkpt lat="46.51208" lon="5.69841">
        <ele>540</ele>
        <time>2022-05-27T14:43:13Z</time>
      </trkpt>
      <trkpt lat="46.51222" lon="5.69774">
        <ele>538.8</ele>
        <time>2022-05-27T14:43:18Z</time>
      </trkpt>
      <trkpt lat="46.51227" lon="5.69745">
        <ele>537.6</ele>
        <time>2022-05-27T14:43:20Z</time>
      </trkpt>
      <trkpt lat="46.51232" lon="5.69694">
        <ele>536.6</ele>
        <time>2022-05-27T14:43:24Z</time>
      </trkpt>
      <trkpt lat="46.51233" lon="5.6968">
        <ele>536.4</ele>
        <time>2022-05-27T14:43:25Z</time>
      </trkpt>
      <trkpt lat="46.51236" lon="5.69612">
        <ele>535.4</ele>
        <time>2022-05-27T14:43:30Z</time>
      </trkpt>
      <trkpt lat="46.51234" lon="5.6957">
        <ele>534.8</ele>
        <time>2022-05-27T14:43:33Z</time>
      </trkpt>
      <trkpt lat="46.51232" lon="5.69542">
        <ele>534.4</ele>
        <time>2022-05-27T14:43:35Z</time>
      </trkpt>
      <trkpt lat="46.51227" lon="5.69486">
        <ele>533.2</ele>
        <time>2022-05-27T14:43:39Z</time>
      </trkpt>
      <trkpt lat="46.51222" lon="5.69458">
        <ele>532.6</ele>
        <time>2022-05-27T14:43:41Z</time>
      </trkpt>
      <trkpt lat="46.51217" lon="5.6943">
        <ele>531.8</ele>
        <time>2022-05-27T14:43:43Z</time>
      </trkpt>
      <trkpt lat="46.51207" lon="5.69385">
        <ele>530.8</ele>
        <time>2022-05-27T14:43:46Z</time>
      </trkpt>
      <trkpt lat="46.51198" lon="5.69344">
        <ele>530</ele>
        <time>2022-05-27T14:43:49Z</time>
      </trkpt>
      <trkpt lat="46.51195" lon="5.69329">
        <ele>529.6</ele>
        <time>2022-05-27T14:43:50Z</time>
      </trkpt>
      <trkpt lat="46.51189" lon="5.69297">
        <ele>528.4</ele>
        <time>2022-05-27T14:43:52Z</time>
      </trkpt>
      <trkpt lat="46.51186" lon="5.69263">
        <ele>527.2</ele>
        <time>2022-05-27T14:43:54Z</time>
      </trkpt>
      <trkpt lat="46.51184" lon="5.69228">
        <ele>526.2</ele>
        <time>2022-05-27T14:43:56Z</time>
      </trkpt>
      <trkpt lat="46.51184" lon="5.6921">
        <ele>524.8</ele>
        <time>2022-05-27T14:43:57Z</time>
      </trkpt>
      <trkpt lat="46.51185" lon="5.69174">
        <ele>522.4</ele>
        <time>2022-05-27T14:43:59Z</time>
      </trkpt>
      <trkpt lat="46.51187" lon="5.69156">
        <ele>520.6</ele>
        <time>2022-05-27T14:44:00Z</time>
      </trkpt>
      <trkpt lat="46.51191" lon="5.69116">
        <ele>518.8</ele>
        <time>2022-05-27T14:44:02Z</time>
      </trkpt>
      <trkpt lat="46.51197" lon="5.69084">
        <ele>516.2</ele>
        <time>2022-05-27T14:44:04Z</time>
      </trkpt>
      <trkpt lat="46.512" lon="5.69066">
        <ele>515.6</ele>
        <time>2022-05-27T14:44:05Z</time>
      </trkpt>
      <trkpt lat="46.51205" lon="5.69049">
        <ele>514.2</ele>
        <time>2022-05-27T14:44:06Z</time>
      </trkpt>
      <trkpt lat="46.51215" lon="5.69016">
        <ele>512</ele>
        <time>2022-05-27T14:44:08Z</time>
      </trkpt>
      <trkpt lat="46.51226" lon="5.68982">
        <ele>511</ele>
        <time>2022-05-27T14:44:10Z</time>
      </trkpt>
      <trkpt lat="46.5124" lon="5.68929">
        <ele>509.6</ele>
        <time>2022-05-27T14:44:13Z</time>
      </trkpt>
      <trkpt lat="46.51249" lon="5.68888">
        <ele>507.8</ele>
        <time>2022-05-27T14:44:15Z</time>
      </trkpt>
      <trkpt lat="46.51251" lon="5.68873">
        <ele>506.6</ele>
        <time>2022-05-27T14:44:16Z</time>
      </trkpt>
      <trkpt lat="46.51257" lon="5.6883">
        <ele>504.6</ele>
        <time>2022-05-27T14:44:18Z</time>
      </trkpt>
      <trkpt lat="46.51262" lon="5.68791">
        <ele>502.8</ele>
        <time>2022-05-27T14:44:20Z</time>
      </trkpt>
      <trkpt lat="46.51265" lon="5.68772">
        <ele>502.2</ele>
        <time>2022-05-27T14:44:21Z</time>
      </trkpt>
      <trkpt lat="46.51268" lon="5.68752">
        <ele>501.2</ele>
        <time>2022-05-27T14:44:22Z</time>
      </trkpt>
      <trkpt lat="46.5127" lon="5.68737">
        <ele>500</ele>
        <time>2022-05-27T14:44:23Z</time>
      </trkpt>
      <trkpt lat="46.51278" lon="5.68694">
        <ele>498</ele>
        <time>2022-05-27T14:44:25Z</time>
      </trkpt>
      <trkpt lat="46.51285" lon="5.68655">
        <ele>495.8</ele>
        <time>2022-05-27T14:44:27Z</time>
      </trkpt>
      <trkpt lat="46.51293" lon="5.68617">
        <ele>494</ele>
        <time>2022-05-27T14:44:29Z</time>
      </trkpt>
      <trkpt lat="46.51296" lon="5.68597">
        <ele>493</ele>
        <time>2022-05-27T14:44:30Z</time>
      </trkpt>
      <trkpt lat="46.51304" lon="5.68559">
        <ele>491</ele>
        <time>2022-05-27T14:44:32Z</time>
      </trkpt>
      <trkpt lat="46.51312" lon="5.68521">
        <ele>489.2</ele>
        <time>2022-05-27T14:44:34Z</time>
      </trkpt>
      <trkpt lat="46.5132" lon="5.68483">
        <ele>487.6</ele>
        <time>2022-05-27T14:44:36Z</time>
      </trkpt>
      <trkpt lat="46.51323" lon="5.68467">
        <ele>486.4</ele>
        <time>2022-05-27T14:44:37Z</time>
      </trkpt>
      <trkpt lat="46.51332" lon="5.68425">
        <ele>485</ele>
        <time>2022-05-27T14:44:39Z</time>
      </trkpt>
      <trkpt lat="46.5134" lon="5.68387">
        <ele>483.2</ele>
        <time>2022-05-27T14:44:41Z</time>
      </trkpt>
      <trkpt lat="46.5135" lon="5.68351">
        <ele>481.2</ele>
        <time>2022-05-27T14:44:43Z</time>
      </trkpt>
      <trkpt lat="46.51355" lon="5.68333">
        <ele>479.8</ele>
        <time>2022-05-27T14:44:44Z</time>
      </trkpt>
      <trkpt lat="46.51365" lon="5.68297">
        <ele>478.2</ele>
        <time>2022-05-27T14:44:46Z</time>
      </trkpt>
      <trkpt lat="46.51375" lon="5.68262">
        <ele>476.4</ele>
        <time>2022-05-27T14:44:48Z</time>
      </trkpt>
      <trkpt lat="46.51384" lon="5.68228">
        <ele>475.2</ele>
        <time>2022-05-27T14:44:50Z</time>
      </trkpt>
      <trkpt lat="46.51388" lon="5.68211">
        <ele>474.4</ele>
        <time>2022-05-27T14:44:51Z</time>
      </trkpt>
      <trkpt lat="46.51392" lon="5.68195">
        <ele>474</ele>
        <time>2022-05-27T14:44:52Z</time>
      </trkpt>
      <trkpt lat="46.51404" lon="5.68136">
        <ele>473.2</ele>
        <time>2022-05-27T14:44:56Z</time>
      </trkpt>
      <trkpt lat="46.51411" lon="5.68092">
        <ele>473</ele>
        <time>2022-05-27T14:44:59Z</time>
      </trkpt>
      <trkpt lat="46.51414" lon="5.6806">
        <ele>472.8</ele>
        <time>2022-05-27T14:45:01Z</time>
      </trkpt>
      <trkpt lat="46.5142" lon="5.67988">
        <ele>472.4</ele>
        <time>2022-05-27T14:45:06Z</time>
      </trkpt>
      <trkpt lat="46.51427" lon="5.67948">
        <ele>471.8</ele>
        <time>2022-05-27T14:45:09Z</time>
      </trkpt>
      <trkpt lat="46.51436" lon="5.67909">
        <ele>471.4</ele>
        <time>2022-05-27T14:45:12Z</time>
      </trkpt>
      <trkpt lat="46.51456" lon="5.6785">
        <ele>470.8</ele>
        <time>2022-05-27T14:45:17Z</time>
      </trkpt>
      <trkpt lat="46.51461" lon="5.67839">
        <ele>470.6</ele>
        <time>2022-05-27T14:45:18Z</time>
      </trkpt>
      <trkpt lat="46.51485" lon="5.67786">
        <ele>470.2</ele>
        <time>2022-05-27T14:45:23Z</time>
      </trkpt>
      <trkpt lat="46.51516" lon="5.67714">
        <ele>470.2</ele>
        <time>2022-05-27T14:45:30Z</time>
      </trkpt>
      <trkpt lat="46.51547" lon="5.67642">
        <ele>470</ele>
        <time>2022-05-27T14:45:37Z</time>
      </trkpt>
      <trkpt lat="46.51559" lon="5.67614">
        <ele>469.8</ele>
        <time>2022-05-27T14:45:40Z</time>
      </trkpt>
      <trkpt lat="46.5159" lon="5.67542">
        <ele>469.2</ele>
        <time>2022-05-27T14:45:47Z</time>
      </trkpt>
      <trkpt lat="46.51607" lon="5.67502">
        <ele>468.6</ele>
        <time>2022-05-27T14:45:51Z</time>
      </trkpt>
      <trkpt lat="46.51636" lon="5.67435">
        <ele>468.4</ele>
        <time>2022-05-27T14:45:58Z</time>
      </trkpt>
      <trkpt lat="46.51641" lon="5.67425">
        <ele>468.4</ele>
        <time>2022-05-27T14:45:59Z</time>
      </trkpt>
      <trkpt lat="46.51662" lon="5.67375">
        <ele>468.2</ele>
        <time>2022-05-27T14:46:04Z</time>
      </trkpt>
      <trkpt lat="46.51673" lon="5.67358">
        <ele>468.2</ele>
        <time>2022-05-27T14:46:06Z</time>
      </trkpt>
      <trkpt lat="46.51685" lon="5.67343">
        <ele>468</ele>
        <time>2022-05-27T14:46:08Z</time>
      </trkpt>
      <trkpt lat="46.51698" lon="5.67332">
        <ele>467.6</ele>
        <time>2022-05-27T14:46:10Z</time>
      </trkpt>
      <trkpt lat="46.51747" lon="5.67301">
        <ele>467</ele>
        <time>2022-05-27T14:46:17Z</time>
      </trkpt>
      <trkpt lat="46.5178" lon="5.67276">
        <ele>467.2</ele>
        <time>2022-05-27T14:46:22Z</time>
      </trkpt>
      <trkpt lat="46.51824" lon="5.67236">
        <ele>467.2</ele>
        <time>2022-05-27T14:46:29Z</time>
      </trkpt>
      <trkpt lat="46.51831" lon="5.6723">
        <ele>467</ele>
        <time>2022-05-27T14:46:30Z</time>
      </trkpt>
      <trkpt lat="46.51872" lon="5.67189">
        <ele>466</ele>
        <time>2022-05-27T14:46:36Z</time>
      </trkpt>
      <trkpt lat="46.51885" lon="5.67176">
        <ele>465.8</ele>
        <time>2022-05-27T14:46:38Z</time>
      </trkpt>
      <trkpt lat="46.51908" lon="5.67152">
        <ele>465.6</ele>
        <time>2022-05-27T14:46:42Z</time>
      </trkpt>
      <trkpt lat="46.51913" lon="5.67147">
        <ele>465.6</ele>
        <time>2022-05-27T14:46:43Z</time>
      </trkpt>
      <trkpt lat="46.51923" lon="5.67133">
        <ele>465.6</ele>
        <time>2022-05-27T14:46:45Z</time>
      </trkpt>
      <trkpt lat="46.51927" lon="5.67127">
        <ele>465.8</ele>
        <time>2022-05-27T14:46:46Z</time>
      </trkpt>
      <trkpt lat="46.51937" lon="5.67116">
        <ele>466.6</ele>
        <time>2022-05-27T14:46:48Z</time>
      </trkpt>
      <trkpt lat="46.51942" lon="5.6711">
        <ele>467.2</ele>
        <time>2022-05-27T14:46:49Z</time>
      </trkpt>
      <trkpt lat="46.5195" lon="5.67098">
        <ele>468</ele>
        <time>2022-05-27T14:46:51Z</time>
      </trkpt>
      <trkpt lat="46.51954" lon="5.67092">
        <ele>468.4</ele>
        <time>2022-05-27T14:46:52Z</time>
      </trkpt>
      <trkpt lat="46.51958" lon="5.67085">
        <ele>468.8</ele>
        <time>2022-05-27T14:46:53Z</time>
      </trkpt>
      <trkpt lat="46.51962" lon="5.67079">
        <ele>469</ele>
        <time>2022-05-27T14:46:54Z</time>
      </trkpt>
      <trkpt lat="46.51964" lon="5.67072">
        <ele>469.4</ele>
        <time>2022-05-27T14:46:55Z</time>
      </trkpt>
      <trkpt lat="46.51972" lon="5.6705">
        <ele>470.8</ele>
        <time>2022-05-27T14:46:58Z</time>
      </trkpt>
      <trkpt lat="46.51976" lon="5.67037">
        <ele>471.6</ele>
        <time>2022-05-27T14:47:00Z</time>
      </trkpt>
      <trkpt lat="46.51978" lon="5.67028">
        <ele>472</ele>
        <time>2022-05-27T14:47:01Z</time>
      </trkpt>
      <trkpt lat="46.5198" lon="5.6702">
        <ele>472.4</ele>
        <time>2022-05-27T14:47:02Z</time>
      </trkpt>
      <trkpt lat="46.51983" lon="5.67005">
        <ele>473</ele>
        <time>2022-05-27T14:47:04Z</time>
      </trkpt>
      <trkpt lat="46.51984" lon="5.66997">
        <ele>473.6</ele>
        <time>2022-05-27T14:47:05Z</time>
      </trkpt>
      <trkpt lat="46.51985" lon="5.66983">
        <ele>474.2</ele>
        <time>2022-05-27T14:47:07Z</time>
      </trkpt>
      <trkpt lat="46.5199" lon="5.66939">
        <ele>475.2</ele>
        <time>2022-05-27T14:47:13Z</time>
      </trkpt>
      <trkpt lat="46.51992" lon="5.66932">
        <ele>475.6</ele>
        <time>2022-05-27T14:47:14Z</time>
      </trkpt>
      <trkpt lat="46.52" lon="5.66914">
        <ele>476.4</ele>
        <time>2022-05-27T14:47:17Z</time>
      </trkpt>
      <trkpt lat="46.52008" lon="5.66895">
        <ele>477.2</ele>
        <time>2022-05-27T14:47:20Z</time>
      </trkpt>
      <trkpt lat="46.52012" lon="5.6689">
        <ele>477.4</ele>
        <time>2022-05-27T14:47:21Z</time>
      </trkpt>
      <trkpt lat="46.52015" lon="5.66884">
        <ele>477.4</ele>
        <time>2022-05-27T14:47:22Z</time>
      </trkpt>
      <trkpt lat="46.52024" lon="5.66857">
        <ele>478.4</ele>
        <time>2022-05-27T14:47:26Z</time>
      </trkpt>
      <trkpt lat="46.5203" lon="5.66843">
        <ele>479</ele>
        <time>2022-05-27T14:47:28Z</time>
      </trkpt>
      <trkpt lat="46.52039" lon="5.66824">
        <ele>479.6</ele>
        <time>2022-05-27T14:47:31Z</time>
      </trkpt>
      <trkpt lat="46.52057" lon="5.66795">
        <ele>479.6</ele>
        <time>2022-05-27T14:47:36Z</time>
      </trkpt>
      <trkpt lat="46.52085" lon="5.66752">
        <ele>478.8</ele>
        <time>2022-05-27T14:47:43Z</time>
      </trkpt>
      <trkpt lat="46.521" lon="5.66729">
        <ele>477.8</ele>
        <time>2022-05-27T14:47:46Z</time>
      </trkpt>
      <trkpt lat="46.52119" lon="5.6671">
        <ele>476.8</ele>
        <time>2022-05-27T14:47:49Z</time>
      </trkpt>
      <trkpt lat="46.52126" lon="5.66704">
        <ele>476.6</ele>
        <time>2022-05-27T14:47:50Z</time>
      </trkpt>
      <trkpt lat="46.52146" lon="5.66681">
        <ele>475.6</ele>
        <time>2022-05-27T14:47:53Z</time>
      </trkpt>
      <trkpt lat="46.5216" lon="5.66664">
        <ele>474.8</ele>
        <time>2022-05-27T14:47:55Z</time>
      </trkpt>
      <trkpt lat="46.52167" lon="5.66656">
        <ele>474.2</ele>
        <time>2022-05-27T14:47:56Z</time>
      </trkpt>
      <trkpt lat="46.52193" lon="5.66623">
        <ele>473</ele>
        <time>2022-05-27T14:48:00Z</time>
      </trkpt>
      <trkpt lat="46.52212" lon="5.666">
        <ele>472.6</ele>
        <time>2022-05-27T14:48:03Z</time>
      </trkpt>
      <trkpt lat="46.52241" lon="5.66565">
        <ele>472.8</ele>
        <time>2022-05-27T14:48:08Z</time>
      </trkpt>
      <trkpt lat="46.52268" lon="5.66531">
        <ele>474.2</ele>
        <time>2022-05-27T14:48:14Z</time>
      </trkpt>
      <trkpt lat="46.52281" lon="5.66517">
        <ele>475.4</ele>
        <time>2022-05-27T14:48:17Z</time>
      </trkpt>
      <trkpt lat="46.52284" lon="5.66513">
        <ele>475.4</ele>
        <time>2022-05-27T14:48:18Z</time>
      </trkpt>
      <trkpt lat="46.52289" lon="5.66504">
        <ele>475.8</ele>
        <time>2022-05-27T14:48:20Z</time>
      </trkpt>
      <trkpt lat="46.52298" lon="5.66493">
        <ele>476.4</ele>
        <time>2022-05-27T14:48:23Z</time>
      </trkpt>
      <trkpt lat="46.52304" lon="5.66486">
        <ele>477.2</ele>
        <time>2022-05-27T14:48:25Z</time>
      </trkpt>
      <trkpt lat="46.52308" lon="5.66483">
        <ele>477.8</ele>
        <time>2022-05-27T14:48:26Z</time>
      </trkpt>
      <trkpt lat="46.52317" lon="5.66471">
        <ele>479</ele>
        <time>2022-05-27T14:48:29Z</time>
      </trkpt>
      <trkpt lat="46.5232" lon="5.66467">
        <ele>479.2</ele>
        <time>2022-05-27T14:48:30Z</time>
      </trkpt>
      <trkpt lat="46.52324" lon="5.66459">
        <ele>480</ele>
        <time>2022-05-27T14:48:32Z</time>
      </trkpt>
      <trkpt lat="46.52332" lon="5.66446">
        <ele>481.4</ele>
        <time>2022-05-27T14:48:35Z</time>
      </trkpt>
      <trkpt lat="46.52342" lon="5.6643">
        <ele>482.4</ele>
        <time>2022-05-27T14:48:39Z</time>
      </trkpt>
      <trkpt lat="46.52345" lon="5.66426">
        <ele>482.8</ele>
        <time>2022-05-27T14:48:40Z</time>
      </trkpt>
      <trkpt lat="46.52353" lon="5.66415">
        <ele>483.8</ele>
        <time>2022-05-27T14:48:43Z</time>
      </trkpt>
      <trkpt lat="46.52364" lon="5.66395">
        <ele>484.4</ele>
        <time>2022-05-27T14:48:47Z</time>
      </trkpt>
      <trkpt lat="46.52371" lon="5.66383">
        <ele>485</ele>
        <time>2022-05-27T14:48:50Z</time>
      </trkpt>
      <trkpt lat="46.52382" lon="5.66363">
        <ele>486</ele>
        <time>2022-05-27T14:48:54Z</time>
      </trkpt>
      <trkpt lat="46.52389" lon="5.66347">
        <ele>486.6</ele>
        <time>2022-05-27T14:48:57Z</time>
      </trkpt>
      <trkpt lat="46.52394" lon="5.66337">
        <ele>487.2</ele>
        <time>2022-05-27T14:48:59Z</time>
      </trkpt>
      <trkpt lat="46.52409" lon="5.66303">
        <ele>487.8</ele>
        <time>2022-05-27T14:49:05Z</time>
      </trkpt>
      <trkpt lat="46.52424" lon="5.66271">
        <ele>488.2</ele>
        <time>2022-05-27T14:49:10Z</time>
      </trkpt>
      <trkpt lat="46.52427" lon="5.66265">
        <ele>488.4</ele>
        <time>2022-05-27T14:49:11Z</time>
      </trkpt>
      <trkpt lat="46.52433" lon="5.66252">
        <ele>488.4</ele>
        <time>2022-05-27T14:49:13Z</time>
      </trkpt>
      <trkpt lat="46.52454" lon="5.66204">
        <ele>489.2</ele>
        <time>2022-05-27T14:49:20Z</time>
      </trkpt>
      <trkpt lat="46.52461" lon="5.66191">
        <ele>489.4</ele>
        <time>2022-05-27T14:49:22Z</time>
      </trkpt>
      <trkpt lat="46.52476" lon="5.66155">
        <ele>489.8</ele>
        <time>2022-05-27T14:49:27Z</time>
      </trkpt>
      <trkpt lat="46.52482" lon="5.66141">
        <ele>490</ele>
        <time>2022-05-27T14:49:29Z</time>
      </trkpt>
      <trkpt lat="46.52489" lon="5.66127">
        <ele>490.2</ele>
        <time>2022-05-27T14:49:31Z</time>
      </trkpt>
      <trkpt lat="46.52517" lon="5.66062">
        <ele>491.4</ele>
        <time>2022-05-27T14:49:40Z</time>
      </trkpt>
      <trkpt lat="46.52528" lon="5.6604">
        <ele>491.6</ele>
        <time>2022-05-27T14:49:43Z</time>
      </trkpt>
      <trkpt lat="46.5255" lon="5.65991">
        <ele>492.2</ele>
        <time>2022-05-27T14:49:50Z</time>
      </trkpt>
      <trkpt lat="46.52571" lon="5.65948">
        <ele>492.6</ele>
        <time>2022-05-27T14:49:56Z</time>
      </trkpt>
      <trkpt lat="46.5258" lon="5.65928">
        <ele>493.2</ele>
        <time>2022-05-27T14:49:59Z</time>
      </trkpt>
      <trkpt lat="46.52594" lon="5.65899">
        <ele>493.8</ele>
        <time>2022-05-27T14:50:03Z</time>
      </trkpt>
      <trkpt lat="46.52608" lon="5.65873">
        <ele>494.2</ele>
        <time>2022-05-27T14:50:07Z</time>
      </trkpt>
      <trkpt lat="46.52622" lon="5.65847">
        <ele>494.8</ele>
        <time>2022-05-27T14:50:11Z</time>
      </trkpt>
      <trkpt lat="46.52631" lon="5.65826">
        <ele>495.4</ele>
        <time>2022-05-27T14:50:14Z</time>
      </trkpt>
      <trkpt lat="46.52643" lon="5.65798">
        <ele>496</ele>
        <time>2022-05-27T14:50:18Z</time>
      </trkpt>
      <trkpt lat="46.52651" lon="5.65775">
        <ele>496.2</ele>
        <time>2022-05-27T14:50:21Z</time>
      </trkpt>
      <trkpt lat="46.52664" lon="5.65731">
        <ele>497</ele>
        <time>2022-05-27T14:50:27Z</time>
      </trkpt>
      <trkpt lat="46.52672" lon="5.65692">
        <ele>497.8</ele>
        <time>2022-05-27T14:50:32Z</time>
      </trkpt>
      <trkpt lat="46.52676" lon="5.65676">
        <ele>498.2</ele>
        <time>2022-05-27T14:50:34Z</time>
      </trkpt>
      <trkpt lat="46.52684" lon="5.6562">
        <ele>499</ele>
        <time>2022-05-27T14:50:41Z</time>
      </trkpt>
      <trkpt lat="46.52686" lon="5.65605">
        <ele>499.8</ele>
        <time>2022-05-27T14:50:43Z</time>
      </trkpt>
      <trkpt lat="46.52691" lon="5.65562">
        <ele>500.6</ele>
        <time>2022-05-27T14:50:49Z</time>
      </trkpt>
      <trkpt lat="46.52692" lon="5.65555">
        <ele>500.8</ele>
        <time>2022-05-27T14:50:50Z</time>
      </trkpt>
      <trkpt lat="46.52695" lon="5.65519">
        <ele>502</ele>
        <time>2022-05-27T14:50:55Z</time>
      </trkpt>
      <trkpt lat="46.52698" lon="5.65484">
        <ele>503</ele>
        <time>2022-05-27T14:51:00Z</time>
      </trkpt>
      <trkpt lat="46.52699" lon="5.65478">
        <ele>503.2</ele>
        <time>2022-05-27T14:51:01Z</time>
      </trkpt>
      <trkpt lat="46.52701" lon="5.65445">
        <ele>504.6</ele>
        <time>2022-05-27T14:51:06Z</time>
      </trkpt>
      <trkpt lat="46.52703" lon="5.65417">
        <ele>505.6</ele>
        <time>2022-05-27T14:51:10Z</time>
      </trkpt>
      <trkpt lat="46.52703" lon="5.6541">
        <ele>505.8</ele>
        <time>2022-05-27T14:51:11Z</time>
      </trkpt>
      <trkpt lat="46.52707" lon="5.65364">
        <ele>507</ele>
        <time>2022-05-27T14:51:18Z</time>
      </trkpt>
      <trkpt lat="46.52708" lon="5.65345">
        <ele>507.6</ele>
        <time>2022-05-27T14:51:21Z</time>
      </trkpt>
      <trkpt lat="46.5271" lon="5.65324">
        <ele>508</ele>
        <time>2022-05-27T14:51:24Z</time>
      </trkpt>
      <trkpt lat="46.52712" lon="5.65305">
        <ele>508.6</ele>
        <time>2022-05-27T14:51:27Z</time>
      </trkpt>
      <trkpt lat="46.52713" lon="5.65287">
        <ele>509.2</ele>
        <time>2022-05-27T14:51:30Z</time>
      </trkpt>
      <trkpt lat="46.52714" lon="5.65273">
        <ele>509.4</ele>
        <time>2022-05-27T14:51:32Z</time>
      </trkpt>
      <trkpt lat="46.52716" lon="5.65245">
        <ele>510.2</ele>
        <time>2022-05-27T14:51:36Z</time>
      </trkpt>
      <trkpt lat="46.52718" lon="5.65206">
        <ele>511.2</ele>
        <time>2022-05-27T14:51:42Z</time>
      </trkpt>
      <trkpt lat="46.52719" lon="5.65199">
        <ele>511.4</ele>
        <time>2022-05-27T14:51:43Z</time>
      </trkpt>
      <trkpt lat="46.52722" lon="5.65157">
        <ele>512.6</ele>
        <time>2022-05-27T14:51:49Z</time>
      </trkpt>
      <trkpt lat="46.52724" lon="5.65137">
        <ele>513.2</ele>
        <time>2022-05-27T14:51:52Z</time>
      </trkpt>
      <trkpt lat="46.52725" lon="5.65123">
        <ele>513.6</ele>
        <time>2022-05-27T14:51:54Z</time>
      </trkpt>
      <trkpt lat="46.52727" lon="5.65097">
        <ele>514.8</ele>
        <time>2022-05-27T14:51:58Z</time>
      </trkpt>
      <trkpt lat="46.52729" lon="5.65071">
        <ele>516.2</ele>
        <time>2022-05-27T14:52:02Z</time>
      </trkpt>
      <trkpt lat="46.5273" lon="5.65058">
        <ele>516.8</ele>
        <time>2022-05-27T14:52:04Z</time>
      </trkpt>
      <trkpt lat="46.52732" lon="5.65039">
        <ele>517.4</ele>
        <time>2022-05-27T14:52:07Z</time>
      </trkpt>
      <trkpt lat="46.52734" lon="5.65014">
        <ele>518</ele>
        <time>2022-05-27T14:52:11Z</time>
      </trkpt>
      <trkpt lat="46.52735" lon="5.64996">
        <ele>518.4</ele>
        <time>2022-05-27T14:52:14Z</time>
      </trkpt>
      <trkpt lat="46.52738" lon="5.64964">
        <ele>519.4</ele>
        <time>2022-05-27T14:52:19Z</time>
      </trkpt>
      <trkpt lat="46.52739" lon="5.64946">
        <ele>520.2</ele>
        <time>2022-05-27T14:52:22Z</time>
      </trkpt>
      <trkpt lat="46.5274" lon="5.64933">
        <ele>520.6</ele>
        <time>2022-05-27T14:52:24Z</time>
      </trkpt>
      <trkpt lat="46.52744" lon="5.64893">
        <ele>521.8</ele>
        <time>2022-05-27T14:52:30Z</time>
      </trkpt>
      <trkpt lat="46.52744" lon="5.64872">
        <ele>522.4</ele>
        <time>2022-05-27T14:52:33Z</time>
      </trkpt>
      <trkpt lat="46.52746" lon="5.64852">
        <ele>522.8</ele>
        <time>2022-05-27T14:52:36Z</time>
      </trkpt>
      <trkpt lat="46.52748" lon="5.64818">
        <ele>523.8</ele>
        <time>2022-05-27T14:52:41Z</time>
      </trkpt>
      <trkpt lat="46.52749" lon="5.64811">
        <ele>524</ele>
        <time>2022-05-27T14:52:42Z</time>
      </trkpt>
      <trkpt lat="46.52752" lon="5.64778">
        <ele>525</ele>
        <time>2022-05-27T14:52:47Z</time>
      </trkpt>
      <trkpt lat="46.52754" lon="5.6475">
        <ele>526.2</ele>
        <time>2022-05-27T14:52:51Z</time>
      </trkpt>
      <trkpt lat="46.52756" lon="5.64716">
        <ele>527.4</ele>
        <time>2022-05-27T14:52:56Z</time>
      </trkpt>
      <trkpt lat="46.5276" lon="5.64667">
        <ele>528.4</ele>
        <time>2022-05-27T14:53:03Z</time>
      </trkpt>
      <trkpt lat="46.52761" lon="5.64653">
        <ele>528.6</ele>
        <time>2022-05-27T14:53:05Z</time>
      </trkpt>
      <trkpt lat="46.52764" lon="5.64617">
        <ele>529.8</ele>
        <time>2022-05-27T14:53:10Z</time>
      </trkpt>
      <trkpt lat="46.52768" lon="5.64564">
        <ele>530.4</ele>
        <time>2022-05-27T14:53:17Z</time>
      </trkpt>
      <trkpt lat="46.5277" lon="5.64541">
        <ele>530.8</ele>
        <time>2022-05-27T14:53:20Z</time>
      </trkpt>
      <trkpt lat="46.52772" lon="5.64512">
        <ele>532</ele>
        <time>2022-05-27T14:53:24Z</time>
      </trkpt>
      <trkpt lat="46.52775" lon="5.64489">
        <ele>532.2</ele>
        <time>2022-05-27T14:53:27Z</time>
      </trkpt>
      <trkpt lat="46.52778" lon="5.64442">
        <ele>533</ele>
        <time>2022-05-27T14:53:33Z</time>
      </trkpt>
      <trkpt lat="46.52782" lon="5.644">
        <ele>533.4</ele>
        <time>2022-05-27T14:53:38Z</time>
      </trkpt>
      <trkpt lat="46.52786" lon="5.64348">
        <ele>534</ele>
        <time>2022-05-27T14:53:44Z</time>
      </trkpt>
      <trkpt lat="46.52788" lon="5.64321">
        <ele>534.2</ele>
        <time>2022-05-27T14:53:47Z</time>
      </trkpt>
      <trkpt lat="46.52792" lon="5.64236">
        <ele>534.8</ele>
        <time>2022-05-27T14:53:56Z</time>
      </trkpt>
      <trkpt lat="46.52792" lon="5.64227">
        <ele>535</ele>
        <time>2022-05-27T14:53:57Z</time>
      </trkpt>
      <trkpt lat="46.52791" lon="5.64197">
        <ele>535.2</ele>
        <time>2022-05-27T14:54:00Z</time>
      </trkpt>
      <trkpt lat="46.52789" lon="5.64169">
        <ele>535.4</ele>
        <time>2022-05-27T14:54:03Z</time>
      </trkpt>
      <trkpt lat="46.52773" lon="5.64091">
        <ele>535.6</ele>
        <time>2022-05-27T14:54:10Z</time>
      </trkpt>
      <trkpt lat="46.52754" lon="5.64041">
        <ele>535.6</ele>
        <time>2022-05-27T14:54:15Z</time>
      </trkpt>
      <trkpt lat="46.52723" lon="5.63989">
        <ele>535.8</ele>
        <time>2022-05-27T14:54:21Z</time>
      </trkpt>
      <trkpt lat="46.52686" lon="5.63938">
        <ele>536.2</ele>
        <time>2022-05-27T14:54:28Z</time>
      </trkpt>
      <trkpt lat="46.52681" lon="5.63931">
        <ele>536.4</ele>
        <time>2022-05-27T14:54:29Z</time>
      </trkpt>
      <trkpt lat="46.52663" lon="5.63894">
        <ele>537.2</ele>
        <time>2022-05-27T14:54:33Z</time>
      </trkpt>
      <trkpt lat="46.52658" lon="5.63882">
        <ele>537.4</ele>
        <time>2022-05-27T14:54:34Z</time>
      </trkpt>
      <trkpt lat="46.52645" lon="5.63765">
        <ele>538.4</ele>
        <time>2022-05-27T14:54:45Z</time>
      </trkpt>
      <trkpt lat="46.52645" lon="5.63755">
        <ele>538.4</ele>
        <time>2022-05-27T14:54:46Z</time>
      </trkpt>
      <trkpt lat="46.52649" lon="5.63735">
        <ele>538.4</ele>
        <time>2022-05-27T14:54:48Z</time>
      </trkpt>
      <trkpt lat="46.52656" lon="5.63703">
        <ele>538.2</ele>
        <time>2022-05-27T14:54:51Z</time>
      </trkpt>
      <trkpt lat="46.52672" lon="5.63648">
        <ele>537</ele>
        <time>2022-05-27T14:54:56Z</time>
      </trkpt>
      <trkpt lat="46.52677" lon="5.63625">
        <ele>536.6</ele>
        <time>2022-05-27T14:54:58Z</time>
      </trkpt>
      <trkpt lat="46.52689" lon="5.63539">
        <ele>535.6</ele>
        <time>2022-05-27T14:55:05Z</time>
      </trkpt>
      <trkpt lat="46.52692" lon="5.63499">
        <ele>534.2</ele>
        <time>2022-05-27T14:55:08Z</time>
      </trkpt>
      <trkpt lat="46.52692" lon="5.6347">
        <ele>533.8</ele>
        <time>2022-05-27T14:55:10Z</time>
      </trkpt>
      <trkpt lat="46.52689" lon="5.6344">
        <ele>533.2</ele>
        <time>2022-05-27T14:55:12Z</time>
      </trkpt>
      <trkpt lat="46.52683" lon="5.63393">
        <ele>531.6</ele>
        <time>2022-05-27T14:55:15Z</time>
      </trkpt>
      <trkpt lat="46.52679" lon="5.63362">
        <ele>530.4</ele>
        <time>2022-05-27T14:55:17Z</time>
      </trkpt>
      <trkpt lat="46.52673" lon="5.63315">
        <ele>528.8</ele>
        <time>2022-05-27T14:55:20Z</time>
      </trkpt>
      <trkpt lat="46.52669" lon="5.63285">
        <ele>527.6</ele>
        <time>2022-05-27T14:55:22Z</time>
      </trkpt>
      <trkpt lat="46.52664" lon="5.63255">
        <ele>527.2</ele>
        <time>2022-05-27T14:55:24Z</time>
      </trkpt>
      <trkpt lat="46.5265" lon="5.63187">
        <ele>526.6</ele>
        <time>2022-05-27T14:55:29Z</time>
      </trkpt>
      <trkpt lat="46.52647" lon="5.63175">
        <ele>526.6</ele>
        <time>2022-05-27T14:55:30Z</time>
      </trkpt>
      <trkpt lat="46.52626" lon="5.63095">
        <ele>527.4</ele>
        <time>2022-05-27T14:55:37Z</time>
      </trkpt>
      <trkpt lat="46.52623" lon="5.63081">
        <ele>527.6</ele>
        <time>2022-05-27T14:55:38Z</time>
      </trkpt>
      <trkpt lat="46.52602" lon="5.63">
        <ele>527.8</ele>
        <time>2022-05-27T14:55:45Z</time>
      </trkpt>
      <trkpt lat="46.52596" lon="5.62976">
        <ele>528</ele>
        <time>2022-05-27T14:55:47Z</time>
      </trkpt>
      <trkpt lat="46.52575" lon="5.62892">
        <ele>527.8</ele>
        <time>2022-05-27T14:55:54Z</time>
      </trkpt>
      <trkpt lat="46.52564" lon="5.62855">
        <ele>527</ele>
        <time>2022-05-27T14:55:57Z</time>
      </trkpt>
      <trkpt lat="46.52557" lon="5.6283">
        <ele>526.8</ele>
        <time>2022-05-27T14:55:59Z</time>
      </trkpt>
      <trkpt lat="46.52534" lon="5.62753">
        <ele>525.4</ele>
        <time>2022-05-27T14:56:05Z</time>
      </trkpt>
      <trkpt lat="46.5253" lon="5.62739">
        <ele>524.8</ele>
        <time>2022-05-27T14:56:06Z</time>
      </trkpt>
      <trkpt lat="46.52521" lon="5.62712">
        <ele>523.8</ele>
        <time>2022-05-27T14:56:08Z</time>
      </trkpt>
      <trkpt lat="46.52509" lon="5.6267">
        <ele>522.6</ele>
        <time>2022-05-27T14:56:11Z</time>
      </trkpt>
      <trkpt lat="46.52496" lon="5.62627">
        <ele>521.4</ele>
        <time>2022-05-27T14:56:14Z</time>
      </trkpt>
      <trkpt lat="46.52486" lon="5.62598">
        <ele>520.4</ele>
        <time>2022-05-27T14:56:16Z</time>
      </trkpt>
      <trkpt lat="46.52474" lon="5.62571">
        <ele>519</ele>
        <time>2022-05-27T14:56:18Z</time>
      </trkpt>
      <trkpt lat="46.52467" lon="5.62558">
        <ele>518.6</ele>
        <time>2022-05-27T14:56:19Z</time>
      </trkpt>
      <trkpt lat="46.52459" lon="5.62546">
        <ele>517.8</ele>
        <time>2022-05-27T14:56:20Z</time>
      </trkpt>
      <trkpt lat="46.52427" lon="5.62495">
        <ele>516.8</ele>
        <time>2022-05-27T14:56:24Z</time>
      </trkpt>
      <trkpt lat="46.52417" lon="5.62478">
        <ele>515.6</ele>
        <time>2022-05-27T14:56:25Z</time>
      </trkpt>
      <trkpt lat="46.52403" lon="5.62451">
        <ele>513</ele>
        <time>2022-05-27T14:56:27Z</time>
      </trkpt>
      <trkpt lat="46.52396" lon="5.62434">
        <ele>512.6</ele>
        <time>2022-05-27T14:56:28Z</time>
      </trkpt>
      <trkpt lat="46.5239" lon="5.62416">
        <ele>511.2</ele>
        <time>2022-05-27T14:56:29Z</time>
      </trkpt>
      <trkpt lat="46.5238" lon="5.62378">
        <ele>508.4</ele>
        <time>2022-05-27T14:56:31Z</time>
      </trkpt>
      <trkpt lat="46.52377" lon="5.62359">
        <ele>506.2</ele>
        <time>2022-05-27T14:56:32Z</time>
      </trkpt>
      <trkpt lat="46.52373" lon="5.62315">
        <ele>503.8</ele>
        <time>2022-05-27T14:56:34Z</time>
      </trkpt>
      <trkpt lat="46.52373" lon="5.6228">
        <ele>502</ele>
        <time>2022-05-27T14:56:36Z</time>
      </trkpt>
      <trkpt lat="46.52375" lon="5.62242">
        <ele>501</ele>
        <time>2022-05-27T14:56:38Z</time>
      </trkpt>
      <trkpt lat="46.52378" lon="5.62205">
        <ele>499.6</ele>
        <time>2022-05-27T14:56:40Z</time>
      </trkpt>
      <trkpt lat="46.5238" lon="5.62168">
        <ele>498.4</ele>
        <time>2022-05-27T14:56:42Z</time>
      </trkpt>
      <trkpt lat="46.52381" lon="5.62151">
        <ele>497.8</ele>
        <time>2022-05-27T14:56:43Z</time>
      </trkpt>
      <trkpt lat="46.52383" lon="5.62118">
        <ele>497.2</ele>
        <time>2022-05-27T14:56:45Z</time>
      </trkpt>
      <trkpt lat="46.52386" lon="5.62071">
        <ele>497.2</ele>
        <time>2022-05-27T14:56:48Z</time>
      </trkpt>
      <trkpt lat="46.52392" lon="5.61985">
        <ele>497.2</ele>
        <time>2022-05-27T14:56:54Z</time>
      </trkpt>
      <trkpt lat="46.52396" lon="5.61911">
        <ele>498</ele>
        <time>2022-05-27T14:57:00Z</time>
      </trkpt>
      <trkpt lat="46.52397" lon="5.6187">
        <ele>498.8</ele>
        <time>2022-05-27T14:57:04Z</time>
      </trkpt>
      <trkpt lat="46.52396" lon="5.61861">
        <ele>499</ele>
        <time>2022-05-27T14:57:05Z</time>
      </trkpt>
      <trkpt lat="46.52394" lon="5.61843">
        <ele>499.8</ele>
        <time>2022-05-27T14:57:07Z</time>
      </trkpt>
      <trkpt lat="46.52391" lon="5.61818">
        <ele>500.8</ele>
        <time>2022-05-27T14:57:10Z</time>
      </trkpt>
      <trkpt lat="46.52388" lon="5.61804">
        <ele>501.6</ele>
        <time>2022-05-27T14:57:12Z</time>
      </trkpt>
      <trkpt lat="46.52386" lon="5.61797">
        <ele>502</ele>
        <time>2022-05-27T14:57:13Z</time>
      </trkpt>
      <trkpt lat="46.52385" lon="5.61791">
        <ele>502.2</ele>
        <time>2022-05-27T14:57:14Z</time>
      </trkpt>
      <trkpt lat="46.52383" lon="5.61773">
        <ele>503.2</ele>
        <time>2022-05-27T14:57:17Z</time>
      </trkpt>
      <trkpt lat="46.52382" lon="5.61767">
        <ele>503.8</ele>
        <time>2022-05-27T14:57:18Z</time>
      </trkpt>
      <trkpt lat="46.52381" lon="5.61754">
        <ele>504.4</ele>
        <time>2022-05-27T14:57:20Z</time>
      </trkpt>
      <trkpt lat="46.52379" lon="5.61735">
        <ele>506.2</ele>
        <time>2022-05-27T14:57:23Z</time>
      </trkpt>
      <trkpt lat="46.52379" lon="5.61729">
        <ele>506.4</ele>
        <time>2022-05-27T14:57:24Z</time>
      </trkpt>
      <trkpt lat="46.52376" lon="5.61704">
        <ele>507.4</ele>
        <time>2022-05-27T14:57:28Z</time>
      </trkpt>
      <trkpt lat="46.52374" lon="5.61692">
        <ele>508</ele>
        <time>2022-05-27T14:57:30Z</time>
      </trkpt>
      <trkpt lat="46.52371" lon="5.61678">
        <ele>508.4</ele>
        <time>2022-05-27T14:57:32Z</time>
      </trkpt>
      <trkpt lat="46.52367" lon="5.61661">
        <ele>509</ele>
        <time>2022-05-27T14:57:35Z</time>
      </trkpt>
      <trkpt lat="46.52365" lon="5.61656">
        <ele>509.6</ele>
        <time>2022-05-27T14:57:36Z</time>
      </trkpt>
      <trkpt lat="46.52355" lon="5.61639">
        <ele>510.8</ele>
        <time>2022-05-27T14:57:39Z</time>
      </trkpt>
      <trkpt lat="46.52348" lon="5.6163">
        <ele>511.4</ele>
        <time>2022-05-27T14:57:41Z</time>
      </trkpt>
      <trkpt lat="46.52339" lon="5.61623">
        <ele>512.2</ele>
        <time>2022-05-27T14:57:43Z</time>
      </trkpt>
      <trkpt lat="46.5232" lon="5.61607">
        <ele>512.6</ele>
        <time>2022-05-27T14:57:47Z</time>
      </trkpt>
      <trkpt lat="46.52293" lon="5.61584">
        <ele>513.2</ele>
        <time>2022-05-27T14:57:52Z</time>
      </trkpt>
      <trkpt lat="46.52286" lon="5.61577">
        <ele>513.2</ele>
        <time>2022-05-27T14:57:53Z</time>
      </trkpt>
      <trkpt lat="46.5228" lon="5.61571">
        <ele>513.2</ele>
        <time>2022-05-27T14:57:54Z</time>
      </trkpt>
      <trkpt lat="46.52263" lon="5.61553">
        <ele>513.4</ele>
        <time>2022-05-27T14:57:57Z</time>
      </trkpt>
      <trkpt lat="46.52232" lon="5.61522">
        <ele>513.2</ele>
        <time>2022-05-27T14:58:03Z</time>
      </trkpt>
      <trkpt lat="46.52222" lon="5.61511">
        <ele>513</ele>
        <time>2022-05-27T14:58:05Z</time>
      </trkpt>
      <trkpt lat="46.522" lon="5.61486">
        <ele>513.2</ele>
        <time>2022-05-27T14:58:10Z</time>
      </trkpt>
      <trkpt lat="46.52179" lon="5.61465">
        <ele>513.6</ele>
        <time>2022-05-27T14:58:14Z</time>
      </trkpt>
      <trkpt lat="46.52175" lon="5.6146">
        <ele>513.6</ele>
        <time>2022-05-27T14:58:15Z</time>
      </trkpt>
      <trkpt lat="46.52143" lon="5.61423">
        <ele>514</ele>
        <time>2022-05-27T14:58:22Z</time>
      </trkpt>
      <trkpt lat="46.52132" lon="5.61408">
        <ele>514</ele>
        <time>2022-05-27T14:58:24Z</time>
      </trkpt>
      <trkpt lat="46.52124" lon="5.6139">
        <ele>514.2</ele>
        <time>2022-05-27T14:58:26Z</time>
      </trkpt>
      <trkpt lat="46.52112" lon="5.61335">
        <ele>514.8</ele>
        <time>2022-05-27T14:58:32Z</time>
      </trkpt>
      <trkpt lat="46.52106" lon="5.613">
        <ele>515.2</ele>
        <time>2022-05-27T14:58:36Z</time>
      </trkpt>
      <trkpt lat="46.52106" lon="5.61291">
        <ele>515.4</ele>
        <time>2022-05-27T14:58:37Z</time>
      </trkpt>
      <trkpt lat="46.52105" lon="5.61284">
        <ele>515.6</ele>
        <time>2022-05-27T14:58:38Z</time>
      </trkpt>
      <trkpt lat="46.52107" lon="5.61258">
        <ele>516.4</ele>
        <time>2022-05-27T14:58:41Z</time>
      </trkpt>
      <trkpt lat="46.52108" lon="5.61224">
        <ele>517</ele>
        <time>2022-05-27T14:58:45Z</time>
      </trkpt>
      <trkpt lat="46.52106" lon="5.61199">
        <ele>517.6</ele>
        <time>2022-05-27T14:58:48Z</time>
      </trkpt>
      <trkpt lat="46.52104" lon="5.61173">
        <ele>517.8</ele>
        <time>2022-05-27T14:58:51Z</time>
      </trkpt>
      <trkpt lat="46.52101" lon="5.61156">
        <ele>518.2</ele>
        <time>2022-05-27T14:58:53Z</time>
      </trkpt>
      <trkpt lat="46.52101" lon="5.61141">
        <ele>518.4</ele>
        <time>2022-05-27T14:58:55Z</time>
      </trkpt>
      <trkpt lat="46.52102" lon="5.61133">
        <ele>518.6</ele>
        <time>2022-05-27T14:58:56Z</time>
      </trkpt>
      <trkpt lat="46.52102" lon="5.61126">
        <ele>518.6</ele>
        <time>2022-05-27T14:58:57Z</time>
      </trkpt>
      <trkpt lat="46.52104" lon="5.61109">
        <ele>518.8</ele>
        <time>2022-05-27T14:58:59Z</time>
      </trkpt>
      <trkpt lat="46.52107" lon="5.61086">
        <ele>519</ele>
        <time>2022-05-27T14:59:02Z</time>
      </trkpt>
      <trkpt lat="46.52108" lon="5.61076">
        <ele>519.2</ele>
        <time>2022-05-27T14:59:03Z</time>
      </trkpt>
      <trkpt lat="46.52105" lon="5.61049">
        <ele>519.6</ele>
        <time>2022-05-27T14:59:06Z</time>
      </trkpt>
      <trkpt lat="46.52105" lon="5.6104">
        <ele>519.8</ele>
        <time>2022-05-27T14:59:07Z</time>
      </trkpt>
      <trkpt lat="46.52109" lon="5.61023">
        <ele>519.8</ele>
        <time>2022-05-27T14:59:09Z</time>
      </trkpt>
      <trkpt lat="46.52123" lon="5.61006">
        <ele>519.8</ele>
        <time>2022-05-27T14:59:12Z</time>
      </trkpt>
      <trkpt lat="46.52136" lon="5.60985">
        <ele>519.8</ele>
        <time>2022-05-27T14:59:15Z</time>
      </trkpt>
      <trkpt lat="46.52138" lon="5.60977">
        <ele>519.8</ele>
        <time>2022-05-27T14:59:16Z</time>
      </trkpt>
      <trkpt lat="46.52143" lon="5.60954">
        <ele>520</ele>
        <time>2022-05-27T14:59:19Z</time>
      </trkpt>
      <trkpt lat="46.52146" lon="5.6093">
        <ele>520.4</ele>
        <time>2022-05-27T14:59:22Z</time>
      </trkpt>
      <trkpt lat="46.52147" lon="5.60914">
        <ele>520.8</ele>
        <time>2022-05-27T14:59:24Z</time>
      </trkpt>
      <trkpt lat="46.5215" lon="5.60882">
        <ele>522</ele>
        <time>2022-05-27T14:59:28Z</time>
      </trkpt>
      <trkpt lat="46.52152" lon="5.60866">
        <ele>522.6</ele>
        <time>2022-05-27T14:59:30Z</time>
      </trkpt>
      <trkpt lat="46.52154" lon="5.60851">
        <ele>523</ele>
        <time>2022-05-27T14:59:32Z</time>
      </trkpt>
      <trkpt lat="46.52162" lon="5.60822">
        <ele>523.2</ele>
        <time>2022-05-27T14:59:36Z</time>
      </trkpt>
      <trkpt lat="46.52163" lon="5.60815">
        <ele>523.4</ele>
        <time>2022-05-27T14:59:37Z</time>
      </trkpt>
      <trkpt lat="46.52164" lon="5.60793">
        <ele>524.4</ele>
        <time>2022-05-27T14:59:40Z</time>
      </trkpt>
      <trkpt lat="46.52164" lon="5.60786">
        <ele>524.6</ele>
        <time>2022-05-27T14:59:41Z</time>
      </trkpt>
      <trkpt lat="46.52163" lon="5.60772">
        <ele>524.6</ele>
        <time>2022-05-27T14:59:43Z</time>
      </trkpt>
      <trkpt lat="46.52163" lon="5.60756">
        <ele>524.8</ele>
        <time>2022-05-27T14:59:45Z</time>
      </trkpt>
      <trkpt lat="46.52163" lon="5.60748">
        <ele>524.6</ele>
        <time>2022-05-27T14:59:46Z</time>
      </trkpt>
      <trkpt lat="46.52165" lon="5.60739">
        <ele>524.6</ele>
        <time>2022-05-27T14:59:47Z</time>
      </trkpt>
      <trkpt lat="46.52176" lon="5.60725">
        <ele>524.4</ele>
        <time>2022-05-27T14:59:49Z</time>
      </trkpt>
      <trkpt lat="46.52193" lon="5.60719">
        <ele>524.2</ele>
        <time>2022-05-27T14:59:51Z</time>
      </trkpt>
      <trkpt lat="46.52201" lon="5.60718">
        <ele>524</ele>
        <time>2022-05-27T14:59:52Z</time>
      </trkpt>
      <trkpt lat="46.5221" lon="5.60717">
        <ele>523</ele>
        <time>2022-05-27T14:59:53Z</time>
      </trkpt>
      <trkpt lat="46.52227" lon="5.60713">
        <ele>521.4</ele>
        <time>2022-05-27T14:59:55Z</time>
      </trkpt>
      <trkpt lat="46.52235" lon="5.60709">
        <ele>521</ele>
        <time>2022-05-27T14:59:56Z</time>
      </trkpt>
      <trkpt lat="46.52242" lon="5.60704">
        <ele>520.8</ele>
        <time>2022-05-27T14:59:57Z</time>
      </trkpt>
      <trkpt lat="46.52249" lon="5.60698">
        <ele>520.4</ele>
        <time>2022-05-27T14:59:58Z</time>
      </trkpt>
      <trkpt lat="46.5226" lon="5.6068">
        <ele>519.8</ele>
        <time>2022-05-27T15:00:00Z</time>
      </trkpt>
      <trkpt lat="46.52266" lon="5.60658">
        <ele>518.8</ele>
        <time>2022-05-27T15:00:02Z</time>
      </trkpt>
      <trkpt lat="46.52268" lon="5.60645">
        <ele>518.4</ele>
        <time>2022-05-27T15:00:03Z</time>
      </trkpt>
      <trkpt lat="46.52271" lon="5.60606">
        <ele>517.8</ele>
        <time>2022-05-27T15:00:06Z</time>
      </trkpt>
      <trkpt lat="46.52275" lon="5.60555">
        <ele>516.8</ele>
        <time>2022-05-27T15:00:10Z</time>
      </trkpt>
      <trkpt lat="46.52276" lon="5.60542">
        <ele>516.6</ele>
        <time>2022-05-27T15:00:11Z</time>
      </trkpt>
      <trkpt lat="46.52281" lon="5.6048">
        <ele>515.4</ele>
        <time>2022-05-27T15:00:16Z</time>
      </trkpt>
      <trkpt lat="46.52281" lon="5.60468">
        <ele>515</ele>
        <time>2022-05-27T15:00:17Z</time>
      </trkpt>
      <trkpt lat="46.52286" lon="5.60409">
        <ele>514.2</ele>
        <time>2022-05-27T15:00:22Z</time>
      </trkpt>
      <trkpt lat="46.52288" lon="5.60376">
        <ele>514.2</ele>
        <time>2022-05-27T15:00:25Z</time>
      </trkpt>
      <trkpt lat="46.52295" lon="5.60287">
        <ele>514.6</ele>
        <time>2022-05-27T15:00:33Z</time>
      </trkpt>
      <trkpt lat="46.52302" lon="5.60201">
        <ele>515</ele>
        <time>2022-05-27T15:00:41Z</time>
      </trkpt>
      <trkpt lat="46.52303" lon="5.6019">
        <ele>514.8</ele>
        <time>2022-05-27T15:00:42Z</time>
      </trkpt>
      <trkpt lat="46.52308" lon="5.60134">
        <ele>513.2</ele>
        <time>2022-05-27T15:00:47Z</time>
      </trkpt>
      <trkpt lat="46.52312" lon="5.6009">
        <ele>513</ele>
        <time>2022-05-27T15:00:51Z</time>
      </trkpt>
      <trkpt lat="46.52318" lon="5.60011">
        <ele>513</ele>
        <time>2022-05-27T15:00:59Z</time>
      </trkpt>
      <trkpt lat="46.52322" lon="5.59961">
        <ele>512.4</ele>
        <time>2022-05-27T15:01:03Z</time>
      </trkpt>
      <trkpt lat="46.52324" lon="5.59937">
        <ele>512.2</ele>
        <time>2022-05-27T15:01:05Z</time>
      </trkpt>
      <trkpt lat="46.52331" lon="5.59858">
        <ele>511.4</ele>
        <time>2022-05-27T15:01:12Z</time>
      </trkpt>
      <trkpt lat="46.52332" lon="5.59846">
        <ele>511.4</ele>
        <time>2022-05-27T15:01:13Z</time>
      </trkpt>
      <trkpt lat="46.52337" lon="5.59763">
        <ele>510.4</ele>
        <time>2022-05-27T15:01:20Z</time>
      </trkpt>
      <trkpt lat="46.52338" lon="5.59751">
        <ele>510.4</ele>
        <time>2022-05-27T15:01:21Z</time>
      </trkpt>
      <trkpt lat="46.52339" lon="5.59739">
        <ele>510.2</ele>
        <time>2022-05-27T15:01:22Z</time>
      </trkpt>
      <trkpt lat="46.52345" lon="5.5966">
        <ele>510.2</ele>
        <time>2022-05-27T15:01:29Z</time>
      </trkpt>
      <trkpt lat="46.52345" lon="5.59649">
        <ele>510</ele>
        <time>2022-05-27T15:01:30Z</time>
      </trkpt>
      <trkpt lat="46.52352" lon="5.59569">
        <ele>509.6</ele>
        <time>2022-05-27T15:01:37Z</time>
      </trkpt>
      <trkpt lat="46.52354" lon="5.59545">
        <ele>509.2</ele>
        <time>2022-05-27T15:01:39Z</time>
      </trkpt>
      <trkpt lat="46.52354" lon="5.59533">
        <ele>509.2</ele>
        <time>2022-05-27T15:01:40Z</time>
      </trkpt>
      <trkpt lat="46.52361" lon="5.59445">
        <ele>508.2</ele>
        <time>2022-05-27T15:01:47Z</time>
      </trkpt>
      <trkpt lat="46.52362" lon="5.59432">
        <ele>507.6</ele>
        <time>2022-05-27T15:01:48Z</time>
      </trkpt>
      <trkpt lat="46.52367" lon="5.59364">
        <ele>506.2</ele>
        <time>2022-05-27T15:01:53Z</time>
      </trkpt>
      <trkpt lat="46.5237" lon="5.5934">
        <ele>505.8</ele>
        <time>2022-05-27T15:01:55Z</time>
      </trkpt>
      <trkpt lat="46.52372" lon="5.5931">
        <ele>505.2</ele>
        <time>2022-05-27T15:01:57Z</time>
      </trkpt>
      <trkpt lat="46.52375" lon="5.59273">
        <ele>503.8</ele>
        <time>2022-05-27T15:02:00Z</time>
      </trkpt>
      <trkpt lat="46.52376" lon="5.5926">
        <ele>503.4</ele>
        <time>2022-05-27T15:02:01Z</time>
      </trkpt>
      <trkpt lat="46.52378" lon="5.59221">
        <ele>502.6</ele>
        <time>2022-05-27T15:02:04Z</time>
      </trkpt>
      <trkpt lat="46.52384" lon="5.59145">
        <ele>501.6</ele>
        <time>2022-05-27T15:02:10Z</time>
      </trkpt>
      <trkpt lat="46.52391" lon="5.59056">
        <ele>501.2</ele>
        <time>2022-05-27T15:02:17Z</time>
      </trkpt>
      <trkpt lat="46.52393" lon="5.59031">
        <ele>501</ele>
        <time>2022-05-27T15:02:19Z</time>
      </trkpt>
      <trkpt lat="46.52399" lon="5.58953">
        <ele>500.4</ele>
        <time>2022-05-27T15:02:25Z</time>
      </trkpt>
      <trkpt lat="46.52404" lon="5.58878">
        <ele>499.6</ele>
        <time>2022-05-27T15:02:31Z</time>
      </trkpt>
      <trkpt lat="46.52408" lon="5.5883">
        <ele>499.2</ele>
        <time>2022-05-27T15:02:35Z</time>
      </trkpt>
      <trkpt lat="46.52412" lon="5.58773">
        <ele>498.8</ele>
        <time>2022-05-27T15:02:40Z</time>
      </trkpt>
      <trkpt lat="46.52418" lon="5.5869">
        <ele>498.6</ele>
        <time>2022-05-27T15:02:47Z</time>
      </trkpt>
      <trkpt lat="46.5242" lon="5.58657">
        <ele>498.6</ele>
        <time>2022-05-27T15:02:50Z</time>
      </trkpt>
      <trkpt lat="46.52426" lon="5.58578">
        <ele>498.8</ele>
        <time>2022-05-27T15:02:57Z</time>
      </trkpt>
      <trkpt lat="46.52432" lon="5.58501">
        <ele>499.2</ele>
        <time>2022-05-27T15:03:04Z</time>
      </trkpt>
      <trkpt lat="46.52434" lon="5.58478">
        <ele>499.2</ele>
        <time>2022-05-27T15:03:06Z</time>
      </trkpt>
      <trkpt lat="46.52441" lon="5.58395">
        <ele>499.2</ele>
        <time>2022-05-27T15:03:14Z</time>
      </trkpt>
      <trkpt lat="46.52447" lon="5.58311">
        <ele>499.2</ele>
        <time>2022-05-27T15:03:22Z</time>
      </trkpt>
      <trkpt lat="46.5245" lon="5.58278">
        <ele>499</ele>
        <time>2022-05-27T15:03:25Z</time>
      </trkpt>
      <trkpt lat="46.52456" lon="5.58194">
        <ele>498.6</ele>
        <time>2022-05-27T15:03:33Z</time>
      </trkpt>
      <trkpt lat="46.52456" lon="5.58185">
        <ele>498.6</ele>
        <time>2022-05-27T15:03:34Z</time>
      </trkpt>
      <trkpt lat="46.5246" lon="5.58132">
        <ele>498.2</ele>
        <time>2022-05-27T15:03:39Z</time>
      </trkpt>
      <trkpt lat="46.52467" lon="5.58047">
        <ele>498</ele>
        <time>2022-05-27T15:03:47Z</time>
      </trkpt>
      <trkpt lat="46.52469" lon="5.58015">
        <ele>497.8</ele>
        <time>2022-05-27T15:03:50Z</time>
      </trkpt>
      <trkpt lat="46.52471" lon="5.57984">
        <ele>497.6</ele>
        <time>2022-05-27T15:03:53Z</time>
      </trkpt>
      <trkpt lat="46.52476" lon="5.57921">
        <ele>497.4</ele>
        <time>2022-05-27T15:03:59Z</time>
      </trkpt>
      <trkpt lat="46.52482" lon="5.5784">
        <ele>497.4</ele>
        <time>2022-05-27T15:04:07Z</time>
      </trkpt>
      <trkpt lat="46.52484" lon="5.5782">
        <ele>497.6</ele>
        <time>2022-05-27T15:04:09Z</time>
      </trkpt>
      <trkpt lat="46.5249" lon="5.57736">
        <ele>498</ele>
        <time>2022-05-27T15:04:17Z</time>
      </trkpt>
      <trkpt lat="46.52492" lon="5.57705">
        <ele>498</ele>
        <time>2022-05-27T15:04:20Z</time>
      </trkpt>
      <trkpt lat="46.52498" lon="5.57624">
        <ele>498</ele>
        <time>2022-05-27T15:04:28Z</time>
      </trkpt>
      <trkpt lat="46.52501" lon="5.57594">
        <ele>498</ele>
        <time>2022-05-27T15:04:31Z</time>
      </trkpt>
      <trkpt lat="46.52507" lon="5.57513">
        <ele>498.2</ele>
        <time>2022-05-27T15:04:39Z</time>
      </trkpt>
      <trkpt lat="46.52508" lon="5.57494">
        <ele>498.2</ele>
        <time>2022-05-27T15:04:41Z</time>
      </trkpt>
      <trkpt lat="46.52514" lon="5.57408">
        <ele>498.4</ele>
        <time>2022-05-27T15:04:49Z</time>
      </trkpt>
      <trkpt lat="46.52517" lon="5.57373">
        <ele>498.2</ele>
        <time>2022-05-27T15:04:52Z</time>
      </trkpt>
      <trkpt lat="46.52519" lon="5.57351">
        <ele>498.2</ele>
        <time>2022-05-27T15:04:54Z</time>
      </trkpt>
      <trkpt lat="46.52525" lon="5.57264">
        <ele>498.2</ele>
        <time>2022-05-27T15:05:02Z</time>
      </trkpt>
      <trkpt lat="46.52527" lon="5.57232">
        <ele>498.2</ele>
        <time>2022-05-27T15:05:05Z</time>
      </trkpt>
      <trkpt lat="46.5253" lon="5.57212">
        <ele>498.2</ele>
        <time>2022-05-27T15:05:07Z</time>
      </trkpt>
      <trkpt lat="46.52536" lon="5.57133">
        <ele>498.8</ele>
        <time>2022-05-27T15:05:14Z</time>
      </trkpt>
      <trkpt lat="46.52536" lon="5.57122">
        <ele>499</ele>
        <time>2022-05-27T15:05:15Z</time>
      </trkpt>
      <trkpt lat="46.52543" lon="5.57036">
        <ele>499</ele>
        <time>2022-05-27T15:05:23Z</time>
      </trkpt>
      <trkpt lat="46.52545" lon="5.57015">
        <ele>498.8</ele>
        <time>2022-05-27T15:05:25Z</time>
      </trkpt>
      <trkpt lat="46.52552" lon="5.56928">
        <ele>498.2</ele>
        <time>2022-05-27T15:05:33Z</time>
      </trkpt>
      <trkpt lat="46.52555" lon="5.56886">
        <ele>497.8</ele>
        <time>2022-05-27T15:05:37Z</time>
      </trkpt>
      <trkpt lat="46.52557" lon="5.56855">
        <ele>497.6</ele>
        <time>2022-05-27T15:05:40Z</time>
      </trkpt>
      <trkpt lat="46.52562" lon="5.56793">
        <ele>497.8</ele>
        <time>2022-05-27T15:05:46Z</time>
      </trkpt>
      <trkpt lat="46.52568" lon="5.56723">
        <ele>498</ele>
        <time>2022-05-27T15:05:53Z</time>
      </trkpt>
      <trkpt lat="46.52573" lon="5.56644">
        <ele>498.2</ele>
        <time>2022-05-27T15:06:01Z</time>
      </trkpt>
      <trkpt lat="46.52574" lon="5.56634">
        <ele>498.2</ele>
        <time>2022-05-27T15:06:02Z</time>
      </trkpt>
      <trkpt lat="46.52581" lon="5.56547">
        <ele>499</ele>
        <time>2022-05-27T15:06:11Z</time>
      </trkpt>
      <trkpt lat="46.52585" lon="5.56481">
        <ele>500</ele>
        <time>2022-05-27T15:06:18Z</time>
      </trkpt>
      <trkpt lat="46.52586" lon="5.56471">
        <ele>500</ele>
        <time>2022-05-27T15:06:19Z</time>
      </trkpt>
      <trkpt lat="46.52591" lon="5.56421">
        <ele>501.2</ele>
        <time>2022-05-27T15:06:24Z</time>
      </trkpt>
      <trkpt lat="46.52591" lon="5.56408">
        <ele>501.4</ele>
        <time>2022-05-27T15:06:25Z</time>
      </trkpt>
      <trkpt lat="46.52598" lon="5.56322">
        <ele>501.4</ele>
        <time>2022-05-27T15:06:33Z</time>
      </trkpt>
      <trkpt lat="46.52599" lon="5.56299">
        <ele>501.2</ele>
        <time>2022-05-27T15:06:35Z</time>
      </trkpt>
      <trkpt lat="46.52605" lon="5.56227">
        <ele>499.8</ele>
        <time>2022-05-27T15:06:41Z</time>
      </trkpt>
      <trkpt lat="46.52605" lon="5.56215">
        <ele>499.4</ele>
        <time>2022-05-27T15:06:42Z</time>
      </trkpt>
      <trkpt lat="46.52606" lon="5.56202">
        <ele>498.8</ele>
        <time>2022-05-27T15:06:43Z</time>
      </trkpt>
      <trkpt lat="46.52611" lon="5.56142">
        <ele>497.6</ele>
        <time>2022-05-27T15:06:48Z</time>
      </trkpt>
      <trkpt lat="46.52614" lon="5.56109">
        <ele>497</ele>
        <time>2022-05-27T15:06:51Z</time>
      </trkpt>
      <trkpt lat="46.52617" lon="5.56071">
        <ele>496.4</ele>
        <time>2022-05-27T15:06:54Z</time>
      </trkpt>
      <trkpt lat="46.52622" lon="5.56027">
        <ele>496.2</ele>
        <time>2022-05-27T15:06:58Z</time>
      </trkpt>
      <trkpt lat="46.52627" lon="5.55952">
        <ele>496</ele>
        <time>2022-05-27T15:07:04Z</time>
      </trkpt>
      <trkpt lat="46.52634" lon="5.55873">
        <ele>495.6</ele>
        <time>2022-05-27T15:07:11Z</time>
      </trkpt>
      <trkpt lat="46.52635" lon="5.55859">
        <ele>495.6</ele>
        <time>2022-05-27T15:07:12Z</time>
      </trkpt>
      <trkpt lat="46.52642" lon="5.55771">
        <ele>496</ele>
        <time>2022-05-27T15:07:20Z</time>
      </trkpt>
      <trkpt lat="46.52644" lon="5.5575">
        <ele>496.2</ele>
        <time>2022-05-27T15:07:22Z</time>
      </trkpt>
      <trkpt lat="46.52651" lon="5.55662">
        <ele>496.6</ele>
        <time>2022-05-27T15:07:30Z</time>
      </trkpt>
      <trkpt lat="46.52653" lon="5.5564">
        <ele>496.6</ele>
        <time>2022-05-27T15:07:32Z</time>
      </trkpt>
      <trkpt lat="46.52659" lon="5.55551">
        <ele>496.6</ele>
        <time>2022-05-27T15:07:40Z</time>
      </trkpt>
      <trkpt lat="46.5266" lon="5.55541">
        <ele>496.6</ele>
        <time>2022-05-27T15:07:41Z</time>
      </trkpt>
      <trkpt lat="46.52666" lon="5.55455">
        <ele>496.8</ele>
        <time>2022-05-27T15:07:49Z</time>
      </trkpt>
      <trkpt lat="46.52667" lon="5.55445">
        <ele>496.8</ele>
        <time>2022-05-27T15:07:50Z</time>
      </trkpt>
      <trkpt lat="46.52674" lon="5.55364">
        <ele>497.2</ele>
        <time>2022-05-27T15:07:58Z</time>
      </trkpt>
      <trkpt lat="46.52676" lon="5.55345">
        <ele>497.8</ele>
        <time>2022-05-27T15:08:00Z</time>
      </trkpt>
      <trkpt lat="46.52681" lon="5.55279">
        <ele>498.4</ele>
        <time>2022-05-27T15:08:07Z</time>
      </trkpt>
      <trkpt lat="46.52683" lon="5.55243">
        <ele>499</ele>
        <time>2022-05-27T15:08:11Z</time>
      </trkpt>
      <trkpt lat="46.52687" lon="5.55186">
        <ele>499.4</ele>
        <time>2022-05-27T15:08:17Z</time>
      </trkpt>
      <trkpt lat="46.5269" lon="5.55147">
        <ele>500</ele>
        <time>2022-05-27T15:08:21Z</time>
      </trkpt>
      <trkpt lat="46.5269" lon="5.55129">
        <ele>500.2</ele>
        <time>2022-05-27T15:08:23Z</time>
      </trkpt>
      <trkpt lat="46.52691" lon="5.5512">
        <ele>500.2</ele>
        <time>2022-05-27T15:08:24Z</time>
      </trkpt>
      <trkpt lat="46.52697" lon="5.55053">
        <ele>500.4</ele>
        <time>2022-05-27T15:08:31Z</time>
      </trkpt>
      <trkpt lat="46.527" lon="5.55013">
        <ele>500.6</ele>
        <time>2022-05-27T15:08:35Z</time>
      </trkpt>
      <trkpt lat="46.52702" lon="5.54995">
        <ele>500.8</ele>
        <time>2022-05-27T15:08:37Z</time>
      </trkpt>
      <trkpt lat="46.52705" lon="5.54961">
        <ele>501.2</ele>
        <time>2022-05-27T15:08:41Z</time>
      </trkpt>
      <trkpt lat="46.52708" lon="5.54924">
        <ele>501.8</ele>
        <time>2022-05-27T15:08:46Z</time>
      </trkpt>
      <trkpt lat="46.52709" lon="5.5491">
        <ele>502.2</ele>
        <time>2022-05-27T15:08:48Z</time>
      </trkpt>
      <trkpt lat="46.52711" lon="5.54883">
        <ele>503.2</ele>
        <time>2022-05-27T15:08:52Z</time>
      </trkpt>
      <trkpt lat="46.52711" lon="5.54876">
        <ele>503.4</ele>
        <time>2022-05-27T15:08:53Z</time>
      </trkpt>
      <trkpt lat="46.52715" lon="5.54825">
        <ele>504.6</ele>
        <time>2022-05-27T15:09:00Z</time>
      </trkpt>
      <trkpt lat="46.52716" lon="5.54818">
        <ele>504.8</ele>
        <time>2022-05-27T15:09:01Z</time>
      </trkpt>
      <trkpt lat="46.52718" lon="5.54776">
        <ele>505.8</ele>
        <time>2022-05-27T15:09:07Z</time>
      </trkpt>
      <trkpt lat="46.5272" lon="5.54747">
        <ele>506.2</ele>
        <time>2022-05-27T15:09:11Z</time>
      </trkpt>
      <trkpt lat="46.52723" lon="5.54708">
        <ele>506.8</ele>
        <time>2022-05-27T15:09:16Z</time>
      </trkpt>
      <trkpt lat="46.52725" lon="5.54672">
        <ele>507.2</ele>
        <time>2022-05-27T15:09:21Z</time>
      </trkpt>
      <trkpt lat="46.52731" lon="5.54632">
        <ele>507.8</ele>
        <time>2022-05-27T15:09:27Z</time>
      </trkpt>
      <trkpt lat="46.52733" lon="5.54626">
        <ele>508</ele>
        <time>2022-05-27T15:09:28Z</time>
      </trkpt>
      <trkpt lat="46.52736" lon="5.54621">
        <ele>508.4</ele>
        <time>2022-05-27T15:09:29Z</time>
      </trkpt>
      <trkpt lat="46.52743" lon="5.54613">
        <ele>508.8</ele>
        <time>2022-05-27T15:09:31Z</time>
      </trkpt>
      <trkpt lat="46.52747" lon="5.5461">
        <ele>509</ele>
        <time>2022-05-27T15:09:32Z</time>
      </trkpt>
      <trkpt lat="46.52751" lon="5.54609">
        <ele>509.4</ele>
        <time>2022-05-27T15:09:33Z</time>
      </trkpt>
      <trkpt lat="46.52769" lon="5.54608">
        <ele>510.2</ele>
        <time>2022-05-27T15:09:37Z</time>
      </trkpt>
      <trkpt lat="46.52782" lon="5.54608">
        <ele>511.2</ele>
        <time>2022-05-27T15:09:40Z</time>
      </trkpt>
      <trkpt lat="46.528" lon="5.54609">
        <ele>512.4</ele>
        <time>2022-05-27T15:09:44Z</time>
      </trkpt>
      <trkpt lat="46.52808" lon="5.54609">
        <ele>513</ele>
        <time>2022-05-27T15:09:46Z</time>
      </trkpt>
      <trkpt lat="46.52818" lon="5.5461">
        <ele>513.6</ele>
        <time>2022-05-27T15:09:48Z</time>
      </trkpt>
      <trkpt lat="46.52834" lon="5.54611">
        <ele>514.8</ele>
        <time>2022-05-27T15:09:52Z</time>
      </trkpt>
      <trkpt lat="46.52847" lon="5.54612">
        <ele>515.4</ele>
        <time>2022-05-27T15:09:55Z</time>
      </trkpt>
      <trkpt lat="46.52851" lon="5.54612">
        <ele>515.8</ele>
        <time>2022-05-27T15:09:56Z</time>
      </trkpt>
      <trkpt lat="46.52868" lon="5.54613">
        <ele>516.8</ele>
        <time>2022-05-27T15:10:00Z</time>
      </trkpt>
      <trkpt lat="46.52882" lon="5.54614">
        <ele>517.8</ele>
        <time>2022-05-27T15:10:03Z</time>
      </trkpt>
      <trkpt lat="46.52915" lon="5.54616">
        <ele>519</ele>
        <time>2022-05-27T15:10:10Z</time>
      </trkpt>
      <trkpt lat="46.52919" lon="5.54616">
        <ele>519</ele>
        <time>2022-05-27T15:10:11Z</time>
      </trkpt>
      <trkpt lat="46.52957" lon="5.5462">
        <ele>520</ele>
        <time>2022-05-27T15:10:19Z</time>
      </trkpt>
      <trkpt lat="46.52962" lon="5.5462">
        <ele>520</ele>
        <time>2022-05-27T15:10:20Z</time>
      </trkpt>
      <trkpt lat="46.52999" lon="5.54624">
        <ele>521</ele>
        <time>2022-05-27T15:10:28Z</time>
      </trkpt>
      <trkpt lat="46.53004" lon="5.54625">
        <ele>521</ele>
        <time>2022-05-27T15:10:29Z</time>
      </trkpt>
      <trkpt lat="46.53034" lon="5.5463">
        <ele>522</ele>
        <time>2022-05-27T15:10:35Z</time>
      </trkpt>
      <trkpt lat="46.53042" lon="5.5463">
        <ele>522.4</ele>
        <time>2022-05-27T15:10:37Z</time>
      </trkpt>
      <trkpt lat="46.53052" lon="5.54629">
        <ele>522.6</ele>
        <time>2022-05-27T15:10:39Z</time>
      </trkpt>
      <trkpt lat="46.53061" lon="5.5463">
        <ele>523</ele>
        <time>2022-05-27T15:10:41Z</time>
      </trkpt>
      <trkpt lat="46.53066" lon="5.5463">
        <ele>523</ele>
        <time>2022-05-27T15:10:42Z</time>
      </trkpt>
      <trkpt lat="46.5308" lon="5.5463">
        <ele>523.6</ele>
        <time>2022-05-27T15:10:45Z</time>
      </trkpt>
      <trkpt lat="46.53085" lon="5.5463">
        <ele>523.8</ele>
        <time>2022-05-27T15:10:46Z</time>
      </trkpt>
      <trkpt lat="46.5309" lon="5.54631">
        <ele>524</ele>
        <time>2022-05-27T15:10:47Z</time>
      </trkpt>
      <trkpt lat="46.53115" lon="5.54634">
        <ele>524.6</ele>
        <time>2022-05-27T15:10:52Z</time>
      </trkpt>
      <trkpt lat="46.53134" lon="5.54638">
        <ele>525.2</ele>
        <time>2022-05-27T15:10:56Z</time>
      </trkpt>
      <trkpt lat="46.53148" lon="5.54642">
        <ele>525.8</ele>
        <time>2022-05-27T15:10:59Z</time>
      </trkpt>
      <trkpt lat="46.53158" lon="5.54645">
        <ele>526.2</ele>
        <time>2022-05-27T15:11:01Z</time>
      </trkpt>
      <trkpt lat="46.53162" lon="5.54646">
        <ele>526.4</ele>
        <time>2022-05-27T15:11:02Z</time>
      </trkpt>
      <trkpt lat="46.5317" lon="5.54647">
        <ele>526.8</ele>
        <time>2022-05-27T15:11:04Z</time>
      </trkpt>
      <trkpt lat="46.53179" lon="5.54648">
        <ele>527.2</ele>
        <time>2022-05-27T15:11:06Z</time>
      </trkpt>
      <trkpt lat="46.53184" lon="5.54649">
        <ele>527.4</ele>
        <time>2022-05-27T15:11:07Z</time>
      </trkpt>
      <trkpt lat="46.53209" lon="5.54652">
        <ele>528.4</ele>
        <time>2022-05-27T15:11:13Z</time>
      </trkpt>
      <trkpt lat="46.53213" lon="5.54653">
        <ele>528.6</ele>
        <time>2022-05-27T15:11:14Z</time>
      </trkpt>
      <trkpt lat="46.53246" lon="5.54657">
        <ele>529.8</ele>
        <time>2022-05-27T15:11:21Z</time>
      </trkpt>
      <trkpt lat="46.5325" lon="5.54658">
        <ele>529.8</ele>
        <time>2022-05-27T15:11:22Z</time>
      </trkpt>
      <trkpt lat="46.53268" lon="5.54661">
        <ele>530.8</ele>
        <time>2022-05-27T15:11:26Z</time>
      </trkpt>
      <trkpt lat="46.5329" lon="5.54668">
        <ele>531.6</ele>
        <time>2022-05-27T15:11:31Z</time>
      </trkpt>
      <trkpt lat="46.53323" lon="5.54677">
        <ele>531.8</ele>
        <time>2022-05-27T15:11:38Z</time>
      </trkpt>
      <trkpt lat="46.5334" lon="5.54683">
        <ele>533.4</ele>
        <time>2022-05-27T15:11:42Z</time>
      </trkpt>
      <trkpt lat="46.53373" lon="5.54693">
        <ele>534.4</ele>
        <time>2022-05-27T15:11:49Z</time>
      </trkpt>
      <trkpt lat="46.53383" lon="5.54696">
        <ele>534.6</ele>
        <time>2022-05-27T15:11:51Z</time>
      </trkpt>
      <trkpt lat="46.53389" lon="5.54698">
        <ele>534.8</ele>
        <time>2022-05-27T15:11:52Z</time>
      </trkpt>
      <trkpt lat="46.53424" lon="5.5471">
        <ele>535.4</ele>
        <time>2022-05-27T15:11:59Z</time>
      </trkpt>
      <trkpt lat="46.53473" lon="5.54726">
        <ele>536.6</ele>
        <time>2022-05-27T15:12:09Z</time>
      </trkpt>
      <trkpt lat="46.53478" lon="5.54728">
        <ele>536.8</ele>
        <time>2022-05-27T15:12:10Z</time>
      </trkpt>
      <trkpt lat="46.5351" lon="5.54739">
        <ele>537.6</ele>
        <time>2022-05-27T15:12:17Z</time>
      </trkpt>
      <trkpt lat="46.53516" lon="5.54741">
        <ele>537.8</ele>
        <time>2022-05-27T15:12:18Z</time>
      </trkpt>
      <trkpt lat="46.53533" lon="5.54747">
        <ele>538.8</ele>
        <time>2022-05-27T15:12:22Z</time>
      </trkpt>
      <trkpt lat="46.53561" lon="5.54756">
        <ele>540</ele>
        <time>2022-05-27T15:12:28Z</time>
      </trkpt>
      <trkpt lat="46.53601" lon="5.54769">
        <ele>540.8</ele>
        <time>2022-05-27T15:12:37Z</time>
      </trkpt>
      <trkpt lat="46.53605" lon="5.54771">
        <ele>541</ele>
        <time>2022-05-27T15:12:38Z</time>
      </trkpt>
      <trkpt lat="46.53633" lon="5.54779">
        <ele>542.2</ele>
        <time>2022-05-27T15:12:44Z</time>
      </trkpt>
      <trkpt lat="46.53651" lon="5.54785">
        <ele>542.8</ele>
        <time>2022-05-27T15:12:48Z</time>
      </trkpt>
      <trkpt lat="46.53668" lon="5.54791">
        <ele>543.2</ele>
        <time>2022-05-27T15:12:52Z</time>
      </trkpt>
      <trkpt lat="46.53699" lon="5.54802">
        <ele>543.8</ele>
        <time>2022-05-27T15:12:59Z</time>
      </trkpt>
      <trkpt lat="46.53712" lon="5.54807">
        <ele>544.4</ele>
        <time>2022-05-27T15:13:02Z</time>
      </trkpt>
      <trkpt lat="46.53739" lon="5.54818">
        <ele>545.6</ele>
        <time>2022-05-27T15:13:08Z</time>
      </trkpt>
      <trkpt lat="46.53749" lon="5.5482">
        <ele>545.8</ele>
        <time>2022-05-27T15:13:10Z</time>
      </trkpt>
      <trkpt lat="46.53773" lon="5.54823">
        <ele>546.6</ele>
        <time>2022-05-27T15:13:15Z</time>
      </trkpt>
      <trkpt lat="46.53788" lon="5.54823">
        <ele>547</ele>
        <time>2022-05-27T15:13:18Z</time>
      </trkpt>
      <trkpt lat="46.53828" lon="5.54815">
        <ele>547.8</ele>
        <time>2022-05-27T15:13:26Z</time>
      </trkpt>
      <trkpt lat="46.53833" lon="5.54813">
        <ele>548</ele>
        <time>2022-05-27T15:13:27Z</time>
      </trkpt>
      <trkpt lat="46.53863" lon="5.54806">
        <ele>549</ele>
        <time>2022-05-27T15:13:33Z</time>
      </trkpt>
      <trkpt lat="46.53889" lon="5.548">
        <ele>549.6</ele>
        <time>2022-05-27T15:13:38Z</time>
      </trkpt>
      <trkpt lat="46.53914" lon="5.5479">
        <ele>550</ele>
        <time>2022-05-27T15:13:43Z</time>
      </trkpt>
      <trkpt lat="46.53925" lon="5.54783">
        <ele>550.2</ele>
        <time>2022-05-27T15:13:45Z</time>
      </trkpt>
      <trkpt lat="46.53943" lon="5.54769">
        <ele>550.6</ele>
        <time>2022-05-27T15:13:49Z</time>
      </trkpt>
      <trkpt lat="46.53959" lon="5.54753">
        <ele>550.8</ele>
        <time>2022-05-27T15:13:53Z</time>
      </trkpt>
      <trkpt lat="46.53976" lon="5.54734">
        <ele>551</ele>
        <time>2022-05-27T15:13:57Z</time>
      </trkpt>
      <trkpt lat="46.53989" lon="5.54714">
        <ele>551.2</ele>
        <time>2022-05-27T15:14:00Z</time>
      </trkpt>
      <trkpt lat="46.53991" lon="5.54709">
        <ele>551.2</ele>
        <time>2022-05-27T15:14:01Z</time>
      </trkpt>
      <trkpt lat="46.54002" lon="5.54683">
        <ele>551</ele>
        <time>2022-05-27T15:14:04Z</time>
      </trkpt>
      <trkpt lat="46.54018" lon="5.54633">
        <ele>550</ele>
        <time>2022-05-27T15:14:09Z</time>
      </trkpt>
      <trkpt lat="46.54032" lon="5.54575">
        <ele>549.4</ele>
        <time>2022-05-27T15:14:14Z</time>
      </trkpt>
      <trkpt lat="46.54042" lon="5.5454">
        <ele>548.8</ele>
        <time>2022-05-27T15:14:17Z</time>
      </trkpt>
      <trkpt lat="46.54048" lon="5.54517">
        <ele>548.4</ele>
        <time>2022-05-27T15:14:19Z</time>
      </trkpt>
      <trkpt lat="46.54064" lon="5.54458">
        <ele>547.8</ele>
        <time>2022-05-27T15:14:24Z</time>
      </trkpt>
      <trkpt lat="46.54069" lon="5.54434">
        <ele>547.4</ele>
        <time>2022-05-27T15:14:26Z</time>
      </trkpt>
      <trkpt lat="46.54091" lon="5.54348">
        <ele>546.8</ele>
        <time>2022-05-27T15:14:33Z</time>
      </trkpt>
      <trkpt lat="46.54095" lon="5.54335">
        <ele>546.6</ele>
        <time>2022-05-27T15:14:34Z</time>
      </trkpt>
      <trkpt lat="46.5411" lon="5.54283">
        <ele>545.4</ele>
        <time>2022-05-27T15:14:38Z</time>
      </trkpt>
      <trkpt lat="46.54114" lon="5.54269">
        <ele>544.8</ele>
        <time>2022-05-27T15:14:39Z</time>
      </trkpt>
      <trkpt lat="46.54121" lon="5.54241">
        <ele>543.6</ele>
        <time>2022-05-27T15:14:41Z</time>
      </trkpt>
      <trkpt lat="46.54134" lon="5.54199">
        <ele>542.4</ele>
        <time>2022-05-27T15:14:44Z</time>
      </trkpt>
      <trkpt lat="46.54142" lon="5.54171">
        <ele>540.8</ele>
        <time>2022-05-27T15:14:46Z</time>
      </trkpt>
      <trkpt lat="46.5415" lon="5.54142">
        <ele>539.8</ele>
        <time>2022-05-27T15:14:48Z</time>
      </trkpt>
      <trkpt lat="46.54157" lon="5.54113">
        <ele>538.8</ele>
        <time>2022-05-27T15:14:50Z</time>
      </trkpt>
      <trkpt lat="46.54161" lon="5.54099">
        <ele>538.6</ele>
        <time>2022-05-27T15:14:51Z</time>
      </trkpt>
      <trkpt lat="46.54172" lon="5.54057">
        <ele>537.4</ele>
        <time>2022-05-27T15:14:54Z</time>
      </trkpt>
      <trkpt lat="46.54183" lon="5.54017">
        <ele>535.6</ele>
        <time>2022-05-27T15:14:57Z</time>
      </trkpt>
      <trkpt lat="46.54188" lon="5.54001">
        <ele>535.4</ele>
        <time>2022-05-27T15:14:58Z</time>
      </trkpt>
      <trkpt lat="46.542" lon="5.53948">
        <ele>534.4</ele>
        <time>2022-05-27T15:15:02Z</time>
      </trkpt>
      <trkpt lat="46.54203" lon="5.53923">
        <ele>534.2</ele>
        <time>2022-05-27T15:15:04Z</time>
      </trkpt>
      <trkpt lat="46.54205" lon="5.53845">
        <ele>534.6</ele>
        <time>2022-05-27T15:15:10Z</time>
      </trkpt>
      <trkpt lat="46.54207" lon="5.53768">
        <ele>534.4</ele>
        <time>2022-05-27T15:15:16Z</time>
      </trkpt>
      <trkpt lat="46.54213" lon="5.53685">
        <ele>534</ele>
        <time>2022-05-27T15:15:22Z</time>
      </trkpt>
      <trkpt lat="46.54219" lon="5.5366">
        <ele>533.8</ele>
        <time>2022-05-27T15:15:24Z</time>
      </trkpt>
      <trkpt lat="46.54229" lon="5.53638">
        <ele>533.6</ele>
        <time>2022-05-27T15:15:26Z</time>
      </trkpt>
      <trkpt lat="46.54246" lon="5.53604">
        <ele>533.2</ele>
        <time>2022-05-27T15:15:29Z</time>
      </trkpt>
      <trkpt lat="46.5427" lon="5.53552">
        <ele>532.2</ele>
        <time>2022-05-27T15:15:34Z</time>
      </trkpt>
      <trkpt lat="46.54274" lon="5.53541">
        <ele>532</ele>
        <time>2022-05-27T15:15:35Z</time>
      </trkpt>
      <trkpt lat="46.54292" lon="5.53484">
        <ele>531.2</ele>
        <time>2022-05-27T15:15:40Z</time>
      </trkpt>
      <trkpt lat="46.54296" lon="5.53474">
        <ele>531</ele>
        <time>2022-05-27T15:15:41Z</time>
      </trkpt>
      <trkpt lat="46.54307" lon="5.53456">
        <ele>530.8</ele>
        <time>2022-05-27T15:15:43Z</time>
      </trkpt>
      <trkpt lat="46.54314" lon="5.53447">
        <ele>530.8</ele>
        <time>2022-05-27T15:15:44Z</time>
      </trkpt>
      <trkpt lat="46.5434" lon="5.53414">
        <ele>530.6</ele>
        <time>2022-05-27T15:15:48Z</time>
      </trkpt>
      <trkpt lat="46.54351" lon="5.53393">
        <ele>530</ele>
        <time>2022-05-27T15:15:50Z</time>
      </trkpt>
      <trkpt lat="46.54357" lon="5.53369">
        <ele>529.2</ele>
        <time>2022-05-27T15:15:52Z</time>
      </trkpt>
      <trkpt lat="46.54362" lon="5.53345">
        <ele>528.8</ele>
        <time>2022-05-27T15:15:54Z</time>
      </trkpt>
      <trkpt lat="46.54367" lon="5.53321">
        <ele>528.2</ele>
        <time>2022-05-27T15:15:56Z</time>
      </trkpt>
      <trkpt lat="46.54378" lon="5.53297">
        <ele>527.6</ele>
        <time>2022-05-27T15:15:58Z</time>
      </trkpt>
      <trkpt lat="46.54391" lon="5.53279">
        <ele>527</ele>
        <time>2022-05-27T15:16:00Z</time>
      </trkpt>
      <trkpt lat="46.54399" lon="5.53273">
        <ele>526.6</ele>
        <time>2022-05-27T15:16:01Z</time>
      </trkpt>
      <trkpt lat="46.54406" lon="5.53269">
        <ele>526.2</ele>
        <time>2022-05-27T15:16:02Z</time>
      </trkpt>
      <trkpt lat="46.54433" lon="5.5326">
        <ele>524.6</ele>
        <time>2022-05-27T15:16:05Z</time>
      </trkpt>
      <trkpt lat="46.5446" lon="5.53254">
        <ele>523.6</ele>
        <time>2022-05-27T15:16:08Z</time>
      </trkpt>
      <trkpt lat="46.54489" lon="5.53247">
        <ele>522</ele>
        <time>2022-05-27T15:16:11Z</time>
      </trkpt>
      <trkpt lat="46.54511" lon="5.53243">
        <ele>521.2</ele>
        <time>2022-05-27T15:16:13Z</time>
      </trkpt>
      <trkpt lat="46.54522" lon="5.5324">
        <ele>520.6</ele>
        <time>2022-05-27T15:16:14Z</time>
      </trkpt>
      <trkpt lat="46.54551" lon="5.53232">
        <ele>519.4</ele>
        <time>2022-05-27T15:16:17Z</time>
      </trkpt>
      <trkpt lat="46.54574" lon="5.53226">
        <ele>518.2</ele>
        <time>2022-05-27T15:16:19Z</time>
      </trkpt>
      <trkpt lat="46.54583" lon="5.53223">
        <ele>517.4</ele>
        <time>2022-05-27T15:16:20Z</time>
      </trkpt>
      <trkpt lat="46.54595" lon="5.53219">
        <ele>516.4</ele>
        <time>2022-05-27T15:16:21Z</time>
      </trkpt>
      <trkpt lat="46.54614" lon="5.53211">
        <ele>514.8</ele>
        <time>2022-05-27T15:16:23Z</time>
      </trkpt>
      <trkpt lat="46.54646" lon="5.532">
        <ele>513.6</ele>
        <time>2022-05-27T15:16:26Z</time>
      </trkpt>
      <trkpt lat="46.54657" lon="5.53199">
        <ele>512.2</ele>
        <time>2022-05-27T15:16:27Z</time>
      </trkpt>
      <trkpt lat="46.54679" lon="5.53198">
        <ele>510.6</ele>
        <time>2022-05-27T15:16:29Z</time>
      </trkpt>
      <trkpt lat="46.5469" lon="5.53198">
        <ele>509.8</ele>
        <time>2022-05-27T15:16:30Z</time>
      </trkpt>
      <trkpt lat="46.54701" lon="5.532">
        <ele>509.4</ele>
        <time>2022-05-27T15:16:31Z</time>
      </trkpt>
      <trkpt lat="46.54724" lon="5.53203">
        <ele>508</ele>
        <time>2022-05-27T15:16:33Z</time>
      </trkpt>
      <trkpt lat="46.54746" lon="5.53203">
        <ele>506.6</ele>
        <time>2022-05-27T15:16:35Z</time>
      </trkpt>
      <trkpt lat="46.54757" lon="5.53201">
        <ele>506.2</ele>
        <time>2022-05-27T15:16:36Z</time>
      </trkpt>
      <trkpt lat="46.54767" lon="5.53199">
        <ele>504.8</ele>
        <time>2022-05-27T15:16:37Z</time>
      </trkpt>
      <trkpt lat="46.54788" lon="5.53191">
        <ele>503.6</ele>
        <time>2022-05-27T15:16:39Z</time>
      </trkpt>
      <trkpt lat="46.54798" lon="5.53186">
        <ele>503.4</ele>
        <time>2022-05-27T15:16:40Z</time>
      </trkpt>
      <trkpt lat="46.54818" lon="5.53175">
        <ele>502</ele>
        <time>2022-05-27T15:16:42Z</time>
      </trkpt>
      <trkpt lat="46.54857" lon="5.53154">
        <ele>500.8</ele>
        <time>2022-05-27T15:16:46Z</time>
      </trkpt>
      <trkpt lat="46.54866" lon="5.53148">
        <ele>500.6</ele>
        <time>2022-05-27T15:16:47Z</time>
      </trkpt>
      <trkpt lat="46.54875" lon="5.5314">
        <ele>500.4</ele>
        <time>2022-05-27T15:16:48Z</time>
      </trkpt>
      <trkpt lat="46.54889" lon="5.53121">
        <ele>500.4</ele>
        <time>2022-05-27T15:16:50Z</time>
      </trkpt>
      <trkpt lat="46.54908" lon="5.53085">
        <ele>499.8</ele>
        <time>2022-05-27T15:16:53Z</time>
      </trkpt>
      <trkpt lat="46.54925" lon="5.53047">
        <ele>498.8</ele>
        <time>2022-05-27T15:16:56Z</time>
      </trkpt>
      <trkpt lat="46.5493" lon="5.53034">
        <ele>498.6</ele>
        <time>2022-05-27T15:16:57Z</time>
      </trkpt>
      <trkpt lat="46.54941" lon="5.53008">
        <ele>497.4</ele>
        <time>2022-05-27T15:16:59Z</time>
      </trkpt>
      <trkpt lat="46.54951" lon="5.5298">
        <ele>496.4</ele>
        <time>2022-05-27T15:17:01Z</time>
      </trkpt>
      <trkpt lat="46.54955" lon="5.52962">
        <ele>495.8</ele>
        <time>2022-05-27T15:17:02Z</time>
      </trkpt>
      <trkpt lat="46.54961" lon="5.52935">
        <ele>494.8</ele>
        <time>2022-05-27T15:17:04Z</time>
      </trkpt>
      <trkpt lat="46.54978" lon="5.52878">
        <ele>493.8</ele>
        <time>2022-05-27T15:17:08Z</time>
      </trkpt>
      <trkpt lat="46.54984" lon="5.52866">
        <ele>493.2</ele>
        <time>2022-05-27T15:17:09Z</time>
      </trkpt>
      <trkpt lat="46.55003" lon="5.52833">
        <ele>492</ele>
        <time>2022-05-27T15:17:12Z</time>
      </trkpt>
      <trkpt lat="46.55035" lon="5.52788">
        <ele>491.4</ele>
        <time>2022-05-27T15:17:17Z</time>
      </trkpt>
      <trkpt lat="46.55065" lon="5.52729">
        <ele>491.6</ele>
        <time>2022-05-27T15:17:23Z</time>
      </trkpt>
      <trkpt lat="46.55084" lon="5.52678">
        <ele>491.6</ele>
        <time>2022-05-27T15:17:28Z</time>
      </trkpt>
      <trkpt lat="46.55098" lon="5.52639">
        <ele>491.6</ele>
        <time>2022-05-27T15:17:32Z</time>
      </trkpt>
      <trkpt lat="46.551" lon="5.52629">
        <ele>491.6</ele>
        <time>2022-05-27T15:17:33Z</time>
      </trkpt>
      <trkpt lat="46.55101" lon="5.5262">
        <ele>491.6</ele>
        <time>2022-05-27T15:17:34Z</time>
      </trkpt>
      <trkpt lat="46.551" lon="5.52602">
        <ele>491.8</ele>
        <time>2022-05-27T15:17:36Z</time>
      </trkpt>
      <trkpt lat="46.55097" lon="5.52592">
        <ele>492</ele>
        <time>2022-05-27T15:17:37Z</time>
      </trkpt>
      <trkpt lat="46.55088" lon="5.52562">
        <ele>493</ele>
        <time>2022-05-27T15:17:41Z</time>
      </trkpt>
      <trkpt lat="46.55081" lon="5.52543">
        <ele>494</ele>
        <time>2022-05-27T15:17:44Z</time>
      </trkpt>
      <trkpt lat="46.55075" lon="5.52524">
        <ele>495.2</ele>
        <time>2022-05-27T15:17:47Z</time>
      </trkpt>
      <trkpt lat="46.5507" lon="5.5251">
        <ele>495.8</ele>
        <time>2022-05-27T15:17:49Z</time>
      </trkpt>
      <trkpt lat="46.55065" lon="5.52492">
        <ele>496.4</ele>
        <time>2022-05-27T15:17:52Z</time>
      </trkpt>
      <trkpt lat="46.55059" lon="5.52475">
        <ele>497.2</ele>
        <time>2022-05-27T15:17:55Z</time>
      </trkpt>
      <trkpt lat="46.55057" lon="5.52469">
        <ele>497.6</ele>
        <time>2022-05-27T15:17:56Z</time>
      </trkpt>
      <trkpt lat="46.55048" lon="5.52444">
        <ele>498.8</ele>
        <time>2022-05-27T15:18:00Z</time>
      </trkpt>
      <trkpt lat="46.55043" lon="5.52427">
        <ele>499.6</ele>
        <time>2022-05-27T15:18:03Z</time>
      </trkpt>
      <trkpt lat="46.55039" lon="5.52416">
        <ele>500.2</ele>
        <time>2022-05-27T15:18:05Z</time>
      </trkpt>
      <trkpt lat="46.5503" lon="5.52387">
        <ele>501.4</ele>
        <time>2022-05-27T15:18:10Z</time>
      </trkpt>
      <trkpt lat="46.55026" lon="5.52376">
        <ele>502</ele>
        <time>2022-05-27T15:18:12Z</time>
      </trkpt>
      <trkpt lat="46.5502" lon="5.5236">
        <ele>502.6</ele>
        <time>2022-05-27T15:18:15Z</time>
      </trkpt>
      <trkpt lat="46.55013" lon="5.52341">
        <ele>503.8</ele>
        <time>2022-05-27T15:18:19Z</time>
      </trkpt>
      <trkpt lat="46.55001" lon="5.52318">
        <ele>505</ele>
        <time>2022-05-27T15:18:24Z</time>
      </trkpt>
      <trkpt lat="46.5499" lon="5.52301">
        <ele>505.8</ele>
        <time>2022-05-27T15:18:28Z</time>
      </trkpt>
      <trkpt lat="46.54984" lon="5.52293">
        <ele>506</ele>
        <time>2022-05-27T15:18:30Z</time>
      </trkpt>
      <trkpt lat="46.54964" lon="5.52276">
        <ele>507.2</ele>
        <time>2022-05-27T15:18:36Z</time>
      </trkpt>
      <trkpt lat="46.5496" lon="5.52273">
        <ele>507.4</ele>
        <time>2022-05-27T15:18:37Z</time>
      </trkpt>
      <trkpt lat="46.54946" lon="5.52265">
        <ele>508.4</ele>
        <time>2022-05-27T15:18:41Z</time>
      </trkpt>
      <trkpt lat="46.54926" lon="5.52256">
        <ele>509.4</ele>
        <time>2022-05-27T15:18:46Z</time>
      </trkpt>
      <trkpt lat="46.54919" lon="5.52253">
        <ele>510</ele>
        <time>2022-05-27T15:18:48Z</time>
      </trkpt>
      <trkpt lat="46.54907" lon="5.52249">
        <ele>510.6</ele>
        <time>2022-05-27T15:18:51Z</time>
      </trkpt>
      <trkpt lat="46.54892" lon="5.52243">
        <ele>511.8</ele>
        <time>2022-05-27T15:18:55Z</time>
      </trkpt>
      <trkpt lat="46.54873" lon="5.52235">
        <ele>513</ele>
        <time>2022-05-27T15:19:00Z</time>
      </trkpt>
      <trkpt lat="46.5485" lon="5.52226">
        <ele>514</ele>
        <time>2022-05-27T15:19:06Z</time>
      </trkpt>
      <trkpt lat="46.54839" lon="5.5222">
        <ele>514.8</ele>
        <time>2022-05-27T15:19:09Z</time>
      </trkpt>
      <trkpt lat="46.54828" lon="5.52214">
        <ele>515.2</ele>
        <time>2022-05-27T15:19:12Z</time>
      </trkpt>
      <trkpt lat="46.54811" lon="5.52202">
        <ele>516.4</ele>
        <time>2022-05-27T15:19:17Z</time>
      </trkpt>
      <trkpt lat="46.54803" lon="5.52197">
        <ele>516.8</ele>
        <time>2022-05-27T15:19:19Z</time>
      </trkpt>
      <trkpt lat="46.54783" lon="5.52181">
        <ele>517.8</ele>
        <time>2022-05-27T15:19:25Z</time>
      </trkpt>
      <trkpt lat="46.54771" lon="5.52171">
        <ele>519.4</ele>
        <time>2022-05-27T15:19:28Z</time>
      </trkpt>
      <trkpt lat="46.54764" lon="5.52166">
        <ele>519.8</ele>
        <time>2022-05-27T15:19:30Z</time>
      </trkpt>
      <trkpt lat="46.54753" lon="5.52159">
        <ele>520.2</ele>
        <time>2022-05-27T15:19:33Z</time>
      </trkpt>
      <trkpt lat="46.54746" lon="5.52153">
        <ele>520.6</ele>
        <time>2022-05-27T15:19:35Z</time>
      </trkpt>
      <trkpt lat="46.54738" lon="5.5215">
        <ele>521.4</ele>
        <time>2022-05-27T15:19:37Z</time>
      </trkpt>
      <trkpt lat="46.54729" lon="5.52146">
        <ele>522.2</ele>
        <time>2022-05-27T15:19:39Z</time>
      </trkpt>
      <trkpt lat="46.54709" lon="5.52139">
        <ele>523.2</ele>
        <time>2022-05-27T15:19:44Z</time>
      </trkpt>
      <trkpt lat="46.54698" lon="5.52136">
        <ele>524</ele>
        <time>2022-05-27T15:19:47Z</time>
      </trkpt>
      <trkpt lat="46.5469" lon="5.52134">
        <ele>524.8</ele>
        <time>2022-05-27T15:19:49Z</time>
      </trkpt>
      <trkpt lat="46.54678" lon="5.5213">
        <ele>525.4</ele>
        <time>2022-05-27T15:19:52Z</time>
      </trkpt>
      <trkpt lat="46.54671" lon="5.52126">
        <ele>526</ele>
        <time>2022-05-27T15:19:54Z</time>
      </trkpt>
      <trkpt lat="46.54653" lon="5.52115">
        <ele>527</ele>
        <time>2022-05-27T15:19:59Z</time>
      </trkpt>
      <trkpt lat="46.54636" lon="5.52102">
        <ele>528.2</ele>
        <time>2022-05-27T15:20:04Z</time>
      </trkpt>
      <trkpt lat="46.54626" lon="5.52094">
        <ele>529.2</ele>
        <time>2022-05-27T15:20:07Z</time>
      </trkpt>
      <trkpt lat="46.54619" lon="5.52088">
        <ele>529.4</ele>
        <time>2022-05-27T15:20:09Z</time>
      </trkpt>
      <trkpt lat="46.54608" lon="5.52077">
        <ele>530.2</ele>
        <time>2022-05-27T15:20:12Z</time>
      </trkpt>
      <trkpt lat="46.5458" lon="5.52046">
        <ele>531</ele>
        <time>2022-05-27T15:20:19Z</time>
      </trkpt>
      <trkpt lat="46.54539" lon="5.52">
        <ele>531.4</ele>
        <time>2022-05-27T15:20:28Z</time>
      </trkpt>
      <trkpt lat="46.54503" lon="5.5196">
        <ele>531.6</ele>
        <time>2022-05-27T15:20:35Z</time>
      </trkpt>
      <trkpt lat="46.54469" lon="5.51921">
        <ele>531.2</ele>
        <time>2022-05-27T15:20:41Z</time>
      </trkpt>
      <trkpt lat="46.54435" lon="5.51883">
        <ele>530.6</ele>
        <time>2022-05-27T15:20:47Z</time>
      </trkpt>
      <trkpt lat="46.54408" lon="5.51853">
        <ele>530.8</ele>
        <time>2022-05-27T15:20:52Z</time>
      </trkpt>
      <trkpt lat="46.54369" lon="5.51811">
        <ele>531.6</ele>
        <time>2022-05-27T15:21:00Z</time>
      </trkpt>
      <trkpt lat="46.54355" lon="5.51796">
        <ele>532.4</ele>
        <time>2022-05-27T15:21:03Z</time>
      </trkpt>
      <trkpt lat="46.54338" lon="5.51784">
        <ele>533.6</ele>
        <time>2022-05-27T15:21:06Z</time>
      </trkpt>
      <trkpt lat="46.54315" lon="5.51771">
        <ele>534.6</ele>
        <time>2022-05-27T15:21:10Z</time>
      </trkpt>
      <trkpt lat="46.54287" lon="5.51759">
        <ele>535.8</ele>
        <time>2022-05-27T15:21:15Z</time>
      </trkpt>
      <trkpt lat="46.54279" lon="5.51756">
        <ele>536</ele>
        <time>2022-05-27T15:21:16Z</time>
      </trkpt>
      <trkpt lat="46.54261" lon="5.51749">
        <ele>537</ele>
        <time>2022-05-27T15:21:19Z</time>
      </trkpt>
      <trkpt lat="46.54239" lon="5.51737">
        <ele>537.8</ele>
        <time>2022-05-27T15:21:23Z</time>
      </trkpt>
      <trkpt lat="46.54234" lon="5.51733">
        <ele>538</ele>
        <time>2022-05-27T15:21:24Z</time>
      </trkpt>
      <trkpt lat="46.54199" lon="5.51697">
        <ele>539</ele>
        <time>2022-05-27T15:21:31Z</time>
      </trkpt>
      <trkpt lat="46.54154" lon="5.51642">
        <ele>539.4</ele>
        <time>2022-05-27T15:21:40Z</time>
      </trkpt>
      <trkpt lat="46.54124" lon="5.51606">
        <ele>540</ele>
        <time>2022-05-27T15:21:46Z</time>
      </trkpt>
      <trkpt lat="46.54084" lon="5.51554">
        <ele>540</ele>
        <time>2022-05-27T15:21:53Z</time>
      </trkpt>
      <trkpt lat="46.54053" lon="5.51515">
        <ele>539</ele>
        <time>2022-05-27T15:21:58Z</time>
      </trkpt>
      <trkpt lat="46.54048" lon="5.51508">
        <ele>539</ele>
        <time>2022-05-27T15:21:59Z</time>
      </trkpt>
      <trkpt lat="46.54016" lon="5.51469">
        <ele>538</ele>
        <time>2022-05-27T15:22:04Z</time>
      </trkpt>
      <trkpt lat="46.53994" lon="5.51443">
        <ele>538</ele>
        <time>2022-05-27T15:22:08Z</time>
      </trkpt>
      <trkpt lat="46.53966" lon="5.51412">
        <ele>539.2</ele>
        <time>2022-05-27T15:22:14Z</time>
      </trkpt>
      <trkpt lat="46.53957" lon="5.51402">
        <ele>539.8</ele>
        <time>2022-05-27T15:22:16Z</time>
      </trkpt>
      <trkpt lat="46.53953" lon="5.51397">
        <ele>540.4</ele>
        <time>2022-05-27T15:22:17Z</time>
      </trkpt>
      <trkpt lat="46.53935" lon="5.51377">
        <ele>541.6</ele>
        <time>2022-05-27T15:22:21Z</time>
      </trkpt>
      <trkpt lat="46.53922" lon="5.51363">
        <ele>542.8</ele>
        <time>2022-05-27T15:22:24Z</time>
      </trkpt>
      <trkpt lat="46.53918" lon="5.51357">
        <ele>542.8</ele>
        <time>2022-05-27T15:22:25Z</time>
      </trkpt>
      <trkpt lat="46.53887" lon="5.51323">
        <ele>543.8</ele>
        <time>2022-05-27T15:22:32Z</time>
      </trkpt>
      <trkpt lat="46.5387" lon="5.51305">
        <ele>544.6</ele>
        <time>2022-05-27T15:22:36Z</time>
      </trkpt>
      <trkpt lat="46.53863" lon="5.51297">
        <ele>545</ele>
        <time>2022-05-27T15:22:38Z</time>
      </trkpt>
      <trkpt lat="46.53835" lon="5.51265">
        <ele>546.2</ele>
        <time>2022-05-27T15:22:45Z</time>
      </trkpt>
      <trkpt lat="46.53816" lon="5.51239">
        <ele>547.4</ele>
        <time>2022-05-27T15:22:50Z</time>
      </trkpt>
      <trkpt lat="46.53809" lon="5.51227">
        <ele>547.4</ele>
        <time>2022-05-27T15:22:52Z</time>
      </trkpt>
      <trkpt lat="46.53783" lon="5.51176">
        <ele>547.4</ele>
        <time>2022-05-27T15:22:58Z</time>
      </trkpt>
      <trkpt lat="46.53755" lon="5.51123">
        <ele>546</ele>
        <time>2022-05-27T15:23:03Z</time>
      </trkpt>
      <trkpt lat="46.53751" lon="5.51114">
        <ele>545.6</ele>
        <time>2022-05-27T15:23:04Z</time>
      </trkpt>
      <trkpt lat="46.53732" lon="5.51075">
        <ele>544.8</ele>
        <time>2022-05-27T15:23:07Z</time>
      </trkpt>
      <trkpt lat="46.53714" lon="5.5104">
        <ele>543</ele>
        <time>2022-05-27T15:23:10Z</time>
      </trkpt>
      <trkpt lat="46.53709" lon="5.51028">
        <ele>542.2</ele>
        <time>2022-05-27T15:23:11Z</time>
      </trkpt>
      <trkpt lat="46.53703" lon="5.51016">
        <ele>541.4</ele>
        <time>2022-05-27T15:23:12Z</time>
      </trkpt>
      <trkpt lat="46.53684" lon="5.50979">
        <ele>540.2</ele>
        <time>2022-05-27T15:23:15Z</time>
      </trkpt>
      <trkpt lat="46.53659" lon="5.50928">
        <ele>538.6</ele>
        <time>2022-05-27T15:23:19Z</time>
      </trkpt>
      <trkpt lat="46.53653" lon="5.50915">
        <ele>538.2</ele>
        <time>2022-05-27T15:23:20Z</time>
      </trkpt>
      <trkpt lat="46.53642" lon="5.50892">
        <ele>536.8</ele>
        <time>2022-05-27T15:23:22Z</time>
      </trkpt>
      <trkpt lat="46.53627" lon="5.50863">
        <ele>536</ele>
        <time>2022-05-27T15:23:24Z</time>
      </trkpt>
      <trkpt lat="46.53616" lon="5.5084">
        <ele>535</ele>
        <time>2022-05-27T15:23:26Z</time>
      </trkpt>
      <trkpt lat="46.53595" lon="5.50798">
        <ele>533.6</ele>
        <time>2022-05-27T15:23:29Z</time>
      </trkpt>
      <trkpt lat="46.5359" lon="5.50787">
        <ele>533.4</ele>
        <time>2022-05-27T15:23:30Z</time>
      </trkpt>
      <trkpt lat="46.5357" lon="5.50746">
        <ele>532.4</ele>
        <time>2022-05-27T15:23:33Z</time>
      </trkpt>
      <trkpt lat="46.53545" lon="5.50696">
        <ele>531.2</ele>
        <time>2022-05-27T15:23:37Z</time>
      </trkpt>
      <trkpt lat="46.53526" lon="5.50657">
        <ele>530</ele>
        <time>2022-05-27T15:23:40Z</time>
      </trkpt>
      <trkpt lat="46.53512" lon="5.50631">
        <ele>529.4</ele>
        <time>2022-05-27T15:23:42Z</time>
      </trkpt>
      <trkpt lat="46.535" lon="5.50605">
        <ele>528.6</ele>
        <time>2022-05-27T15:23:44Z</time>
      </trkpt>
      <trkpt lat="46.5347" lon="5.50545">
        <ele>527.6</ele>
        <time>2022-05-27T15:23:49Z</time>
      </trkpt>
      <trkpt lat="46.53458" lon="5.50521">
        <ele>527.6</ele>
        <time>2022-05-27T15:23:51Z</time>
      </trkpt>
      <trkpt lat="46.53425" lon="5.50452">
        <ele>527.6</ele>
        <time>2022-05-27T15:23:57Z</time>
      </trkpt>
      <trkpt lat="46.53414" lon="5.5043">
        <ele>527.2</ele>
        <time>2022-05-27T15:23:59Z</time>
      </trkpt>
      <trkpt lat="46.53383" lon="5.50368">
        <ele>527.2</ele>
        <time>2022-05-27T15:24:05Z</time>
      </trkpt>
      <trkpt lat="46.53356" lon="5.50314">
        <ele>527.6</ele>
        <time>2022-05-27T15:24:10Z</time>
      </trkpt>
      <trkpt lat="46.53322" lon="5.50246">
        <ele>527</ele>
        <time>2022-05-27T15:24:16Z</time>
      </trkpt>
      <trkpt lat="46.53304" lon="5.5021">
        <ele>526.8</ele>
        <time>2022-05-27T15:24:19Z</time>
      </trkpt>
      <trkpt lat="46.53292" lon="5.50186">
        <ele>526.4</ele>
        <time>2022-05-27T15:24:21Z</time>
      </trkpt>
      <trkpt lat="46.53274" lon="5.50149">
        <ele>524.6</ele>
        <time>2022-05-27T15:24:24Z</time>
      </trkpt>
      <trkpt lat="46.53261" lon="5.50123">
        <ele>524</ele>
        <time>2022-05-27T15:24:26Z</time>
      </trkpt>
      <trkpt lat="46.53255" lon="5.5011">
        <ele>523.4</ele>
        <time>2022-05-27T15:24:27Z</time>
      </trkpt>
      <trkpt lat="46.53241" lon="5.50083">
        <ele>522</ele>
        <time>2022-05-27T15:24:29Z</time>
      </trkpt>
      <trkpt lat="46.5322" lon="5.5004">
        <ele>520.4</ele>
        <time>2022-05-27T15:24:32Z</time>
      </trkpt>
      <trkpt lat="46.53212" lon="5.50023">
        <ele>520</ele>
        <time>2022-05-27T15:24:33Z</time>
      </trkpt>
      <trkpt lat="46.53206" lon="5.50011">
        <ele>518.6</ele>
        <time>2022-05-27T15:24:34Z</time>
      </trkpt>
      <trkpt lat="46.53192" lon="5.49982">
        <ele>517</ele>
        <time>2022-05-27T15:24:36Z</time>
      </trkpt>
      <trkpt lat="46.53176" lon="5.49949">
        <ele>515</ele>
        <time>2022-05-27T15:24:38Z</time>
      </trkpt>
      <trkpt lat="46.53161" lon="5.49919">
        <ele>513.6</ele>
        <time>2022-05-27T15:24:40Z</time>
      </trkpt>
      <trkpt lat="46.53146" lon="5.49888">
        <ele>512.4</ele>
        <time>2022-05-27T15:24:42Z</time>
      </trkpt>
      <trkpt lat="46.53139" lon="5.49874">
        <ele>510.8</ele>
        <time>2022-05-27T15:24:43Z</time>
      </trkpt>
      <trkpt lat="46.53124" lon="5.49844">
        <ele>509.2</ele>
        <time>2022-05-27T15:24:45Z</time>
      </trkpt>
      <trkpt lat="46.5311" lon="5.49815">
        <ele>507.6</ele>
        <time>2022-05-27T15:24:47Z</time>
      </trkpt>
      <trkpt lat="46.5309" lon="5.49774">
        <ele>506.4</ele>
        <time>2022-05-27T15:24:50Z</time>
      </trkpt>
      <trkpt lat="46.53083" lon="5.4976">
        <ele>506.2</ele>
        <time>2022-05-27T15:24:51Z</time>
      </trkpt>
      <trkpt lat="46.53059" lon="5.49708">
        <ele>505.4</ele>
        <time>2022-05-27T15:24:55Z</time>
      </trkpt>
      <trkpt lat="46.53047" lon="5.49684">
        <ele>505.6</ele>
        <time>2022-05-27T15:24:57Z</time>
      </trkpt>
      <trkpt lat="46.53022" lon="5.49635">
        <ele>506.8</ele>
        <time>2022-05-27T15:25:02Z</time>
      </trkpt>
      <trkpt lat="46.53005" lon="5.4961">
        <ele>508</ele>
        <time>2022-05-27T15:25:05Z</time>
      </trkpt>
      <trkpt lat="46.52993" lon="5.49593">
        <ele>508.4</ele>
        <time>2022-05-27T15:25:07Z</time>
      </trkpt>
      <trkpt lat="46.52982" lon="5.49579">
        <ele>509</ele>
        <time>2022-05-27T15:25:09Z</time>
      </trkpt>
      <trkpt lat="46.52959" lon="5.49555">
        <ele>510</ele>
        <time>2022-05-27T15:25:13Z</time>
      </trkpt>
      <trkpt lat="46.52944" lon="5.49539">
        <ele>511.2</ele>
        <time>2022-05-27T15:25:16Z</time>
      </trkpt>
      <trkpt lat="46.52922" lon="5.49516">
        <ele>512.4</ele>
        <time>2022-05-27T15:25:20Z</time>
      </trkpt>
      <trkpt lat="46.52917" lon="5.4951">
        <ele>512.4</ele>
        <time>2022-05-27T15:25:21Z</time>
      </trkpt>
      <trkpt lat="46.52881" lon="5.49458">
        <ele>513</ele>
        <time>2022-05-27T15:25:28Z</time>
      </trkpt>
      <trkpt lat="46.52865" lon="5.49434">
        <ele>513.4</ele>
        <time>2022-05-27T15:25:31Z</time>
      </trkpt>
      <trkpt lat="46.52824" lon="5.49373">
        <ele>513.6</ele>
        <time>2022-05-27T15:25:39Z</time>
      </trkpt>
      <trkpt lat="46.52785" lon="5.49315">
        <ele>513.4</ele>
        <time>2022-05-27T15:25:46Z</time>
      </trkpt>
      <trkpt lat="46.52767" lon="5.49288">
        <ele>513.4</ele>
        <time>2022-05-27T15:25:49Z</time>
      </trkpt>
      <trkpt lat="46.52729" lon="5.49232">
        <ele>513.4</ele>
        <time>2022-05-27T15:25:56Z</time>
      </trkpt>
      <trkpt lat="46.52704" lon="5.49194">
        <ele>514</ele>
        <time>2022-05-27T15:26:01Z</time>
      </trkpt>
      <trkpt lat="46.527" lon="5.49187">
        <ele>514.4</ele>
        <time>2022-05-27T15:26:02Z</time>
      </trkpt>
      <trkpt lat="46.52681" lon="5.4916">
        <ele>515.6</ele>
        <time>2022-05-27T15:26:06Z</time>
      </trkpt>
      <trkpt lat="46.52672" lon="5.49146">
        <ele>516.2</ele>
        <time>2022-05-27T15:26:08Z</time>
      </trkpt>
      <trkpt lat="46.52659" lon="5.49128">
        <ele>516.8</ele>
        <time>2022-05-27T15:26:11Z</time>
      </trkpt>
      <trkpt lat="46.5264" lon="5.49099">
        <ele>517.4</ele>
        <time>2022-05-27T15:26:16Z</time>
      </trkpt>
      <trkpt lat="46.52632" lon="5.49088">
        <ele>517.8</ele>
        <time>2022-05-27T15:26:18Z</time>
      </trkpt>
      <trkpt lat="46.52614" lon="5.4906">
        <ele>518.8</ele>
        <time>2022-05-27T15:26:23Z</time>
      </trkpt>
      <trkpt lat="46.52608" lon="5.49049">
        <ele>518.8</ele>
        <time>2022-05-27T15:26:25Z</time>
      </trkpt>
      <trkpt lat="46.52599" lon="5.49029">
        <ele>519</ele>
        <time>2022-05-27T15:26:28Z</time>
      </trkpt>
      <trkpt lat="46.52597" lon="5.49023">
        <ele>519.2</ele>
        <time>2022-05-27T15:26:29Z</time>
      </trkpt>
      <trkpt lat="46.52588" lon="5.4898">
        <ele>519.8</ele>
        <time>2022-05-27T15:26:34Z</time>
      </trkpt>
      <trkpt lat="46.52577" lon="5.4892">
        <ele>519.6</ele>
        <time>2022-05-27T15:26:40Z</time>
      </trkpt>
      <trkpt lat="46.52565" lon="5.48848">
        <ele>518.8</ele>
        <time>2022-05-27T15:26:47Z</time>
      </trkpt>
      <trkpt lat="46.52564" lon="5.48839">
        <ele>518.8</ele>
        <time>2022-05-27T15:26:48Z</time>
      </trkpt>
      <trkpt lat="46.52564" lon="5.48825">
        <ele>518.8</ele>
        <time>2022-05-27T15:26:49Z</time>
      </trkpt>
      <trkpt lat="46.52568" lon="5.48795">
        <ele>518.6</ele>
        <time>2022-05-27T15:26:52Z</time>
      </trkpt>
      <trkpt lat="46.52582" lon="5.48732">
        <ele>518.4</ele>
        <time>2022-05-27T15:26:58Z</time>
      </trkpt>
      <trkpt lat="46.52589" lon="5.48704">
        <ele>518.6</ele>
        <time>2022-05-27T15:27:01Z</time>
      </trkpt>
      <trkpt lat="46.52593" lon="5.48686">
        <ele>518.6</ele>
        <time>2022-05-27T15:27:03Z</time>
      </trkpt>
      <trkpt lat="46.52597" lon="5.4867">
        <ele>518.8</ele>
        <time>2022-05-27T15:27:05Z</time>
      </trkpt>
      <trkpt lat="46.52603" lon="5.48636">
        <ele>518.8</ele>
        <time>2022-05-27T15:27:08Z</time>
      </trkpt>
      <trkpt lat="46.52616" lon="5.48581">
        <ele>518.2</ele>
        <time>2022-05-27T15:27:13Z</time>
      </trkpt>
      <trkpt lat="46.52626" lon="5.48563">
        <ele>517.8</ele>
        <time>2022-05-27T15:27:15Z</time>
      </trkpt>
      <trkpt lat="46.52631" lon="5.48556">
        <ele>517.6</ele>
        <time>2022-05-27T15:27:16Z</time>
      </trkpt>
      <trkpt lat="46.52643" lon="5.4854">
        <ele>517.2</ele>
        <time>2022-05-27T15:27:18Z</time>
      </trkpt>
      <trkpt lat="46.52649" lon="5.4852">
        <ele>517</ele>
        <time>2022-05-27T15:27:20Z</time>
      </trkpt>
      <trkpt lat="46.52648" lon="5.48508">
        <ele>516.8</ele>
        <time>2022-05-27T15:27:21Z</time>
      </trkpt>
      <trkpt lat="46.52646" lon="5.48496">
        <ele>516.8</ele>
        <time>2022-05-27T15:27:22Z</time>
      </trkpt>
      <trkpt lat="46.52628" lon="5.48452">
        <ele>515.8</ele>
        <time>2022-05-27T15:27:26Z</time>
      </trkpt>
      <trkpt lat="46.52624" lon="5.48442">
        <ele>515.4</ele>
        <time>2022-05-27T15:27:27Z</time>
      </trkpt>
      <trkpt lat="46.52618" lon="5.48414">
        <ele>514.6</ele>
        <time>2022-05-27T15:27:29Z</time>
      </trkpt>
      <trkpt lat="46.52617" lon="5.48399">
        <ele>514</ele>
        <time>2022-05-27T15:27:30Z</time>
      </trkpt>
      <trkpt lat="46.52615" lon="5.48373">
        <ele>512.6</ele>
        <time>2022-05-27T15:27:32Z</time>
      </trkpt>
      <trkpt lat="46.52613" lon="5.48356">
        <ele>512.2</ele>
        <time>2022-05-27T15:27:33Z</time>
      </trkpt>
      <trkpt lat="46.52611" lon="5.48344">
        <ele>511.4</ele>
        <time>2022-05-27T15:27:34Z</time>
      </trkpt>
      <trkpt lat="46.52604" lon="5.48314">
        <ele>510.8</ele>
        <time>2022-05-27T15:27:36Z</time>
      </trkpt>
      <trkpt lat="46.52598" lon="5.48299">
        <ele>510.4</ele>
        <time>2022-05-27T15:27:37Z</time>
      </trkpt>
      <trkpt lat="46.52592" lon="5.48286">
        <ele>510</ele>
        <time>2022-05-27T15:27:38Z</time>
      </trkpt>
      <trkpt lat="46.52586" lon="5.48273">
        <ele>509.2</ele>
        <time>2022-05-27T15:27:39Z</time>
      </trkpt>
      <trkpt lat="46.52578" lon="5.48262">
        <ele>508.8</ele>
        <time>2022-05-27T15:27:40Z</time>
      </trkpt>
      <trkpt lat="46.52569" lon="5.4825">
        <ele>508</ele>
        <time>2022-05-27T15:27:41Z</time>
      </trkpt>
      <trkpt lat="46.52559" lon="5.48239">
        <ele>507.2</ele>
        <time>2022-05-27T15:27:42Z</time>
      </trkpt>
      <trkpt lat="46.52549" lon="5.48229">
        <ele>506.8</ele>
        <time>2022-05-27T15:27:43Z</time>
      </trkpt>
      <trkpt lat="46.52538" lon="5.48221">
        <ele>506.2</ele>
        <time>2022-05-27T15:27:44Z</time>
      </trkpt>
      <trkpt lat="46.52513" lon="5.48203">
        <ele>505.4</ele>
        <time>2022-05-27T15:27:46Z</time>
      </trkpt>
      <trkpt lat="46.52478" lon="5.48181">
        <ele>504.2</ele>
        <time>2022-05-27T15:27:49Z</time>
      </trkpt>
      <trkpt lat="46.52466" lon="5.48174">
        <ele>503.6</ele>
        <time>2022-05-27T15:27:50Z</time>
      </trkpt>
      <trkpt lat="46.5245" lon="5.48166">
        <ele>503</ele>
        <time>2022-05-27T15:27:51Z</time>
      </trkpt>
      <trkpt lat="46.52412" lon="5.48155">
        <ele>501.4</ele>
        <time>2022-05-27T15:27:54Z</time>
      </trkpt>
      <trkpt lat="46.5239" lon="5.48153">
        <ele>500</ele>
        <time>2022-05-27T15:27:56Z</time>
      </trkpt>
      <trkpt lat="46.5237" lon="5.48158">
        <ele>497.6</ele>
        <time>2022-05-27T15:27:58Z</time>
      </trkpt>
      <trkpt lat="46.52354" lon="5.48162">
        <ele>496.4</ele>
        <time>2022-05-27T15:28:00Z</time>
      </trkpt>
      <trkpt lat="46.52352" lon="5.48161">
        <ele>496</ele>
        <time>2022-05-27T15:28:01Z</time>
      </trkpt>
      <trkpt lat="46.52358" lon="5.48155">
        <ele>495.2</ele>
        <time>2022-05-27T15:28:03Z</time>
      </trkpt>
      <trkpt lat="46.52364" lon="5.48153">
        <ele>494.8</ele>
        <time>2022-05-27T15:28:04Z</time>
      </trkpt>
      <trkpt lat="46.52378" lon="5.4815">
        <ele>494.4</ele>
        <time>2022-05-27T15:28:06Z</time>
      </trkpt>
      <trkpt lat="46.52389" lon="5.48147">
        <ele>493.4</ele>
        <time>2022-05-27T15:28:07Z</time>
      </trkpt>
      <trkpt lat="46.52407" lon="5.48141">
        <ele>492.2</ele>
        <time>2022-05-27T15:28:09Z</time>
      </trkpt>
      <trkpt lat="46.52417" lon="5.48138">
        <ele>491.8</ele>
        <time>2022-05-27T15:28:10Z</time>
      </trkpt>
      <trkpt lat="46.52425" lon="5.48135">
        <ele>490.6</ele>
        <time>2022-05-27T15:28:11Z</time>
      </trkpt>
      <trkpt lat="46.52447" lon="5.48127">
        <ele>489.2</ele>
        <time>2022-05-27T15:28:13Z</time>
      </trkpt>
      <trkpt lat="46.52476" lon="5.4812">
        <ele>487.8</ele>
        <time>2022-05-27T15:28:16Z</time>
      </trkpt>
      <trkpt lat="46.52498" lon="5.48113">
        <ele>485.8</ele>
        <time>2022-05-27T15:28:18Z</time>
      </trkpt>
      <trkpt lat="46.52507" lon="5.48111">
        <ele>484.4</ele>
        <time>2022-05-27T15:28:19Z</time>
      </trkpt>
      <trkpt lat="46.52528" lon="5.48108">
        <ele>483</ele>
        <time>2022-05-27T15:28:21Z</time>
      </trkpt>
      <trkpt lat="46.5254" lon="5.48108">
        <ele>482</ele>
        <time>2022-05-27T15:28:22Z</time>
      </trkpt>
      <trkpt lat="46.52549" lon="5.48108">
        <ele>480.6</ele>
        <time>2022-05-27T15:28:23Z</time>
      </trkpt>
      <trkpt lat="46.52569" lon="5.48111">
        <ele>479.6</ele>
        <time>2022-05-27T15:28:25Z</time>
      </trkpt>
      <trkpt lat="46.5259" lon="5.48115">
        <ele>478.4</ele>
        <time>2022-05-27T15:28:27Z</time>
      </trkpt>
      <trkpt lat="46.52601" lon="5.48117">
        <ele>477.6</ele>
        <time>2022-05-27T15:28:28Z</time>
      </trkpt>
      <trkpt lat="46.52622" lon="5.48122">
        <ele>477</ele>
        <time>2022-05-27T15:28:30Z</time>
      </trkpt>
      <trkpt lat="46.52663" lon="5.48131">
        <ele>475.8</ele>
        <time>2022-05-27T15:28:34Z</time>
      </trkpt>
      <trkpt lat="46.52684" lon="5.48136">
        <ele>475.2</ele>
        <time>2022-05-27T15:28:36Z</time>
      </trkpt>
      <trkpt lat="46.52697" lon="5.48138">
        <ele>474.4</ele>
        <time>2022-05-27T15:28:37Z</time>
      </trkpt>
      <trkpt lat="46.52728" lon="5.48144">
        <ele>472.6</ele>
        <time>2022-05-27T15:28:40Z</time>
      </trkpt>
      <trkpt lat="46.52745" lon="5.48147">
        <ele>471.8</ele>
        <time>2022-05-27T15:28:42Z</time>
      </trkpt>
      <trkpt lat="46.52754" lon="5.48148">
        <ele>471.6</ele>
        <time>2022-05-27T15:28:43Z</time>
      </trkpt>
      <trkpt lat="46.52788" lon="5.48152">
        <ele>471.2</ele>
        <time>2022-05-27T15:28:47Z</time>
      </trkpt>
      <trkpt lat="46.52797" lon="5.48151">
        <ele>471.2</ele>
        <time>2022-05-27T15:28:48Z</time>
      </trkpt>
      <trkpt lat="46.52816" lon="5.48143">
        <ele>471.2</ele>
        <time>2022-05-27T15:28:50Z</time>
      </trkpt>
      <trkpt lat="46.52837" lon="5.4812">
        <ele>470.8</ele>
        <time>2022-05-27T15:28:53Z</time>
      </trkpt>
      <trkpt lat="46.52839" lon="5.48107">
        <ele>470.4</ele>
        <time>2022-05-27T15:28:54Z</time>
      </trkpt>
      <trkpt lat="46.52845" lon="5.4808">
        <ele>468.8</ele>
        <time>2022-05-27T15:28:56Z</time>
      </trkpt>
      <trkpt lat="46.52853" lon="5.4805">
        <ele>467.6</ele>
        <time>2022-05-27T15:28:58Z</time>
      </trkpt>
      <trkpt lat="46.52857" lon="5.48037">
        <ele>467.6</ele>
        <time>2022-05-27T15:28:59Z</time>
      </trkpt>
      <trkpt lat="46.52867" lon="5.48">
        <ele>466.4</ele>
        <time>2022-05-27T15:29:02Z</time>
      </trkpt>
      <trkpt lat="46.52869" lon="5.47991">
        <ele>466</ele>
        <time>2022-05-27T15:29:03Z</time>
      </trkpt>
      <trkpt lat="46.52868" lon="5.47978">
        <ele>465.4</ele>
        <time>2022-05-27T15:29:05Z</time>
      </trkpt>
      <trkpt lat="46.52866" lon="5.47975">
        <ele>465.2</ele>
        <time>2022-05-27T15:29:06Z</time>
      </trkpt>
      <trkpt lat="46.52861" lon="5.47969">
        <ele>464.8</ele>
        <time>2022-05-27T15:29:08Z</time>
      </trkpt>
      <trkpt lat="46.5286" lon="5.47968">
        <ele>464.8</ele>
        <time>2022-05-27T15:29:09Z</time>
      </trkpt>
      <trkpt lat="46.52858" lon="5.47969">
        <ele>464.6</ele>
        <time>2022-05-27T15:29:12Z</time>
      </trkpt>
      <trkpt lat="46.52858" lon="5.47969">
        <ele>464.6</ele>
        <time>2022-05-27T15:29:13Z</time>
      </trkpt>
    </trkseg>
  </trk>
</gpx>